<?xml version="1.0" encoding="UTF-8" standalone="no" ?>
<gpx xmlns="http://www.topografix.com/GPX/1/1" xmlns:xsi="http://www.w3.org/2001/XMLSchema-instance" xsi:schemaLocation="http://www.topografix.com/GPX/1/1 http://www.topografix.com/GPX/1/1/gpx.xsd" version="1.1" creator="VisuGPX - https://www.visugpx.com">
  <metadata>
    <name>Pornichet 16/08/2020</name>
    <desc><![CDATA[Sortie VTT du dimanche 16 août 2020]]></desc>
  </metadata>
  <trk>
    <name><![CDATA[Pornichet Cyclisme]]></name>
    <trkseg>
      <trkpt lat="47.26409" lon="-2.31549">
        <ele>12</ele>
        <time>2020-08-16T06:55:09.000Z</time>
      </trkpt>
      <trkpt lat="47.26409" lon="-2.31549">
        <ele>12</ele>
        <time>2020-08-16T06:55:10.000Z</time>
      </trkpt>
      <trkpt lat="47.26406" lon="-2.31553">
        <ele>12.39999961853</ele>
        <time>2020-08-16T06:55:14.000Z</time>
      </trkpt>
      <trkpt lat="47.26406" lon="-2.3156">
        <ele>12.39999961853</ele>
        <time>2020-08-16T06:55:16.000Z</time>
      </trkpt>
      <trkpt lat="47.26407" lon="-2.31568">
        <ele>12.39999961853</ele>
        <time>2020-08-16T06:55:18.000Z</time>
      </trkpt>
      <trkpt lat="47.26408" lon="-2.31586">
        <ele>12.39999961853</ele>
        <time>2020-08-16T06:55:22.000Z</time>
      </trkpt>
      <trkpt lat="47.26408" lon="-2.3162">
        <ele>12.39999961853</ele>
        <time>2020-08-16T06:55:29.000Z</time>
      </trkpt>
      <trkpt lat="47.26409" lon="-2.31647">
        <ele>12.39999961853</ele>
        <time>2020-08-16T06:55:34.000Z</time>
      </trkpt>
      <trkpt lat="47.26409" lon="-2.31661">
        <ele>12.39999961853</ele>
        <time>2020-08-16T06:55:37.000Z</time>
      </trkpt>
      <trkpt lat="47.26408" lon="-2.31665">
        <ele>12.39999961853</ele>
        <time>2020-08-16T06:55:38.000Z</time>
      </trkpt>
      <trkpt lat="47.26399" lon="-2.3167">
        <ele>12.39999961853</ele>
        <time>2020-08-16T06:55:41.000Z</time>
      </trkpt>
      <trkpt lat="47.26381" lon="-2.31677">
        <ele>12.39999961853</ele>
        <time>2020-08-16T06:55:45.000Z</time>
      </trkpt>
      <trkpt lat="47.26371" lon="-2.31684">
        <ele>12.39999961853</ele>
        <time>2020-08-16T06:55:47.000Z</time>
      </trkpt>
      <trkpt lat="47.26356" lon="-2.31692">
        <ele>12.39999961853</ele>
        <time>2020-08-16T06:55:50.000Z</time>
      </trkpt>
      <trkpt lat="47.2635" lon="-2.31694">
        <ele>12.39999961853</ele>
        <time>2020-08-16T06:55:51.000Z</time>
      </trkpt>
      <trkpt lat="47.2634" lon="-2.317">
        <ele>11.800000190735</ele>
        <time>2020-08-16T06:55:53.000Z</time>
      </trkpt>
      <trkpt lat="47.26335" lon="-2.31701">
        <ele>11.39999961853</ele>
        <time>2020-08-16T06:55:54.000Z</time>
      </trkpt>
      <trkpt lat="47.2633" lon="-2.31704">
        <ele>11</ele>
        <time>2020-08-16T06:55:55.000Z</time>
      </trkpt>
      <trkpt lat="47.26326" lon="-2.31706">
        <ele>10.60000038147</ele>
        <time>2020-08-16T06:55:56.000Z</time>
      </trkpt>
      <trkpt lat="47.26322" lon="-2.31708">
        <ele>10.199999809265</ele>
        <time>2020-08-16T06:55:57.000Z</time>
      </trkpt>
      <trkpt lat="47.26318" lon="-2.31712">
        <ele>10.199999809265</ele>
        <time>2020-08-16T06:55:58.000Z</time>
      </trkpt>
      <trkpt lat="47.26313" lon="-2.31714">
        <ele>10.199999809265</ele>
        <time>2020-08-16T06:55:59.000Z</time>
      </trkpt>
      <trkpt lat="47.26305" lon="-2.31719">
        <ele>10.199999809265</ele>
        <time>2020-08-16T06:56:01.000Z</time>
      </trkpt>
      <trkpt lat="47.26302" lon="-2.3173">
        <ele>9.8000001907349</ele>
        <time>2020-08-16T06:56:03.000Z</time>
      </trkpt>
      <trkpt lat="47.26301" lon="-2.31735">
        <ele>9.3999996185303</ele>
        <time>2020-08-16T06:56:04.000Z</time>
      </trkpt>
      <trkpt lat="47.26302" lon="-2.31741">
        <ele>9</ele>
        <time>2020-08-16T06:56:05.000Z</time>
      </trkpt>
      <trkpt lat="47.26302" lon="-2.31746">
        <ele>8.6000003814697</ele>
        <time>2020-08-16T06:56:06.000Z</time>
      </trkpt>
      <trkpt lat="47.26303" lon="-2.31751">
        <ele>8</ele>
        <time>2020-08-16T06:56:07.000Z</time>
      </trkpt>
      <trkpt lat="47.26304" lon="-2.31756">
        <ele>8</ele>
        <time>2020-08-16T06:56:08.000Z</time>
      </trkpt>
      <trkpt lat="47.2631" lon="-2.31781">
        <ele>8</ele>
        <time>2020-08-16T06:56:13.000Z</time>
      </trkpt>
      <trkpt lat="47.26312" lon="-2.31816">
        <ele>8</ele>
        <time>2020-08-16T06:56:19.000Z</time>
      </trkpt>
      <trkpt lat="47.26309" lon="-2.31859">
        <ele>8</ele>
        <time>2020-08-16T06:56:26.000Z</time>
      </trkpt>
      <trkpt lat="47.26303" lon="-2.31883">
        <ele>8</ele>
        <time>2020-08-16T06:56:30.000Z</time>
      </trkpt>
      <trkpt lat="47.263" lon="-2.31887">
        <ele>8</ele>
        <time>2020-08-16T06:56:31.000Z</time>
      </trkpt>
      <trkpt lat="47.2628" lon="-2.31908">
        <ele>8</ele>
        <time>2020-08-16T06:56:36.000Z</time>
      </trkpt>
      <trkpt lat="47.26265" lon="-2.3193">
        <ele>8</ele>
        <time>2020-08-16T06:56:42.000Z</time>
      </trkpt>
      <trkpt lat="47.2625" lon="-2.3196">
        <ele>8</ele>
        <time>2020-08-16T06:56:48.000Z</time>
      </trkpt>
      <trkpt lat="47.26243" lon="-2.3197">
        <ele>8</ele>
        <time>2020-08-16T06:56:51.000Z</time>
      </trkpt>
      <trkpt lat="47.2624" lon="-2.31971">
        <ele>8</ele>
        <time>2020-08-16T06:56:52.000Z</time>
      </trkpt>
      <trkpt lat="47.26221" lon="-2.31985">
        <ele>8</ele>
        <time>2020-08-16T06:56:59.000Z</time>
      </trkpt>
      <trkpt lat="47.26205" lon="-2.31995">
        <ele>8</ele>
        <time>2020-08-16T06:57:04.000Z</time>
      </trkpt>
      <trkpt lat="47.26201" lon="-2.32">
        <ele>8</ele>
        <time>2020-08-16T06:57:06.000Z</time>
      </trkpt>
      <trkpt lat="47.262" lon="-2.32008">
        <ele>8</ele>
        <time>2020-08-16T06:57:08.000Z</time>
      </trkpt>
      <trkpt lat="47.26199" lon="-2.32013">
        <ele>8</ele>
        <time>2020-08-16T06:57:10.000Z</time>
      </trkpt>
      <trkpt lat="47.26197" lon="-2.32015">
        <ele>8</ele>
        <time>2020-08-16T06:57:11.000Z</time>
      </trkpt>
      <trkpt lat="47.2619" lon="-2.32018">
        <ele>8</ele>
        <time>2020-08-16T06:57:14.000Z</time>
      </trkpt>
      <trkpt lat="47.2618" lon="-2.32021">
        <ele>8</ele>
        <time>2020-08-16T06:57:18.000Z</time>
      </trkpt>
      <trkpt lat="47.26177" lon="-2.32023">
        <ele>8</ele>
        <time>2020-08-16T06:57:19.000Z</time>
      </trkpt>
      <trkpt lat="47.26164" lon="-2.3203">
        <ele>8</ele>
        <time>2020-08-16T06:57:22.000Z</time>
      </trkpt>
      <trkpt lat="47.26161" lon="-2.32034">
        <ele>8</ele>
        <time>2020-08-16T06:57:23.000Z</time>
      </trkpt>
      <trkpt lat="47.26154" lon="-2.3205">
        <ele>8</ele>
        <time>2020-08-16T06:57:26.000Z</time>
      </trkpt>
      <trkpt lat="47.2615" lon="-2.32063">
        <ele>8</ele>
        <time>2020-08-16T06:57:28.000Z</time>
      </trkpt>
      <trkpt lat="47.26138" lon="-2.32106">
        <ele>8</ele>
        <time>2020-08-16T06:57:35.000Z</time>
      </trkpt>
      <trkpt lat="47.26124" lon="-2.32148">
        <ele>8</ele>
        <time>2020-08-16T06:57:42.000Z</time>
      </trkpt>
      <trkpt lat="47.26108" lon="-2.32185">
        <ele>8</ele>
        <time>2020-08-16T06:57:49.000Z</time>
      </trkpt>
      <trkpt lat="47.26092" lon="-2.32219">
        <ele>8</ele>
        <time>2020-08-16T06:57:56.000Z</time>
      </trkpt>
      <trkpt lat="47.26089" lon="-2.32224">
        <ele>8</ele>
        <time>2020-08-16T06:57:57.000Z</time>
      </trkpt>
      <trkpt lat="47.26073" lon="-2.32245">
        <ele>8</ele>
        <time>2020-08-16T06:58:02.000Z</time>
      </trkpt>
      <trkpt lat="47.2605" lon="-2.3227">
        <ele>8</ele>
        <time>2020-08-16T06:58:08.000Z</time>
      </trkpt>
      <trkpt lat="47.26024" lon="-2.32298">
        <ele>8</ele>
        <time>2020-08-16T06:58:15.000Z</time>
      </trkpt>
      <trkpt lat="47.26013" lon="-2.3231">
        <ele>8</ele>
        <time>2020-08-16T06:58:18.000Z</time>
      </trkpt>
      <trkpt lat="47.26006" lon="-2.32317">
        <ele>8</ele>
        <time>2020-08-16T06:58:20.000Z</time>
      </trkpt>
      <trkpt lat="47.25998" lon="-2.32327">
        <ele>8</ele>
        <time>2020-08-16T06:58:22.000Z</time>
      </trkpt>
      <trkpt lat="47.25981" lon="-2.32355">
        <ele>8</ele>
        <time>2020-08-16T06:58:27.000Z</time>
      </trkpt>
      <trkpt lat="47.25956" lon="-2.32386">
        <ele>8</ele>
        <time>2020-08-16T06:58:34.000Z</time>
      </trkpt>
      <trkpt lat="47.25929" lon="-2.32424">
        <ele>8</ele>
        <time>2020-08-16T06:58:42.000Z</time>
      </trkpt>
      <trkpt lat="47.25903" lon="-2.32454">
        <ele>8</ele>
        <time>2020-08-16T06:58:49.000Z</time>
      </trkpt>
      <trkpt lat="47.25885" lon="-2.32469">
        <ele>8</ele>
        <time>2020-08-16T06:58:54.000Z</time>
      </trkpt>
      <trkpt lat="47.25877" lon="-2.32474">
        <ele>8</ele>
        <time>2020-08-16T06:58:56.000Z</time>
      </trkpt>
      <trkpt lat="47.25863" lon="-2.32478">
        <ele>8</ele>
        <time>2020-08-16T06:58:59.000Z</time>
      </trkpt>
      <trkpt lat="47.2584" lon="-2.32474">
        <ele>8</ele>
        <time>2020-08-16T06:59:04.000Z</time>
      </trkpt>
      <trkpt lat="47.25805" lon="-2.32457">
        <ele>8</ele>
        <time>2020-08-16T06:59:12.000Z</time>
      </trkpt>
      <trkpt lat="47.25786" lon="-2.32459">
        <ele>8</ele>
        <time>2020-08-16T06:59:17.000Z</time>
      </trkpt>
      <trkpt lat="47.25776" lon="-2.3245">
        <ele>8</ele>
        <time>2020-08-16T06:59:20.000Z</time>
      </trkpt>
      <trkpt lat="47.25774" lon="-2.32445">
        <ele>8</ele>
        <time>2020-08-16T06:59:21.000Z</time>
      </trkpt>
      <trkpt lat="47.25767" lon="-2.32431">
        <ele>8</ele>
        <time>2020-08-16T06:59:24.000Z</time>
      </trkpt>
      <trkpt lat="47.25763" lon="-2.32429">
        <ele>8</ele>
        <time>2020-08-16T06:59:25.000Z</time>
      </trkpt>
      <trkpt lat="47.25739" lon="-2.32427">
        <ele>8</ele>
        <time>2020-08-16T06:59:30.000Z</time>
      </trkpt>
      <trkpt lat="47.25698" lon="-2.32425">
        <ele>8</ele>
        <time>2020-08-16T06:59:38.000Z</time>
      </trkpt>
      <trkpt lat="47.25667" lon="-2.32424">
        <ele>8</ele>
        <time>2020-08-16T06:59:45.000Z</time>
      </trkpt>
      <trkpt lat="47.25664" lon="-2.32427">
        <ele>8</ele>
        <time>2020-08-16T06:59:46.000Z</time>
      </trkpt>
      <trkpt lat="47.25662" lon="-2.32438">
        <ele>8</ele>
        <time>2020-08-16T06:59:48.000Z</time>
      </trkpt>
      <trkpt lat="47.25668" lon="-2.32462">
        <ele>8</ele>
        <time>2020-08-16T06:59:52.000Z</time>
      </trkpt>
      <trkpt lat="47.25687" lon="-2.32521">
        <ele>8.6000003814697</ele>
        <time>2020-08-16T07:00:02.000Z</time>
      </trkpt>
      <trkpt lat="47.25689" lon="-2.32526">
        <ele>9</ele>
        <time>2020-08-16T07:00:03.000Z</time>
      </trkpt>
      <trkpt lat="47.25691" lon="-2.32531">
        <ele>9.3999996185303</ele>
        <time>2020-08-16T07:00:04.000Z</time>
      </trkpt>
      <trkpt lat="47.25692" lon="-2.32537">
        <ele>9.8000001907349</ele>
        <time>2020-08-16T07:00:05.000Z</time>
      </trkpt>
      <trkpt lat="47.25694" lon="-2.32542">
        <ele>10.199999809265</ele>
        <time>2020-08-16T07:00:06.000Z</time>
      </trkpt>
      <trkpt lat="47.257" lon="-2.32559">
        <ele>10.199999809265</ele>
        <time>2020-08-16T07:00:09.000Z</time>
      </trkpt>
      <trkpt lat="47.25711" lon="-2.32605">
        <ele>10.199999809265</ele>
        <time>2020-08-16T07:00:17.000Z</time>
      </trkpt>
      <trkpt lat="47.25712" lon="-2.32611">
        <ele>10.199999809265</ele>
        <time>2020-08-16T07:00:18.000Z</time>
      </trkpt>
      <trkpt lat="47.2571" lon="-2.32617">
        <ele>10.60000038147</ele>
        <time>2020-08-16T07:00:19.000Z</time>
      </trkpt>
      <trkpt lat="47.25708" lon="-2.32621">
        <ele>11.199999809265</ele>
        <time>2020-08-16T07:00:20.000Z</time>
      </trkpt>
      <trkpt lat="47.25704" lon="-2.32625">
        <ele>11.60000038147</ele>
        <time>2020-08-16T07:00:21.000Z</time>
      </trkpt>
      <trkpt lat="47.257" lon="-2.32628">
        <ele>12</ele>
        <time>2020-08-16T07:00:22.000Z</time>
      </trkpt>
      <trkpt lat="47.25696" lon="-2.3263">
        <ele>12.39999961853</ele>
        <time>2020-08-16T07:00:23.000Z</time>
      </trkpt>
      <trkpt lat="47.25683" lon="-2.32635">
        <ele>12.39999961853</ele>
        <time>2020-08-16T07:00:26.000Z</time>
      </trkpt>
      <trkpt lat="47.25666" lon="-2.32643">
        <ele>12.800000190735</ele>
        <time>2020-08-16T07:00:30.000Z</time>
      </trkpt>
      <trkpt lat="47.25661" lon="-2.32644">
        <ele>13.199999809265</ele>
        <time>2020-08-16T07:00:31.000Z</time>
      </trkpt>
      <trkpt lat="47.25657" lon="-2.32646">
        <ele>13.60000038147</ele>
        <time>2020-08-16T07:00:32.000Z</time>
      </trkpt>
      <trkpt lat="47.25653" lon="-2.32647">
        <ele>14</ele>
        <time>2020-08-16T07:00:33.000Z</time>
      </trkpt>
      <trkpt lat="47.25649" lon="-2.32649">
        <ele>14.60000038147</ele>
        <time>2020-08-16T07:00:34.000Z</time>
      </trkpt>
      <trkpt lat="47.25642" lon="-2.32652">
        <ele>14.60000038147</ele>
        <time>2020-08-16T07:00:36.000Z</time>
      </trkpt>
      <trkpt lat="47.25621" lon="-2.3266">
        <ele>14.60000038147</ele>
        <time>2020-08-16T07:00:41.000Z</time>
      </trkpt>
      <trkpt lat="47.25589" lon="-2.32674">
        <ele>15</ele>
        <time>2020-08-16T07:00:49.000Z</time>
      </trkpt>
      <trkpt lat="47.25585" lon="-2.32676">
        <ele>15.800000190735</ele>
        <time>2020-08-16T07:00:50.000Z</time>
      </trkpt>
      <trkpt lat="47.2558" lon="-2.32677">
        <ele>16.200000762939</ele>
        <time>2020-08-16T07:00:51.000Z</time>
      </trkpt>
      <trkpt lat="47.25576" lon="-2.32678">
        <ele>16.60000038147</ele>
        <time>2020-08-16T07:00:52.000Z</time>
      </trkpt>
      <trkpt lat="47.25567" lon="-2.32682">
        <ele>16.60000038147</ele>
        <time>2020-08-16T07:00:54.000Z</time>
      </trkpt>
      <trkpt lat="47.25558" lon="-2.32686">
        <ele>16.60000038147</ele>
        <time>2020-08-16T07:00:56.000Z</time>
      </trkpt>
      <trkpt lat="47.25524" lon="-2.32702">
        <ele>16.60000038147</ele>
        <time>2020-08-16T07:01:04.000Z</time>
      </trkpt>
      <trkpt lat="47.25519" lon="-2.32703">
        <ele>16.60000038147</ele>
        <time>2020-08-16T07:01:05.000Z</time>
      </trkpt>
      <trkpt lat="47.25501" lon="-2.32703">
        <ele>16.60000038147</ele>
        <time>2020-08-16T07:01:09.000Z</time>
      </trkpt>
      <trkpt lat="47.25483" lon="-2.32708">
        <ele>16.60000038147</ele>
        <time>2020-08-16T07:01:13.000Z</time>
      </trkpt>
      <trkpt lat="47.25476" lon="-2.32714">
        <ele>16.60000038147</ele>
        <time>2020-08-16T07:01:15.000Z</time>
      </trkpt>
      <trkpt lat="47.25468" lon="-2.32723">
        <ele>16.60000038147</ele>
        <time>2020-08-16T07:01:17.000Z</time>
      </trkpt>
      <trkpt lat="47.25451" lon="-2.32745">
        <ele>16.60000038147</ele>
        <time>2020-08-16T07:01:22.000Z</time>
      </trkpt>
      <trkpt lat="47.25442" lon="-2.3276">
        <ele>16.60000038147</ele>
        <time>2020-08-16T07:01:25.000Z</time>
      </trkpt>
      <trkpt lat="47.25435" lon="-2.32777">
        <ele>16.60000038147</ele>
        <time>2020-08-16T07:01:28.000Z</time>
      </trkpt>
      <trkpt lat="47.25427" lon="-2.32792">
        <ele>16.200000762939</ele>
        <time>2020-08-16T07:01:31.000Z</time>
      </trkpt>
      <trkpt lat="47.25423" lon="-2.32796">
        <ele>15.800000190735</ele>
        <time>2020-08-16T07:01:32.000Z</time>
      </trkpt>
      <trkpt lat="47.2542" lon="-2.32801">
        <ele>15.39999961853</ele>
        <time>2020-08-16T07:01:33.000Z</time>
      </trkpt>
      <trkpt lat="47.25417" lon="-2.32806">
        <ele>15</ele>
        <time>2020-08-16T07:01:34.000Z</time>
      </trkpt>
      <trkpt lat="47.25413" lon="-2.32811">
        <ele>14.60000038147</ele>
        <time>2020-08-16T07:01:35.000Z</time>
      </trkpt>
      <trkpt lat="47.2541" lon="-2.32817">
        <ele>14.60000038147</ele>
        <time>2020-08-16T07:01:36.000Z</time>
      </trkpt>
      <trkpt lat="47.25403" lon="-2.32828">
        <ele>14.60000038147</ele>
        <time>2020-08-16T07:01:38.000Z</time>
      </trkpt>
      <trkpt lat="47.25374" lon="-2.32861">
        <ele>14.60000038147</ele>
        <time>2020-08-16T07:01:45.000Z</time>
      </trkpt>
      <trkpt lat="47.25336" lon="-2.32896">
        <ele>14.60000038147</ele>
        <time>2020-08-16T07:01:54.000Z</time>
      </trkpt>
      <trkpt lat="47.25327" lon="-2.32903">
        <ele>14.60000038147</ele>
        <time>2020-08-16T07:01:56.000Z</time>
      </trkpt>
      <trkpt lat="47.25313" lon="-2.32921">
        <ele>14.60000038147</ele>
        <time>2020-08-16T07:02:00.000Z</time>
      </trkpt>
      <trkpt lat="47.25309" lon="-2.32942">
        <ele>14.60000038147</ele>
        <time>2020-08-16T07:02:03.000Z</time>
      </trkpt>
      <trkpt lat="47.25316" lon="-2.32969">
        <ele>14.60000038147</ele>
        <time>2020-08-16T07:02:07.000Z</time>
      </trkpt>
      <trkpt lat="47.25318" lon="-2.32975">
        <ele>14.199999809265</ele>
        <time>2020-08-16T07:02:08.000Z</time>
      </trkpt>
      <trkpt lat="47.25321" lon="-2.32982">
        <ele>13.800000190735</ele>
        <time>2020-08-16T07:02:09.000Z</time>
      </trkpt>
      <trkpt lat="47.25323" lon="-2.32989">
        <ele>13.199999809265</ele>
        <time>2020-08-16T07:02:10.000Z</time>
      </trkpt>
      <trkpt lat="47.25326" lon="-2.32996">
        <ele>12.800000190735</ele>
        <time>2020-08-16T07:02:11.000Z</time>
      </trkpt>
      <trkpt lat="47.25328" lon="-2.33002">
        <ele>12.39999961853</ele>
        <time>2020-08-16T07:02:12.000Z</time>
      </trkpt>
      <trkpt lat="47.25336" lon="-2.33021">
        <ele>12.39999961853</ele>
        <time>2020-08-16T07:02:15.000Z</time>
      </trkpt>
      <trkpt lat="47.25354" lon="-2.33065">
        <ele>12.39999961853</ele>
        <time>2020-08-16T07:02:22.000Z</time>
      </trkpt>
      <trkpt lat="47.25365" lon="-2.33089">
        <ele>12.39999961853</ele>
        <time>2020-08-16T07:02:27.000Z</time>
      </trkpt>
      <trkpt lat="47.25367" lon="-2.33093">
        <ele>12.39999961853</ele>
        <time>2020-08-16T07:02:30.000Z</time>
      </trkpt>
      <trkpt lat="47.25369" lon="-2.33095">
        <ele>12.39999961853</ele>
        <time>2020-08-16T07:03:35.000Z</time>
      </trkpt>
      <trkpt lat="47.25372" lon="-2.33101">
        <ele>12.39999961853</ele>
        <time>2020-08-16T07:03:40.000Z</time>
      </trkpt>
      <trkpt lat="47.25373" lon="-2.3311">
        <ele>12.39999961853</ele>
        <time>2020-08-16T07:03:46.000Z</time>
      </trkpt>
      <trkpt lat="47.25377" lon="-2.33121">
        <ele>12.39999961853</ele>
        <time>2020-08-16T07:03:53.000Z</time>
      </trkpt>
      <trkpt lat="47.25379" lon="-2.3314">
        <ele>12.39999961853</ele>
        <time>2020-08-16T07:04:01.000Z</time>
      </trkpt>
      <trkpt lat="47.25377" lon="-2.33145">
        <ele>12.39999961853</ele>
        <time>2020-08-16T07:04:05.000Z</time>
      </trkpt>
      <trkpt lat="47.25378" lon="-2.33149">
        <ele>12.39999961853</ele>
        <time>2020-08-16T07:07:50.000Z</time>
      </trkpt>
      <trkpt lat="47.25385" lon="-2.33149">
        <ele>12.39999961853</ele>
        <time>2020-08-16T07:07:55.000Z</time>
      </trkpt>
      <trkpt lat="47.25387" lon="-2.33147">
        <ele>12.39999961853</ele>
        <time>2020-08-16T07:07:56.000Z</time>
      </trkpt>
      <trkpt lat="47.25389" lon="-2.33141">
        <ele>12.39999961853</ele>
        <time>2020-08-16T07:07:59.000Z</time>
      </trkpt>
      <trkpt lat="47.25389" lon="-2.3314">
        <ele>12.39999961853</ele>
        <time>2020-08-16T07:08:00.000Z</time>
      </trkpt>
      <trkpt lat="47.25389" lon="-2.33139">
        <ele>12.39999961853</ele>
        <time>2020-08-16T07:08:01.000Z</time>
      </trkpt>
      <trkpt lat="47.25389" lon="-2.33137">
        <ele>12.39999961853</ele>
        <time>2020-08-16T07:08:07.000Z</time>
      </trkpt>
      <trkpt lat="47.25392" lon="-2.33135">
        <ele>12.39999961853</ele>
        <time>2020-08-16T07:08:09.000Z</time>
      </trkpt>
      <trkpt lat="47.254" lon="-2.3313">
        <ele>12.39999961853</ele>
        <time>2020-08-16T07:08:14.000Z</time>
      </trkpt>
      <trkpt lat="47.25418" lon="-2.33122">
        <ele>12.39999961853</ele>
        <time>2020-08-16T07:08:19.000Z</time>
      </trkpt>
      <trkpt lat="47.25441" lon="-2.33114">
        <ele>12.39999961853</ele>
        <time>2020-08-16T07:08:25.000Z</time>
      </trkpt>
      <trkpt lat="47.25475" lon="-2.33098">
        <ele>12.39999961853</ele>
        <time>2020-08-16T07:08:33.000Z</time>
      </trkpt>
      <trkpt lat="47.25491" lon="-2.33084">
        <ele>12.39999961853</ele>
        <time>2020-08-16T07:08:38.000Z</time>
      </trkpt>
      <trkpt lat="47.25506" lon="-2.33067">
        <ele>12.39999961853</ele>
        <time>2020-08-16T07:08:43.000Z</time>
      </trkpt>
      <trkpt lat="47.25529" lon="-2.33047">
        <ele>12.39999961853</ele>
        <time>2020-08-16T07:08:50.000Z</time>
      </trkpt>
      <trkpt lat="47.25549" lon="-2.33042">
        <ele>12.39999961853</ele>
        <time>2020-08-16T07:08:56.000Z</time>
      </trkpt>
      <trkpt lat="47.25572" lon="-2.33037">
        <ele>12.39999961853</ele>
        <time>2020-08-16T07:09:03.000Z</time>
      </trkpt>
      <trkpt lat="47.2559" lon="-2.33035">
        <ele>12.39999961853</ele>
        <time>2020-08-16T07:09:08.000Z</time>
      </trkpt>
      <trkpt lat="47.25611" lon="-2.33024">
        <ele>12.39999961853</ele>
        <time>2020-08-16T07:09:15.000Z</time>
      </trkpt>
      <trkpt lat="47.25621" lon="-2.33018">
        <ele>12.39999961853</ele>
        <time>2020-08-16T07:09:19.000Z</time>
      </trkpt>
      <trkpt lat="47.25622" lon="-2.33016">
        <ele>12.39999961853</ele>
        <time>2020-08-16T07:09:20.000Z</time>
      </trkpt>
      <trkpt lat="47.25621" lon="-2.3301">
        <ele>12.39999961853</ele>
        <time>2020-08-16T07:09:22.000Z</time>
      </trkpt>
      <trkpt lat="47.25618" lon="-2.33002">
        <ele>12.800000190735</ele>
        <time>2020-08-16T07:09:24.000Z</time>
      </trkpt>
      <trkpt lat="47.25616" lon="-2.32997">
        <ele>13.199999809265</ele>
        <time>2020-08-16T07:09:25.000Z</time>
      </trkpt>
      <trkpt lat="47.25615" lon="-2.32992">
        <ele>13.60000038147</ele>
        <time>2020-08-16T07:09:26.000Z</time>
      </trkpt>
      <trkpt lat="47.25614" lon="-2.32987">
        <ele>14.199999809265</ele>
        <time>2020-08-16T07:09:27.000Z</time>
      </trkpt>
      <trkpt lat="47.25612" lon="-2.32981">
        <ele>14.60000038147</ele>
        <time>2020-08-16T07:09:28.000Z</time>
      </trkpt>
      <trkpt lat="47.25608" lon="-2.32952">
        <ele>14.60000038147</ele>
        <time>2020-08-16T07:09:33.000Z</time>
      </trkpt>
      <trkpt lat="47.256" lon="-2.32904">
        <ele>14.60000038147</ele>
        <time>2020-08-16T07:09:41.000Z</time>
      </trkpt>
      <trkpt lat="47.25596" lon="-2.3287">
        <ele>15</ele>
        <time>2020-08-16T07:09:47.000Z</time>
      </trkpt>
      <trkpt lat="47.25595" lon="-2.32864">
        <ele>15.39999961853</ele>
        <time>2020-08-16T07:09:48.000Z</time>
      </trkpt>
      <trkpt lat="47.25594" lon="-2.32858">
        <ele>15.800000190735</ele>
        <time>2020-08-16T07:09:49.000Z</time>
      </trkpt>
      <trkpt lat="47.25594" lon="-2.32851">
        <ele>16.200000762939</ele>
        <time>2020-08-16T07:09:50.000Z</time>
      </trkpt>
      <trkpt lat="47.25593" lon="-2.32845">
        <ele>16.60000038147</ele>
        <time>2020-08-16T07:09:51.000Z</time>
      </trkpt>
      <trkpt lat="47.25592" lon="-2.32827">
        <ele>16.60000038147</ele>
        <time>2020-08-16T07:09:54.000Z</time>
      </trkpt>
      <trkpt lat="47.25593" lon="-2.32815">
        <ele>16.60000038147</ele>
        <time>2020-08-16T07:09:56.000Z</time>
      </trkpt>
      <trkpt lat="47.25596" lon="-2.32802">
        <ele>16.60000038147</ele>
        <time>2020-08-16T07:09:58.000Z</time>
      </trkpt>
      <trkpt lat="47.256" lon="-2.32778">
        <ele>16.60000038147</ele>
        <time>2020-08-16T07:10:02.000Z</time>
      </trkpt>
      <trkpt lat="47.25604" lon="-2.32718">
        <ele>16.60000038147</ele>
        <time>2020-08-16T07:10:12.000Z</time>
      </trkpt>
      <trkpt lat="47.25606" lon="-2.32673">
        <ele>16.60000038147</ele>
        <time>2020-08-16T07:10:20.000Z</time>
      </trkpt>
      <trkpt lat="47.25609" lon="-2.32667">
        <ele>16.60000038147</ele>
        <time>2020-08-16T07:10:22.000Z</time>
      </trkpt>
      <trkpt lat="47.25615" lon="-2.32663">
        <ele>16.60000038147</ele>
        <time>2020-08-16T07:10:24.000Z</time>
      </trkpt>
      <trkpt lat="47.2564" lon="-2.32651">
        <ele>16.60000038147</ele>
        <time>2020-08-16T07:10:31.000Z</time>
      </trkpt>
      <trkpt lat="47.25687" lon="-2.32632">
        <ele>16.60000038147</ele>
        <time>2020-08-16T07:10:41.000Z</time>
      </trkpt>
      <trkpt lat="47.25696" lon="-2.32628">
        <ele>16.200000762939</ele>
        <time>2020-08-16T07:10:43.000Z</time>
      </trkpt>
      <trkpt lat="47.25701" lon="-2.32625">
        <ele>15.39999961853</ele>
        <time>2020-08-16T07:10:44.000Z</time>
      </trkpt>
      <trkpt lat="47.25705" lon="-2.32622">
        <ele>14.800000190735</ele>
        <time>2020-08-16T07:10:45.000Z</time>
      </trkpt>
      <trkpt lat="47.25709" lon="-2.32617">
        <ele>14.39999961853</ele>
        <time>2020-08-16T07:10:46.000Z</time>
      </trkpt>
      <trkpt lat="47.25711" lon="-2.32611">
        <ele>14.39999961853</ele>
        <time>2020-08-16T07:10:47.000Z</time>
      </trkpt>
      <trkpt lat="47.25709" lon="-2.32588">
        <ele>14.39999961853</ele>
        <time>2020-08-16T07:10:51.000Z</time>
      </trkpt>
      <trkpt lat="47.25705" lon="-2.32575">
        <ele>14.39999961853</ele>
        <time>2020-08-16T07:10:53.000Z</time>
      </trkpt>
      <trkpt lat="47.25698" lon="-2.32553">
        <ele>14.39999961853</ele>
        <time>2020-08-16T07:10:56.000Z</time>
      </trkpt>
      <trkpt lat="47.25681" lon="-2.32503">
        <ele>14</ele>
        <time>2020-08-16T07:11:03.000Z</time>
      </trkpt>
      <trkpt lat="47.25679" lon="-2.32495">
        <ele>13.60000038147</ele>
        <time>2020-08-16T07:11:04.000Z</time>
      </trkpt>
      <trkpt lat="47.25676" lon="-2.32487">
        <ele>13</ele>
        <time>2020-08-16T07:11:05.000Z</time>
      </trkpt>
      <trkpt lat="47.25674" lon="-2.3248">
        <ele>12.60000038147</ele>
        <time>2020-08-16T07:11:06.000Z</time>
      </trkpt>
      <trkpt lat="47.25671" lon="-2.32472">
        <ele>12.199999809265</ele>
        <time>2020-08-16T07:11:07.000Z</time>
      </trkpt>
      <trkpt lat="47.25665" lon="-2.32449">
        <ele>12.199999809265</ele>
        <time>2020-08-16T07:11:10.000Z</time>
      </trkpt>
      <trkpt lat="47.25662" lon="-2.32435">
        <ele>11.800000190735</ele>
        <time>2020-08-16T07:11:12.000Z</time>
      </trkpt>
      <trkpt lat="47.25661" lon="-2.32429">
        <ele>11.39999961853</ele>
        <time>2020-08-16T07:11:13.000Z</time>
      </trkpt>
      <trkpt lat="47.25659" lon="-2.32423">
        <ele>10.800000190735</ele>
        <time>2020-08-16T07:11:14.000Z</time>
      </trkpt>
      <trkpt lat="47.25658" lon="-2.32418">
        <ele>10.39999961853</ele>
        <time>2020-08-16T07:11:15.000Z</time>
      </trkpt>
      <trkpt lat="47.25657" lon="-2.32412">
        <ele>10</ele>
        <time>2020-08-16T07:11:16.000Z</time>
      </trkpt>
      <trkpt lat="47.25658" lon="-2.32407">
        <ele>10</ele>
        <time>2020-08-16T07:11:17.000Z</time>
      </trkpt>
      <trkpt lat="47.25664" lon="-2.32404">
        <ele>10</ele>
        <time>2020-08-16T07:11:19.000Z</time>
      </trkpt>
      <trkpt lat="47.25675" lon="-2.32414">
        <ele>10</ele>
        <time>2020-08-16T07:11:22.000Z</time>
      </trkpt>
      <trkpt lat="47.2568" lon="-2.32418">
        <ele>10</ele>
        <time>2020-08-16T07:11:23.000Z</time>
      </trkpt>
      <trkpt lat="47.25692" lon="-2.32422">
        <ele>10</ele>
        <time>2020-08-16T07:11:25.000Z</time>
      </trkpt>
      <trkpt lat="47.2571" lon="-2.32424">
        <ele>10</ele>
        <time>2020-08-16T07:11:28.000Z</time>
      </trkpt>
      <trkpt lat="47.25728" lon="-2.32425">
        <ele>10</ele>
        <time>2020-08-16T07:11:31.000Z</time>
      </trkpt>
      <trkpt lat="47.25763" lon="-2.3242">
        <ele>10</ele>
        <time>2020-08-16T07:11:37.000Z</time>
      </trkpt>
      <trkpt lat="47.25778" lon="-2.32414">
        <ele>10</ele>
        <time>2020-08-16T07:11:40.000Z</time>
      </trkpt>
      <trkpt lat="47.25782" lon="-2.32416">
        <ele>10</ele>
        <time>2020-08-16T07:11:41.000Z</time>
      </trkpt>
      <trkpt lat="47.25792" lon="-2.32432">
        <ele>10</ele>
        <time>2020-08-16T07:11:44.000Z</time>
      </trkpt>
      <trkpt lat="47.25807" lon="-2.32461">
        <ele>10</ele>
        <time>2020-08-16T07:11:48.000Z</time>
      </trkpt>
      <trkpt lat="47.25813" lon="-2.32476">
        <ele>10</ele>
        <time>2020-08-16T07:11:50.000Z</time>
      </trkpt>
      <trkpt lat="47.25835" lon="-2.32508">
        <ele>10</ele>
        <time>2020-08-16T07:11:55.000Z</time>
      </trkpt>
      <trkpt lat="47.25863" lon="-2.3255">
        <ele>10</ele>
        <time>2020-08-16T07:12:02.000Z</time>
      </trkpt>
      <trkpt lat="47.25878" lon="-2.32571">
        <ele>9.6000003814697</ele>
        <time>2020-08-16T07:12:06.000Z</time>
      </trkpt>
      <trkpt lat="47.25882" lon="-2.32576">
        <ele>9.1999998092651</ele>
        <time>2020-08-16T07:12:07.000Z</time>
      </trkpt>
      <trkpt lat="47.25885" lon="-2.32582">
        <ele>8.8000001907349</ele>
        <time>2020-08-16T07:12:08.000Z</time>
      </trkpt>
      <trkpt lat="47.25889" lon="-2.32587">
        <ele>8.3999996185303</ele>
        <time>2020-08-16T07:12:09.000Z</time>
      </trkpt>
      <trkpt lat="47.25894" lon="-2.3259">
        <ele>8</ele>
        <time>2020-08-16T07:12:10.000Z</time>
      </trkpt>
      <trkpt lat="47.25912" lon="-2.32609">
        <ele>8</ele>
        <time>2020-08-16T07:12:14.000Z</time>
      </trkpt>
      <trkpt lat="47.2594" lon="-2.32644">
        <ele>8</ele>
        <time>2020-08-16T07:12:21.000Z</time>
      </trkpt>
      <trkpt lat="47.25944" lon="-2.32649">
        <ele>8</ele>
        <time>2020-08-16T07:12:22.000Z</time>
      </trkpt>
      <trkpt lat="47.25957" lon="-2.3266">
        <ele>8</ele>
        <time>2020-08-16T07:12:25.000Z</time>
      </trkpt>
      <trkpt lat="47.25976" lon="-2.3266">
        <ele>8</ele>
        <time>2020-08-16T07:12:29.000Z</time>
      </trkpt>
      <trkpt lat="47.2599" lon="-2.32659">
        <ele>8</ele>
        <time>2020-08-16T07:12:32.000Z</time>
      </trkpt>
      <trkpt lat="47.26005" lon="-2.32656">
        <ele>8</ele>
        <time>2020-08-16T07:12:35.000Z</time>
      </trkpt>
      <trkpt lat="47.26045" lon="-2.32649">
        <ele>8</ele>
        <time>2020-08-16T07:12:43.000Z</time>
      </trkpt>
      <trkpt lat="47.26082" lon="-2.32642">
        <ele>8</ele>
        <time>2020-08-16T07:12:51.000Z</time>
      </trkpt>
      <trkpt lat="47.26114" lon="-2.32638">
        <ele>8</ele>
        <time>2020-08-16T07:12:58.000Z</time>
      </trkpt>
      <trkpt lat="47.26142" lon="-2.32643">
        <ele>8</ele>
        <time>2020-08-16T07:13:04.000Z</time>
      </trkpt>
      <trkpt lat="47.26146" lon="-2.32645">
        <ele>8</ele>
        <time>2020-08-16T07:13:05.000Z</time>
      </trkpt>
      <trkpt lat="47.26176" lon="-2.32657">
        <ele>8</ele>
        <time>2020-08-16T07:13:11.000Z</time>
      </trkpt>
      <trkpt lat="47.26181" lon="-2.3266">
        <ele>8</ele>
        <time>2020-08-16T07:13:12.000Z</time>
      </trkpt>
      <trkpt lat="47.26207" lon="-2.32686">
        <ele>8</ele>
        <time>2020-08-16T07:13:18.000Z</time>
      </trkpt>
      <trkpt lat="47.26235" lon="-2.32725">
        <ele>8</ele>
        <time>2020-08-16T07:13:25.000Z</time>
      </trkpt>
      <trkpt lat="47.26275" lon="-2.3279">
        <ele>8</ele>
        <time>2020-08-16T07:13:35.000Z</time>
      </trkpt>
      <trkpt lat="47.26281" lon="-2.32806">
        <ele>8</ele>
        <time>2020-08-16T07:13:37.000Z</time>
      </trkpt>
      <trkpt lat="47.26287" lon="-2.32831">
        <ele>8</ele>
        <time>2020-08-16T07:13:40.000Z</time>
      </trkpt>
      <trkpt lat="47.26291" lon="-2.32854">
        <ele>8</ele>
        <time>2020-08-16T07:13:43.000Z</time>
      </trkpt>
      <trkpt lat="47.26295" lon="-2.32859">
        <ele>8</ele>
        <time>2020-08-16T07:13:44.000Z</time>
      </trkpt>
      <trkpt lat="47.2631" lon="-2.32865">
        <ele>8</ele>
        <time>2020-08-16T07:13:47.000Z</time>
      </trkpt>
      <trkpt lat="47.26321" lon="-2.32883">
        <ele>8</ele>
        <time>2020-08-16T07:13:50.000Z</time>
      </trkpt>
      <trkpt lat="47.26326" lon="-2.32898">
        <ele>8</ele>
        <time>2020-08-16T07:13:52.000Z</time>
      </trkpt>
      <trkpt lat="47.26336" lon="-2.32927">
        <ele>8</ele>
        <time>2020-08-16T07:13:56.000Z</time>
      </trkpt>
      <trkpt lat="47.26349" lon="-2.32968">
        <ele>8</ele>
        <time>2020-08-16T07:14:02.000Z</time>
      </trkpt>
      <trkpt lat="47.26353" lon="-2.32974">
        <ele>8</ele>
        <time>2020-08-16T07:14:03.000Z</time>
      </trkpt>
      <trkpt lat="47.26364" lon="-2.32987">
        <ele>8</ele>
        <time>2020-08-16T07:14:06.000Z</time>
      </trkpt>
      <trkpt lat="47.26367" lon="-2.33009">
        <ele>8</ele>
        <time>2020-08-16T07:14:09.000Z</time>
      </trkpt>
      <trkpt lat="47.26367" lon="-2.33017">
        <ele>8</ele>
        <time>2020-08-16T07:14:10.000Z</time>
      </trkpt>
      <trkpt lat="47.2637" lon="-2.3308">
        <ele>8</ele>
        <time>2020-08-16T07:14:18.000Z</time>
      </trkpt>
      <trkpt lat="47.26372" lon="-2.33111">
        <ele>8</ele>
        <time>2020-08-16T07:14:22.000Z</time>
      </trkpt>
      <trkpt lat="47.26375" lon="-2.33134">
        <ele>8</ele>
        <time>2020-08-16T07:14:25.000Z</time>
      </trkpt>
      <trkpt lat="47.26379" lon="-2.33185">
        <ele>8</ele>
        <time>2020-08-16T07:14:32.000Z</time>
      </trkpt>
      <trkpt lat="47.26383" lon="-2.33248">
        <ele>8</ele>
        <time>2020-08-16T07:14:41.000Z</time>
      </trkpt>
      <trkpt lat="47.26396" lon="-2.33265">
        <ele>8</ele>
        <time>2020-08-16T07:14:45.000Z</time>
      </trkpt>
      <trkpt lat="47.26406" lon="-2.33267">
        <ele>8</ele>
        <time>2020-08-16T07:14:47.000Z</time>
      </trkpt>
      <trkpt lat="47.26428" lon="-2.33269">
        <ele>8</ele>
        <time>2020-08-16T07:14:51.000Z</time>
      </trkpt>
      <trkpt lat="47.26478" lon="-2.33276">
        <ele>8</ele>
        <time>2020-08-16T07:15:01.000Z</time>
      </trkpt>
      <trkpt lat="47.26503" lon="-2.33282">
        <ele>8</ele>
        <time>2020-08-16T07:15:07.000Z</time>
      </trkpt>
      <trkpt lat="47.26522" lon="-2.3329">
        <ele>8</ele>
        <time>2020-08-16T07:15:12.000Z</time>
      </trkpt>
      <trkpt lat="47.26528" lon="-2.3329">
        <ele>8</ele>
        <time>2020-08-16T07:15:14.000Z</time>
      </trkpt>
      <trkpt lat="47.26532" lon="-2.33292">
        <ele>8</ele>
        <time>2020-08-16T07:15:16.000Z</time>
      </trkpt>
      <trkpt lat="47.26539" lon="-2.333">
        <ele>8</ele>
        <time>2020-08-16T07:15:20.000Z</time>
      </trkpt>
      <trkpt lat="47.26541" lon="-2.33299">
        <ele>8</ele>
        <time>2020-08-16T07:15:21.000Z</time>
      </trkpt>
      <trkpt lat="47.26549" lon="-2.33289">
        <ele>8</ele>
        <time>2020-08-16T07:15:24.000Z</time>
      </trkpt>
      <trkpt lat="47.26552" lon="-2.33285">
        <ele>8</ele>
        <time>2020-08-16T07:15:25.000Z</time>
      </trkpt>
      <trkpt lat="47.2657" lon="-2.33266">
        <ele>8</ele>
        <time>2020-08-16T07:15:30.000Z</time>
      </trkpt>
      <trkpt lat="47.26608" lon="-2.33227">
        <ele>8</ele>
        <time>2020-08-16T07:15:40.000Z</time>
      </trkpt>
      <trkpt lat="47.26641" lon="-2.33194">
        <ele>8</ele>
        <time>2020-08-16T07:15:48.000Z</time>
      </trkpt>
      <trkpt lat="47.26669" lon="-2.33166">
        <ele>8</ele>
        <time>2020-08-16T07:15:55.000Z</time>
      </trkpt>
      <trkpt lat="47.26698" lon="-2.33138">
        <ele>8</ele>
        <time>2020-08-16T07:16:02.000Z</time>
      </trkpt>
      <trkpt lat="47.26732" lon="-2.33101">
        <ele>8</ele>
        <time>2020-08-16T07:16:10.000Z</time>
      </trkpt>
      <trkpt lat="47.26752" lon="-2.33088">
        <ele>8</ele>
        <time>2020-08-16T07:16:15.000Z</time>
      </trkpt>
      <trkpt lat="47.26756" lon="-2.33091">
        <ele>8</ele>
        <time>2020-08-16T07:16:16.000Z</time>
      </trkpt>
      <trkpt lat="47.26763" lon="-2.33103">
        <ele>8</ele>
        <time>2020-08-16T07:16:18.000Z</time>
      </trkpt>
      <trkpt lat="47.26766" lon="-2.33125">
        <ele>8</ele>
        <time>2020-08-16T07:16:21.000Z</time>
      </trkpt>
      <trkpt lat="47.2676" lon="-2.33156">
        <ele>8</ele>
        <time>2020-08-16T07:16:25.000Z</time>
      </trkpt>
      <trkpt lat="47.26743" lon="-2.33215">
        <ele>8</ele>
        <time>2020-08-16T07:16:33.000Z</time>
      </trkpt>
      <trkpt lat="47.2673" lon="-2.33262">
        <ele>8</ele>
        <time>2020-08-16T07:16:39.000Z</time>
      </trkpt>
      <trkpt lat="47.2673" lon="-2.3327">
        <ele>8</ele>
        <time>2020-08-16T07:16:40.000Z</time>
      </trkpt>
      <trkpt lat="47.26733" lon="-2.33297">
        <ele>8</ele>
        <time>2020-08-16T07:16:43.000Z</time>
      </trkpt>
      <trkpt lat="47.26735" lon="-2.33307">
        <ele>8</ele>
        <time>2020-08-16T07:16:44.000Z</time>
      </trkpt>
      <trkpt lat="47.26743" lon="-2.33333">
        <ele>8</ele>
        <time>2020-08-16T07:16:47.000Z</time>
      </trkpt>
      <trkpt lat="47.26752" lon="-2.33371">
        <ele>8</ele>
        <time>2020-08-16T07:16:51.000Z</time>
      </trkpt>
      <trkpt lat="47.26754" lon="-2.33389">
        <ele>8</ele>
        <time>2020-08-16T07:16:53.000Z</time>
      </trkpt>
      <trkpt lat="47.2676" lon="-2.33443">
        <ele>8</ele>
        <time>2020-08-16T07:16:59.000Z</time>
      </trkpt>
      <trkpt lat="47.2677" lon="-2.33506">
        <ele>8</ele>
        <time>2020-08-16T07:17:07.000Z</time>
      </trkpt>
      <trkpt lat="47.26777" lon="-2.33564">
        <ele>8</ele>
        <time>2020-08-16T07:17:15.000Z</time>
      </trkpt>
      <trkpt lat="47.2678" lon="-2.33568">
        <ele>8</ele>
        <time>2020-08-16T07:17:16.000Z</time>
      </trkpt>
      <trkpt lat="47.26785" lon="-2.33573">
        <ele>8</ele>
        <time>2020-08-16T07:17:18.000Z</time>
      </trkpt>
      <trkpt lat="47.26806" lon="-2.33568">
        <ele>8</ele>
        <time>2020-08-16T07:17:23.000Z</time>
      </trkpt>
      <trkpt lat="47.26821" lon="-2.33562">
        <ele>8</ele>
        <time>2020-08-16T07:17:26.000Z</time>
      </trkpt>
      <trkpt lat="47.26831" lon="-2.33558">
        <ele>8</ele>
        <time>2020-08-16T07:17:28.000Z</time>
      </trkpt>
      <trkpt lat="47.26847" lon="-2.33551">
        <ele>8</ele>
        <time>2020-08-16T07:17:31.000Z</time>
      </trkpt>
      <trkpt lat="47.26853" lon="-2.33548">
        <ele>8</ele>
        <time>2020-08-16T07:17:32.000Z</time>
      </trkpt>
      <trkpt lat="47.26881" lon="-2.33535">
        <ele>8</ele>
        <time>2020-08-16T07:17:38.000Z</time>
      </trkpt>
      <trkpt lat="47.26887" lon="-2.33526">
        <ele>8.3999996185303</ele>
        <time>2020-08-16T07:17:40.000Z</time>
      </trkpt>
      <trkpt lat="47.26886" lon="-2.3352">
        <ele>8.8000001907349</ele>
        <time>2020-08-16T07:17:41.000Z</time>
      </trkpt>
      <trkpt lat="47.26885" lon="-2.33514">
        <ele>9.1999998092651</ele>
        <time>2020-08-16T07:17:42.000Z</time>
      </trkpt>
      <trkpt lat="47.26884" lon="-2.33509">
        <ele>9.6000003814697</ele>
        <time>2020-08-16T07:17:43.000Z</time>
      </trkpt>
      <trkpt lat="47.26884" lon="-2.33503">
        <ele>10</ele>
        <time>2020-08-16T07:17:44.000Z</time>
      </trkpt>
      <trkpt lat="47.26881" lon="-2.33489">
        <ele>10.39999961853</ele>
        <time>2020-08-16T07:17:47.000Z</time>
      </trkpt>
      <trkpt lat="47.2688" lon="-2.33484">
        <ele>10.800000190735</ele>
        <time>2020-08-16T07:17:48.000Z</time>
      </trkpt>
      <trkpt lat="47.26879" lon="-2.33479">
        <ele>11.199999809265</ele>
        <time>2020-08-16T07:17:49.000Z</time>
      </trkpt>
      <trkpt lat="47.26879" lon="-2.33475">
        <ele>11.60000038147</ele>
        <time>2020-08-16T07:17:50.000Z</time>
      </trkpt>
      <trkpt lat="47.26878" lon="-2.3347">
        <ele>12</ele>
        <time>2020-08-16T07:17:51.000Z</time>
      </trkpt>
      <trkpt lat="47.26877" lon="-2.33466">
        <ele>12.39999961853</ele>
        <time>2020-08-16T07:17:52.000Z</time>
      </trkpt>
      <trkpt lat="47.26877" lon="-2.33462">
        <ele>13</ele>
        <time>2020-08-16T07:17:53.000Z</time>
      </trkpt>
      <trkpt lat="47.26876" lon="-2.33458">
        <ele>13.39999961853</ele>
        <time>2020-08-16T07:17:54.000Z</time>
      </trkpt>
      <trkpt lat="47.26876" lon="-2.33454">
        <ele>13.800000190735</ele>
        <time>2020-08-16T07:17:55.000Z</time>
      </trkpt>
      <trkpt lat="47.26876" lon="-2.3345">
        <ele>14.199999809265</ele>
        <time>2020-08-16T07:17:56.000Z</time>
      </trkpt>
      <trkpt lat="47.26875" lon="-2.33441">
        <ele>14.60000038147</ele>
        <time>2020-08-16T07:17:58.000Z</time>
      </trkpt>
      <trkpt lat="47.26875" lon="-2.33437">
        <ele>15</ele>
        <time>2020-08-16T07:17:59.000Z</time>
      </trkpt>
      <trkpt lat="47.26876" lon="-2.33434">
        <ele>15.39999961853</ele>
        <time>2020-08-16T07:18:00.000Z</time>
      </trkpt>
      <trkpt lat="47.26877" lon="-2.3343">
        <ele>15.800000190735</ele>
        <time>2020-08-16T07:18:01.000Z</time>
      </trkpt>
      <trkpt lat="47.26877" lon="-2.33427">
        <ele>16.39999961853</ele>
        <time>2020-08-16T07:18:02.000Z</time>
      </trkpt>
      <trkpt lat="47.26878" lon="-2.33423">
        <ele>16.39999961853</ele>
        <time>2020-08-16T07:18:03.000Z</time>
      </trkpt>
      <trkpt lat="47.26883" lon="-2.33416">
        <ele>16.799999237061</ele>
        <time>2020-08-16T07:18:06.000Z</time>
      </trkpt>
      <trkpt lat="47.26886" lon="-2.33414">
        <ele>17.200000762939</ele>
        <time>2020-08-16T07:18:07.000Z</time>
      </trkpt>
      <trkpt lat="47.26889" lon="-2.33413">
        <ele>18</ele>
        <time>2020-08-16T07:18:08.000Z</time>
      </trkpt>
      <trkpt lat="47.26893" lon="-2.33412">
        <ele>18.39999961853</ele>
        <time>2020-08-16T07:18:09.000Z</time>
      </trkpt>
      <trkpt lat="47.26904" lon="-2.33407">
        <ele>18.39999961853</ele>
        <time>2020-08-16T07:18:12.000Z</time>
      </trkpt>
      <trkpt lat="47.26908" lon="-2.33405">
        <ele>18.799999237061</ele>
        <time>2020-08-16T07:18:13.000Z</time>
      </trkpt>
      <trkpt lat="47.26912" lon="-2.33403">
        <ele>19.200000762939</ele>
        <time>2020-08-16T07:18:14.000Z</time>
      </trkpt>
      <trkpt lat="47.26916" lon="-2.33401">
        <ele>19.60000038147</ele>
        <time>2020-08-16T07:18:15.000Z</time>
      </trkpt>
      <trkpt lat="47.2692" lon="-2.334">
        <ele>20</ele>
        <time>2020-08-16T07:18:16.000Z</time>
      </trkpt>
      <trkpt lat="47.26924" lon="-2.33398">
        <ele>20.39999961853</ele>
        <time>2020-08-16T07:18:17.000Z</time>
      </trkpt>
      <trkpt lat="47.26927" lon="-2.33396">
        <ele>20.39999961853</ele>
        <time>2020-08-16T07:18:18.000Z</time>
      </trkpt>
      <trkpt lat="47.26949" lon="-2.33387">
        <ele>20.799999237061</ele>
        <time>2020-08-16T07:18:24.000Z</time>
      </trkpt>
      <trkpt lat="47.26952" lon="-2.33385">
        <ele>21.200000762939</ele>
        <time>2020-08-16T07:18:25.000Z</time>
      </trkpt>
      <trkpt lat="47.26955" lon="-2.33384">
        <ele>21.60000038147</ele>
        <time>2020-08-16T07:18:26.000Z</time>
      </trkpt>
      <trkpt lat="47.26958" lon="-2.33382">
        <ele>22</ele>
        <time>2020-08-16T07:18:27.000Z</time>
      </trkpt>
      <trkpt lat="47.26961" lon="-2.3338">
        <ele>22.60000038147</ele>
        <time>2020-08-16T07:18:28.000Z</time>
      </trkpt>
      <trkpt lat="47.26968" lon="-2.3337">
        <ele>22.60000038147</ele>
        <time>2020-08-16T07:18:31.000Z</time>
      </trkpt>
      <trkpt lat="47.26965" lon="-2.33354">
        <ele>22.60000038147</ele>
        <time>2020-08-16T07:18:34.000Z</time>
      </trkpt>
      <trkpt lat="47.26963" lon="-2.33348">
        <ele>23</ele>
        <time>2020-08-16T07:18:35.000Z</time>
      </trkpt>
      <trkpt lat="47.26961" lon="-2.33343">
        <ele>23.39999961853</ele>
        <time>2020-08-16T07:18:36.000Z</time>
      </trkpt>
      <trkpt lat="47.26959" lon="-2.33337">
        <ele>23.799999237061</ele>
        <time>2020-08-16T07:18:37.000Z</time>
      </trkpt>
      <trkpt lat="47.26957" lon="-2.33331">
        <ele>24.200000762939</ele>
        <time>2020-08-16T07:18:38.000Z</time>
      </trkpt>
      <trkpt lat="47.26955" lon="-2.33325">
        <ele>24.60000038147</ele>
        <time>2020-08-16T07:18:39.000Z</time>
      </trkpt>
      <trkpt lat="47.26951" lon="-2.33314">
        <ele>24.60000038147</ele>
        <time>2020-08-16T07:18:41.000Z</time>
      </trkpt>
      <trkpt lat="47.26939" lon="-2.33277">
        <ele>24.60000038147</ele>
        <time>2020-08-16T07:18:47.000Z</time>
      </trkpt>
      <trkpt lat="47.26928" lon="-2.33231">
        <ele>24.60000038147</ele>
        <time>2020-08-16T07:18:55.000Z</time>
      </trkpt>
      <trkpt lat="47.26936" lon="-2.33219">
        <ele>24.60000038147</ele>
        <time>2020-08-16T07:18:58.000Z</time>
      </trkpt>
      <trkpt lat="47.26949" lon="-2.33212">
        <ele>24.60000038147</ele>
        <time>2020-08-16T07:19:01.000Z</time>
      </trkpt>
      <trkpt lat="47.26958" lon="-2.33206">
        <ele>24.60000038147</ele>
        <time>2020-08-16T07:19:03.000Z</time>
      </trkpt>
      <trkpt lat="47.26975" lon="-2.3319">
        <ele>24.60000038147</ele>
        <time>2020-08-16T07:19:07.000Z</time>
      </trkpt>
      <trkpt lat="47.26982" lon="-2.3318">
        <ele>24.60000038147</ele>
        <time>2020-08-16T07:19:09.000Z</time>
      </trkpt>
      <trkpt lat="47.2699" lon="-2.33172">
        <ele>24.60000038147</ele>
        <time>2020-08-16T07:19:11.000Z</time>
      </trkpt>
      <trkpt lat="47.27004" lon="-2.33161">
        <ele>24.60000038147</ele>
        <time>2020-08-16T07:19:14.000Z</time>
      </trkpt>
      <trkpt lat="47.27039" lon="-2.33128">
        <ele>24.60000038147</ele>
        <time>2020-08-16T07:19:22.000Z</time>
      </trkpt>
      <trkpt lat="47.27068" lon="-2.33098">
        <ele>24.60000038147</ele>
        <time>2020-08-16T07:19:29.000Z</time>
      </trkpt>
      <trkpt lat="47.27089" lon="-2.33075">
        <ele>24.60000038147</ele>
        <time>2020-08-16T07:19:34.000Z</time>
      </trkpt>
      <trkpt lat="47.27093" lon="-2.3307">
        <ele>24.60000038147</ele>
        <time>2020-08-16T07:19:35.000Z</time>
      </trkpt>
      <trkpt lat="47.27113" lon="-2.33052">
        <ele>24.60000038147</ele>
        <time>2020-08-16T07:19:39.000Z</time>
      </trkpt>
      <trkpt lat="47.27124" lon="-2.33044">
        <ele>24.60000038147</ele>
        <time>2020-08-16T07:19:41.000Z</time>
      </trkpt>
      <trkpt lat="47.2714" lon="-2.33034">
        <ele>24.60000038147</ele>
        <time>2020-08-16T07:19:44.000Z</time>
      </trkpt>
      <trkpt lat="47.2717" lon="-2.33011">
        <ele>24.60000038147</ele>
        <time>2020-08-16T07:19:50.000Z</time>
      </trkpt>
      <trkpt lat="47.27201" lon="-2.32988">
        <ele>24.60000038147</ele>
        <time>2020-08-16T07:19:56.000Z</time>
      </trkpt>
      <trkpt lat="47.27206" lon="-2.32986">
        <ele>24.60000038147</ele>
        <time>2020-08-16T07:19:57.000Z</time>
      </trkpt>
      <trkpt lat="47.27221" lon="-2.32987">
        <ele>24.200000762939</ele>
        <time>2020-08-16T07:20:00.000Z</time>
      </trkpt>
      <trkpt lat="47.27224" lon="-2.32992">
        <ele>23.799999237061</ele>
        <time>2020-08-16T07:20:01.000Z</time>
      </trkpt>
      <trkpt lat="47.27228" lon="-2.32997">
        <ele>23.39999961853</ele>
        <time>2020-08-16T07:20:02.000Z</time>
      </trkpt>
      <trkpt lat="47.27232" lon="-2.33002">
        <ele>22.799999237061</ele>
        <time>2020-08-16T07:20:03.000Z</time>
      </trkpt>
      <trkpt lat="47.27235" lon="-2.33008">
        <ele>22.39999961853</ele>
        <time>2020-08-16T07:20:04.000Z</time>
      </trkpt>
      <trkpt lat="47.27258" lon="-2.33045">
        <ele>22.39999961853</ele>
        <time>2020-08-16T07:20:11.000Z</time>
      </trkpt>
      <trkpt lat="47.27264" lon="-2.33056">
        <ele>22.799999237061</ele>
        <time>2020-08-16T07:20:13.000Z</time>
      </trkpt>
      <trkpt lat="47.27267" lon="-2.33061">
        <ele>23.799999237061</ele>
        <time>2020-08-16T07:20:14.000Z</time>
      </trkpt>
      <trkpt lat="47.2727" lon="-2.33066">
        <ele>24.200000762939</ele>
        <time>2020-08-16T07:20:15.000Z</time>
      </trkpt>
      <trkpt lat="47.27273" lon="-2.33071">
        <ele>24.60000038147</ele>
        <time>2020-08-16T07:20:16.000Z</time>
      </trkpt>
      <trkpt lat="47.27276" lon="-2.33075">
        <ele>24.60000038147</ele>
        <time>2020-08-16T07:20:17.000Z</time>
      </trkpt>
      <trkpt lat="47.27281" lon="-2.33085">
        <ele>24.60000038147</ele>
        <time>2020-08-16T07:20:19.000Z</time>
      </trkpt>
      <trkpt lat="47.27294" lon="-2.33102">
        <ele>24.60000038147</ele>
        <time>2020-08-16T07:20:23.000Z</time>
      </trkpt>
      <trkpt lat="47.27308" lon="-2.33114">
        <ele>24.60000038147</ele>
        <time>2020-08-16T07:20:27.000Z</time>
      </trkpt>
      <trkpt lat="47.2731" lon="-2.33112">
        <ele>24.60000038147</ele>
        <time>2020-08-16T07:20:28.000Z</time>
      </trkpt>
      <trkpt lat="47.27318" lon="-2.33099">
        <ele>24.60000038147</ele>
        <time>2020-08-16T07:20:31.000Z</time>
      </trkpt>
      <trkpt lat="47.27321" lon="-2.33094">
        <ele>24.60000038147</ele>
        <time>2020-08-16T07:20:32.000Z</time>
      </trkpt>
      <trkpt lat="47.27335" lon="-2.33054">
        <ele>24.60000038147</ele>
        <time>2020-08-16T07:20:38.000Z</time>
      </trkpt>
      <trkpt lat="47.27352" lon="-2.33002">
        <ele>24.60000038147</ele>
        <time>2020-08-16T07:20:45.000Z</time>
      </trkpt>
      <trkpt lat="47.27367" lon="-2.32967">
        <ele>24.60000038147</ele>
        <time>2020-08-16T07:20:51.000Z</time>
      </trkpt>
      <trkpt lat="47.27385" lon="-2.32933">
        <ele>24.60000038147</ele>
        <time>2020-08-16T07:20:57.000Z</time>
      </trkpt>
      <trkpt lat="47.27387" lon="-2.32928">
        <ele>24.60000038147</ele>
        <time>2020-08-16T07:20:58.000Z</time>
      </trkpt>
      <trkpt lat="47.27391" lon="-2.32917">
        <ele>24.200000762939</ele>
        <time>2020-08-16T07:21:01.000Z</time>
      </trkpt>
      <trkpt lat="47.27392" lon="-2.32912">
        <ele>23.799999237061</ele>
        <time>2020-08-16T07:21:02.000Z</time>
      </trkpt>
      <trkpt lat="47.27394" lon="-2.32908">
        <ele>22.799999237061</ele>
        <time>2020-08-16T07:21:03.000Z</time>
      </trkpt>
      <trkpt lat="47.27395" lon="-2.32903">
        <ele>22.39999961853</ele>
        <time>2020-08-16T07:21:04.000Z</time>
      </trkpt>
      <trkpt lat="47.27401" lon="-2.32894">
        <ele>22.39999961853</ele>
        <time>2020-08-16T07:21:06.000Z</time>
      </trkpt>
      <trkpt lat="47.27405" lon="-2.32884">
        <ele>22.39999961853</ele>
        <time>2020-08-16T07:21:08.000Z</time>
      </trkpt>
      <trkpt lat="47.27409" lon="-2.32874">
        <ele>22.39999961853</ele>
        <time>2020-08-16T07:21:10.000Z</time>
      </trkpt>
      <trkpt lat="47.27416" lon="-2.32858">
        <ele>22.39999961853</ele>
        <time>2020-08-16T07:21:13.000Z</time>
      </trkpt>
      <trkpt lat="47.27418" lon="-2.32851">
        <ele>22.39999961853</ele>
        <time>2020-08-16T07:21:14.000Z</time>
      </trkpt>
      <trkpt lat="47.27427" lon="-2.32811">
        <ele>22</ele>
        <time>2020-08-16T07:21:19.000Z</time>
      </trkpt>
      <trkpt lat="47.27428" lon="-2.32803">
        <ele>21.60000038147</ele>
        <time>2020-08-16T07:21:20.000Z</time>
      </trkpt>
      <trkpt lat="47.2743" lon="-2.32795">
        <ele>21.200000762939</ele>
        <time>2020-08-16T07:21:21.000Z</time>
      </trkpt>
      <trkpt lat="47.27431" lon="-2.32787">
        <ele>20.799999237061</ele>
        <time>2020-08-16T07:21:22.000Z</time>
      </trkpt>
      <trkpt lat="47.27433" lon="-2.32779">
        <ele>20.39999961853</ele>
        <time>2020-08-16T07:21:23.000Z</time>
      </trkpt>
      <trkpt lat="47.27435" lon="-2.32771">
        <ele>20.39999961853</ele>
        <time>2020-08-16T07:21:24.000Z</time>
      </trkpt>
      <trkpt lat="47.27445" lon="-2.32741">
        <ele>19.60000038147</ele>
        <time>2020-08-16T07:21:28.000Z</time>
      </trkpt>
      <trkpt lat="47.27449" lon="-2.32733">
        <ele>19.200000762939</ele>
        <time>2020-08-16T07:21:29.000Z</time>
      </trkpt>
      <trkpt lat="47.27452" lon="-2.32725">
        <ele>18.799999237061</ele>
        <time>2020-08-16T07:21:30.000Z</time>
      </trkpt>
      <trkpt lat="47.27455" lon="-2.32717">
        <ele>18.39999961853</ele>
        <time>2020-08-16T07:21:31.000Z</time>
      </trkpt>
      <trkpt lat="47.27459" lon="-2.32709">
        <ele>17.799999237061</ele>
        <time>2020-08-16T07:21:32.000Z</time>
      </trkpt>
      <trkpt lat="47.27462" lon="-2.32702">
        <ele>17.39999961853</ele>
        <time>2020-08-16T07:21:33.000Z</time>
      </trkpt>
      <trkpt lat="47.27466" lon="-2.32696">
        <ele>17</ele>
        <time>2020-08-16T07:21:34.000Z</time>
      </trkpt>
      <trkpt lat="47.2747" lon="-2.32692">
        <ele>16.60000038147</ele>
        <time>2020-08-16T07:21:35.000Z</time>
      </trkpt>
      <trkpt lat="47.27474" lon="-2.3269">
        <ele>16.200000762939</ele>
        <time>2020-08-16T07:21:36.000Z</time>
      </trkpt>
      <trkpt lat="47.27479" lon="-2.32688">
        <ele>15.800000190735</ele>
        <time>2020-08-16T07:21:37.000Z</time>
      </trkpt>
      <trkpt lat="47.27485" lon="-2.32684">
        <ele>15.39999961853</ele>
        <time>2020-08-16T07:21:38.000Z</time>
      </trkpt>
      <trkpt lat="47.2749" lon="-2.32679">
        <ele>15</ele>
        <time>2020-08-16T07:21:39.000Z</time>
      </trkpt>
      <trkpt lat="47.27495" lon="-2.32672">
        <ele>14.60000038147</ele>
        <time>2020-08-16T07:21:40.000Z</time>
      </trkpt>
      <trkpt lat="47.27499" lon="-2.32664">
        <ele>14.199999809265</ele>
        <time>2020-08-16T07:21:41.000Z</time>
      </trkpt>
      <trkpt lat="47.27504" lon="-2.32648">
        <ele>14.199999809265</ele>
        <time>2020-08-16T07:21:43.000Z</time>
      </trkpt>
      <trkpt lat="47.27507" lon="-2.32641">
        <ele>14.199999809265</ele>
        <time>2020-08-16T07:21:44.000Z</time>
      </trkpt>
      <trkpt lat="47.2751" lon="-2.32635">
        <ele>14.199999809265</ele>
        <time>2020-08-16T07:21:45.000Z</time>
      </trkpt>
      <trkpt lat="47.27522" lon="-2.32621">
        <ele>14.199999809265</ele>
        <time>2020-08-16T07:21:48.000Z</time>
      </trkpt>
      <trkpt lat="47.27532" lon="-2.32611">
        <ele>14.199999809265</ele>
        <time>2020-08-16T07:21:50.000Z</time>
      </trkpt>
      <trkpt lat="47.27541" lon="-2.326">
        <ele>13.800000190735</ele>
        <time>2020-08-16T07:21:52.000Z</time>
      </trkpt>
      <trkpt lat="47.27544" lon="-2.32595">
        <ele>13</ele>
        <time>2020-08-16T07:21:53.000Z</time>
      </trkpt>
      <trkpt lat="47.27546" lon="-2.3259">
        <ele>12.60000038147</ele>
        <time>2020-08-16T07:21:54.000Z</time>
      </trkpt>
      <trkpt lat="47.27547" lon="-2.32585">
        <ele>12.199999809265</ele>
        <time>2020-08-16T07:21:55.000Z</time>
      </trkpt>
      <trkpt lat="47.27548" lon="-2.3258">
        <ele>12.199999809265</ele>
        <time>2020-08-16T07:21:56.000Z</time>
      </trkpt>
      <trkpt lat="47.27547" lon="-2.32575">
        <ele>12.199999809265</ele>
        <time>2020-08-16T07:21:57.000Z</time>
      </trkpt>
      <trkpt lat="47.27544" lon="-2.32566">
        <ele>12.199999809265</ele>
        <time>2020-08-16T07:21:59.000Z</time>
      </trkpt>
      <trkpt lat="47.27537" lon="-2.32548">
        <ele>12.60000038147</ele>
        <time>2020-08-16T07:22:03.000Z</time>
      </trkpt>
      <trkpt lat="47.27537" lon="-2.32543">
        <ele>13</ele>
        <time>2020-08-16T07:22:04.000Z</time>
      </trkpt>
      <trkpt lat="47.27537" lon="-2.32538">
        <ele>13.39999961853</ele>
        <time>2020-08-16T07:22:05.000Z</time>
      </trkpt>
      <trkpt lat="47.27537" lon="-2.32533">
        <ele>13.800000190735</ele>
        <time>2020-08-16T07:22:06.000Z</time>
      </trkpt>
      <trkpt lat="47.27537" lon="-2.32527">
        <ele>14.199999809265</ele>
        <time>2020-08-16T07:22:07.000Z</time>
      </trkpt>
      <trkpt lat="47.27537" lon="-2.32522">
        <ele>14.800000190735</ele>
        <time>2020-08-16T07:22:08.000Z</time>
      </trkpt>
      <trkpt lat="47.27538" lon="-2.32517">
        <ele>15.199999809265</ele>
        <time>2020-08-16T07:22:09.000Z</time>
      </trkpt>
      <trkpt lat="47.27539" lon="-2.32513">
        <ele>15.60000038147</ele>
        <time>2020-08-16T07:22:10.000Z</time>
      </trkpt>
      <trkpt lat="47.27541" lon="-2.32507">
        <ele>16</ele>
        <time>2020-08-16T07:22:11.000Z</time>
      </trkpt>
      <trkpt lat="47.27543" lon="-2.32502">
        <ele>16.39999961853</ele>
        <time>2020-08-16T07:22:12.000Z</time>
      </trkpt>
      <trkpt lat="47.27545" lon="-2.32497">
        <ele>17</ele>
        <time>2020-08-16T07:22:13.000Z</time>
      </trkpt>
      <trkpt lat="47.27547" lon="-2.32492">
        <ele>17.39999961853</ele>
        <time>2020-08-16T07:22:14.000Z</time>
      </trkpt>
      <trkpt lat="47.27549" lon="-2.32487">
        <ele>17.799999237061</ele>
        <time>2020-08-16T07:22:15.000Z</time>
      </trkpt>
      <trkpt lat="47.27552" lon="-2.32482">
        <ele>18.39999961853</ele>
        <time>2020-08-16T07:22:16.000Z</time>
      </trkpt>
      <trkpt lat="47.27554" lon="-2.32476">
        <ele>18.799999237061</ele>
        <time>2020-08-16T07:22:17.000Z</time>
      </trkpt>
      <trkpt lat="47.27556" lon="-2.3247">
        <ele>19.200000762939</ele>
        <time>2020-08-16T07:22:18.000Z</time>
      </trkpt>
      <trkpt lat="47.27557" lon="-2.32463">
        <ele>19.60000038147</ele>
        <time>2020-08-16T07:22:19.000Z</time>
      </trkpt>
      <trkpt lat="47.27559" lon="-2.32457">
        <ele>20</ele>
        <time>2020-08-16T07:22:20.000Z</time>
      </trkpt>
      <trkpt lat="47.2756" lon="-2.32451">
        <ele>20.39999961853</ele>
        <time>2020-08-16T07:22:21.000Z</time>
      </trkpt>
      <trkpt lat="47.27562" lon="-2.32445">
        <ele>20.799999237061</ele>
        <time>2020-08-16T07:22:22.000Z</time>
      </trkpt>
      <trkpt lat="47.27569" lon="-2.3243">
        <ele>20.799999237061</ele>
        <time>2020-08-16T07:22:25.000Z</time>
      </trkpt>
      <trkpt lat="47.27582" lon="-2.32428">
        <ele>20.799999237061</ele>
        <time>2020-08-16T07:22:29.000Z</time>
      </trkpt>
      <trkpt lat="47.27599" lon="-2.32443">
        <ele>20.799999237061</ele>
        <time>2020-08-16T07:22:33.000Z</time>
      </trkpt>
      <trkpt lat="47.27603" lon="-2.32448">
        <ele>21.200000762939</ele>
        <time>2020-08-16T07:22:34.000Z</time>
      </trkpt>
      <trkpt lat="47.27607" lon="-2.32453">
        <ele>21.60000038147</ele>
        <time>2020-08-16T07:22:35.000Z</time>
      </trkpt>
      <trkpt lat="47.2761" lon="-2.32458">
        <ele>22.200000762939</ele>
        <time>2020-08-16T07:22:36.000Z</time>
      </trkpt>
      <trkpt lat="47.27613" lon="-2.32464">
        <ele>22.60000038147</ele>
        <time>2020-08-16T07:22:37.000Z</time>
      </trkpt>
      <trkpt lat="47.27617" lon="-2.32469">
        <ele>23</ele>
        <time>2020-08-16T07:22:38.000Z</time>
      </trkpt>
      <trkpt lat="47.2762" lon="-2.32474">
        <ele>23</ele>
        <time>2020-08-16T07:22:39.000Z</time>
      </trkpt>
      <trkpt lat="47.27622" lon="-2.3248">
        <ele>23</ele>
        <time>2020-08-16T07:22:40.000Z</time>
      </trkpt>
      <trkpt lat="47.27632" lon="-2.32508">
        <ele>23</ele>
        <time>2020-08-16T07:22:44.000Z</time>
      </trkpt>
      <trkpt lat="47.27643" lon="-2.32563">
        <ele>23</ele>
        <time>2020-08-16T07:22:50.000Z</time>
      </trkpt>
      <trkpt lat="47.27651" lon="-2.32596">
        <ele>22.60000038147</ele>
        <time>2020-08-16T07:22:53.000Z</time>
      </trkpt>
      <trkpt lat="47.27654" lon="-2.32608">
        <ele>22.200000762939</ele>
        <time>2020-08-16T07:22:54.000Z</time>
      </trkpt>
      <trkpt lat="47.27658" lon="-2.32619">
        <ele>21.60000038147</ele>
        <time>2020-08-16T07:22:55.000Z</time>
      </trkpt>
      <trkpt lat="47.27662" lon="-2.32631">
        <ele>21.200000762939</ele>
        <time>2020-08-16T07:22:56.000Z</time>
      </trkpt>
      <trkpt lat="47.27666" lon="-2.32643">
        <ele>20.799999237061</ele>
        <time>2020-08-16T07:22:57.000Z</time>
      </trkpt>
      <trkpt lat="47.2767" lon="-2.32654">
        <ele>20.39999961853</ele>
        <time>2020-08-16T07:22:58.000Z</time>
      </trkpt>
      <trkpt lat="47.27675" lon="-2.32665">
        <ele>20</ele>
        <time>2020-08-16T07:22:59.000Z</time>
      </trkpt>
      <trkpt lat="47.2768" lon="-2.32676">
        <ele>19.60000038147</ele>
        <time>2020-08-16T07:23:00.000Z</time>
      </trkpt>
      <trkpt lat="47.27684" lon="-2.32685">
        <ele>18.799999237061</ele>
        <time>2020-08-16T07:23:01.000Z</time>
      </trkpt>
      <trkpt lat="47.27689" lon="-2.32693">
        <ele>18.200000762939</ele>
        <time>2020-08-16T07:23:02.000Z</time>
      </trkpt>
      <trkpt lat="47.27694" lon="-2.32701">
        <ele>17.39999961853</ele>
        <time>2020-08-16T07:23:03.000Z</time>
      </trkpt>
      <trkpt lat="47.27697" lon="-2.32707">
        <ele>16.799999237061</ele>
        <time>2020-08-16T07:23:04.000Z</time>
      </trkpt>
      <trkpt lat="47.27699" lon="-2.32712">
        <ele>16.200000762939</ele>
        <time>2020-08-16T07:23:05.000Z</time>
      </trkpt>
      <trkpt lat="47.27702" lon="-2.32716">
        <ele>15.60000038147</ele>
        <time>2020-08-16T07:23:06.000Z</time>
      </trkpt>
      <trkpt lat="47.27704" lon="-2.32719">
        <ele>14.60000038147</ele>
        <time>2020-08-16T07:23:07.000Z</time>
      </trkpt>
      <trkpt lat="47.27707" lon="-2.32717">
        <ele>14</ele>
        <time>2020-08-16T07:23:08.000Z</time>
      </trkpt>
      <trkpt lat="47.27709" lon="-2.32713">
        <ele>14</ele>
        <time>2020-08-16T07:23:09.000Z</time>
      </trkpt>
      <trkpt lat="47.27719" lon="-2.32695">
        <ele>14</ele>
        <time>2020-08-16T07:23:14.000Z</time>
      </trkpt>
      <trkpt lat="47.2773" lon="-2.32676">
        <ele>14</ele>
        <time>2020-08-16T07:23:20.000Z</time>
      </trkpt>
      <trkpt lat="47.27731" lon="-2.32672">
        <ele>14.39999961853</ele>
        <time>2020-08-16T07:23:21.000Z</time>
      </trkpt>
      <trkpt lat="47.27732" lon="-2.32668">
        <ele>14.800000190735</ele>
        <time>2020-08-16T07:23:22.000Z</time>
      </trkpt>
      <trkpt lat="47.27733" lon="-2.32664">
        <ele>15.199999809265</ele>
        <time>2020-08-16T07:23:23.000Z</time>
      </trkpt>
      <trkpt lat="47.27734" lon="-2.3266">
        <ele>15.60000038147</ele>
        <time>2020-08-16T07:23:24.000Z</time>
      </trkpt>
      <trkpt lat="47.27735" lon="-2.32656">
        <ele>16</ele>
        <time>2020-08-16T07:23:25.000Z</time>
      </trkpt>
      <trkpt lat="47.27736" lon="-2.32653">
        <ele>16.39999961853</ele>
        <time>2020-08-16T07:23:26.000Z</time>
      </trkpt>
      <trkpt lat="47.27737" lon="-2.3265">
        <ele>16.799999237061</ele>
        <time>2020-08-16T07:23:27.000Z</time>
      </trkpt>
      <trkpt lat="47.27739" lon="-2.32647">
        <ele>17.200000762939</ele>
        <time>2020-08-16T07:23:28.000Z</time>
      </trkpt>
      <trkpt lat="47.27741" lon="-2.32644">
        <ele>17.60000038147</ele>
        <time>2020-08-16T07:23:29.000Z</time>
      </trkpt>
      <trkpt lat="47.27742" lon="-2.32641">
        <ele>18.200000762939</ele>
        <time>2020-08-16T07:23:30.000Z</time>
      </trkpt>
      <trkpt lat="47.27744" lon="-2.32637">
        <ele>18.200000762939</ele>
        <time>2020-08-16T07:23:31.000Z</time>
      </trkpt>
      <trkpt lat="47.27745" lon="-2.32634">
        <ele>18.60000038147</ele>
        <time>2020-08-16T07:23:32.000Z</time>
      </trkpt>
      <trkpt lat="47.27747" lon="-2.32631">
        <ele>19</ele>
        <time>2020-08-16T07:23:33.000Z</time>
      </trkpt>
      <trkpt lat="47.27749" lon="-2.32628">
        <ele>19.39999961853</ele>
        <time>2020-08-16T07:23:34.000Z</time>
      </trkpt>
      <trkpt lat="47.27751" lon="-2.32624">
        <ele>19.799999237061</ele>
        <time>2020-08-16T07:23:35.000Z</time>
      </trkpt>
      <trkpt lat="47.27753" lon="-2.32621">
        <ele>20.39999961853</ele>
        <time>2020-08-16T07:23:36.000Z</time>
      </trkpt>
      <trkpt lat="47.27755" lon="-2.32619">
        <ele>20.39999961853</ele>
        <time>2020-08-16T07:23:37.000Z</time>
      </trkpt>
      <trkpt lat="47.27767" lon="-2.32597">
        <ele>20.39999961853</ele>
        <time>2020-08-16T07:23:43.000Z</time>
      </trkpt>
      <trkpt lat="47.27781" lon="-2.32577">
        <ele>20.39999961853</ele>
        <time>2020-08-16T07:23:48.000Z</time>
      </trkpt>
      <trkpt lat="47.27784" lon="-2.32572">
        <ele>20.799999237061</ele>
        <time>2020-08-16T07:23:49.000Z</time>
      </trkpt>
      <trkpt lat="47.27788" lon="-2.32568">
        <ele>21.200000762939</ele>
        <time>2020-08-16T07:23:50.000Z</time>
      </trkpt>
      <trkpt lat="47.2779" lon="-2.32564">
        <ele>21.60000038147</ele>
        <time>2020-08-16T07:23:51.000Z</time>
      </trkpt>
      <trkpt lat="47.27792" lon="-2.32561">
        <ele>22</ele>
        <time>2020-08-16T07:23:52.000Z</time>
      </trkpt>
      <trkpt lat="47.27795" lon="-2.32558">
        <ele>22.39999961853</ele>
        <time>2020-08-16T07:23:53.000Z</time>
      </trkpt>
      <trkpt lat="47.27797" lon="-2.32555">
        <ele>22.39999961853</ele>
        <time>2020-08-16T07:23:54.000Z</time>
      </trkpt>
      <trkpt lat="47.27809" lon="-2.32537">
        <ele>22.39999961853</ele>
        <time>2020-08-16T07:23:59.000Z</time>
      </trkpt>
      <trkpt lat="47.27829" lon="-2.32512">
        <ele>22.39999961853</ele>
        <time>2020-08-16T07:24:06.000Z</time>
      </trkpt>
      <trkpt lat="47.27846" lon="-2.32484">
        <ele>22.39999961853</ele>
        <time>2020-08-16T07:24:12.000Z</time>
      </trkpt>
      <trkpt lat="47.27867" lon="-2.32458">
        <ele>22.39999961853</ele>
        <time>2020-08-16T07:24:18.000Z</time>
      </trkpt>
      <trkpt lat="47.2787" lon="-2.32448">
        <ele>22.39999961853</ele>
        <time>2020-08-16T07:24:20.000Z</time>
      </trkpt>
      <trkpt lat="47.27875" lon="-2.32438">
        <ele>22.39999961853</ele>
        <time>2020-08-16T07:24:22.000Z</time>
      </trkpt>
      <trkpt lat="47.27886" lon="-2.32416">
        <ele>22.39999961853</ele>
        <time>2020-08-16T07:24:26.000Z</time>
      </trkpt>
      <trkpt lat="47.27889" lon="-2.32411">
        <ele>22.39999961853</ele>
        <time>2020-08-16T07:24:27.000Z</time>
      </trkpt>
      <trkpt lat="47.27901" lon="-2.32392">
        <ele>22.39999961853</ele>
        <time>2020-08-16T07:24:32.000Z</time>
      </trkpt>
      <trkpt lat="47.27904" lon="-2.32392">
        <ele>22.39999961853</ele>
        <time>2020-08-16T07:24:33.000Z</time>
      </trkpt>
      <trkpt lat="47.27912" lon="-2.32393">
        <ele>22.39999961853</ele>
        <time>2020-08-16T07:24:36.000Z</time>
      </trkpt>
      <trkpt lat="47.27928" lon="-2.32398">
        <ele>22.39999961853</ele>
        <time>2020-08-16T07:24:41.000Z</time>
      </trkpt>
      <trkpt lat="47.27955" lon="-2.32404">
        <ele>22.39999961853</ele>
        <time>2020-08-16T07:24:47.000Z</time>
      </trkpt>
      <trkpt lat="47.27984" lon="-2.32413">
        <ele>22.39999961853</ele>
        <time>2020-08-16T07:24:52.000Z</time>
      </trkpt>
      <trkpt lat="47.27991" lon="-2.32417">
        <ele>22.39999961853</ele>
        <time>2020-08-16T07:24:53.000Z</time>
      </trkpt>
      <trkpt lat="47.28011" lon="-2.32423">
        <ele>22.39999961853</ele>
        <time>2020-08-16T07:24:56.000Z</time>
      </trkpt>
      <trkpt lat="47.28029" lon="-2.32427">
        <ele>22.39999961853</ele>
        <time>2020-08-16T07:24:59.000Z</time>
      </trkpt>
      <trkpt lat="47.28062" lon="-2.32429">
        <ele>22.39999961853</ele>
        <time>2020-08-16T07:25:05.000Z</time>
      </trkpt>
      <trkpt lat="47.28089" lon="-2.32431">
        <ele>22.39999961853</ele>
        <time>2020-08-16T07:25:11.000Z</time>
      </trkpt>
      <trkpt lat="47.28104" lon="-2.32443">
        <ele>22.39999961853</ele>
        <time>2020-08-16T07:25:16.000Z</time>
      </trkpt>
      <trkpt lat="47.28123" lon="-2.32455">
        <ele>22.39999961853</ele>
        <time>2020-08-16T07:25:21.000Z</time>
      </trkpt>
      <trkpt lat="47.2814" lon="-2.32455">
        <ele>22.39999961853</ele>
        <time>2020-08-16T07:25:25.000Z</time>
      </trkpt>
      <trkpt lat="47.2815" lon="-2.32452">
        <ele>22.39999961853</ele>
        <time>2020-08-16T07:25:27.000Z</time>
      </trkpt>
      <trkpt lat="47.28163" lon="-2.32451">
        <ele>22.39999961853</ele>
        <time>2020-08-16T07:25:30.000Z</time>
      </trkpt>
      <trkpt lat="47.28178" lon="-2.32452">
        <ele>22.39999961853</ele>
        <time>2020-08-16T07:25:33.000Z</time>
      </trkpt>
      <trkpt lat="47.28184" lon="-2.32454">
        <ele>22</ele>
        <time>2020-08-16T07:25:34.000Z</time>
      </trkpt>
      <trkpt lat="47.2819" lon="-2.32455">
        <ele>21.200000762939</ele>
        <time>2020-08-16T07:25:35.000Z</time>
      </trkpt>
      <trkpt lat="47.28195" lon="-2.32456">
        <ele>20.799999237061</ele>
        <time>2020-08-16T07:25:36.000Z</time>
      </trkpt>
      <trkpt lat="47.28201" lon="-2.32458">
        <ele>20.200000762939</ele>
        <time>2020-08-16T07:25:37.000Z</time>
      </trkpt>
      <trkpt lat="47.28207" lon="-2.32461">
        <ele>20.200000762939</ele>
        <time>2020-08-16T07:25:38.000Z</time>
      </trkpt>
      <trkpt lat="47.28218" lon="-2.32469">
        <ele>20.200000762939</ele>
        <time>2020-08-16T07:25:40.000Z</time>
      </trkpt>
      <trkpt lat="47.28223" lon="-2.32474">
        <ele>20.200000762939</ele>
        <time>2020-08-16T07:25:41.000Z</time>
      </trkpt>
      <trkpt lat="47.28245" lon="-2.32496">
        <ele>20.200000762939</ele>
        <time>2020-08-16T07:25:46.000Z</time>
      </trkpt>
      <trkpt lat="47.28265" lon="-2.32512">
        <ele>20.200000762939</ele>
        <time>2020-08-16T07:25:51.000Z</time>
      </trkpt>
      <trkpt lat="47.28275" lon="-2.32515">
        <ele>20.200000762939</ele>
        <time>2020-08-16T07:25:53.000Z</time>
      </trkpt>
      <trkpt lat="47.28291" lon="-2.32517">
        <ele>20.200000762939</ele>
        <time>2020-08-16T07:25:56.000Z</time>
      </trkpt>
      <trkpt lat="47.28322" lon="-2.32518">
        <ele>20.200000762939</ele>
        <time>2020-08-16T07:26:02.000Z</time>
      </trkpt>
      <trkpt lat="47.28346" lon="-2.32518">
        <ele>20.200000762939</ele>
        <time>2020-08-16T07:26:07.000Z</time>
      </trkpt>
      <trkpt lat="47.28352" lon="-2.32528">
        <ele>20.200000762939</ele>
        <time>2020-08-16T07:26:10.000Z</time>
      </trkpt>
      <trkpt lat="47.28356" lon="-2.32548">
        <ele>20.200000762939</ele>
        <time>2020-08-16T07:26:15.000Z</time>
      </trkpt>
      <trkpt lat="47.28357" lon="-2.32552">
        <ele>20.200000762939</ele>
        <time>2020-08-16T07:26:16.000Z</time>
      </trkpt>
      <trkpt lat="47.28367" lon="-2.3257">
        <ele>20.200000762939</ele>
        <time>2020-08-16T07:26:21.000Z</time>
      </trkpt>
      <trkpt lat="47.28375" lon="-2.32571">
        <ele>20.200000762939</ele>
        <time>2020-08-16T07:26:23.000Z</time>
      </trkpt>
      <trkpt lat="47.28383" lon="-2.32572">
        <ele>20.200000762939</ele>
        <time>2020-08-16T07:26:25.000Z</time>
      </trkpt>
      <trkpt lat="47.28395" lon="-2.32587">
        <ele>20.200000762939</ele>
        <time>2020-08-16T07:26:29.000Z</time>
      </trkpt>
      <trkpt lat="47.28403" lon="-2.32609">
        <ele>20.200000762939</ele>
        <time>2020-08-16T07:26:33.000Z</time>
      </trkpt>
      <trkpt lat="47.28401" lon="-2.32626">
        <ele>20.200000762939</ele>
        <time>2020-08-16T07:26:35.000Z</time>
      </trkpt>
      <trkpt lat="47.284" lon="-2.32635">
        <ele>20.200000762939</ele>
        <time>2020-08-16T07:26:36.000Z</time>
      </trkpt>
      <trkpt lat="47.2839" lon="-2.32688">
        <ele>20.200000762939</ele>
        <time>2020-08-16T07:26:42.000Z</time>
      </trkpt>
      <trkpt lat="47.28376" lon="-2.32751">
        <ele>20.200000762939</ele>
        <time>2020-08-16T07:26:50.000Z</time>
      </trkpt>
      <trkpt lat="47.28371" lon="-2.32774">
        <ele>20.200000762939</ele>
        <time>2020-08-16T07:26:53.000Z</time>
      </trkpt>
      <trkpt lat="47.28366" lon="-2.32797">
        <ele>20.200000762939</ele>
        <time>2020-08-16T07:26:56.000Z</time>
      </trkpt>
      <trkpt lat="47.28365" lon="-2.32804">
        <ele>19.799999237061</ele>
        <time>2020-08-16T07:26:57.000Z</time>
      </trkpt>
      <trkpt lat="47.28364" lon="-2.32811">
        <ele>19.39999961853</ele>
        <time>2020-08-16T07:26:58.000Z</time>
      </trkpt>
      <trkpt lat="47.28364" lon="-2.32818">
        <ele>19</ele>
        <time>2020-08-16T07:26:59.000Z</time>
      </trkpt>
      <trkpt lat="47.28364" lon="-2.32826">
        <ele>18.60000038147</ele>
        <time>2020-08-16T07:27:00.000Z</time>
      </trkpt>
      <trkpt lat="47.28364" lon="-2.32833">
        <ele>18.200000762939</ele>
        <time>2020-08-16T07:27:01.000Z</time>
      </trkpt>
      <trkpt lat="47.28364" lon="-2.32875">
        <ele>18.200000762939</ele>
        <time>2020-08-16T07:27:07.000Z</time>
      </trkpt>
      <trkpt lat="47.28364" lon="-2.32882">
        <ele>18.200000762939</ele>
        <time>2020-08-16T07:27:08.000Z</time>
      </trkpt>
      <trkpt lat="47.28362" lon="-2.32917">
        <ele>18.200000762939</ele>
        <time>2020-08-16T07:27:13.000Z</time>
      </trkpt>
      <trkpt lat="47.28348" lon="-2.32938">
        <ele>18.200000762939</ele>
        <time>2020-08-16T07:27:17.000Z</time>
      </trkpt>
      <trkpt lat="47.28343" lon="-2.32943">
        <ele>18.200000762939</ele>
        <time>2020-08-16T07:27:18.000Z</time>
      </trkpt>
      <trkpt lat="47.2832" lon="-2.32962">
        <ele>18.200000762939</ele>
        <time>2020-08-16T07:27:22.000Z</time>
      </trkpt>
      <trkpt lat="47.28283" lon="-2.32995">
        <ele>18.200000762939</ele>
        <time>2020-08-16T07:27:29.000Z</time>
      </trkpt>
      <trkpt lat="47.28255" lon="-2.33017">
        <ele>18.200000762939</ele>
        <time>2020-08-16T07:27:35.000Z</time>
      </trkpt>
      <trkpt lat="47.28229" lon="-2.33041">
        <ele>18.200000762939</ele>
        <time>2020-08-16T07:27:41.000Z</time>
      </trkpt>
      <trkpt lat="47.2822" lon="-2.33053">
        <ele>18.200000762939</ele>
        <time>2020-08-16T07:27:43.000Z</time>
      </trkpt>
      <trkpt lat="47.2821" lon="-2.33072">
        <ele>18.200000762939</ele>
        <time>2020-08-16T07:27:46.000Z</time>
      </trkpt>
      <trkpt lat="47.28199" lon="-2.33105">
        <ele>18.200000762939</ele>
        <time>2020-08-16T07:27:51.000Z</time>
      </trkpt>
      <trkpt lat="47.28197" lon="-2.33113">
        <ele>18.200000762939</ele>
        <time>2020-08-16T07:27:52.000Z</time>
      </trkpt>
      <trkpt lat="47.28192" lon="-2.33152">
        <ele>18.200000762939</ele>
        <time>2020-08-16T07:27:58.000Z</time>
      </trkpt>
      <trkpt lat="47.28192" lon="-2.33189">
        <ele>18.200000762939</ele>
        <time>2020-08-16T07:28:03.000Z</time>
      </trkpt>
      <trkpt lat="47.28188" lon="-2.33243">
        <ele>18.200000762939</ele>
        <time>2020-08-16T07:28:09.000Z</time>
      </trkpt>
      <trkpt lat="47.28178" lon="-2.33301">
        <ele>18.200000762939</ele>
        <time>2020-08-16T07:28:16.000Z</time>
      </trkpt>
      <trkpt lat="47.28159" lon="-2.33348">
        <ele>18.200000762939</ele>
        <time>2020-08-16T07:28:22.000Z</time>
      </trkpt>
      <trkpt lat="47.28155" lon="-2.33356">
        <ele>18.60000038147</ele>
        <time>2020-08-16T07:28:23.000Z</time>
      </trkpt>
      <trkpt lat="47.28151" lon="-2.33364">
        <ele>19</ele>
        <time>2020-08-16T07:28:24.000Z</time>
      </trkpt>
      <trkpt lat="47.28148" lon="-2.33371">
        <ele>19.39999961853</ele>
        <time>2020-08-16T07:28:25.000Z</time>
      </trkpt>
      <trkpt lat="47.28144" lon="-2.33379">
        <ele>19.799999237061</ele>
        <time>2020-08-16T07:28:26.000Z</time>
      </trkpt>
      <trkpt lat="47.2814" lon="-2.33386">
        <ele>20.200000762939</ele>
        <time>2020-08-16T07:28:27.000Z</time>
      </trkpt>
      <trkpt lat="47.28137" lon="-2.33393">
        <ele>20.200000762939</ele>
        <time>2020-08-16T07:28:28.000Z</time>
      </trkpt>
      <trkpt lat="47.2811" lon="-2.3345">
        <ele>20.200000762939</ele>
        <time>2020-08-16T07:28:36.000Z</time>
      </trkpt>
      <trkpt lat="47.28088" lon="-2.33499">
        <ele>20.200000762939</ele>
        <time>2020-08-16T07:28:44.000Z</time>
      </trkpt>
      <trkpt lat="47.28083" lon="-2.33508">
        <ele>20.200000762939</ele>
        <time>2020-08-16T07:28:46.000Z</time>
      </trkpt>
      <trkpt lat="47.28076" lon="-2.33522">
        <ele>20.200000762939</ele>
        <time>2020-08-16T07:28:49.000Z</time>
      </trkpt>
      <trkpt lat="47.28075" lon="-2.33544">
        <ele>20.60000038147</ele>
        <time>2020-08-16T07:28:53.000Z</time>
      </trkpt>
      <trkpt lat="47.28075" lon="-2.3355">
        <ele>21</ele>
        <time>2020-08-16T07:28:54.000Z</time>
      </trkpt>
      <trkpt lat="47.28076" lon="-2.33555">
        <ele>21.39999961853</ele>
        <time>2020-08-16T07:28:55.000Z</time>
      </trkpt>
      <trkpt lat="47.28077" lon="-2.3356">
        <ele>21.799999237061</ele>
        <time>2020-08-16T07:28:56.000Z</time>
      </trkpt>
      <trkpt lat="47.28078" lon="-2.33566">
        <ele>22.200000762939</ele>
        <time>2020-08-16T07:28:57.000Z</time>
      </trkpt>
      <trkpt lat="47.28079" lon="-2.33578">
        <ele>22.200000762939</ele>
        <time>2020-08-16T07:28:59.000Z</time>
      </trkpt>
      <trkpt lat="47.28087" lon="-2.33614">
        <ele>22.200000762939</ele>
        <time>2020-08-16T07:29:05.000Z</time>
      </trkpt>
      <trkpt lat="47.28088" lon="-2.33621">
        <ele>22.200000762939</ele>
        <time>2020-08-16T07:29:06.000Z</time>
      </trkpt>
      <trkpt lat="47.28091" lon="-2.33643">
        <ele>22.200000762939</ele>
        <time>2020-08-16T07:29:11.000Z</time>
      </trkpt>
      <trkpt lat="47.28096" lon="-2.33661">
        <ele>22.200000762939</ele>
        <time>2020-08-16T07:29:15.000Z</time>
      </trkpt>
      <trkpt lat="47.28105" lon="-2.33675">
        <ele>22.200000762939</ele>
        <time>2020-08-16T07:29:19.000Z</time>
      </trkpt>
      <trkpt lat="47.28125" lon="-2.33695">
        <ele>22.200000762939</ele>
        <time>2020-08-16T07:29:24.000Z</time>
      </trkpt>
      <trkpt lat="47.28134" lon="-2.33708">
        <ele>22.200000762939</ele>
        <time>2020-08-16T07:29:27.000Z</time>
      </trkpt>
      <trkpt lat="47.28144" lon="-2.33722">
        <ele>22.200000762939</ele>
        <time>2020-08-16T07:29:30.000Z</time>
      </trkpt>
      <trkpt lat="47.28163" lon="-2.33745">
        <ele>22.200000762939</ele>
        <time>2020-08-16T07:29:36.000Z</time>
      </trkpt>
      <trkpt lat="47.28179" lon="-2.33764">
        <ele>22.60000038147</ele>
        <time>2020-08-16T07:29:41.000Z</time>
      </trkpt>
      <trkpt lat="47.28182" lon="-2.33768">
        <ele>23.39999961853</ele>
        <time>2020-08-16T07:29:42.000Z</time>
      </trkpt>
      <trkpt lat="47.28185" lon="-2.33772">
        <ele>23.799999237061</ele>
        <time>2020-08-16T07:29:43.000Z</time>
      </trkpt>
      <trkpt lat="47.28189" lon="-2.33776">
        <ele>24.200000762939</ele>
        <time>2020-08-16T07:29:44.000Z</time>
      </trkpt>
      <trkpt lat="47.28204" lon="-2.33793">
        <ele>24.200000762939</ele>
        <time>2020-08-16T07:29:48.000Z</time>
      </trkpt>
      <trkpt lat="47.28209" lon="-2.33795">
        <ele>24.200000762939</ele>
        <time>2020-08-16T07:29:49.000Z</time>
      </trkpt>
      <trkpt lat="47.28221" lon="-2.338">
        <ele>24.200000762939</ele>
        <time>2020-08-16T07:29:52.000Z</time>
      </trkpt>
      <trkpt lat="47.28244" lon="-2.33812">
        <ele>24.200000762939</ele>
        <time>2020-08-16T07:29:58.000Z</time>
      </trkpt>
      <trkpt lat="47.2826" lon="-2.33831">
        <ele>24.200000762939</ele>
        <time>2020-08-16T07:30:04.000Z</time>
      </trkpt>
      <trkpt lat="47.28266" lon="-2.33843">
        <ele>24.200000762939</ele>
        <time>2020-08-16T07:30:09.000Z</time>
      </trkpt>
      <trkpt lat="47.28271" lon="-2.33856">
        <ele>24.200000762939</ele>
        <time>2020-08-16T07:30:15.000Z</time>
      </trkpt>
      <trkpt lat="47.28276" lon="-2.33872">
        <ele>24.200000762939</ele>
        <time>2020-08-16T07:30:20.000Z</time>
      </trkpt>
      <trkpt lat="47.28288" lon="-2.33898">
        <ele>24.200000762939</ele>
        <time>2020-08-16T07:30:27.000Z</time>
      </trkpt>
      <trkpt lat="47.28299" lon="-2.33922">
        <ele>24.200000762939</ele>
        <time>2020-08-16T07:30:35.000Z</time>
      </trkpt>
      <trkpt lat="47.28302" lon="-2.33923">
        <ele>24.200000762939</ele>
        <time>2020-08-16T07:30:36.000Z</time>
      </trkpt>
      <trkpt lat="47.28305" lon="-2.33925">
        <ele>24.200000762939</ele>
        <time>2020-08-16T07:30:38.000Z</time>
      </trkpt>
      <trkpt lat="47.28306" lon="-2.33927">
        <ele>24.60000038147</ele>
        <time>2020-08-16T07:30:39.000Z</time>
      </trkpt>
      <trkpt lat="47.28307" lon="-2.33929">
        <ele>25</ele>
        <time>2020-08-16T07:30:40.000Z</time>
      </trkpt>
      <trkpt lat="47.28307" lon="-2.33931">
        <ele>25.39999961853</ele>
        <time>2020-08-16T07:30:41.000Z</time>
      </trkpt>
      <trkpt lat="47.28307" lon="-2.33931">
        <ele>25.799999237061</ele>
        <time>2020-08-16T07:30:42.000Z</time>
      </trkpt>
      <trkpt lat="47.28307" lon="-2.33931">
        <ele>26.200000762939</ele>
        <time>2020-08-16T07:30:43.000Z</time>
      </trkpt>
      <trkpt lat="47.28308" lon="-2.33945">
        <ele>26.200000762939</ele>
        <time>2020-08-16T07:31:04.000Z</time>
      </trkpt>
      <trkpt lat="47.2831" lon="-2.33948">
        <ele>26.200000762939</ele>
        <time>2020-08-16T07:31:06.000Z</time>
      </trkpt>
      <trkpt lat="47.28313" lon="-2.33954">
        <ele>26.200000762939</ele>
        <time>2020-08-16T07:31:08.000Z</time>
      </trkpt>
      <trkpt lat="47.28321" lon="-2.33976">
        <ele>26.200000762939</ele>
        <time>2020-08-16T07:31:14.000Z</time>
      </trkpt>
      <trkpt lat="47.28341" lon="-2.34011">
        <ele>26.200000762939</ele>
        <time>2020-08-16T07:31:21.000Z</time>
      </trkpt>
      <trkpt lat="47.28343" lon="-2.34014">
        <ele>26.200000762939</ele>
        <time>2020-08-16T07:31:26.000Z</time>
      </trkpt>
      <trkpt lat="47.28344" lon="-2.3402">
        <ele>26.200000762939</ele>
        <time>2020-08-16T07:31:28.000Z</time>
      </trkpt>
      <trkpt lat="47.28346" lon="-2.34036">
        <ele>26.200000762939</ele>
        <time>2020-08-16T07:31:32.000Z</time>
      </trkpt>
      <trkpt lat="47.28349" lon="-2.34043">
        <ele>26.200000762939</ele>
        <time>2020-08-16T07:31:34.000Z</time>
      </trkpt>
      <trkpt lat="47.28362" lon="-2.34057">
        <ele>26.200000762939</ele>
        <time>2020-08-16T07:31:39.000Z</time>
      </trkpt>
      <trkpt lat="47.28371" lon="-2.34062">
        <ele>26.60000038147</ele>
        <time>2020-08-16T07:31:42.000Z</time>
      </trkpt>
      <trkpt lat="47.28374" lon="-2.34063">
        <ele>27</ele>
        <time>2020-08-16T07:31:43.000Z</time>
      </trkpt>
      <trkpt lat="47.28377" lon="-2.34066">
        <ele>27.39999961853</ele>
        <time>2020-08-16T07:31:44.000Z</time>
      </trkpt>
      <trkpt lat="47.28379" lon="-2.34069">
        <ele>27.799999237061</ele>
        <time>2020-08-16T07:31:45.000Z</time>
      </trkpt>
      <trkpt lat="47.28382" lon="-2.34072">
        <ele>28.200000762939</ele>
        <time>2020-08-16T07:31:46.000Z</time>
      </trkpt>
      <trkpt lat="47.28391" lon="-2.34083">
        <ele>28.200000762939</ele>
        <time>2020-08-16T07:31:50.000Z</time>
      </trkpt>
      <trkpt lat="47.284" lon="-2.34079">
        <ele>28.200000762939</ele>
        <time>2020-08-16T07:31:53.000Z</time>
      </trkpt>
      <trkpt lat="47.28412" lon="-2.34083">
        <ele>28.200000762939</ele>
        <time>2020-08-16T07:31:57.000Z</time>
      </trkpt>
      <trkpt lat="47.28415" lon="-2.34085">
        <ele>28.200000762939</ele>
        <time>2020-08-16T07:31:58.000Z</time>
      </trkpt>
      <trkpt lat="47.28423" lon="-2.34088">
        <ele>28.200000762939</ele>
        <time>2020-08-16T07:32:01.000Z</time>
      </trkpt>
      <trkpt lat="47.28427" lon="-2.34095">
        <ele>28.200000762939</ele>
        <time>2020-08-16T07:32:03.000Z</time>
      </trkpt>
      <trkpt lat="47.28439" lon="-2.34126">
        <ele>28.200000762939</ele>
        <time>2020-08-16T07:32:09.000Z</time>
      </trkpt>
      <trkpt lat="47.28446" lon="-2.34171">
        <ele>28.200000762939</ele>
        <time>2020-08-16T07:32:17.000Z</time>
      </trkpt>
      <trkpt lat="47.28445" lon="-2.34192">
        <ele>28.200000762939</ele>
        <time>2020-08-16T07:32:21.000Z</time>
      </trkpt>
      <trkpt lat="47.28447" lon="-2.34196">
        <ele>28.200000762939</ele>
        <time>2020-08-16T07:32:22.000Z</time>
      </trkpt>
      <trkpt lat="47.28451" lon="-2.34199">
        <ele>28.200000762939</ele>
        <time>2020-08-16T07:32:23.000Z</time>
      </trkpt>
      <trkpt lat="47.28459" lon="-2.34203">
        <ele>28.200000762939</ele>
        <time>2020-08-16T07:32:25.000Z</time>
      </trkpt>
      <trkpt lat="47.28466" lon="-2.34205">
        <ele>28.200000762939</ele>
        <time>2020-08-16T07:32:27.000Z</time>
      </trkpt>
      <trkpt lat="47.28486" lon="-2.3421">
        <ele>28.200000762939</ele>
        <time>2020-08-16T07:32:31.000Z</time>
      </trkpt>
      <trkpt lat="47.28491" lon="-2.34211">
        <ele>28.200000762939</ele>
        <time>2020-08-16T07:32:32.000Z</time>
      </trkpt>
      <trkpt lat="47.28496" lon="-2.34211">
        <ele>29.200000762939</ele>
        <time>2020-08-16T07:32:33.000Z</time>
      </trkpt>
      <trkpt lat="47.28501" lon="-2.34212">
        <ele>29.60000038147</ele>
        <time>2020-08-16T07:32:34.000Z</time>
      </trkpt>
      <trkpt lat="47.28506" lon="-2.34213">
        <ele>30</ele>
        <time>2020-08-16T07:32:35.000Z</time>
      </trkpt>
      <trkpt lat="47.28511" lon="-2.34214">
        <ele>30.39999961853</ele>
        <time>2020-08-16T07:32:36.000Z</time>
      </trkpt>
      <trkpt lat="47.28521" lon="-2.34215">
        <ele>30.39999961853</ele>
        <time>2020-08-16T07:32:38.000Z</time>
      </trkpt>
      <trkpt lat="47.28548" lon="-2.34223">
        <ele>30.39999961853</ele>
        <time>2020-08-16T07:32:44.000Z</time>
      </trkpt>
      <trkpt lat="47.28553" lon="-2.34226">
        <ele>30.39999961853</ele>
        <time>2020-08-16T07:32:45.000Z</time>
      </trkpt>
      <trkpt lat="47.28573" lon="-2.34232">
        <ele>30.39999961853</ele>
        <time>2020-08-16T07:32:49.000Z</time>
      </trkpt>
      <trkpt lat="47.28577" lon="-2.34233">
        <ele>30.39999961853</ele>
        <time>2020-08-16T07:32:50.000Z</time>
      </trkpt>
      <trkpt lat="47.28604" lon="-2.34243">
        <ele>30.799999237061</ele>
        <time>2020-08-16T07:32:56.000Z</time>
      </trkpt>
      <trkpt lat="47.28609" lon="-2.34244">
        <ele>31.200000762939</ele>
        <time>2020-08-16T07:32:57.000Z</time>
      </trkpt>
      <trkpt lat="47.28613" lon="-2.34247">
        <ele>31.60000038147</ele>
        <time>2020-08-16T07:32:58.000Z</time>
      </trkpt>
      <trkpt lat="47.28616" lon="-2.3425">
        <ele>32.400001525879</ele>
        <time>2020-08-16T07:32:59.000Z</time>
      </trkpt>
      <trkpt lat="47.28621" lon="-2.34259">
        <ele>32.400001525879</ele>
        <time>2020-08-16T07:33:01.000Z</time>
      </trkpt>
      <trkpt lat="47.28623" lon="-2.34266">
        <ele>32.400001525879</ele>
        <time>2020-08-16T07:33:02.000Z</time>
      </trkpt>
      <trkpt lat="47.28622" lon="-2.34279">
        <ele>32.400001525879</ele>
        <time>2020-08-16T07:33:04.000Z</time>
      </trkpt>
      <trkpt lat="47.28619" lon="-2.34293">
        <ele>32.400001525879</ele>
        <time>2020-08-16T07:33:06.000Z</time>
      </trkpt>
      <trkpt lat="47.28613" lon="-2.34314">
        <ele>32.400001525879</ele>
        <time>2020-08-16T07:33:09.000Z</time>
      </trkpt>
      <trkpt lat="47.28598" lon="-2.34362">
        <ele>32.400001525879</ele>
        <time>2020-08-16T07:33:16.000Z</time>
      </trkpt>
      <trkpt lat="47.28587" lon="-2.34385">
        <ele>32.400001525879</ele>
        <time>2020-08-16T07:33:20.000Z</time>
      </trkpt>
      <trkpt lat="47.28579" lon="-2.34395">
        <ele>32.400001525879</ele>
        <time>2020-08-16T07:33:22.000Z</time>
      </trkpt>
      <trkpt lat="47.28561" lon="-2.34409">
        <ele>32.400001525879</ele>
        <time>2020-08-16T07:33:26.000Z</time>
      </trkpt>
      <trkpt lat="47.28551" lon="-2.34414">
        <ele>32.400001525879</ele>
        <time>2020-08-16T07:33:28.000Z</time>
      </trkpt>
      <trkpt lat="47.2851" lon="-2.34426">
        <ele>32.400001525879</ele>
        <time>2020-08-16T07:33:36.000Z</time>
      </trkpt>
      <trkpt lat="47.28473" lon="-2.34436">
        <ele>32.400001525879</ele>
        <time>2020-08-16T07:33:43.000Z</time>
      </trkpt>
      <trkpt lat="47.28432" lon="-2.34446">
        <ele>32.400001525879</ele>
        <time>2020-08-16T07:33:51.000Z</time>
      </trkpt>
      <trkpt lat="47.28404" lon="-2.34464">
        <ele>32.400001525879</ele>
        <time>2020-08-16T07:33:57.000Z</time>
      </trkpt>
      <trkpt lat="47.28395" lon="-2.34471">
        <ele>32.799999237061</ele>
        <time>2020-08-16T07:33:59.000Z</time>
      </trkpt>
      <trkpt lat="47.28391" lon="-2.34475">
        <ele>33.200000762939</ele>
        <time>2020-08-16T07:34:00.000Z</time>
      </trkpt>
      <trkpt lat="47.28387" lon="-2.34479">
        <ele>33.799999237061</ele>
        <time>2020-08-16T07:34:01.000Z</time>
      </trkpt>
      <trkpt lat="47.28382" lon="-2.34484">
        <ele>34.200000762939</ele>
        <time>2020-08-16T07:34:02.000Z</time>
      </trkpt>
      <trkpt lat="47.28378" lon="-2.34489">
        <ele>34.599998474121</ele>
        <time>2020-08-16T07:34:03.000Z</time>
      </trkpt>
      <trkpt lat="47.28371" lon="-2.34498">
        <ele>34.599998474121</ele>
        <time>2020-08-16T07:34:05.000Z</time>
      </trkpt>
      <trkpt lat="47.28343" lon="-2.34535">
        <ele>34.599998474121</ele>
        <time>2020-08-16T07:34:12.000Z</time>
      </trkpt>
      <trkpt lat="47.28309" lon="-2.34587">
        <ele>34.599998474121</ele>
        <time>2020-08-16T07:34:21.000Z</time>
      </trkpt>
      <trkpt lat="47.28268" lon="-2.34649">
        <ele>34.599998474121</ele>
        <time>2020-08-16T07:34:31.000Z</time>
      </trkpt>
      <trkpt lat="47.28235" lon="-2.34697">
        <ele>33.599998474121</ele>
        <time>2020-08-16T07:34:38.000Z</time>
      </trkpt>
      <trkpt lat="47.2823" lon="-2.34704">
        <ele>33.200000762939</ele>
        <time>2020-08-16T07:34:39.000Z</time>
      </trkpt>
      <trkpt lat="47.28225" lon="-2.34711">
        <ele>32.799999237061</ele>
        <time>2020-08-16T07:34:40.000Z</time>
      </trkpt>
      <trkpt lat="47.28221" lon="-2.34718">
        <ele>32.200000762939</ele>
        <time>2020-08-16T07:34:41.000Z</time>
      </trkpt>
      <trkpt lat="47.28191" lon="-2.34766">
        <ele>32.200000762939</ele>
        <time>2020-08-16T07:34:48.000Z</time>
      </trkpt>
      <trkpt lat="47.28185" lon="-2.34782">
        <ele>32.200000762939</ele>
        <time>2020-08-16T07:34:50.000Z</time>
      </trkpt>
      <trkpt lat="47.28182" lon="-2.34799">
        <ele>32.200000762939</ele>
        <time>2020-08-16T07:34:52.000Z</time>
      </trkpt>
      <trkpt lat="47.28181" lon="-2.34816">
        <ele>31.799999237061</ele>
        <time>2020-08-16T07:34:54.000Z</time>
      </trkpt>
      <trkpt lat="47.28181" lon="-2.34824">
        <ele>31.39999961853</ele>
        <time>2020-08-16T07:34:55.000Z</time>
      </trkpt>
      <trkpt lat="47.28182" lon="-2.34833">
        <ele>30.799999237061</ele>
        <time>2020-08-16T07:34:56.000Z</time>
      </trkpt>
      <trkpt lat="47.28183" lon="-2.34842">
        <ele>30.39999961853</ele>
        <time>2020-08-16T07:34:57.000Z</time>
      </trkpt>
      <trkpt lat="47.28184" lon="-2.3485">
        <ele>30</ele>
        <time>2020-08-16T07:34:58.000Z</time>
      </trkpt>
      <trkpt lat="47.28186" lon="-2.34858">
        <ele>30</ele>
        <time>2020-08-16T07:34:59.000Z</time>
      </trkpt>
      <trkpt lat="47.28191" lon="-2.3488">
        <ele>30</ele>
        <time>2020-08-16T07:35:02.000Z</time>
      </trkpt>
      <trkpt lat="47.28206" lon="-2.34933">
        <ele>30</ele>
        <time>2020-08-16T07:35:09.000Z</time>
      </trkpt>
      <trkpt lat="47.2822" lon="-2.34976">
        <ele>30</ele>
        <time>2020-08-16T07:35:15.000Z</time>
      </trkpt>
      <trkpt lat="47.28237" lon="-2.35011">
        <ele>30</ele>
        <time>2020-08-16T07:35:22.000Z</time>
      </trkpt>
      <trkpt lat="47.28253" lon="-2.35034">
        <ele>30</ele>
        <time>2020-08-16T07:35:29.000Z</time>
      </trkpt>
      <trkpt lat="47.28274" lon="-2.35057">
        <ele>30</ele>
        <time>2020-08-16T07:35:35.000Z</time>
      </trkpt>
      <trkpt lat="47.28288" lon="-2.35069">
        <ele>30</ele>
        <time>2020-08-16T07:35:38.000Z</time>
      </trkpt>
      <trkpt lat="47.28299" lon="-2.35074">
        <ele>30</ele>
        <time>2020-08-16T07:35:40.000Z</time>
      </trkpt>
      <trkpt lat="47.2831" lon="-2.35076">
        <ele>30</ele>
        <time>2020-08-16T07:35:42.000Z</time>
      </trkpt>
      <trkpt lat="47.28331" lon="-2.35081">
        <ele>30</ele>
        <time>2020-08-16T07:35:46.000Z</time>
      </trkpt>
      <trkpt lat="47.28335" lon="-2.35084">
        <ele>30</ele>
        <time>2020-08-16T07:35:47.000Z</time>
      </trkpt>
      <trkpt lat="47.2835" lon="-2.35107">
        <ele>30</ele>
        <time>2020-08-16T07:35:51.000Z</time>
      </trkpt>
      <trkpt lat="47.28356" lon="-2.35121">
        <ele>30</ele>
        <time>2020-08-16T07:35:53.000Z</time>
      </trkpt>
      <trkpt lat="47.28364" lon="-2.35148">
        <ele>30</ele>
        <time>2020-08-16T07:35:57.000Z</time>
      </trkpt>
      <trkpt lat="47.28381" lon="-2.35199">
        <ele>30</ele>
        <time>2020-08-16T07:36:05.000Z</time>
      </trkpt>
      <trkpt lat="47.28389" lon="-2.35225">
        <ele>30</ele>
        <time>2020-08-16T07:36:09.000Z</time>
      </trkpt>
      <trkpt lat="47.28389" lon="-2.35232">
        <ele>30</ele>
        <time>2020-08-16T07:36:10.000Z</time>
      </trkpt>
      <trkpt lat="47.28381" lon="-2.35249">
        <ele>30</ele>
        <time>2020-08-16T07:36:13.000Z</time>
      </trkpt>
      <trkpt lat="47.28359" lon="-2.35286">
        <ele>30</ele>
        <time>2020-08-16T07:36:20.000Z</time>
      </trkpt>
      <trkpt lat="47.28346" lon="-2.35301">
        <ele>30</ele>
        <time>2020-08-16T07:36:24.000Z</time>
      </trkpt>
      <trkpt lat="47.28348" lon="-2.35315">
        <ele>30</ele>
        <time>2020-08-16T07:36:27.000Z</time>
      </trkpt>
      <trkpt lat="47.28349" lon="-2.35319">
        <ele>30</ele>
        <time>2020-08-16T07:36:28.000Z</time>
      </trkpt>
      <trkpt lat="47.28355" lon="-2.35336">
        <ele>29.60000038147</ele>
        <time>2020-08-16T07:36:32.000Z</time>
      </trkpt>
      <trkpt lat="47.28356" lon="-2.35339">
        <ele>29</ele>
        <time>2020-08-16T07:36:33.000Z</time>
      </trkpt>
      <trkpt lat="47.28357" lon="-2.35343">
        <ele>28.60000038147</ele>
        <time>2020-08-16T07:36:34.000Z</time>
      </trkpt>
      <trkpt lat="47.28358" lon="-2.35345">
        <ele>28.200000762939</ele>
        <time>2020-08-16T07:36:35.000Z</time>
      </trkpt>
      <trkpt lat="47.28359" lon="-2.35347">
        <ele>27.799999237061</ele>
        <time>2020-08-16T07:36:36.000Z</time>
      </trkpt>
      <trkpt lat="47.28359" lon="-2.35349">
        <ele>27.799999237061</ele>
        <time>2020-08-16T07:36:37.000Z</time>
      </trkpt>
      <trkpt lat="47.28366" lon="-2.3536">
        <ele>27.799999237061</ele>
        <time>2020-08-16T07:36:43.000Z</time>
      </trkpt>
      <trkpt lat="47.2837" lon="-2.35364">
        <ele>28.200000762939</ele>
        <time>2020-08-16T07:36:46.000Z</time>
      </trkpt>
      <trkpt lat="47.28371" lon="-2.35366">
        <ele>28.799999237061</ele>
        <time>2020-08-16T07:36:47.000Z</time>
      </trkpt>
      <trkpt lat="47.28372" lon="-2.35367">
        <ele>29.200000762939</ele>
        <time>2020-08-16T07:36:48.000Z</time>
      </trkpt>
      <trkpt lat="47.28373" lon="-2.35369">
        <ele>29.60000038147</ele>
        <time>2020-08-16T07:36:49.000Z</time>
      </trkpt>
      <trkpt lat="47.28373" lon="-2.35371">
        <ele>30</ele>
        <time>2020-08-16T07:36:50.000Z</time>
      </trkpt>
      <trkpt lat="47.28375" lon="-2.35376">
        <ele>30.39999961853</ele>
        <time>2020-08-16T07:36:52.000Z</time>
      </trkpt>
      <trkpt lat="47.28375" lon="-2.35378">
        <ele>31</ele>
        <time>2020-08-16T07:36:53.000Z</time>
      </trkpt>
      <trkpt lat="47.28376" lon="-2.3538">
        <ele>31.39999961853</ele>
        <time>2020-08-16T07:36:54.000Z</time>
      </trkpt>
      <trkpt lat="47.28378" lon="-2.35383">
        <ele>32</ele>
        <time>2020-08-16T07:36:55.000Z</time>
      </trkpt>
      <trkpt lat="47.2838" lon="-2.35387">
        <ele>32.400001525879</ele>
        <time>2020-08-16T07:36:56.000Z</time>
      </trkpt>
      <trkpt lat="47.28381" lon="-2.3539">
        <ele>32.799999237061</ele>
        <time>2020-08-16T07:36:57.000Z</time>
      </trkpt>
      <trkpt lat="47.28383" lon="-2.35392">
        <ele>33.400001525879</ele>
        <time>2020-08-16T07:36:58.000Z</time>
      </trkpt>
      <trkpt lat="47.28384" lon="-2.35395">
        <ele>33.799999237061</ele>
        <time>2020-08-16T07:36:59.000Z</time>
      </trkpt>
      <trkpt lat="47.28386" lon="-2.35398">
        <ele>34.200000762939</ele>
        <time>2020-08-16T07:37:00.000Z</time>
      </trkpt>
      <trkpt lat="47.28388" lon="-2.35402">
        <ele>34.599998474121</ele>
        <time>2020-08-16T07:37:01.000Z</time>
      </trkpt>
      <trkpt lat="47.2839" lon="-2.35409">
        <ele>35</ele>
        <time>2020-08-16T07:37:03.000Z</time>
      </trkpt>
      <trkpt lat="47.28392" lon="-2.35411">
        <ele>35.400001525879</ele>
        <time>2020-08-16T07:37:04.000Z</time>
      </trkpt>
      <trkpt lat="47.28393" lon="-2.35412">
        <ele>35.799999237061</ele>
        <time>2020-08-16T07:37:05.000Z</time>
      </trkpt>
      <trkpt lat="47.28394" lon="-2.35414">
        <ele>36.200000762939</ele>
        <time>2020-08-16T07:37:06.000Z</time>
      </trkpt>
      <trkpt lat="47.28395" lon="-2.35415">
        <ele>36.599998474121</ele>
        <time>2020-08-16T07:37:07.000Z</time>
      </trkpt>
      <trkpt lat="47.28397" lon="-2.35418">
        <ele>36.599998474121</ele>
        <time>2020-08-16T07:37:10.000Z</time>
      </trkpt>
      <trkpt lat="47.28398" lon="-2.35419">
        <ele>36.599998474121</ele>
        <time>2020-08-16T07:37:11.000Z</time>
      </trkpt>
      <trkpt lat="47.28405" lon="-2.35424">
        <ele>36.599998474121</ele>
        <time>2020-08-16T07:37:28.000Z</time>
      </trkpt>
      <trkpt lat="47.28409" lon="-2.35424">
        <ele>36.599998474121</ele>
        <time>2020-08-16T07:37:30.000Z</time>
      </trkpt>
      <trkpt lat="47.28413" lon="-2.35421">
        <ele>36.599998474121</ele>
        <time>2020-08-16T07:37:32.000Z</time>
      </trkpt>
      <trkpt lat="47.28417" lon="-2.35416">
        <ele>36.599998474121</ele>
        <time>2020-08-16T07:37:34.000Z</time>
      </trkpt>
      <trkpt lat="47.2843" lon="-2.35406">
        <ele>36.599998474121</ele>
        <time>2020-08-16T07:37:39.000Z</time>
      </trkpt>
      <trkpt lat="47.28434" lon="-2.35406">
        <ele>36.599998474121</ele>
        <time>2020-08-16T07:37:41.000Z</time>
      </trkpt>
      <trkpt lat="47.2844" lon="-2.35408">
        <ele>36.599998474121</ele>
        <time>2020-08-16T07:37:44.000Z</time>
      </trkpt>
      <trkpt lat="47.28443" lon="-2.35408">
        <ele>36.599998474121</ele>
        <time>2020-08-16T07:37:45.000Z</time>
      </trkpt>
      <trkpt lat="47.28448" lon="-2.35406">
        <ele>36.599998474121</ele>
        <time>2020-08-16T07:37:47.000Z</time>
      </trkpt>
      <trkpt lat="47.2845" lon="-2.35403">
        <ele>36.599998474121</ele>
        <time>2020-08-16T07:37:48.000Z</time>
      </trkpt>
      <trkpt lat="47.28457" lon="-2.35382">
        <ele>36.200000762939</ele>
        <time>2020-08-16T07:37:54.000Z</time>
      </trkpt>
      <trkpt lat="47.28458" lon="-2.35378">
        <ele>35.599998474121</ele>
        <time>2020-08-16T07:37:55.000Z</time>
      </trkpt>
      <trkpt lat="47.28459" lon="-2.35374">
        <ele>35.200000762939</ele>
        <time>2020-08-16T07:37:56.000Z</time>
      </trkpt>
      <trkpt lat="47.2846" lon="-2.3537">
        <ele>34.200000762939</ele>
        <time>2020-08-16T07:37:57.000Z</time>
      </trkpt>
      <trkpt lat="47.2846" lon="-2.35366">
        <ele>33.599998474121</ele>
        <time>2020-08-16T07:37:58.000Z</time>
      </trkpt>
      <trkpt lat="47.28461" lon="-2.35362">
        <ele>33.200000762939</ele>
        <time>2020-08-16T07:37:59.000Z</time>
      </trkpt>
      <trkpt lat="47.28462" lon="-2.35359">
        <ele>32.599998474121</ele>
        <time>2020-08-16T07:38:00.000Z</time>
      </trkpt>
      <trkpt lat="47.28463" lon="-2.35356">
        <ele>32.200000762939</ele>
        <time>2020-08-16T07:38:01.000Z</time>
      </trkpt>
      <trkpt lat="47.28465" lon="-2.35354">
        <ele>31.60000038147</ele>
        <time>2020-08-16T07:38:02.000Z</time>
      </trkpt>
      <trkpt lat="47.28467" lon="-2.35352">
        <ele>31.200000762939</ele>
        <time>2020-08-16T07:38:03.000Z</time>
      </trkpt>
      <trkpt lat="47.28469" lon="-2.3535">
        <ele>30.60000038147</ele>
        <time>2020-08-16T07:38:04.000Z</time>
      </trkpt>
      <trkpt lat="47.2847" lon="-2.35349">
        <ele>30.200000762939</ele>
        <time>2020-08-16T07:38:05.000Z</time>
      </trkpt>
      <trkpt lat="47.28472" lon="-2.35351">
        <ele>30.200000762939</ele>
        <time>2020-08-16T07:38:06.000Z</time>
      </trkpt>
      <trkpt lat="47.28477" lon="-2.35357">
        <ele>30.200000762939</ele>
        <time>2020-08-16T07:38:08.000Z</time>
      </trkpt>
      <trkpt lat="47.28483" lon="-2.35372">
        <ele>30.200000762939</ele>
        <time>2020-08-16T07:38:11.000Z</time>
      </trkpt>
      <trkpt lat="47.2849" lon="-2.35409">
        <ele>30.200000762939</ele>
        <time>2020-08-16T07:38:17.000Z</time>
      </trkpt>
      <trkpt lat="47.28497" lon="-2.35427">
        <ele>30.200000762939</ele>
        <time>2020-08-16T07:38:22.000Z</time>
      </trkpt>
      <trkpt lat="47.285" lon="-2.35434">
        <ele>30.60000038147</ele>
        <time>2020-08-16T07:38:24.000Z</time>
      </trkpt>
      <trkpt lat="47.28502" lon="-2.35439">
        <ele>31</ele>
        <time>2020-08-16T07:38:25.000Z</time>
      </trkpt>
      <trkpt lat="47.28504" lon="-2.35443">
        <ele>31.39999961853</ele>
        <time>2020-08-16T07:38:26.000Z</time>
      </trkpt>
      <trkpt lat="47.28506" lon="-2.35446">
        <ele>31.799999237061</ele>
        <time>2020-08-16T07:38:27.000Z</time>
      </trkpt>
      <trkpt lat="47.28508" lon="-2.35449">
        <ele>32.400001525879</ele>
        <time>2020-08-16T07:38:28.000Z</time>
      </trkpt>
      <trkpt lat="47.28512" lon="-2.35454">
        <ele>32.400001525879</ele>
        <time>2020-08-16T07:38:30.000Z</time>
      </trkpt>
      <trkpt lat="47.28519" lon="-2.35465">
        <ele>32.400001525879</ele>
        <time>2020-08-16T07:38:35.000Z</time>
      </trkpt>
      <trkpt lat="47.28526" lon="-2.35475">
        <ele>32.400001525879</ele>
        <time>2020-08-16T07:38:42.000Z</time>
      </trkpt>
      <trkpt lat="47.28526" lon="-2.35484">
        <ele>32.400001525879</ele>
        <time>2020-08-16T07:38:52.000Z</time>
      </trkpt>
      <trkpt lat="47.28526" lon="-2.35491">
        <ele>32.400001525879</ele>
        <time>2020-08-16T07:38:55.000Z</time>
      </trkpt>
      <trkpt lat="47.28526" lon="-2.35498">
        <ele>32.400001525879</ele>
        <time>2020-08-16T07:38:57.000Z</time>
      </trkpt>
      <trkpt lat="47.28526" lon="-2.35509">
        <ele>32.400001525879</ele>
        <time>2020-08-16T07:39:00.000Z</time>
      </trkpt>
      <trkpt lat="47.28527" lon="-2.35525">
        <ele>32.799999237061</ele>
        <time>2020-08-16T07:39:04.000Z</time>
      </trkpt>
      <trkpt lat="47.28527" lon="-2.35528">
        <ele>33.200000762939</ele>
        <time>2020-08-16T07:39:05.000Z</time>
      </trkpt>
      <trkpt lat="47.28528" lon="-2.35531">
        <ele>33.599998474121</ele>
        <time>2020-08-16T07:39:06.000Z</time>
      </trkpt>
      <trkpt lat="47.28529" lon="-2.35535">
        <ele>34</ele>
        <time>2020-08-16T07:39:07.000Z</time>
      </trkpt>
      <trkpt lat="47.2853" lon="-2.35538">
        <ele>34.400001525879</ele>
        <time>2020-08-16T07:39:08.000Z</time>
      </trkpt>
      <trkpt lat="47.28532" lon="-2.35546">
        <ele>34.400001525879</ele>
        <time>2020-08-16T07:39:10.000Z</time>
      </trkpt>
      <trkpt lat="47.28533" lon="-2.35549">
        <ele>34.799999237061</ele>
        <time>2020-08-16T07:39:11.000Z</time>
      </trkpt>
      <trkpt lat="47.28534" lon="-2.35553">
        <ele>35.200000762939</ele>
        <time>2020-08-16T07:39:12.000Z</time>
      </trkpt>
      <trkpt lat="47.28535" lon="-2.35558">
        <ele>35.599998474121</ele>
        <time>2020-08-16T07:39:13.000Z</time>
      </trkpt>
      <trkpt lat="47.28535" lon="-2.35562">
        <ele>36</ele>
        <time>2020-08-16T07:39:14.000Z</time>
      </trkpt>
      <trkpt lat="47.28535" lon="-2.35565">
        <ele>36.400001525879</ele>
        <time>2020-08-16T07:39:15.000Z</time>
      </trkpt>
      <trkpt lat="47.28534" lon="-2.35569">
        <ele>36.400001525879</ele>
        <time>2020-08-16T07:39:16.000Z</time>
      </trkpt>
      <trkpt lat="47.28533" lon="-2.35573">
        <ele>36.400001525879</ele>
        <time>2020-08-16T07:39:17.000Z</time>
      </trkpt>
      <trkpt lat="47.2853" lon="-2.35587">
        <ele>36.799999237061</ele>
        <time>2020-08-16T07:39:21.000Z</time>
      </trkpt>
      <trkpt lat="47.28528" lon="-2.35591">
        <ele>37.200000762939</ele>
        <time>2020-08-16T07:39:22.000Z</time>
      </trkpt>
      <trkpt lat="47.28526" lon="-2.35594">
        <ele>37.599998474121</ele>
        <time>2020-08-16T07:39:23.000Z</time>
      </trkpt>
      <trkpt lat="47.28525" lon="-2.35597">
        <ele>38.200000762939</ele>
        <time>2020-08-16T07:39:24.000Z</time>
      </trkpt>
      <trkpt lat="47.28525" lon="-2.35599">
        <ele>38.599998474121</ele>
        <time>2020-08-16T07:39:25.000Z</time>
      </trkpt>
      <trkpt lat="47.28526" lon="-2.35601">
        <ele>38.599998474121</ele>
        <time>2020-08-16T07:39:26.000Z</time>
      </trkpt>
      <trkpt lat="47.28531" lon="-2.35607">
        <ele>38.599998474121</ele>
        <time>2020-08-16T07:39:32.000Z</time>
      </trkpt>
      <trkpt lat="47.28534" lon="-2.35607">
        <ele>38.599998474121</ele>
        <time>2020-08-16T07:39:34.000Z</time>
      </trkpt>
      <trkpt lat="47.2854" lon="-2.35607">
        <ele>38.599998474121</ele>
        <time>2020-08-16T07:39:38.000Z</time>
      </trkpt>
      <trkpt lat="47.2854" lon="-2.35608">
        <ele>38.599998474121</ele>
        <time>2020-08-16T07:39:39.000Z</time>
      </trkpt>
      <trkpt lat="47.28545" lon="-2.35616">
        <ele>38.599998474121</ele>
        <time>2020-08-16T07:39:49.000Z</time>
      </trkpt>
      <trkpt lat="47.28543" lon="-2.35621">
        <ele>38.599998474121</ele>
        <time>2020-08-16T07:39:51.000Z</time>
      </trkpt>
      <trkpt lat="47.28542" lon="-2.35637">
        <ele>38.599998474121</ele>
        <time>2020-08-16T07:39:54.000Z</time>
      </trkpt>
      <trkpt lat="47.28541" lon="-2.3566">
        <ele>38</ele>
        <time>2020-08-16T07:39:57.000Z</time>
      </trkpt>
      <trkpt lat="47.28542" lon="-2.35667">
        <ele>37.599998474121</ele>
        <time>2020-08-16T07:39:58.000Z</time>
      </trkpt>
      <trkpt lat="47.28542" lon="-2.35672">
        <ele>37.200000762939</ele>
        <time>2020-08-16T07:39:59.000Z</time>
      </trkpt>
      <trkpt lat="47.28543" lon="-2.35678">
        <ele>36.200000762939</ele>
        <time>2020-08-16T07:40:00.000Z</time>
      </trkpt>
      <trkpt lat="47.28541" lon="-2.35689">
        <ele>35.799999237061</ele>
        <time>2020-08-16T07:40:02.000Z</time>
      </trkpt>
      <trkpt lat="47.2854" lon="-2.35694">
        <ele>35.400001525879</ele>
        <time>2020-08-16T07:40:03.000Z</time>
      </trkpt>
      <trkpt lat="47.28539" lon="-2.35697">
        <ele>35</ele>
        <time>2020-08-16T07:40:04.000Z</time>
      </trkpt>
      <trkpt lat="47.28539" lon="-2.35701">
        <ele>34.599998474121</ele>
        <time>2020-08-16T07:40:05.000Z</time>
      </trkpt>
      <trkpt lat="47.28538" lon="-2.35702">
        <ele>34</ele>
        <time>2020-08-16T07:40:06.000Z</time>
      </trkpt>
      <trkpt lat="47.28538" lon="-2.35704">
        <ele>34</ele>
        <time>2020-08-16T07:40:07.000Z</time>
      </trkpt>
      <trkpt lat="47.28538" lon="-2.35704">
        <ele>34</ele>
        <time>2020-08-16T07:40:08.000Z</time>
      </trkpt>
      <trkpt lat="47.28533" lon="-2.35727">
        <ele>34</ele>
        <time>2020-08-16T07:40:40.000Z</time>
      </trkpt>
      <trkpt lat="47.28536" lon="-2.35733">
        <ele>34</ele>
        <time>2020-08-16T07:40:42.000Z</time>
      </trkpt>
      <trkpt lat="47.28544" lon="-2.35753">
        <ele>34</ele>
        <time>2020-08-16T07:40:48.000Z</time>
      </trkpt>
      <trkpt lat="47.28549" lon="-2.35773">
        <ele>34</ele>
        <time>2020-08-16T07:40:55.000Z</time>
      </trkpt>
      <trkpt lat="47.28552" lon="-2.35793">
        <ele>34</ele>
        <time>2020-08-16T07:41:01.000Z</time>
      </trkpt>
      <trkpt lat="47.28557" lon="-2.35811">
        <ele>34</ele>
        <time>2020-08-16T07:41:07.000Z</time>
      </trkpt>
      <trkpt lat="47.28559" lon="-2.35829">
        <ele>34</ele>
        <time>2020-08-16T07:41:13.000Z</time>
      </trkpt>
      <trkpt lat="47.28564" lon="-2.35839">
        <ele>34</ele>
        <time>2020-08-16T07:41:17.000Z</time>
      </trkpt>
      <trkpt lat="47.28567" lon="-2.35847">
        <ele>34</ele>
        <time>2020-08-16T07:41:19.000Z</time>
      </trkpt>
      <trkpt lat="47.28578" lon="-2.35871">
        <ele>34</ele>
        <time>2020-08-16T07:41:25.000Z</time>
      </trkpt>
      <trkpt lat="47.28583" lon="-2.35885">
        <ele>34.400001525879</ele>
        <time>2020-08-16T07:41:28.000Z</time>
      </trkpt>
      <trkpt lat="47.28584" lon="-2.35892">
        <ele>35</ele>
        <time>2020-08-16T07:41:29.000Z</time>
      </trkpt>
      <trkpt lat="47.28586" lon="-2.35899">
        <ele>35.400001525879</ele>
        <time>2020-08-16T07:41:30.000Z</time>
      </trkpt>
      <trkpt lat="47.28587" lon="-2.35905">
        <ele>35.799999237061</ele>
        <time>2020-08-16T07:41:31.000Z</time>
      </trkpt>
      <trkpt lat="47.28588" lon="-2.35911">
        <ele>36.200000762939</ele>
        <time>2020-08-16T07:41:32.000Z</time>
      </trkpt>
      <trkpt lat="47.28594" lon="-2.3593">
        <ele>36.200000762939</ele>
        <time>2020-08-16T07:41:36.000Z</time>
      </trkpt>
      <trkpt lat="47.28605" lon="-2.35959">
        <ele>36.200000762939</ele>
        <time>2020-08-16T07:41:42.000Z</time>
      </trkpt>
      <trkpt lat="47.28617" lon="-2.35986">
        <ele>36.200000762939</ele>
        <time>2020-08-16T07:41:47.000Z</time>
      </trkpt>
      <trkpt lat="47.28628" lon="-2.36013">
        <ele>36.599998474121</ele>
        <time>2020-08-16T07:41:52.000Z</time>
      </trkpt>
      <trkpt lat="47.2863" lon="-2.36018">
        <ele>37</ele>
        <time>2020-08-16T07:41:53.000Z</time>
      </trkpt>
      <trkpt lat="47.28632" lon="-2.36022">
        <ele>37.400001525879</ele>
        <time>2020-08-16T07:41:54.000Z</time>
      </trkpt>
      <trkpt lat="47.28633" lon="-2.36027">
        <ele>37.799999237061</ele>
        <time>2020-08-16T07:41:55.000Z</time>
      </trkpt>
      <trkpt lat="47.28636" lon="-2.36032">
        <ele>38.200000762939</ele>
        <time>2020-08-16T07:41:56.000Z</time>
      </trkpt>
      <trkpt lat="47.28643" lon="-2.36054">
        <ele>38.200000762939</ele>
        <time>2020-08-16T07:42:00.000Z</time>
      </trkpt>
      <trkpt lat="47.28646" lon="-2.36074">
        <ele>38.200000762939</ele>
        <time>2020-08-16T07:42:05.000Z</time>
      </trkpt>
      <trkpt lat="47.28647" lon="-2.36082">
        <ele>38.599998474121</ele>
        <time>2020-08-16T07:42:08.000Z</time>
      </trkpt>
      <trkpt lat="47.28647" lon="-2.36085">
        <ele>39</ele>
        <time>2020-08-16T07:42:09.000Z</time>
      </trkpt>
      <trkpt lat="47.28648" lon="-2.36087">
        <ele>39.400001525879</ele>
        <time>2020-08-16T07:42:10.000Z</time>
      </trkpt>
      <trkpt lat="47.28648" lon="-2.3609">
        <ele>39.799999237061</ele>
        <time>2020-08-16T07:42:11.000Z</time>
      </trkpt>
      <trkpt lat="47.28649" lon="-2.36092">
        <ele>40.200000762939</ele>
        <time>2020-08-16T07:42:12.000Z</time>
      </trkpt>
      <trkpt lat="47.2865" lon="-2.36096">
        <ele>40.599998474121</ele>
        <time>2020-08-16T07:42:14.000Z</time>
      </trkpt>
      <trkpt lat="47.28651" lon="-2.36098">
        <ele>41.200000762939</ele>
        <time>2020-08-16T07:42:15.000Z</time>
      </trkpt>
      <trkpt lat="47.28651" lon="-2.361">
        <ele>41.599998474121</ele>
        <time>2020-08-16T07:42:16.000Z</time>
      </trkpt>
      <trkpt lat="47.28651" lon="-2.36101">
        <ele>42</ele>
        <time>2020-08-16T07:42:17.000Z</time>
      </trkpt>
      <trkpt lat="47.28638" lon="-2.36122">
        <ele>46</ele>
        <time>2020-08-16T07:42:38.000Z</time>
      </trkpt>
      <trkpt lat="47.28636" lon="-2.36124">
        <ele>46.400001525879</ele>
        <time>2020-08-16T07:42:39.000Z</time>
      </trkpt>
      <trkpt lat="47.28635" lon="-2.36127">
        <ele>46.799999237061</ele>
        <time>2020-08-16T07:42:40.000Z</time>
      </trkpt>
      <trkpt lat="47.28631" lon="-2.36131">
        <ele>46.799999237061</ele>
        <time>2020-08-16T07:42:44.000Z</time>
      </trkpt>
      <trkpt lat="47.28631" lon="-2.36134">
        <ele>46.799999237061</ele>
        <time>2020-08-16T07:42:46.000Z</time>
      </trkpt>
      <trkpt lat="47.28633" lon="-2.36137">
        <ele>46.799999237061</ele>
        <time>2020-08-16T07:42:48.000Z</time>
      </trkpt>
      <trkpt lat="47.28635" lon="-2.36142">
        <ele>46.799999237061</ele>
        <time>2020-08-16T07:42:50.000Z</time>
      </trkpt>
      <trkpt lat="47.2864" lon="-2.36158">
        <ele>46.799999237061</ele>
        <time>2020-08-16T07:42:54.000Z</time>
      </trkpt>
      <trkpt lat="47.28648" lon="-2.36166">
        <ele>46.799999237061</ele>
        <time>2020-08-16T07:42:58.000Z</time>
      </trkpt>
      <trkpt lat="47.28663" lon="-2.36188">
        <ele>46.799999237061</ele>
        <time>2020-08-16T07:43:04.000Z</time>
      </trkpt>
      <trkpt lat="47.28666" lon="-2.36212">
        <ele>46.799999237061</ele>
        <time>2020-08-16T07:43:09.000Z</time>
      </trkpt>
      <trkpt lat="47.28667" lon="-2.3623">
        <ele>46.400001525879</ele>
        <time>2020-08-16T07:43:13.000Z</time>
      </trkpt>
      <trkpt lat="47.28667" lon="-2.36234">
        <ele>46</ele>
        <time>2020-08-16T07:43:14.000Z</time>
      </trkpt>
      <trkpt lat="47.28667" lon="-2.36238">
        <ele>45.400001525879</ele>
        <time>2020-08-16T07:43:15.000Z</time>
      </trkpt>
      <trkpt lat="47.28666" lon="-2.36241">
        <ele>45</ele>
        <time>2020-08-16T07:43:16.000Z</time>
      </trkpt>
      <trkpt lat="47.28666" lon="-2.36245">
        <ele>44.599998474121</ele>
        <time>2020-08-16T07:43:17.000Z</time>
      </trkpt>
      <trkpt lat="47.28669" lon="-2.36263">
        <ele>44.599998474121</ele>
        <time>2020-08-16T07:43:22.000Z</time>
      </trkpt>
      <trkpt lat="47.28679" lon="-2.36271">
        <ele>44.599998474121</ele>
        <time>2020-08-16T07:43:26.000Z</time>
      </trkpt>
      <trkpt lat="47.28687" lon="-2.36274">
        <ele>44.200000762939</ele>
        <time>2020-08-16T07:43:29.000Z</time>
      </trkpt>
      <trkpt lat="47.2869" lon="-2.36274">
        <ele>43.799999237061</ele>
        <time>2020-08-16T07:43:30.000Z</time>
      </trkpt>
      <trkpt lat="47.28694" lon="-2.36274">
        <ele>43.400001525879</ele>
        <time>2020-08-16T07:43:31.000Z</time>
      </trkpt>
      <trkpt lat="47.28696" lon="-2.36275">
        <ele>43</ele>
        <time>2020-08-16T07:43:32.000Z</time>
      </trkpt>
      <trkpt lat="47.287" lon="-2.36275">
        <ele>42.599998474121</ele>
        <time>2020-08-16T07:43:33.000Z</time>
      </trkpt>
      <trkpt lat="47.28712" lon="-2.36265">
        <ele>42.599998474121</ele>
        <time>2020-08-16T07:43:39.000Z</time>
      </trkpt>
      <trkpt lat="47.28713" lon="-2.36263">
        <ele>42</ele>
        <time>2020-08-16T07:43:40.000Z</time>
      </trkpt>
      <trkpt lat="47.28715" lon="-2.36262">
        <ele>41.599998474121</ele>
        <time>2020-08-16T07:43:41.000Z</time>
      </trkpt>
      <trkpt lat="47.28717" lon="-2.3626">
        <ele>40.799999237061</ele>
        <time>2020-08-16T07:43:42.000Z</time>
      </trkpt>
      <trkpt lat="47.28718" lon="-2.36258">
        <ele>40.400001525879</ele>
        <time>2020-08-16T07:43:43.000Z</time>
      </trkpt>
      <trkpt lat="47.28723" lon="-2.36254">
        <ele>40.400001525879</ele>
        <time>2020-08-16T07:43:45.000Z</time>
      </trkpt>
      <trkpt lat="47.28737" lon="-2.3624">
        <ele>40.400001525879</ele>
        <time>2020-08-16T07:43:52.000Z</time>
      </trkpt>
      <trkpt lat="47.28744" lon="-2.36234">
        <ele>40.400001525879</ele>
        <time>2020-08-16T07:43:57.000Z</time>
      </trkpt>
      <trkpt lat="47.28745" lon="-2.36234">
        <ele>40.400001525879</ele>
        <time>2020-08-16T07:43:58.000Z</time>
      </trkpt>
      <trkpt lat="47.28758" lon="-2.36217">
        <ele>38.400001525879</ele>
        <time>2020-08-16T07:44:30.000Z</time>
      </trkpt>
      <trkpt lat="47.28763" lon="-2.36215">
        <ele>38.400001525879</ele>
        <time>2020-08-16T07:44:32.000Z</time>
      </trkpt>
      <trkpt lat="47.28782" lon="-2.36205">
        <ele>38.400001525879</ele>
        <time>2020-08-16T07:44:38.000Z</time>
      </trkpt>
      <trkpt lat="47.288" lon="-2.3619">
        <ele>38.400001525879</ele>
        <time>2020-08-16T07:44:43.000Z</time>
      </trkpt>
      <trkpt lat="47.28823" lon="-2.3617">
        <ele>38.400001525879</ele>
        <time>2020-08-16T07:44:49.000Z</time>
      </trkpt>
      <trkpt lat="47.28826" lon="-2.36166">
        <ele>38.400001525879</ele>
        <time>2020-08-16T07:44:50.000Z</time>
      </trkpt>
      <trkpt lat="47.28849" lon="-2.36133">
        <ele>38.400001525879</ele>
        <time>2020-08-16T07:44:57.000Z</time>
      </trkpt>
      <trkpt lat="47.28876" lon="-2.36106">
        <ele>38.400001525879</ele>
        <time>2020-08-16T07:45:04.000Z</time>
      </trkpt>
      <trkpt lat="47.28907" lon="-2.36075">
        <ele>38.400001525879</ele>
        <time>2020-08-16T07:45:12.000Z</time>
      </trkpt>
      <trkpt lat="47.28931" lon="-2.36057">
        <ele>38.400001525879</ele>
        <time>2020-08-16T07:45:18.000Z</time>
      </trkpt>
      <trkpt lat="47.28935" lon="-2.36054">
        <ele>38.400001525879</ele>
        <time>2020-08-16T07:45:19.000Z</time>
      </trkpt>
      <trkpt lat="47.28959" lon="-2.36036">
        <ele>38.400001525879</ele>
        <time>2020-08-16T07:45:25.000Z</time>
      </trkpt>
      <trkpt lat="47.28985" lon="-2.36013">
        <ele>38.400001525879</ele>
        <time>2020-08-16T07:45:31.000Z</time>
      </trkpt>
      <trkpt lat="47.28989" lon="-2.36009">
        <ele>38.400001525879</ele>
        <time>2020-08-16T07:45:32.000Z</time>
      </trkpt>
      <trkpt lat="47.29018" lon="-2.35979">
        <ele>38.400001525879</ele>
        <time>2020-08-16T07:45:39.000Z</time>
      </trkpt>
      <trkpt lat="47.29055" lon="-2.35937">
        <ele>38.400001525879</ele>
        <time>2020-08-16T07:45:48.000Z</time>
      </trkpt>
      <trkpt lat="47.29088" lon="-2.35899">
        <ele>38.400001525879</ele>
        <time>2020-08-16T07:45:56.000Z</time>
      </trkpt>
      <trkpt lat="47.29115" lon="-2.35866">
        <ele>38.400001525879</ele>
        <time>2020-08-16T07:46:03.000Z</time>
      </trkpt>
      <trkpt lat="47.29143" lon="-2.35836">
        <ele>38.400001525879</ele>
        <time>2020-08-16T07:46:10.000Z</time>
      </trkpt>
      <trkpt lat="47.29151" lon="-2.35829">
        <ele>38.400001525879</ele>
        <time>2020-08-16T07:46:12.000Z</time>
      </trkpt>
      <trkpt lat="47.29166" lon="-2.35818">
        <ele>38.400001525879</ele>
        <time>2020-08-16T07:46:15.000Z</time>
      </trkpt>
      <trkpt lat="47.29171" lon="-2.35815">
        <ele>38.400001525879</ele>
        <time>2020-08-16T07:46:16.000Z</time>
      </trkpt>
      <trkpt lat="47.29206" lon="-2.3579">
        <ele>38.400001525879</ele>
        <time>2020-08-16T07:46:23.000Z</time>
      </trkpt>
      <trkpt lat="47.29231" lon="-2.35766">
        <ele>38.400001525879</ele>
        <time>2020-08-16T07:46:29.000Z</time>
      </trkpt>
      <trkpt lat="47.29244" lon="-2.35749">
        <ele>38.400001525879</ele>
        <time>2020-08-16T07:46:33.000Z</time>
      </trkpt>
      <trkpt lat="47.29251" lon="-2.35736">
        <ele>38.400001525879</ele>
        <time>2020-08-16T07:46:36.000Z</time>
      </trkpt>
      <trkpt lat="47.29253" lon="-2.35732">
        <ele>38.400001525879</ele>
        <time>2020-08-16T07:46:39.000Z</time>
      </trkpt>
      <trkpt lat="47.29255" lon="-2.35729">
        <ele>38.400001525879</ele>
        <time>2020-08-16T07:46:48.000Z</time>
      </trkpt>
      <trkpt lat="47.29267" lon="-2.35731">
        <ele>38.400001525879</ele>
        <time>2020-08-16T07:46:52.000Z</time>
      </trkpt>
      <trkpt lat="47.29276" lon="-2.35739">
        <ele>38.400001525879</ele>
        <time>2020-08-16T07:46:54.000Z</time>
      </trkpt>
      <trkpt lat="47.2929" lon="-2.35751">
        <ele>38.400001525879</ele>
        <time>2020-08-16T07:46:57.000Z</time>
      </trkpt>
      <trkpt lat="47.29324" lon="-2.35781">
        <ele>38.400001525879</ele>
        <time>2020-08-16T07:47:04.000Z</time>
      </trkpt>
      <trkpt lat="47.29353" lon="-2.35809">
        <ele>38.400001525879</ele>
        <time>2020-08-16T07:47:10.000Z</time>
      </trkpt>
      <trkpt lat="47.29385" lon="-2.35839">
        <ele>38.400001525879</ele>
        <time>2020-08-16T07:47:17.000Z</time>
      </trkpt>
      <trkpt lat="47.29393" lon="-2.35848">
        <ele>38.400001525879</ele>
        <time>2020-08-16T07:47:19.000Z</time>
      </trkpt>
      <trkpt lat="47.29408" lon="-2.35866">
        <ele>38.400001525879</ele>
        <time>2020-08-16T07:47:23.000Z</time>
      </trkpt>
      <trkpt lat="47.29435" lon="-2.35899">
        <ele>38.400001525879</ele>
        <time>2020-08-16T07:47:30.000Z</time>
      </trkpt>
      <trkpt lat="47.2944" lon="-2.35901">
        <ele>38.400001525879</ele>
        <time>2020-08-16T07:47:31.000Z</time>
      </trkpt>
      <trkpt lat="47.29444" lon="-2.35903">
        <ele>38.400001525879</ele>
        <time>2020-08-16T07:47:32.000Z</time>
      </trkpt>
      <trkpt lat="47.29449" lon="-2.35903">
        <ele>38.400001525879</ele>
        <time>2020-08-16T07:47:33.000Z</time>
      </trkpt>
      <trkpt lat="47.29463" lon="-2.35903">
        <ele>38.400001525879</ele>
        <time>2020-08-16T07:47:36.000Z</time>
      </trkpt>
      <trkpt lat="47.29473" lon="-2.35902">
        <ele>38.400001525879</ele>
        <time>2020-08-16T07:47:38.000Z</time>
      </trkpt>
      <trkpt lat="47.29495" lon="-2.35898">
        <ele>38.400001525879</ele>
        <time>2020-08-16T07:47:43.000Z</time>
      </trkpt>
      <trkpt lat="47.29499" lon="-2.35898">
        <ele>38.400001525879</ele>
        <time>2020-08-16T07:47:44.000Z</time>
      </trkpt>
      <trkpt lat="47.29502" lon="-2.35901">
        <ele>38.400001525879</ele>
        <time>2020-08-16T07:47:45.000Z</time>
      </trkpt>
      <trkpt lat="47.29506" lon="-2.35913">
        <ele>38.400001525879</ele>
        <time>2020-08-16T07:47:47.000Z</time>
      </trkpt>
      <trkpt lat="47.29515" lon="-2.35939">
        <ele>38.400001525879</ele>
        <time>2020-08-16T07:47:52.000Z</time>
      </trkpt>
      <trkpt lat="47.29526" lon="-2.35934">
        <ele>38.400001525879</ele>
        <time>2020-08-16T07:47:55.000Z</time>
      </trkpt>
      <trkpt lat="47.29541" lon="-2.35926">
        <ele>38.400001525879</ele>
        <time>2020-08-16T07:47:58.000Z</time>
      </trkpt>
      <trkpt lat="47.29546" lon="-2.35923">
        <ele>38.400001525879</ele>
        <time>2020-08-16T07:47:59.000Z</time>
      </trkpt>
      <trkpt lat="47.29579" lon="-2.35905">
        <ele>38.400001525879</ele>
        <time>2020-08-16T07:48:06.000Z</time>
      </trkpt>
      <trkpt lat="47.29615" lon="-2.35884">
        <ele>38.400001525879</ele>
        <time>2020-08-16T07:48:13.000Z</time>
      </trkpt>
      <trkpt lat="47.29649" lon="-2.3586">
        <ele>38.400001525879</ele>
        <time>2020-08-16T07:48:19.000Z</time>
      </trkpt>
      <trkpt lat="47.29659" lon="-2.35841">
        <ele>38.400001525879</ele>
        <time>2020-08-16T07:48:22.000Z</time>
      </trkpt>
      <trkpt lat="47.29675" lon="-2.35839">
        <ele>38.400001525879</ele>
        <time>2020-08-16T07:48:25.000Z</time>
      </trkpt>
      <trkpt lat="47.297" lon="-2.35836">
        <ele>38.400001525879</ele>
        <time>2020-08-16T07:48:29.000Z</time>
      </trkpt>
      <trkpt lat="47.29707" lon="-2.35833">
        <ele>38.400001525879</ele>
        <time>2020-08-16T07:48:30.000Z</time>
      </trkpt>
      <trkpt lat="47.29713" lon="-2.3583">
        <ele>38.400001525879</ele>
        <time>2020-08-16T07:48:31.000Z</time>
      </trkpt>
      <trkpt lat="47.29736" lon="-2.35816">
        <ele>38.400001525879</ele>
        <time>2020-08-16T07:48:35.000Z</time>
      </trkpt>
      <trkpt lat="47.29751" lon="-2.35808">
        <ele>38.799999237061</ele>
        <time>2020-08-16T07:48:38.000Z</time>
      </trkpt>
      <trkpt lat="47.29755" lon="-2.35806">
        <ele>39.599998474121</ele>
        <time>2020-08-16T07:48:39.000Z</time>
      </trkpt>
      <trkpt lat="47.2976" lon="-2.35805">
        <ele>40</ele>
        <time>2020-08-16T07:48:40.000Z</time>
      </trkpt>
      <trkpt lat="47.29765" lon="-2.35803">
        <ele>40.400001525879</ele>
        <time>2020-08-16T07:48:41.000Z</time>
      </trkpt>
      <trkpt lat="47.29804" lon="-2.35789">
        <ele>40.400001525879</ele>
        <time>2020-08-16T07:48:49.000Z</time>
      </trkpt>
      <trkpt lat="47.29849" lon="-2.35773">
        <ele>40.400001525879</ele>
        <time>2020-08-16T07:48:57.000Z</time>
      </trkpt>
      <trkpt lat="47.29892" lon="-2.35756">
        <ele>40.400001525879</ele>
        <time>2020-08-16T07:49:03.000Z</time>
      </trkpt>
      <trkpt lat="47.2993" lon="-2.35728">
        <ele>40.400001525879</ele>
        <time>2020-08-16T07:49:09.000Z</time>
      </trkpt>
      <trkpt lat="47.29969" lon="-2.35701">
        <ele>40.400001525879</ele>
        <time>2020-08-16T07:49:16.000Z</time>
      </trkpt>
      <trkpt lat="47.30008" lon="-2.35677">
        <ele>40.400001525879</ele>
        <time>2020-08-16T07:49:24.000Z</time>
      </trkpt>
      <trkpt lat="47.30043" lon="-2.35657">
        <ele>40.400001525879</ele>
        <time>2020-08-16T07:49:31.000Z</time>
      </trkpt>
      <trkpt lat="47.30049" lon="-2.35653">
        <ele>40.400001525879</ele>
        <time>2020-08-16T07:49:32.000Z</time>
      </trkpt>
      <trkpt lat="47.3008" lon="-2.35634">
        <ele>40.799999237061</ele>
        <time>2020-08-16T07:49:38.000Z</time>
      </trkpt>
      <trkpt lat="47.30085" lon="-2.35631">
        <ele>41.400001525879</ele>
        <time>2020-08-16T07:49:39.000Z</time>
      </trkpt>
      <trkpt lat="47.3009" lon="-2.35628">
        <ele>41.799999237061</ele>
        <time>2020-08-16T07:49:40.000Z</time>
      </trkpt>
      <trkpt lat="47.30095" lon="-2.35624">
        <ele>42.200000762939</ele>
        <time>2020-08-16T07:49:41.000Z</time>
      </trkpt>
      <trkpt lat="47.301" lon="-2.35622">
        <ele>42.599998474121</ele>
        <time>2020-08-16T07:49:42.000Z</time>
      </trkpt>
      <trkpt lat="47.30117" lon="-2.35611">
        <ele>42.599998474121</ele>
        <time>2020-08-16T07:49:46.000Z</time>
      </trkpt>
      <trkpt lat="47.30131" lon="-2.35597">
        <ele>42.599998474121</ele>
        <time>2020-08-16T07:49:51.000Z</time>
      </trkpt>
      <trkpt lat="47.30138" lon="-2.3561">
        <ele>42.599998474121</ele>
        <time>2020-08-16T07:49:55.000Z</time>
      </trkpt>
      <trkpt lat="47.30135" lon="-2.3563">
        <ele>42.599998474121</ele>
        <time>2020-08-16T07:49:58.000Z</time>
      </trkpt>
      <trkpt lat="47.30134" lon="-2.35653">
        <ele>42.599998474121</ele>
        <time>2020-08-16T07:50:01.000Z</time>
      </trkpt>
      <trkpt lat="47.30135" lon="-2.3566">
        <ele>42.599998474121</ele>
        <time>2020-08-16T07:50:02.000Z</time>
      </trkpt>
      <trkpt lat="47.30137" lon="-2.35714">
        <ele>42.599998474121</ele>
        <time>2020-08-16T07:50:09.000Z</time>
      </trkpt>
      <trkpt lat="47.30141" lon="-2.3579">
        <ele>42.599998474121</ele>
        <time>2020-08-16T07:50:17.000Z</time>
      </trkpt>
      <trkpt lat="47.30136" lon="-2.35856">
        <ele>42.599998474121</ele>
        <time>2020-08-16T07:50:23.000Z</time>
      </trkpt>
      <trkpt lat="47.30132" lon="-2.3588">
        <ele>42.200000762939</ele>
        <time>2020-08-16T07:50:25.000Z</time>
      </trkpt>
      <trkpt lat="47.30129" lon="-2.35891">
        <ele>41.799999237061</ele>
        <time>2020-08-16T07:50:26.000Z</time>
      </trkpt>
      <trkpt lat="47.30127" lon="-2.35903">
        <ele>41.400001525879</ele>
        <time>2020-08-16T07:50:27.000Z</time>
      </trkpt>
      <trkpt lat="47.30124" lon="-2.35914">
        <ele>40.799999237061</ele>
        <time>2020-08-16T07:50:28.000Z</time>
      </trkpt>
      <trkpt lat="47.30122" lon="-2.35926">
        <ele>40.400001525879</ele>
        <time>2020-08-16T07:50:29.000Z</time>
      </trkpt>
      <trkpt lat="47.30115" lon="-2.3596">
        <ele>40.400001525879</ele>
        <time>2020-08-16T07:50:32.000Z</time>
      </trkpt>
      <trkpt lat="47.30111" lon="-2.3598">
        <ele>40</ele>
        <time>2020-08-16T07:50:34.000Z</time>
      </trkpt>
      <trkpt lat="47.3011" lon="-2.35989">
        <ele>39.599998474121</ele>
        <time>2020-08-16T07:50:35.000Z</time>
      </trkpt>
      <trkpt lat="47.30108" lon="-2.35999">
        <ele>39</ele>
        <time>2020-08-16T07:50:36.000Z</time>
      </trkpt>
      <trkpt lat="47.30107" lon="-2.36008">
        <ele>38.599998474121</ele>
        <time>2020-08-16T07:50:37.000Z</time>
      </trkpt>
      <trkpt lat="47.30106" lon="-2.36017">
        <ele>38.200000762939</ele>
        <time>2020-08-16T07:50:38.000Z</time>
      </trkpt>
      <trkpt lat="47.301" lon="-2.36075">
        <ele>38.200000762939</ele>
        <time>2020-08-16T07:50:44.000Z</time>
      </trkpt>
      <trkpt lat="47.30094" lon="-2.36134">
        <ele>38.200000762939</ele>
        <time>2020-08-16T07:50:51.000Z</time>
      </trkpt>
      <trkpt lat="47.30089" lon="-2.36188">
        <ele>38.200000762939</ele>
        <time>2020-08-16T07:50:58.000Z</time>
      </trkpt>
      <trkpt lat="47.3009" lon="-2.36234">
        <ele>38.200000762939</ele>
        <time>2020-08-16T07:51:04.000Z</time>
      </trkpt>
      <trkpt lat="47.30095" lon="-2.36285">
        <ele>38.200000762939</ele>
        <time>2020-08-16T07:51:11.000Z</time>
      </trkpt>
      <trkpt lat="47.30096" lon="-2.36302">
        <ele>38.200000762939</ele>
        <time>2020-08-16T07:51:13.000Z</time>
      </trkpt>
      <trkpt lat="47.301" lon="-2.36345">
        <ele>38.599998474121</ele>
        <time>2020-08-16T07:51:19.000Z</time>
      </trkpt>
      <trkpt lat="47.301" lon="-2.36353">
        <ele>39</ele>
        <time>2020-08-16T07:51:20.000Z</time>
      </trkpt>
      <trkpt lat="47.30101" lon="-2.3636">
        <ele>39.400001525879</ele>
        <time>2020-08-16T07:51:21.000Z</time>
      </trkpt>
      <trkpt lat="47.30101" lon="-2.36367">
        <ele>39.799999237061</ele>
        <time>2020-08-16T07:51:22.000Z</time>
      </trkpt>
      <trkpt lat="47.30102" lon="-2.36375">
        <ele>40.200000762939</ele>
        <time>2020-08-16T07:51:23.000Z</time>
      </trkpt>
      <trkpt lat="47.30103" lon="-2.36399">
        <ele>40.200000762939</ele>
        <time>2020-08-16T07:51:26.000Z</time>
      </trkpt>
      <trkpt lat="47.30113" lon="-2.36475">
        <ele>40.200000762939</ele>
        <time>2020-08-16T07:51:35.000Z</time>
      </trkpt>
      <trkpt lat="47.30119" lon="-2.36523">
        <ele>40.599998474121</ele>
        <time>2020-08-16T07:51:41.000Z</time>
      </trkpt>
      <trkpt lat="47.3012" lon="-2.3653">
        <ele>41.200000762939</ele>
        <time>2020-08-16T07:51:42.000Z</time>
      </trkpt>
      <trkpt lat="47.3012" lon="-2.36538">
        <ele>41.599998474121</ele>
        <time>2020-08-16T07:51:43.000Z</time>
      </trkpt>
      <trkpt lat="47.30121" lon="-2.36545">
        <ele>42</ele>
        <time>2020-08-16T07:51:44.000Z</time>
      </trkpt>
      <trkpt lat="47.30123" lon="-2.36553">
        <ele>42.400001525879</ele>
        <time>2020-08-16T07:51:45.000Z</time>
      </trkpt>
      <trkpt lat="47.3013" lon="-2.36592">
        <ele>42.400001525879</ele>
        <time>2020-08-16T07:51:50.000Z</time>
      </trkpt>
      <trkpt lat="47.30137" lon="-2.36622">
        <ele>42.400001525879</ele>
        <time>2020-08-16T07:51:54.000Z</time>
      </trkpt>
      <trkpt lat="47.30142" lon="-2.36635">
        <ele>42.400001525879</ele>
        <time>2020-08-16T07:51:56.000Z</time>
      </trkpt>
      <trkpt lat="47.30155" lon="-2.36663">
        <ele>42.799999237061</ele>
        <time>2020-08-16T07:52:01.000Z</time>
      </trkpt>
      <trkpt lat="47.30158" lon="-2.36668">
        <ele>43.200000762939</ele>
        <time>2020-08-16T07:52:02.000Z</time>
      </trkpt>
      <trkpt lat="47.3016" lon="-2.36672">
        <ele>43.599998474121</ele>
        <time>2020-08-16T07:52:03.000Z</time>
      </trkpt>
      <trkpt lat="47.30162" lon="-2.36675">
        <ele>44</ele>
        <time>2020-08-16T07:52:04.000Z</time>
      </trkpt>
      <trkpt lat="47.30164" lon="-2.36678">
        <ele>44.599998474121</ele>
        <time>2020-08-16T07:52:05.000Z</time>
      </trkpt>
      <trkpt lat="47.30167" lon="-2.36682">
        <ele>44.599998474121</ele>
        <time>2020-08-16T07:52:07.000Z</time>
      </trkpt>
      <trkpt lat="47.30174" lon="-2.36682">
        <ele>44.599998474121</ele>
        <time>2020-08-16T07:52:12.000Z</time>
      </trkpt>
      <trkpt lat="47.30175" lon="-2.36681">
        <ele>44.599998474121</ele>
        <time>2020-08-16T07:52:14.000Z</time>
      </trkpt>
      <trkpt lat="47.30183" lon="-2.36679">
        <ele>44.599998474121</ele>
        <time>2020-08-16T07:52:49.000Z</time>
      </trkpt>
      <trkpt lat="47.30185" lon="-2.36678">
        <ele>44.599998474121</ele>
        <time>2020-08-16T07:52:50.000Z</time>
      </trkpt>
      <trkpt lat="47.30199" lon="-2.36673">
        <ele>44.599998474121</ele>
        <time>2020-08-16T07:52:55.000Z</time>
      </trkpt>
      <trkpt lat="47.30207" lon="-2.36672">
        <ele>44.599998474121</ele>
        <time>2020-08-16T07:52:57.000Z</time>
      </trkpt>
      <trkpt lat="47.30219" lon="-2.3667">
        <ele>44.599998474121</ele>
        <time>2020-08-16T07:53:00.000Z</time>
      </trkpt>
      <trkpt lat="47.3025" lon="-2.36665">
        <ele>44.599998474121</ele>
        <time>2020-08-16T07:53:08.000Z</time>
      </trkpt>
      <trkpt lat="47.30263" lon="-2.36661">
        <ele>45.400001525879</ele>
        <time>2020-08-16T07:53:11.000Z</time>
      </trkpt>
      <trkpt lat="47.30268" lon="-2.3666">
        <ele>45.799999237061</ele>
        <time>2020-08-16T07:53:12.000Z</time>
      </trkpt>
      <trkpt lat="47.30272" lon="-2.36658">
        <ele>46.200000762939</ele>
        <time>2020-08-16T07:53:13.000Z</time>
      </trkpt>
      <trkpt lat="47.30276" lon="-2.36657">
        <ele>46.599998474121</ele>
        <time>2020-08-16T07:53:14.000Z</time>
      </trkpt>
      <trkpt lat="47.3028" lon="-2.36655">
        <ele>46.599998474121</ele>
        <time>2020-08-16T07:53:15.000Z</time>
      </trkpt>
      <trkpt lat="47.303" lon="-2.36647">
        <ele>46.599998474121</ele>
        <time>2020-08-16T07:53:21.000Z</time>
      </trkpt>
      <trkpt lat="47.30317" lon="-2.36645">
        <ele>46.599998474121</ele>
        <time>2020-08-16T07:53:25.000Z</time>
      </trkpt>
      <trkpt lat="47.30323" lon="-2.36646">
        <ele>46.599998474121</ele>
        <time>2020-08-16T07:53:26.000Z</time>
      </trkpt>
      <trkpt lat="47.30352" lon="-2.36652">
        <ele>46.599998474121</ele>
        <time>2020-08-16T07:53:32.000Z</time>
      </trkpt>
      <trkpt lat="47.30357" lon="-2.36653">
        <ele>46.599998474121</ele>
        <time>2020-08-16T07:53:33.000Z</time>
      </trkpt>
      <trkpt lat="47.3038" lon="-2.36656">
        <ele>47</ele>
        <time>2020-08-16T07:53:38.000Z</time>
      </trkpt>
      <trkpt lat="47.30385" lon="-2.36657">
        <ele>47.400001525879</ele>
        <time>2020-08-16T07:53:39.000Z</time>
      </trkpt>
      <trkpt lat="47.30389" lon="-2.36657">
        <ele>47.799999237061</ele>
        <time>2020-08-16T07:53:40.000Z</time>
      </trkpt>
      <trkpt lat="47.30394" lon="-2.36656">
        <ele>48.400001525879</ele>
        <time>2020-08-16T07:53:41.000Z</time>
      </trkpt>
      <trkpt lat="47.30398" lon="-2.36656">
        <ele>48.799999237061</ele>
        <time>2020-08-16T07:53:42.000Z</time>
      </trkpt>
      <trkpt lat="47.30407" lon="-2.36656">
        <ele>48.799999237061</ele>
        <time>2020-08-16T07:53:44.000Z</time>
      </trkpt>
      <trkpt lat="47.30428" lon="-2.36646">
        <ele>48.799999237061</ele>
        <time>2020-08-16T07:53:49.000Z</time>
      </trkpt>
      <trkpt lat="47.3045" lon="-2.36625">
        <ele>48.799999237061</ele>
        <time>2020-08-16T07:53:55.000Z</time>
      </trkpt>
      <trkpt lat="47.30454" lon="-2.36622">
        <ele>48.799999237061</ele>
        <time>2020-08-16T07:53:56.000Z</time>
      </trkpt>
      <trkpt lat="47.30474" lon="-2.36609">
        <ele>48.799999237061</ele>
        <time>2020-08-16T07:54:01.000Z</time>
      </trkpt>
      <trkpt lat="47.30487" lon="-2.36605">
        <ele>48.799999237061</ele>
        <time>2020-08-16T07:54:05.000Z</time>
      </trkpt>
      <trkpt lat="47.30496" lon="-2.36601">
        <ele>48.799999237061</ele>
        <time>2020-08-16T07:54:11.000Z</time>
      </trkpt>
      <trkpt lat="47.30497" lon="-2.36601">
        <ele>48.799999237061</ele>
        <time>2020-08-16T07:54:13.000Z</time>
      </trkpt>
      <trkpt lat="47.30498" lon="-2.36601">
        <ele>48.799999237061</ele>
        <time>2020-08-16T07:54:14.000Z</time>
      </trkpt>
      <trkpt lat="47.30503" lon="-2.366">
        <ele>48.799999237061</ele>
        <time>2020-08-16T07:54:27.000Z</time>
      </trkpt>
      <trkpt lat="47.30505" lon="-2.36599">
        <ele>48.799999237061</ele>
        <time>2020-08-16T07:54:28.000Z</time>
      </trkpt>
      <trkpt lat="47.30519" lon="-2.36596">
        <ele>48.799999237061</ele>
        <time>2020-08-16T07:54:33.000Z</time>
      </trkpt>
      <trkpt lat="47.30535" lon="-2.36585">
        <ele>48.799999237061</ele>
        <time>2020-08-16T07:54:38.000Z</time>
      </trkpt>
      <trkpt lat="47.30563" lon="-2.36562">
        <ele>48.799999237061</ele>
        <time>2020-08-16T07:54:45.000Z</time>
      </trkpt>
      <trkpt lat="47.30581" lon="-2.36553">
        <ele>48.799999237061</ele>
        <time>2020-08-16T07:54:50.000Z</time>
      </trkpt>
      <trkpt lat="47.30605" lon="-2.36547">
        <ele>48.799999237061</ele>
        <time>2020-08-16T07:54:55.000Z</time>
      </trkpt>
      <trkpt lat="47.30624" lon="-2.36544">
        <ele>48.799999237061</ele>
        <time>2020-08-16T07:54:59.000Z</time>
      </trkpt>
      <trkpt lat="47.30632" lon="-2.3654">
        <ele>48.799999237061</ele>
        <time>2020-08-16T07:55:01.000Z</time>
      </trkpt>
      <trkpt lat="47.30656" lon="-2.36526">
        <ele>48.799999237061</ele>
        <time>2020-08-16T07:55:06.000Z</time>
      </trkpt>
      <trkpt lat="47.30686" lon="-2.36511">
        <ele>48.799999237061</ele>
        <time>2020-08-16T07:55:12.000Z</time>
      </trkpt>
      <trkpt lat="47.3069" lon="-2.36512">
        <ele>48.799999237061</ele>
        <time>2020-08-16T07:55:13.000Z</time>
      </trkpt>
      <trkpt lat="47.30694" lon="-2.36517">
        <ele>48.799999237061</ele>
        <time>2020-08-16T07:55:15.000Z</time>
      </trkpt>
      <trkpt lat="47.30707" lon="-2.36513">
        <ele>48.799999237061</ele>
        <time>2020-08-16T07:55:19.000Z</time>
      </trkpt>
      <trkpt lat="47.30712" lon="-2.36508">
        <ele>48.799999237061</ele>
        <time>2020-08-16T07:55:20.000Z</time>
      </trkpt>
      <trkpt lat="47.30729" lon="-2.36497">
        <ele>48.799999237061</ele>
        <time>2020-08-16T07:55:23.000Z</time>
      </trkpt>
      <trkpt lat="47.30735" lon="-2.36494">
        <ele>48.799999237061</ele>
        <time>2020-08-16T07:55:24.000Z</time>
      </trkpt>
      <trkpt lat="47.30748" lon="-2.36488">
        <ele>48.400001525879</ele>
        <time>2020-08-16T07:55:26.000Z</time>
      </trkpt>
      <trkpt lat="47.30754" lon="-2.36486">
        <ele>48</ele>
        <time>2020-08-16T07:55:27.000Z</time>
      </trkpt>
      <trkpt lat="47.30761" lon="-2.36483">
        <ele>47.599998474121</ele>
        <time>2020-08-16T07:55:28.000Z</time>
      </trkpt>
      <trkpt lat="47.30767" lon="-2.36481">
        <ele>47</ele>
        <time>2020-08-16T07:55:29.000Z</time>
      </trkpt>
      <trkpt lat="47.30774" lon="-2.36479">
        <ele>46.599998474121</ele>
        <time>2020-08-16T07:55:30.000Z</time>
      </trkpt>
      <trkpt lat="47.30801" lon="-2.36473">
        <ele>46.599998474121</ele>
        <time>2020-08-16T07:55:34.000Z</time>
      </trkpt>
      <trkpt lat="47.30807" lon="-2.36471">
        <ele>46.599998474121</ele>
        <time>2020-08-16T07:55:35.000Z</time>
      </trkpt>
      <trkpt lat="47.30824" lon="-2.36482">
        <ele>46.599998474121</ele>
        <time>2020-08-16T07:55:38.000Z</time>
      </trkpt>
      <trkpt lat="47.30842" lon="-2.36485">
        <ele>46.599998474121</ele>
        <time>2020-08-16T07:55:41.000Z</time>
      </trkpt>
      <trkpt lat="47.30855" lon="-2.36483">
        <ele>46.599998474121</ele>
        <time>2020-08-16T07:55:43.000Z</time>
      </trkpt>
      <trkpt lat="47.30867" lon="-2.36481">
        <ele>46.599998474121</ele>
        <time>2020-08-16T07:55:45.000Z</time>
      </trkpt>
      <trkpt lat="47.30873" lon="-2.36479">
        <ele>46.599998474121</ele>
        <time>2020-08-16T07:55:46.000Z</time>
      </trkpt>
      <trkpt lat="47.30885" lon="-2.36474">
        <ele>46.599998474121</ele>
        <time>2020-08-16T07:55:48.000Z</time>
      </trkpt>
      <trkpt lat="47.30896" lon="-2.36471">
        <ele>46.200000762939</ele>
        <time>2020-08-16T07:55:50.000Z</time>
      </trkpt>
      <trkpt lat="47.30902" lon="-2.36469">
        <ele>45.799999237061</ele>
        <time>2020-08-16T07:55:51.000Z</time>
      </trkpt>
      <trkpt lat="47.30907" lon="-2.36467">
        <ele>45.400001525879</ele>
        <time>2020-08-16T07:55:52.000Z</time>
      </trkpt>
      <trkpt lat="47.30912" lon="-2.36465">
        <ele>45</ele>
        <time>2020-08-16T07:55:53.000Z</time>
      </trkpt>
      <trkpt lat="47.30918" lon="-2.36463">
        <ele>44.599998474121</ele>
        <time>2020-08-16T07:55:54.000Z</time>
      </trkpt>
      <trkpt lat="47.30928" lon="-2.36461">
        <ele>44.599998474121</ele>
        <time>2020-08-16T07:55:56.000Z</time>
      </trkpt>
      <trkpt lat="47.30939" lon="-2.36458">
        <ele>44.599998474121</ele>
        <time>2020-08-16T07:55:58.000Z</time>
      </trkpt>
      <trkpt lat="47.30955" lon="-2.36454">
        <ele>44.599998474121</ele>
        <time>2020-08-16T07:56:01.000Z</time>
      </trkpt>
      <trkpt lat="47.30985" lon="-2.3644">
        <ele>44.599998474121</ele>
        <time>2020-08-16T07:56:07.000Z</time>
      </trkpt>
      <trkpt lat="47.31013" lon="-2.36427">
        <ele>44.599998474121</ele>
        <time>2020-08-16T07:56:12.000Z</time>
      </trkpt>
      <trkpt lat="47.31019" lon="-2.36425">
        <ele>44.599998474121</ele>
        <time>2020-08-16T07:56:13.000Z</time>
      </trkpt>
      <trkpt lat="47.3106" lon="-2.36418">
        <ele>44.599998474121</ele>
        <time>2020-08-16T07:56:20.000Z</time>
      </trkpt>
      <trkpt lat="47.31082" lon="-2.36417">
        <ele>44.599998474121</ele>
        <time>2020-08-16T07:56:25.000Z</time>
      </trkpt>
      <trkpt lat="47.31083" lon="-2.36417">
        <ele>44.200000762939</ele>
        <time>2020-08-16T07:56:26.000Z</time>
      </trkpt>
      <trkpt lat="47.31083" lon="-2.36417">
        <ele>43.599998474121</ele>
        <time>2020-08-16T07:56:27.000Z</time>
      </trkpt>
      <trkpt lat="47.31085" lon="-2.36417">
        <ele>42.400001525879</ele>
        <time>2020-08-16T07:56:30.000Z</time>
      </trkpt>
      <trkpt lat="47.31088" lon="-2.36417">
        <ele>42.400001525879</ele>
        <time>2020-08-16T07:56:31.000Z</time>
      </trkpt>
      <trkpt lat="47.31103" lon="-2.36412">
        <ele>42.400001525879</ele>
        <time>2020-08-16T07:56:35.000Z</time>
      </trkpt>
      <trkpt lat="47.31127" lon="-2.36397">
        <ele>42.400001525879</ele>
        <time>2020-08-16T07:56:41.000Z</time>
      </trkpt>
      <trkpt lat="47.31136" lon="-2.3639">
        <ele>42.400001525879</ele>
        <time>2020-08-16T07:56:43.000Z</time>
      </trkpt>
      <trkpt lat="47.31156" lon="-2.36375">
        <ele>42.400001525879</ele>
        <time>2020-08-16T07:56:47.000Z</time>
      </trkpt>
      <trkpt lat="47.31196" lon="-2.36352">
        <ele>42.400001525879</ele>
        <time>2020-08-16T07:56:54.000Z</time>
      </trkpt>
      <trkpt lat="47.31236" lon="-2.36329">
        <ele>42.400001525879</ele>
        <time>2020-08-16T07:57:01.000Z</time>
      </trkpt>
      <trkpt lat="47.31258" lon="-2.36314">
        <ele>42.799999237061</ele>
        <time>2020-08-16T07:57:05.000Z</time>
      </trkpt>
      <trkpt lat="47.31263" lon="-2.36311">
        <ele>43.200000762939</ele>
        <time>2020-08-16T07:57:06.000Z</time>
      </trkpt>
      <trkpt lat="47.31269" lon="-2.36309">
        <ele>43.599998474121</ele>
        <time>2020-08-16T07:57:07.000Z</time>
      </trkpt>
      <trkpt lat="47.31275" lon="-2.36306">
        <ele>44</ele>
        <time>2020-08-16T07:57:08.000Z</time>
      </trkpt>
      <trkpt lat="47.3128" lon="-2.36304">
        <ele>44.400001525879</ele>
        <time>2020-08-16T07:57:09.000Z</time>
      </trkpt>
      <trkpt lat="47.31313" lon="-2.36288">
        <ele>44.400001525879</ele>
        <time>2020-08-16T07:57:15.000Z</time>
      </trkpt>
      <trkpt lat="47.31318" lon="-2.36284">
        <ele>44.400001525879</ele>
        <time>2020-08-16T07:57:16.000Z</time>
      </trkpt>
      <trkpt lat="47.31327" lon="-2.36274">
        <ele>44.400001525879</ele>
        <time>2020-08-16T07:57:18.000Z</time>
      </trkpt>
      <trkpt lat="47.31337" lon="-2.36266">
        <ele>44.400001525879</ele>
        <time>2020-08-16T07:57:20.000Z</time>
      </trkpt>
      <trkpt lat="47.31371" lon="-2.36237">
        <ele>44.400001525879</ele>
        <time>2020-08-16T07:57:27.000Z</time>
      </trkpt>
      <trkpt lat="47.31405" lon="-2.36219">
        <ele>44.400001525879</ele>
        <time>2020-08-16T07:57:33.000Z</time>
      </trkpt>
      <trkpt lat="47.3145" lon="-2.36191">
        <ele>44.400001525879</ele>
        <time>2020-08-16T07:57:41.000Z</time>
      </trkpt>
      <trkpt lat="47.31459" lon="-2.36186">
        <ele>44.400001525879</ele>
        <time>2020-08-16T07:57:43.000Z</time>
      </trkpt>
      <trkpt lat="47.31461" lon="-2.36186">
        <ele>44.400001525879</ele>
        <time>2020-08-16T07:57:45.000Z</time>
      </trkpt>
      <trkpt lat="47.31463" lon="-2.36189">
        <ele>44.400001525879</ele>
        <time>2020-08-16T07:57:47.000Z</time>
      </trkpt>
      <trkpt lat="47.31467" lon="-2.36199">
        <ele>44.400001525879</ele>
        <time>2020-08-16T07:57:50.000Z</time>
      </trkpt>
      <trkpt lat="47.31469" lon="-2.36202">
        <ele>44.400001525879</ele>
        <time>2020-08-16T07:57:51.000Z</time>
      </trkpt>
      <trkpt lat="47.31474" lon="-2.36224">
        <ele>44.400001525879</ele>
        <time>2020-08-16T07:57:55.000Z</time>
      </trkpt>
      <trkpt lat="47.31484" lon="-2.36266">
        <ele>44.400001525879</ele>
        <time>2020-08-16T07:58:01.000Z</time>
      </trkpt>
      <trkpt lat="47.31491" lon="-2.36311">
        <ele>44.400001525879</ele>
        <time>2020-08-16T07:58:07.000Z</time>
      </trkpt>
      <trkpt lat="47.31493" lon="-2.36335">
        <ele>44.400001525879</ele>
        <time>2020-08-16T07:58:10.000Z</time>
      </trkpt>
      <trkpt lat="47.31493" lon="-2.36352">
        <ele>44</ele>
        <time>2020-08-16T07:58:12.000Z</time>
      </trkpt>
      <trkpt lat="47.31492" lon="-2.3636">
        <ele>43.599998474121</ele>
        <time>2020-08-16T07:58:13.000Z</time>
      </trkpt>
      <trkpt lat="47.31493" lon="-2.36368">
        <ele>43.200000762939</ele>
        <time>2020-08-16T07:58:14.000Z</time>
      </trkpt>
      <trkpt lat="47.31493" lon="-2.36377">
        <ele>42.599998474121</ele>
        <time>2020-08-16T07:58:15.000Z</time>
      </trkpt>
      <trkpt lat="47.31494" lon="-2.36385">
        <ele>42.200000762939</ele>
        <time>2020-08-16T07:58:16.000Z</time>
      </trkpt>
      <trkpt lat="47.31494" lon="-2.36394">
        <ele>42.200000762939</ele>
        <time>2020-08-16T07:58:17.000Z</time>
      </trkpt>
      <trkpt lat="47.31495" lon="-2.36421">
        <ele>41.799999237061</ele>
        <time>2020-08-16T07:58:20.000Z</time>
      </trkpt>
      <trkpt lat="47.31495" lon="-2.36429">
        <ele>41.400001525879</ele>
        <time>2020-08-16T07:58:21.000Z</time>
      </trkpt>
      <trkpt lat="47.31496" lon="-2.36436">
        <ele>41</ele>
        <time>2020-08-16T07:58:22.000Z</time>
      </trkpt>
      <trkpt lat="47.31496" lon="-2.36444">
        <ele>40.599998474121</ele>
        <time>2020-08-16T07:58:23.000Z</time>
      </trkpt>
      <trkpt lat="47.31496" lon="-2.36451">
        <ele>40.200000762939</ele>
        <time>2020-08-16T07:58:24.000Z</time>
      </trkpt>
      <trkpt lat="47.31498" lon="-2.3649">
        <ele>40.200000762939</ele>
        <time>2020-08-16T07:58:29.000Z</time>
      </trkpt>
      <trkpt lat="47.31497" lon="-2.36498">
        <ele>40.200000762939</ele>
        <time>2020-08-16T07:58:30.000Z</time>
      </trkpt>
      <trkpt lat="47.31497" lon="-2.36506">
        <ele>39.599998474121</ele>
        <time>2020-08-16T07:58:31.000Z</time>
      </trkpt>
      <trkpt lat="47.31498" lon="-2.36513">
        <ele>39.200000762939</ele>
        <time>2020-08-16T07:58:32.000Z</time>
      </trkpt>
      <trkpt lat="47.31499" lon="-2.36519">
        <ele>38.799999237061</ele>
        <time>2020-08-16T07:58:33.000Z</time>
      </trkpt>
      <trkpt lat="47.315" lon="-2.36526">
        <ele>38.400001525879</ele>
        <time>2020-08-16T07:58:34.000Z</time>
      </trkpt>
      <trkpt lat="47.31498" lon="-2.36534">
        <ele>38</ele>
        <time>2020-08-16T07:58:35.000Z</time>
      </trkpt>
      <trkpt lat="47.31497" lon="-2.36542">
        <ele>38</ele>
        <time>2020-08-16T07:58:36.000Z</time>
      </trkpt>
      <trkpt lat="47.31496" lon="-2.36566">
        <ele>38</ele>
        <time>2020-08-16T07:58:39.000Z</time>
      </trkpt>
      <trkpt lat="47.31497" lon="-2.36583">
        <ele>38</ele>
        <time>2020-08-16T07:58:41.000Z</time>
      </trkpt>
      <trkpt lat="47.31499" lon="-2.36607">
        <ele>38</ele>
        <time>2020-08-16T07:58:44.000Z</time>
      </trkpt>
      <trkpt lat="47.31502" lon="-2.36621">
        <ele>38</ele>
        <time>2020-08-16T07:58:46.000Z</time>
      </trkpt>
      <trkpt lat="47.31511" lon="-2.36664">
        <ele>38</ele>
        <time>2020-08-16T07:58:52.000Z</time>
      </trkpt>
      <trkpt lat="47.31513" lon="-2.36672">
        <ele>38</ele>
        <time>2020-08-16T07:58:53.000Z</time>
      </trkpt>
      <trkpt lat="47.3152" lon="-2.36699">
        <ele>38</ele>
        <time>2020-08-16T07:58:57.000Z</time>
      </trkpt>
      <trkpt lat="47.31527" lon="-2.36731">
        <ele>38</ele>
        <time>2020-08-16T07:59:02.000Z</time>
      </trkpt>
      <trkpt lat="47.31536" lon="-2.36767">
        <ele>38</ele>
        <time>2020-08-16T07:59:07.000Z</time>
      </trkpt>
      <trkpt lat="47.3154" lon="-2.36781">
        <ele>38</ele>
        <time>2020-08-16T07:59:09.000Z</time>
      </trkpt>
      <trkpt lat="47.31544" lon="-2.36802">
        <ele>38.400001525879</ele>
        <time>2020-08-16T07:59:12.000Z</time>
      </trkpt>
      <trkpt lat="47.31547" lon="-2.36809">
        <ele>38.799999237061</ele>
        <time>2020-08-16T07:59:13.000Z</time>
      </trkpt>
      <trkpt lat="47.31549" lon="-2.36814">
        <ele>39.200000762939</ele>
        <time>2020-08-16T07:59:14.000Z</time>
      </trkpt>
      <trkpt lat="47.31551" lon="-2.36821">
        <ele>39.599998474121</ele>
        <time>2020-08-16T07:59:15.000Z</time>
      </trkpt>
      <trkpt lat="47.31553" lon="-2.36827">
        <ele>40</ele>
        <time>2020-08-16T07:59:16.000Z</time>
      </trkpt>
      <trkpt lat="47.31554" lon="-2.36834">
        <ele>40</ele>
        <time>2020-08-16T07:59:17.000Z</time>
      </trkpt>
      <trkpt lat="47.3156" lon="-2.36854">
        <ele>40</ele>
        <time>2020-08-16T07:59:20.000Z</time>
      </trkpt>
      <trkpt lat="47.31562" lon="-2.3686">
        <ele>41</ele>
        <time>2020-08-16T07:59:21.000Z</time>
      </trkpt>
      <trkpt lat="47.31564" lon="-2.36867">
        <ele>41.400001525879</ele>
        <time>2020-08-16T07:59:22.000Z</time>
      </trkpt>
      <trkpt lat="47.31567" lon="-2.36873">
        <ele>41.799999237061</ele>
        <time>2020-08-16T07:59:23.000Z</time>
      </trkpt>
      <trkpt lat="47.31569" lon="-2.3688">
        <ele>42.200000762939</ele>
        <time>2020-08-16T07:59:24.000Z</time>
      </trkpt>
      <trkpt lat="47.3157" lon="-2.36886">
        <ele>42.200000762939</ele>
        <time>2020-08-16T07:59:25.000Z</time>
      </trkpt>
      <trkpt lat="47.31571" lon="-2.36893">
        <ele>42.200000762939</ele>
        <time>2020-08-16T07:59:26.000Z</time>
      </trkpt>
      <trkpt lat="47.31575" lon="-2.36906">
        <ele>42.599998474121</ele>
        <time>2020-08-16T07:59:28.000Z</time>
      </trkpt>
      <trkpt lat="47.31577" lon="-2.36912">
        <ele>43</ele>
        <time>2020-08-16T07:59:29.000Z</time>
      </trkpt>
      <trkpt lat="47.31579" lon="-2.36919">
        <ele>43.400001525879</ele>
        <time>2020-08-16T07:59:30.000Z</time>
      </trkpt>
      <trkpt lat="47.31581" lon="-2.36925">
        <ele>43.799999237061</ele>
        <time>2020-08-16T07:59:31.000Z</time>
      </trkpt>
      <trkpt lat="47.31583" lon="-2.36931">
        <ele>44.200000762939</ele>
        <time>2020-08-16T07:59:32.000Z</time>
      </trkpt>
      <trkpt lat="47.31596" lon="-2.36967">
        <ele>44.599998474121</ele>
        <time>2020-08-16T07:59:38.000Z</time>
      </trkpt>
      <trkpt lat="47.31598" lon="-2.36973">
        <ele>45</ele>
        <time>2020-08-16T07:59:39.000Z</time>
      </trkpt>
      <trkpt lat="47.316" lon="-2.3698">
        <ele>45.400001525879</ele>
        <time>2020-08-16T07:59:40.000Z</time>
      </trkpt>
      <trkpt lat="47.31602" lon="-2.36986">
        <ele>45.799999237061</ele>
        <time>2020-08-16T07:59:41.000Z</time>
      </trkpt>
      <trkpt lat="47.31603" lon="-2.36992">
        <ele>46.400001525879</ele>
        <time>2020-08-16T07:59:42.000Z</time>
      </trkpt>
      <trkpt lat="47.31607" lon="-2.37005">
        <ele>46.400001525879</ele>
        <time>2020-08-16T07:59:44.000Z</time>
      </trkpt>
      <trkpt lat="47.31617" lon="-2.37032">
        <ele>46.400001525879</ele>
        <time>2020-08-16T07:59:49.000Z</time>
      </trkpt>
      <trkpt lat="47.31626" lon="-2.37049">
        <ele>46.400001525879</ele>
        <time>2020-08-16T07:59:52.000Z</time>
      </trkpt>
      <trkpt lat="47.31638" lon="-2.3707">
        <ele>46.799999237061</ele>
        <time>2020-08-16T07:59:56.000Z</time>
      </trkpt>
      <trkpt lat="47.31641" lon="-2.37076">
        <ele>47.200000762939</ele>
        <time>2020-08-16T07:59:57.000Z</time>
      </trkpt>
      <trkpt lat="47.31644" lon="-2.37082">
        <ele>47.599998474121</ele>
        <time>2020-08-16T07:59:58.000Z</time>
      </trkpt>
      <trkpt lat="47.31647" lon="-2.37088">
        <ele>48</ele>
        <time>2020-08-16T07:59:59.000Z</time>
      </trkpt>
      <trkpt lat="47.31649" lon="-2.37094">
        <ele>48.400001525879</ele>
        <time>2020-08-16T08:00:00.000Z</time>
      </trkpt>
      <trkpt lat="47.31656" lon="-2.3711">
        <ele>48.400001525879</ele>
        <time>2020-08-16T08:00:03.000Z</time>
      </trkpt>
      <trkpt lat="47.31672" lon="-2.37144">
        <ele>48.400001525879</ele>
        <time>2020-08-16T08:00:09.000Z</time>
      </trkpt>
      <trkpt lat="47.31675" lon="-2.37148">
        <ele>48.400001525879</ele>
        <time>2020-08-16T08:00:10.000Z</time>
      </trkpt>
      <trkpt lat="47.31686" lon="-2.37172">
        <ele>48.400001525879</ele>
        <time>2020-08-16T08:00:14.000Z</time>
      </trkpt>
      <trkpt lat="47.31688" lon="-2.37179">
        <ele>48.400001525879</ele>
        <time>2020-08-16T08:00:15.000Z</time>
      </trkpt>
      <trkpt lat="47.31691" lon="-2.37193">
        <ele>48.400001525879</ele>
        <time>2020-08-16T08:00:17.000Z</time>
      </trkpt>
      <trkpt lat="47.3169" lon="-2.37209">
        <ele>48.400001525879</ele>
        <time>2020-08-16T08:00:19.000Z</time>
      </trkpt>
      <trkpt lat="47.3168" lon="-2.37231">
        <ele>48.400001525879</ele>
        <time>2020-08-16T08:00:22.000Z</time>
      </trkpt>
      <trkpt lat="47.31666" lon="-2.37246">
        <ele>48.400001525879</ele>
        <time>2020-08-16T08:00:25.000Z</time>
      </trkpt>
      <trkpt lat="47.31661" lon="-2.3725">
        <ele>48.400001525879</ele>
        <time>2020-08-16T08:00:26.000Z</time>
      </trkpt>
      <trkpt lat="47.31656" lon="-2.37254">
        <ele>48.400001525879</ele>
        <time>2020-08-16T08:00:27.000Z</time>
      </trkpt>
      <trkpt lat="47.3163" lon="-2.37279">
        <ele>48.400001525879</ele>
        <time>2020-08-16T08:00:33.000Z</time>
      </trkpt>
      <trkpt lat="47.31626" lon="-2.37285">
        <ele>48.400001525879</ele>
        <time>2020-08-16T08:00:34.000Z</time>
      </trkpt>
      <trkpt lat="47.31622" lon="-2.37301">
        <ele>48.400001525879</ele>
        <time>2020-08-16T08:00:36.000Z</time>
      </trkpt>
      <trkpt lat="47.31623" lon="-2.37339">
        <ele>48.400001525879</ele>
        <time>2020-08-16T08:00:40.000Z</time>
      </trkpt>
      <trkpt lat="47.3163" lon="-2.37364">
        <ele>48.400001525879</ele>
        <time>2020-08-16T08:00:43.000Z</time>
      </trkpt>
      <trkpt lat="47.31633" lon="-2.37383">
        <ele>48.400001525879</ele>
        <time>2020-08-16T08:00:45.000Z</time>
      </trkpt>
      <trkpt lat="47.31637" lon="-2.37443">
        <ele>48.400001525879</ele>
        <time>2020-08-16T08:00:51.000Z</time>
      </trkpt>
      <trkpt lat="47.31639" lon="-2.37482">
        <ele>48.400001525879</ele>
        <time>2020-08-16T08:00:55.000Z</time>
      </trkpt>
      <trkpt lat="47.31637" lon="-2.37501">
        <ele>48.400001525879</ele>
        <time>2020-08-16T08:00:57.000Z</time>
      </trkpt>
      <trkpt lat="47.31626" lon="-2.37537">
        <ele>48.400001525879</ele>
        <time>2020-08-16T08:01:01.000Z</time>
      </trkpt>
      <trkpt lat="47.31617" lon="-2.37561">
        <ele>48.400001525879</ele>
        <time>2020-08-16T08:01:04.000Z</time>
      </trkpt>
      <trkpt lat="47.31615" lon="-2.37579">
        <ele>48.400001525879</ele>
        <time>2020-08-16T08:01:06.000Z</time>
      </trkpt>
      <trkpt lat="47.31614" lon="-2.37587">
        <ele>48</ele>
        <time>2020-08-16T08:01:07.000Z</time>
      </trkpt>
      <trkpt lat="47.31615" lon="-2.37596">
        <ele>47.599998474121</ele>
        <time>2020-08-16T08:01:08.000Z</time>
      </trkpt>
      <trkpt lat="47.31615" lon="-2.37604">
        <ele>47.200000762939</ele>
        <time>2020-08-16T08:01:09.000Z</time>
      </trkpt>
      <trkpt lat="47.31616" lon="-2.37612">
        <ele>46.799999237061</ele>
        <time>2020-08-16T08:01:10.000Z</time>
      </trkpt>
      <trkpt lat="47.31616" lon="-2.37621">
        <ele>46.400001525879</ele>
        <time>2020-08-16T08:01:11.000Z</time>
      </trkpt>
      <trkpt lat="47.31622" lon="-2.37646">
        <ele>46.400001525879</ele>
        <time>2020-08-16T08:01:14.000Z</time>
      </trkpt>
      <trkpt lat="47.31626" lon="-2.37653">
        <ele>46.400001525879</ele>
        <time>2020-08-16T08:01:15.000Z</time>
      </trkpt>
      <trkpt lat="47.31642" lon="-2.37665">
        <ele>46.400001525879</ele>
        <time>2020-08-16T08:01:18.000Z</time>
      </trkpt>
      <trkpt lat="47.31648" lon="-2.37668">
        <ele>46.400001525879</ele>
        <time>2020-08-16T08:01:19.000Z</time>
      </trkpt>
      <trkpt lat="47.31653" lon="-2.37671">
        <ele>46.400001525879</ele>
        <time>2020-08-16T08:01:20.000Z</time>
      </trkpt>
      <trkpt lat="47.31668" lon="-2.37686">
        <ele>46.400001525879</ele>
        <time>2020-08-16T08:01:23.000Z</time>
      </trkpt>
      <trkpt lat="47.31672" lon="-2.37692">
        <ele>46.400001525879</ele>
        <time>2020-08-16T08:01:24.000Z</time>
      </trkpt>
      <trkpt lat="47.31681" lon="-2.37703">
        <ele>46.400001525879</ele>
        <time>2020-08-16T08:01:26.000Z</time>
      </trkpt>
      <trkpt lat="47.31699" lon="-2.37713">
        <ele>46.400001525879</ele>
        <time>2020-08-16T08:01:29.000Z</time>
      </trkpt>
      <trkpt lat="47.31724" lon="-2.37715">
        <ele>46.400001525879</ele>
        <time>2020-08-16T08:01:33.000Z</time>
      </trkpt>
      <trkpt lat="47.31737" lon="-2.37711">
        <ele>46.400001525879</ele>
        <time>2020-08-16T08:01:35.000Z</time>
      </trkpt>
      <trkpt lat="47.31749" lon="-2.37704">
        <ele>46.400001525879</ele>
        <time>2020-08-16T08:01:37.000Z</time>
      </trkpt>
      <trkpt lat="47.31755" lon="-2.377">
        <ele>46.400001525879</ele>
        <time>2020-08-16T08:01:38.000Z</time>
      </trkpt>
      <trkpt lat="47.31771" lon="-2.37684">
        <ele>46.400001525879</ele>
        <time>2020-08-16T08:01:41.000Z</time>
      </trkpt>
      <trkpt lat="47.31786" lon="-2.37669">
        <ele>46.400001525879</ele>
        <time>2020-08-16T08:01:44.000Z</time>
      </trkpt>
      <trkpt lat="47.31804" lon="-2.37655">
        <ele>46.400001525879</ele>
        <time>2020-08-16T08:01:48.000Z</time>
      </trkpt>
      <trkpt lat="47.31809" lon="-2.37654">
        <ele>46.400001525879</ele>
        <time>2020-08-16T08:01:49.000Z</time>
      </trkpt>
      <trkpt lat="47.31826" lon="-2.3766">
        <ele>46.400001525879</ele>
        <time>2020-08-16T08:01:53.000Z</time>
      </trkpt>
      <trkpt lat="47.31824" lon="-2.37679">
        <ele>46.400001525879</ele>
        <time>2020-08-16T08:01:56.000Z</time>
      </trkpt>
      <trkpt lat="47.31822" lon="-2.37686">
        <ele>46.400001525879</ele>
        <time>2020-08-16T08:01:57.000Z</time>
      </trkpt>
      <trkpt lat="47.31819" lon="-2.37702">
        <ele>46.400001525879</ele>
        <time>2020-08-16T08:01:59.000Z</time>
      </trkpt>
      <trkpt lat="47.31817" lon="-2.3772">
        <ele>46.400001525879</ele>
        <time>2020-08-16T08:02:01.000Z</time>
      </trkpt>
      <trkpt lat="47.31811" lon="-2.37792">
        <ele>46.400001525879</ele>
        <time>2020-08-16T08:02:09.000Z</time>
      </trkpt>
      <trkpt lat="47.31802" lon="-2.37864">
        <ele>46.400001525879</ele>
        <time>2020-08-16T08:02:17.000Z</time>
      </trkpt>
      <trkpt lat="47.31796" lon="-2.37919">
        <ele>45.799999237061</ele>
        <time>2020-08-16T08:02:23.000Z</time>
      </trkpt>
      <trkpt lat="47.31795" lon="-2.37929">
        <ele>45.400001525879</ele>
        <time>2020-08-16T08:02:24.000Z</time>
      </trkpt>
      <trkpt lat="47.31795" lon="-2.37938">
        <ele>45</ele>
        <time>2020-08-16T08:02:25.000Z</time>
      </trkpt>
      <trkpt lat="47.31794" lon="-2.37948">
        <ele>44.400001525879</ele>
        <time>2020-08-16T08:02:26.000Z</time>
      </trkpt>
      <trkpt lat="47.31793" lon="-2.37958">
        <ele>44</ele>
        <time>2020-08-16T08:02:27.000Z</time>
      </trkpt>
      <trkpt lat="47.31793" lon="-2.38">
        <ele>43.599998474121</ele>
        <time>2020-08-16T08:02:31.000Z</time>
      </trkpt>
      <trkpt lat="47.31793" lon="-2.38011">
        <ele>43.200000762939</ele>
        <time>2020-08-16T08:02:32.000Z</time>
      </trkpt>
      <trkpt lat="47.31794" lon="-2.38022">
        <ele>42.799999237061</ele>
        <time>2020-08-16T08:02:33.000Z</time>
      </trkpt>
      <trkpt lat="47.31794" lon="-2.38032">
        <ele>42.400001525879</ele>
        <time>2020-08-16T08:02:34.000Z</time>
      </trkpt>
      <trkpt lat="47.31795" lon="-2.38043">
        <ele>42</ele>
        <time>2020-08-16T08:02:35.000Z</time>
      </trkpt>
      <trkpt lat="47.31798" lon="-2.38074">
        <ele>42</ele>
        <time>2020-08-16T08:02:38.000Z</time>
      </trkpt>
      <trkpt lat="47.318" lon="-2.38142">
        <ele>42</ele>
        <time>2020-08-16T08:02:45.000Z</time>
      </trkpt>
      <trkpt lat="47.31804" lon="-2.38215">
        <ele>42</ele>
        <time>2020-08-16T08:02:53.000Z</time>
      </trkpt>
      <trkpt lat="47.31807" lon="-2.38276">
        <ele>42</ele>
        <time>2020-08-16T08:03:00.000Z</time>
      </trkpt>
      <trkpt lat="47.31808" lon="-2.383">
        <ele>42.400001525879</ele>
        <time>2020-08-16T08:03:03.000Z</time>
      </trkpt>
      <trkpt lat="47.31808" lon="-2.38308">
        <ele>42.799999237061</ele>
        <time>2020-08-16T08:03:04.000Z</time>
      </trkpt>
      <trkpt lat="47.31808" lon="-2.38317">
        <ele>43.400001525879</ele>
        <time>2020-08-16T08:03:05.000Z</time>
      </trkpt>
      <trkpt lat="47.31808" lon="-2.38325">
        <ele>43.799999237061</ele>
        <time>2020-08-16T08:03:06.000Z</time>
      </trkpt>
      <trkpt lat="47.31808" lon="-2.38333">
        <ele>44.200000762939</ele>
        <time>2020-08-16T08:03:07.000Z</time>
      </trkpt>
      <trkpt lat="47.31808" lon="-2.3835">
        <ele>44.200000762939</ele>
        <time>2020-08-16T08:03:09.000Z</time>
      </trkpt>
      <trkpt lat="47.31807" lon="-2.384">
        <ele>44.599998474121</ele>
        <time>2020-08-16T08:03:15.000Z</time>
      </trkpt>
      <trkpt lat="47.31808" lon="-2.38409">
        <ele>45</ele>
        <time>2020-08-16T08:03:16.000Z</time>
      </trkpt>
      <trkpt lat="47.31808" lon="-2.38418">
        <ele>45.400001525879</ele>
        <time>2020-08-16T08:03:17.000Z</time>
      </trkpt>
      <trkpt lat="47.31808" lon="-2.38426">
        <ele>46</ele>
        <time>2020-08-16T08:03:18.000Z</time>
      </trkpt>
      <trkpt lat="47.31808" lon="-2.38434">
        <ele>46.400001525879</ele>
        <time>2020-08-16T08:03:19.000Z</time>
      </trkpt>
      <trkpt lat="47.31808" lon="-2.38483">
        <ele>46.400001525879</ele>
        <time>2020-08-16T08:03:25.000Z</time>
      </trkpt>
      <trkpt lat="47.31809" lon="-2.38522">
        <ele>46.799999237061</ele>
        <time>2020-08-16T08:03:30.000Z</time>
      </trkpt>
      <trkpt lat="47.31808" lon="-2.38529">
        <ele>47.200000762939</ele>
        <time>2020-08-16T08:03:31.000Z</time>
      </trkpt>
      <trkpt lat="47.31808" lon="-2.38537">
        <ele>47.599998474121</ele>
        <time>2020-08-16T08:03:32.000Z</time>
      </trkpt>
      <trkpt lat="47.31808" lon="-2.38545">
        <ele>48</ele>
        <time>2020-08-16T08:03:33.000Z</time>
      </trkpt>
      <trkpt lat="47.31808" lon="-2.38553">
        <ele>48.400001525879</ele>
        <time>2020-08-16T08:03:34.000Z</time>
      </trkpt>
      <trkpt lat="47.31809" lon="-2.38577">
        <ele>48.400001525879</ele>
        <time>2020-08-16T08:03:37.000Z</time>
      </trkpt>
      <trkpt lat="47.31813" lon="-2.38639">
        <ele>48.400001525879</ele>
        <time>2020-08-16T08:03:44.000Z</time>
      </trkpt>
      <trkpt lat="47.31818" lon="-2.38681">
        <ele>48.400001525879</ele>
        <time>2020-08-16T08:03:49.000Z</time>
      </trkpt>
      <trkpt lat="47.3182" lon="-2.38698">
        <ele>48.400001525879</ele>
        <time>2020-08-16T08:03:51.000Z</time>
      </trkpt>
      <trkpt lat="47.31822" lon="-2.38759">
        <ele>48.400001525879</ele>
        <time>2020-08-16T08:03:58.000Z</time>
      </trkpt>
      <trkpt lat="47.31824" lon="-2.38823">
        <ele>48.400001525879</ele>
        <time>2020-08-16T08:04:05.000Z</time>
      </trkpt>
      <trkpt lat="47.31835" lon="-2.38874">
        <ele>48.400001525879</ele>
        <time>2020-08-16T08:04:11.000Z</time>
      </trkpt>
      <trkpt lat="47.31836" lon="-2.38883">
        <ele>48.400001525879</ele>
        <time>2020-08-16T08:04:12.000Z</time>
      </trkpt>
      <trkpt lat="47.31841" lon="-2.38908">
        <ele>48.400001525879</ele>
        <time>2020-08-16T08:04:15.000Z</time>
      </trkpt>
      <trkpt lat="47.31859" lon="-2.38967">
        <ele>48.400001525879</ele>
        <time>2020-08-16T08:04:22.000Z</time>
      </trkpt>
      <trkpt lat="47.31871" lon="-2.38999">
        <ele>48</ele>
        <time>2020-08-16T08:04:26.000Z</time>
      </trkpt>
      <trkpt lat="47.31874" lon="-2.39008">
        <ele>47.599998474121</ele>
        <time>2020-08-16T08:04:27.000Z</time>
      </trkpt>
      <trkpt lat="47.31877" lon="-2.39016">
        <ele>47.200000762939</ele>
        <time>2020-08-16T08:04:28.000Z</time>
      </trkpt>
      <trkpt lat="47.3188" lon="-2.39023">
        <ele>46.799999237061</ele>
        <time>2020-08-16T08:04:29.000Z</time>
      </trkpt>
      <trkpt lat="47.31882" lon="-2.39031">
        <ele>46.400001525879</ele>
        <time>2020-08-16T08:04:30.000Z</time>
      </trkpt>
      <trkpt lat="47.31896" lon="-2.3908">
        <ele>46.400001525879</ele>
        <time>2020-08-16T08:04:36.000Z</time>
      </trkpt>
      <trkpt lat="47.31911" lon="-2.39127">
        <ele>46.400001525879</ele>
        <time>2020-08-16T08:04:42.000Z</time>
      </trkpt>
      <trkpt lat="47.31928" lon="-2.39183">
        <ele>46.400001525879</ele>
        <time>2020-08-16T08:04:49.000Z</time>
      </trkpt>
      <trkpt lat="47.31944" lon="-2.3924">
        <ele>46.400001525879</ele>
        <time>2020-08-16T08:04:56.000Z</time>
      </trkpt>
      <trkpt lat="47.31957" lon="-2.39287">
        <ele>46.799999237061</ele>
        <time>2020-08-16T08:05:02.000Z</time>
      </trkpt>
      <trkpt lat="47.31959" lon="-2.39294">
        <ele>47.200000762939</ele>
        <time>2020-08-16T08:05:03.000Z</time>
      </trkpt>
      <trkpt lat="47.31962" lon="-2.39302">
        <ele>47.599998474121</ele>
        <time>2020-08-16T08:05:04.000Z</time>
      </trkpt>
      <trkpt lat="47.31964" lon="-2.3931">
        <ele>48.400001525879</ele>
        <time>2020-08-16T08:05:05.000Z</time>
      </trkpt>
      <trkpt lat="47.31967" lon="-2.39325">
        <ele>48.400001525879</ele>
        <time>2020-08-16T08:05:07.000Z</time>
      </trkpt>
      <trkpt lat="47.31973" lon="-2.39348">
        <ele>48.400001525879</ele>
        <time>2020-08-16T08:05:10.000Z</time>
      </trkpt>
      <trkpt lat="47.31985" lon="-2.39401">
        <ele>48.400001525879</ele>
        <time>2020-08-16T08:05:17.000Z</time>
      </trkpt>
      <trkpt lat="47.31989" lon="-2.39418">
        <ele>48.799999237061</ele>
        <time>2020-08-16T08:05:19.000Z</time>
      </trkpt>
      <trkpt lat="47.31991" lon="-2.39426">
        <ele>49.200000762939</ele>
        <time>2020-08-16T08:05:20.000Z</time>
      </trkpt>
      <trkpt lat="47.31992" lon="-2.39434">
        <ele>49.599998474121</ele>
        <time>2020-08-16T08:05:21.000Z</time>
      </trkpt>
      <trkpt lat="47.31994" lon="-2.39441">
        <ele>50</ele>
        <time>2020-08-16T08:05:22.000Z</time>
      </trkpt>
      <trkpt lat="47.31995" lon="-2.39449">
        <ele>50.400001525879</ele>
        <time>2020-08-16T08:05:23.000Z</time>
      </trkpt>
      <trkpt lat="47.31997" lon="-2.39456">
        <ele>50.400001525879</ele>
        <time>2020-08-16T08:05:24.000Z</time>
      </trkpt>
      <trkpt lat="47.32008" lon="-2.39504">
        <ele>50.400001525879</ele>
        <time>2020-08-16T08:05:31.000Z</time>
      </trkpt>
      <trkpt lat="47.32013" lon="-2.39525">
        <ele>50.400001525879</ele>
        <time>2020-08-16T08:05:34.000Z</time>
      </trkpt>
      <trkpt lat="47.32018" lon="-2.39538">
        <ele>50.400001525879</ele>
        <time>2020-08-16T08:05:36.000Z</time>
      </trkpt>
      <trkpt lat="47.3202" lon="-2.39546">
        <ele>50.400001525879</ele>
        <time>2020-08-16T08:05:37.000Z</time>
      </trkpt>
      <trkpt lat="47.32029" lon="-2.39583">
        <ele>50.400001525879</ele>
        <time>2020-08-16T08:05:42.000Z</time>
      </trkpt>
      <trkpt lat="47.32037" lon="-2.39612">
        <ele>50.799999237061</ele>
        <time>2020-08-16T08:05:46.000Z</time>
      </trkpt>
      <trkpt lat="47.32039" lon="-2.39619">
        <ele>51.200000762939</ele>
        <time>2020-08-16T08:05:47.000Z</time>
      </trkpt>
      <trkpt lat="47.32041" lon="-2.39626">
        <ele>51.599998474121</ele>
        <time>2020-08-16T08:05:48.000Z</time>
      </trkpt>
      <trkpt lat="47.32043" lon="-2.39634">
        <ele>52</ele>
        <time>2020-08-16T08:05:49.000Z</time>
      </trkpt>
      <trkpt lat="47.32044" lon="-2.39643">
        <ele>52.400001525879</ele>
        <time>2020-08-16T08:05:50.000Z</time>
      </trkpt>
      <trkpt lat="47.32055" lon="-2.39681">
        <ele>52.400001525879</ele>
        <time>2020-08-16T08:05:55.000Z</time>
      </trkpt>
      <trkpt lat="47.32059" lon="-2.39695">
        <ele>52.400001525879</ele>
        <time>2020-08-16T08:05:57.000Z</time>
      </trkpt>
      <trkpt lat="47.32071" lon="-2.39738">
        <ele>52.400001525879</ele>
        <time>2020-08-16T08:06:03.000Z</time>
      </trkpt>
      <trkpt lat="47.32082" lon="-2.39774">
        <ele>52.400001525879</ele>
        <time>2020-08-16T08:06:09.000Z</time>
      </trkpt>
      <trkpt lat="47.32086" lon="-2.39784">
        <ele>52.799999237061</ele>
        <time>2020-08-16T08:06:11.000Z</time>
      </trkpt>
      <trkpt lat="47.32087" lon="-2.39789">
        <ele>53.400001525879</ele>
        <time>2020-08-16T08:06:12.000Z</time>
      </trkpt>
      <trkpt lat="47.32088" lon="-2.39793">
        <ele>53.799999237061</ele>
        <time>2020-08-16T08:06:13.000Z</time>
      </trkpt>
      <trkpt lat="47.32089" lon="-2.39797">
        <ele>54.200000762939</ele>
        <time>2020-08-16T08:06:14.000Z</time>
      </trkpt>
      <trkpt lat="47.3209" lon="-2.39802">
        <ele>54.599998474121</ele>
        <time>2020-08-16T08:06:15.000Z</time>
      </trkpt>
      <trkpt lat="47.3209" lon="-2.39806">
        <ele>54.599998474121</ele>
        <time>2020-08-16T08:06:16.000Z</time>
      </trkpt>
      <trkpt lat="47.32088" lon="-2.3981">
        <ele>54.599998474121</ele>
        <time>2020-08-16T08:06:17.000Z</time>
      </trkpt>
      <trkpt lat="47.32081" lon="-2.39817">
        <ele>54.599998474121</ele>
        <time>2020-08-16T08:06:19.000Z</time>
      </trkpt>
      <trkpt lat="47.32053" lon="-2.39844">
        <ele>54.599998474121</ele>
        <time>2020-08-16T08:06:26.000Z</time>
      </trkpt>
      <trkpt lat="47.32022" lon="-2.39871">
        <ele>54.599998474121</ele>
        <time>2020-08-16T08:06:32.000Z</time>
      </trkpt>
      <trkpt lat="47.31982" lon="-2.3991">
        <ele>54.599998474121</ele>
        <time>2020-08-16T08:06:39.000Z</time>
      </trkpt>
      <trkpt lat="47.3197" lon="-2.3992">
        <ele>54.200000762939</ele>
        <time>2020-08-16T08:06:41.000Z</time>
      </trkpt>
      <trkpt lat="47.31965" lon="-2.39926">
        <ele>53.799999237061</ele>
        <time>2020-08-16T08:06:42.000Z</time>
      </trkpt>
      <trkpt lat="47.31959" lon="-2.39931">
        <ele>53</ele>
        <time>2020-08-16T08:06:43.000Z</time>
      </trkpt>
      <trkpt lat="47.31953" lon="-2.39936">
        <ele>52.599998474121</ele>
        <time>2020-08-16T08:06:44.000Z</time>
      </trkpt>
      <trkpt lat="47.31942" lon="-2.39948">
        <ele>52.599998474121</ele>
        <time>2020-08-16T08:06:46.000Z</time>
      </trkpt>
      <trkpt lat="47.31924" lon="-2.39967">
        <ele>52</ele>
        <time>2020-08-16T08:06:49.000Z</time>
      </trkpt>
      <trkpt lat="47.31919" lon="-2.39974">
        <ele>51.599998474121</ele>
        <time>2020-08-16T08:06:50.000Z</time>
      </trkpt>
      <trkpt lat="47.31914" lon="-2.39981">
        <ele>51.200000762939</ele>
        <time>2020-08-16T08:06:51.000Z</time>
      </trkpt>
      <trkpt lat="47.31909" lon="-2.39988">
        <ele>50.799999237061</ele>
        <time>2020-08-16T08:06:52.000Z</time>
      </trkpt>
      <trkpt lat="47.31903" lon="-2.39996">
        <ele>50.400001525879</ele>
        <time>2020-08-16T08:06:53.000Z</time>
      </trkpt>
      <trkpt lat="47.31881" lon="-2.40027">
        <ele>50.400001525879</ele>
        <time>2020-08-16T08:06:57.000Z</time>
      </trkpt>
      <trkpt lat="47.3185" lon="-2.40069">
        <ele>50.400001525879</ele>
        <time>2020-08-16T08:07:03.000Z</time>
      </trkpt>
      <trkpt lat="47.31825" lon="-2.40106">
        <ele>50.400001525879</ele>
        <time>2020-08-16T08:07:09.000Z</time>
      </trkpt>
      <trkpt lat="47.31813" lon="-2.40125">
        <ele>50.400001525879</ele>
        <time>2020-08-16T08:07:12.000Z</time>
      </trkpt>
      <trkpt lat="47.31795" lon="-2.40149">
        <ele>50.400001525879</ele>
        <time>2020-08-16T08:07:16.000Z</time>
      </trkpt>
      <trkpt lat="47.31764" lon="-2.40196">
        <ele>50.400001525879</ele>
        <time>2020-08-16T08:07:23.000Z</time>
      </trkpt>
      <trkpt lat="47.31741" lon="-2.40236">
        <ele>50.400001525879</ele>
        <time>2020-08-16T08:07:29.000Z</time>
      </trkpt>
      <trkpt lat="47.31732" lon="-2.40251">
        <ele>50.400001525879</ele>
        <time>2020-08-16T08:07:32.000Z</time>
      </trkpt>
      <trkpt lat="47.31725" lon="-2.40261">
        <ele>50.400001525879</ele>
        <time>2020-08-16T08:07:34.000Z</time>
      </trkpt>
      <trkpt lat="47.31708" lon="-2.40287">
        <ele>50.400001525879</ele>
        <time>2020-08-16T08:07:39.000Z</time>
      </trkpt>
      <trkpt lat="47.3169" lon="-2.40312">
        <ele>50.400001525879</ele>
        <time>2020-08-16T08:07:45.000Z</time>
      </trkpt>
      <trkpt lat="47.3169" lon="-2.40314">
        <ele>50.400001525879</ele>
        <time>2020-08-16T08:07:47.000Z</time>
      </trkpt>
      <trkpt lat="47.31688" lon="-2.4032">
        <ele>50.400001525879</ele>
        <time>2020-08-16T08:09:39.000Z</time>
      </trkpt>
      <trkpt lat="47.31688" lon="-2.40336">
        <ele>50.400001525879</ele>
        <time>2020-08-16T08:09:43.000Z</time>
      </trkpt>
      <trkpt lat="47.31698" lon="-2.40343">
        <ele>50.400001525879</ele>
        <time>2020-08-16T08:09:46.000Z</time>
      </trkpt>
      <trkpt lat="47.31721" lon="-2.40362">
        <ele>50.400001525879</ele>
        <time>2020-08-16T08:09:52.000Z</time>
      </trkpt>
      <trkpt lat="47.31741" lon="-2.40378">
        <ele>50.400001525879</ele>
        <time>2020-08-16T08:09:58.000Z</time>
      </trkpt>
      <trkpt lat="47.3176" lon="-2.40393">
        <ele>50.400001525879</ele>
        <time>2020-08-16T08:10:04.000Z</time>
      </trkpt>
      <trkpt lat="47.31791" lon="-2.40415">
        <ele>50.400001525879</ele>
        <time>2020-08-16T08:10:12.000Z</time>
      </trkpt>
      <trkpt lat="47.31818" lon="-2.40435">
        <ele>50.400001525879</ele>
        <time>2020-08-16T08:10:18.000Z</time>
      </trkpt>
      <trkpt lat="47.31847" lon="-2.40456">
        <ele>50.400001525879</ele>
        <time>2020-08-16T08:10:24.000Z</time>
      </trkpt>
      <trkpt lat="47.31855" lon="-2.40462">
        <ele>50.799999237061</ele>
        <time>2020-08-16T08:10:26.000Z</time>
      </trkpt>
      <trkpt lat="47.31859" lon="-2.40466">
        <ele>51.200000762939</ele>
        <time>2020-08-16T08:10:27.000Z</time>
      </trkpt>
      <trkpt lat="47.31863" lon="-2.40469">
        <ele>51.599998474121</ele>
        <time>2020-08-16T08:10:28.000Z</time>
      </trkpt>
      <trkpt lat="47.31868" lon="-2.40473">
        <ele>52</ele>
        <time>2020-08-16T08:10:29.000Z</time>
      </trkpt>
      <trkpt lat="47.31872" lon="-2.40476">
        <ele>52.400001525879</ele>
        <time>2020-08-16T08:10:30.000Z</time>
      </trkpt>
      <trkpt lat="47.31896" lon="-2.40492">
        <ele>52.400001525879</ele>
        <time>2020-08-16T08:10:35.000Z</time>
      </trkpt>
      <trkpt lat="47.31929" lon="-2.40519">
        <ele>52.400001525879</ele>
        <time>2020-08-16T08:10:42.000Z</time>
      </trkpt>
      <trkpt lat="47.31956" lon="-2.4054">
        <ele>52.400001525879</ele>
        <time>2020-08-16T08:10:49.000Z</time>
      </trkpt>
      <trkpt lat="47.31978" lon="-2.40557">
        <ele>52.799999237061</ele>
        <time>2020-08-16T08:10:54.000Z</time>
      </trkpt>
      <trkpt lat="47.31982" lon="-2.4056">
        <ele>53.200000762939</ele>
        <time>2020-08-16T08:10:55.000Z</time>
      </trkpt>
      <trkpt lat="47.31987" lon="-2.40563">
        <ele>53.599998474121</ele>
        <time>2020-08-16T08:10:56.000Z</time>
      </trkpt>
      <trkpt lat="47.31992" lon="-2.40567">
        <ele>54</ele>
        <time>2020-08-16T08:10:57.000Z</time>
      </trkpt>
      <trkpt lat="47.31997" lon="-2.4057">
        <ele>54.400001525879</ele>
        <time>2020-08-16T08:10:58.000Z</time>
      </trkpt>
      <trkpt lat="47.32031" lon="-2.40597">
        <ele>54.400001525879</ele>
        <time>2020-08-16T08:11:04.000Z</time>
      </trkpt>
      <trkpt lat="47.32064" lon="-2.40626">
        <ele>54.400001525879</ele>
        <time>2020-08-16T08:11:10.000Z</time>
      </trkpt>
      <trkpt lat="47.32079" lon="-2.40641">
        <ele>55</ele>
        <time>2020-08-16T08:11:13.000Z</time>
      </trkpt>
      <trkpt lat="47.32084" lon="-2.40647">
        <ele>55.400001525879</ele>
        <time>2020-08-16T08:11:14.000Z</time>
      </trkpt>
      <trkpt lat="47.32089" lon="-2.40652">
        <ele>56.200000762939</ele>
        <time>2020-08-16T08:11:15.000Z</time>
      </trkpt>
      <trkpt lat="47.32094" lon="-2.40658">
        <ele>56.599998474121</ele>
        <time>2020-08-16T08:11:16.000Z</time>
      </trkpt>
      <trkpt lat="47.32103" lon="-2.40668">
        <ele>56.599998474121</ele>
        <time>2020-08-16T08:11:18.000Z</time>
      </trkpt>
      <trkpt lat="47.32133" lon="-2.407">
        <ele>56.599998474121</ele>
        <time>2020-08-16T08:11:25.000Z</time>
      </trkpt>
      <trkpt lat="47.32168" lon="-2.40741">
        <ele>56.599998474121</ele>
        <time>2020-08-16T08:11:33.000Z</time>
      </trkpt>
      <trkpt lat="47.32195" lon="-2.40773">
        <ele>56.599998474121</ele>
        <time>2020-08-16T08:11:40.000Z</time>
      </trkpt>
      <trkpt lat="47.322" lon="-2.40784">
        <ele>56.599998474121</ele>
        <time>2020-08-16T08:11:44.000Z</time>
      </trkpt>
      <trkpt lat="47.32208" lon="-2.40797">
        <ele>56.599998474121</ele>
        <time>2020-08-16T08:11:50.000Z</time>
      </trkpt>
      <trkpt lat="47.32222" lon="-2.40818">
        <ele>56.599998474121</ele>
        <time>2020-08-16T08:11:56.000Z</time>
      </trkpt>
      <trkpt lat="47.3223" lon="-2.40831">
        <ele>56.599998474121</ele>
        <time>2020-08-16T08:11:59.000Z</time>
      </trkpt>
      <trkpt lat="47.32233" lon="-2.40837">
        <ele>56.599998474121</ele>
        <time>2020-08-16T08:12:00.000Z</time>
      </trkpt>
      <trkpt lat="47.32258" lon="-2.40877">
        <ele>56.599998474121</ele>
        <time>2020-08-16T08:12:06.000Z</time>
      </trkpt>
      <trkpt lat="47.32284" lon="-2.40926">
        <ele>57</ele>
        <time>2020-08-16T08:12:13.000Z</time>
      </trkpt>
      <trkpt lat="47.32288" lon="-2.40933">
        <ele>57.400001525879</ele>
        <time>2020-08-16T08:12:14.000Z</time>
      </trkpt>
      <trkpt lat="47.32292" lon="-2.4094">
        <ele>57.799999237061</ele>
        <time>2020-08-16T08:12:15.000Z</time>
      </trkpt>
      <trkpt lat="47.32295" lon="-2.40947">
        <ele>58.200000762939</ele>
        <time>2020-08-16T08:12:16.000Z</time>
      </trkpt>
      <trkpt lat="47.32299" lon="-2.40953">
        <ele>58.599998474121</ele>
        <time>2020-08-16T08:12:17.000Z</time>
      </trkpt>
      <trkpt lat="47.32306" lon="-2.40966">
        <ele>58.599998474121</ele>
        <time>2020-08-16T08:12:19.000Z</time>
      </trkpt>
      <trkpt lat="47.32333" lon="-2.41017">
        <ele>58.599998474121</ele>
        <time>2020-08-16T08:12:27.000Z</time>
      </trkpt>
      <trkpt lat="47.32355" lon="-2.41058">
        <ele>58.599998474121</ele>
        <time>2020-08-16T08:12:34.000Z</time>
      </trkpt>
      <trkpt lat="47.32365" lon="-2.41077">
        <ele>58.599998474121</ele>
        <time>2020-08-16T08:12:39.000Z</time>
      </trkpt>
      <trkpt lat="47.32367" lon="-2.41079">
        <ele>58.599998474121</ele>
        <time>2020-08-16T08:12:40.000Z</time>
      </trkpt>
      <trkpt lat="47.32372" lon="-2.4109">
        <ele>58.599998474121</ele>
        <time>2020-08-16T08:12:43.000Z</time>
      </trkpt>
      <trkpt lat="47.32384" lon="-2.41115">
        <ele>58.599998474121</ele>
        <time>2020-08-16T08:12:48.000Z</time>
      </trkpt>
      <trkpt lat="47.32391" lon="-2.41127">
        <ele>58.599998474121</ele>
        <time>2020-08-16T08:12:50.000Z</time>
      </trkpt>
      <trkpt lat="47.32399" lon="-2.41143">
        <ele>58.599998474121</ele>
        <time>2020-08-16T08:12:53.000Z</time>
      </trkpt>
      <trkpt lat="47.32416" lon="-2.41173">
        <ele>58.599998474121</ele>
        <time>2020-08-16T08:12:59.000Z</time>
      </trkpt>
      <trkpt lat="47.32425" lon="-2.41191">
        <ele>58.599998474121</ele>
        <time>2020-08-16T08:13:02.000Z</time>
      </trkpt>
      <trkpt lat="47.32428" lon="-2.41195">
        <ele>58.599998474121</ele>
        <time>2020-08-16T08:13:03.000Z</time>
      </trkpt>
      <trkpt lat="47.32436" lon="-2.4121">
        <ele>58.599998474121</ele>
        <time>2020-08-16T08:13:06.000Z</time>
      </trkpt>
      <trkpt lat="47.32439" lon="-2.41216">
        <ele>58.599998474121</ele>
        <time>2020-08-16T08:13:07.000Z</time>
      </trkpt>
      <trkpt lat="47.32464" lon="-2.4126">
        <ele>58.599998474121</ele>
        <time>2020-08-16T08:13:14.000Z</time>
      </trkpt>
      <trkpt lat="47.32481" lon="-2.41295">
        <ele>59</ele>
        <time>2020-08-16T08:13:19.000Z</time>
      </trkpt>
      <trkpt lat="47.32485" lon="-2.41302">
        <ele>59.400001525879</ele>
        <time>2020-08-16T08:13:20.000Z</time>
      </trkpt>
      <trkpt lat="47.32489" lon="-2.4131">
        <ele>59.799999237061</ele>
        <time>2020-08-16T08:13:21.000Z</time>
      </trkpt>
      <trkpt lat="47.32493" lon="-2.41317">
        <ele>60.200000762939</ele>
        <time>2020-08-16T08:13:22.000Z</time>
      </trkpt>
      <trkpt lat="47.32497" lon="-2.41325">
        <ele>60.599998474121</ele>
        <time>2020-08-16T08:13:23.000Z</time>
      </trkpt>
      <trkpt lat="47.32504" lon="-2.41339">
        <ele>60.599998474121</ele>
        <time>2020-08-16T08:13:25.000Z</time>
      </trkpt>
      <trkpt lat="47.32507" lon="-2.41346">
        <ele>60.599998474121</ele>
        <time>2020-08-16T08:13:26.000Z</time>
      </trkpt>
      <trkpt lat="47.32534" lon="-2.41394">
        <ele>60.599998474121</ele>
        <time>2020-08-16T08:13:33.000Z</time>
      </trkpt>
      <trkpt lat="47.32554" lon="-2.41434">
        <ele>60.599998474121</ele>
        <time>2020-08-16T08:13:39.000Z</time>
      </trkpt>
      <trkpt lat="47.32557" lon="-2.41439">
        <ele>60.200000762939</ele>
        <time>2020-08-16T08:13:40.000Z</time>
      </trkpt>
      <trkpt lat="47.32559" lon="-2.41443">
        <ele>59.799999237061</ele>
        <time>2020-08-16T08:13:41.000Z</time>
      </trkpt>
      <trkpt lat="47.3256" lon="-2.41448">
        <ele>59.400001525879</ele>
        <time>2020-08-16T08:13:42.000Z</time>
      </trkpt>
      <trkpt lat="47.32562" lon="-2.41452">
        <ele>58.599998474121</ele>
        <time>2020-08-16T08:13:43.000Z</time>
      </trkpt>
      <trkpt lat="47.32565" lon="-2.41455">
        <ele>58.599998474121</ele>
        <time>2020-08-16T08:13:44.000Z</time>
      </trkpt>
      <trkpt lat="47.32571" lon="-2.41469">
        <ele>58.599998474121</ele>
        <time>2020-08-16T08:13:47.000Z</time>
      </trkpt>
      <trkpt lat="47.32573" lon="-2.41493">
        <ele>58.599998474121</ele>
        <time>2020-08-16T08:13:51.000Z</time>
      </trkpt>
      <trkpt lat="47.32575" lon="-2.41507">
        <ele>58.599998474121</ele>
        <time>2020-08-16T08:13:53.000Z</time>
      </trkpt>
      <trkpt lat="47.32586" lon="-2.41519">
        <ele>58.599998474121</ele>
        <time>2020-08-16T08:13:56.000Z</time>
      </trkpt>
      <trkpt lat="47.32597" lon="-2.41521">
        <ele>58.599998474121</ele>
        <time>2020-08-16T08:13:58.000Z</time>
      </trkpt>
      <trkpt lat="47.32614" lon="-2.41523">
        <ele>58.599998474121</ele>
        <time>2020-08-16T08:14:01.000Z</time>
      </trkpt>
      <trkpt lat="47.32641" lon="-2.41529">
        <ele>58.599998474121</ele>
        <time>2020-08-16T08:14:06.000Z</time>
      </trkpt>
      <trkpt lat="47.32657" lon="-2.41532">
        <ele>58.599998474121</ele>
        <time>2020-08-16T08:14:09.000Z</time>
      </trkpt>
      <trkpt lat="47.32668" lon="-2.41534">
        <ele>58.599998474121</ele>
        <time>2020-08-16T08:14:11.000Z</time>
      </trkpt>
      <trkpt lat="47.32673" lon="-2.41535">
        <ele>58.200000762939</ele>
        <time>2020-08-16T08:14:12.000Z</time>
      </trkpt>
      <trkpt lat="47.32679" lon="-2.41536">
        <ele>57.799999237061</ele>
        <time>2020-08-16T08:14:13.000Z</time>
      </trkpt>
      <trkpt lat="47.32685" lon="-2.41537">
        <ele>57.400001525879</ele>
        <time>2020-08-16T08:14:14.000Z</time>
      </trkpt>
      <trkpt lat="47.3269" lon="-2.41538">
        <ele>57</ele>
        <time>2020-08-16T08:14:15.000Z</time>
      </trkpt>
      <trkpt lat="47.32695" lon="-2.41539">
        <ele>56.599998474121</ele>
        <time>2020-08-16T08:14:16.000Z</time>
      </trkpt>
      <trkpt lat="47.32699" lon="-2.4154">
        <ele>56.599998474121</ele>
        <time>2020-08-16T08:14:17.000Z</time>
      </trkpt>
      <trkpt lat="47.32703" lon="-2.41543">
        <ele>56.599998474121</ele>
        <time>2020-08-16T08:14:18.000Z</time>
      </trkpt>
      <trkpt lat="47.32705" lon="-2.41551">
        <ele>56.599998474121</ele>
        <time>2020-08-16T08:14:20.000Z</time>
      </trkpt>
      <trkpt lat="47.32704" lon="-2.41564">
        <ele>56.200000762939</ele>
        <time>2020-08-16T08:14:23.000Z</time>
      </trkpt>
      <trkpt lat="47.32703" lon="-2.41566">
        <ele>55.799999237061</ele>
        <time>2020-08-16T08:14:24.000Z</time>
      </trkpt>
      <trkpt lat="47.32703" lon="-2.41569">
        <ele>55.200000762939</ele>
        <time>2020-08-16T08:14:25.000Z</time>
      </trkpt>
      <trkpt lat="47.32703" lon="-2.41571">
        <ele>54.799999237061</ele>
        <time>2020-08-16T08:14:26.000Z</time>
      </trkpt>
      <trkpt lat="47.32702" lon="-2.41573">
        <ele>54.400001525879</ele>
        <time>2020-08-16T08:14:27.000Z</time>
      </trkpt>
      <trkpt lat="47.32703" lon="-2.41576">
        <ele>54.400001525879</ele>
        <time>2020-08-16T08:14:28.000Z</time>
      </trkpt>
      <trkpt lat="47.32705" lon="-2.41581">
        <ele>54.400001525879</ele>
        <time>2020-08-16T08:14:30.000Z</time>
      </trkpt>
      <trkpt lat="47.32706" lon="-2.41591">
        <ele>54.400001525879</ele>
        <time>2020-08-16T08:14:32.000Z</time>
      </trkpt>
      <trkpt lat="47.32706" lon="-2.41596">
        <ele>54.400001525879</ele>
        <time>2020-08-16T08:14:33.000Z</time>
      </trkpt>
      <trkpt lat="47.32713" lon="-2.41615">
        <ele>54.400001525879</ele>
        <time>2020-08-16T08:14:37.000Z</time>
      </trkpt>
      <trkpt lat="47.32715" lon="-2.41618">
        <ele>54.400001525879</ele>
        <time>2020-08-16T08:14:38.000Z</time>
      </trkpt>
      <trkpt lat="47.32716" lon="-2.41625">
        <ele>54.400001525879</ele>
        <time>2020-08-16T08:14:41.000Z</time>
      </trkpt>
      <trkpt lat="47.32708" lon="-2.41627">
        <ele>54.400001525879</ele>
        <time>2020-08-16T08:14:44.000Z</time>
      </trkpt>
      <trkpt lat="47.32704" lon="-2.41627">
        <ele>54.400001525879</ele>
        <time>2020-08-16T08:14:45.000Z</time>
      </trkpt>
      <trkpt lat="47.32689" lon="-2.41627">
        <ele>54.400001525879</ele>
        <time>2020-08-16T08:14:49.000Z</time>
      </trkpt>
      <trkpt lat="47.32685" lon="-2.41626">
        <ele>54.400001525879</ele>
        <time>2020-08-16T08:14:50.000Z</time>
      </trkpt>
      <trkpt lat="47.32656" lon="-2.41616">
        <ele>54.400001525879</ele>
        <time>2020-08-16T08:14:56.000Z</time>
      </trkpt>
      <trkpt lat="47.32636" lon="-2.41611">
        <ele>54.799999237061</ele>
        <time>2020-08-16T08:15:00.000Z</time>
      </trkpt>
      <trkpt lat="47.32632" lon="-2.41609">
        <ele>55.200000762939</ele>
        <time>2020-08-16T08:15:01.000Z</time>
      </trkpt>
      <trkpt lat="47.32628" lon="-2.41607">
        <ele>55.599998474121</ele>
        <time>2020-08-16T08:15:02.000Z</time>
      </trkpt>
      <trkpt lat="47.32624" lon="-2.41605">
        <ele>56</ele>
        <time>2020-08-16T08:15:03.000Z</time>
      </trkpt>
      <trkpt lat="47.3262" lon="-2.41603">
        <ele>56.400001525879</ele>
        <time>2020-08-16T08:15:04.000Z</time>
      </trkpt>
      <trkpt lat="47.32607" lon="-2.41603">
        <ele>56.400001525879</ele>
        <time>2020-08-16T08:15:07.000Z</time>
      </trkpt>
      <trkpt lat="47.32598" lon="-2.41604">
        <ele>56.400001525879</ele>
        <time>2020-08-16T08:15:09.000Z</time>
      </trkpt>
      <trkpt lat="47.32588" lon="-2.41604">
        <ele>56.400001525879</ele>
        <time>2020-08-16T08:15:11.000Z</time>
      </trkpt>
      <trkpt lat="47.32583" lon="-2.41602">
        <ele>56.799999237061</ele>
        <time>2020-08-16T08:15:12.000Z</time>
      </trkpt>
      <trkpt lat="47.32578" lon="-2.41599">
        <ele>57.200000762939</ele>
        <time>2020-08-16T08:15:13.000Z</time>
      </trkpt>
      <trkpt lat="47.32574" lon="-2.41595">
        <ele>57.799999237061</ele>
        <time>2020-08-16T08:15:14.000Z</time>
      </trkpt>
      <trkpt lat="47.3257" lon="-2.41591">
        <ele>58.200000762939</ele>
        <time>2020-08-16T08:15:15.000Z</time>
      </trkpt>
      <trkpt lat="47.32566" lon="-2.41587">
        <ele>58.599998474121</ele>
        <time>2020-08-16T08:15:16.000Z</time>
      </trkpt>
      <trkpt lat="47.32561" lon="-2.41584">
        <ele>58.599998474121</ele>
        <time>2020-08-16T08:15:17.000Z</time>
      </trkpt>
      <trkpt lat="47.32552" lon="-2.41578">
        <ele>58.599998474121</ele>
        <time>2020-08-16T08:15:19.000Z</time>
      </trkpt>
      <trkpt lat="47.32543" lon="-2.41578">
        <ele>58.599998474121</ele>
        <time>2020-08-16T08:15:21.000Z</time>
      </trkpt>
      <trkpt lat="47.32516" lon="-2.41586">
        <ele>58.599998474121</ele>
        <time>2020-08-16T08:15:27.000Z</time>
      </trkpt>
      <trkpt lat="47.32511" lon="-2.41588">
        <ele>58.599998474121</ele>
        <time>2020-08-16T08:15:28.000Z</time>
      </trkpt>
      <trkpt lat="47.32496" lon="-2.41587">
        <ele>58.599998474121</ele>
        <time>2020-08-16T08:15:31.000Z</time>
      </trkpt>
      <trkpt lat="47.3249" lon="-2.41585">
        <ele>58.599998474121</ele>
        <time>2020-08-16T08:15:32.000Z</time>
      </trkpt>
      <trkpt lat="47.3246" lon="-2.41571">
        <ele>58.599998474121</ele>
        <time>2020-08-16T08:15:38.000Z</time>
      </trkpt>
      <trkpt lat="47.32428" lon="-2.41565">
        <ele>58.599998474121</ele>
        <time>2020-08-16T08:15:44.000Z</time>
      </trkpt>
      <trkpt lat="47.32405" lon="-2.41564">
        <ele>58.599998474121</ele>
        <time>2020-08-16T08:15:48.000Z</time>
      </trkpt>
      <trkpt lat="47.324" lon="-2.41562">
        <ele>58.599998474121</ele>
        <time>2020-08-16T08:15:49.000Z</time>
      </trkpt>
      <trkpt lat="47.32384" lon="-2.41552">
        <ele>58.599998474121</ele>
        <time>2020-08-16T08:15:52.000Z</time>
      </trkpt>
      <trkpt lat="47.32374" lon="-2.41546">
        <ele>58.599998474121</ele>
        <time>2020-08-16T08:15:54.000Z</time>
      </trkpt>
      <trkpt lat="47.32369" lon="-2.41544">
        <ele>58.599998474121</ele>
        <time>2020-08-16T08:15:55.000Z</time>
      </trkpt>
      <trkpt lat="47.32352" lon="-2.41543">
        <ele>58.599998474121</ele>
        <time>2020-08-16T08:15:58.000Z</time>
      </trkpt>
      <trkpt lat="47.32331" lon="-2.4156">
        <ele>58.599998474121</ele>
        <time>2020-08-16T08:16:02.000Z</time>
      </trkpt>
      <trkpt lat="47.32318" lon="-2.41592">
        <ele>58.599998474121</ele>
        <time>2020-08-16T08:16:06.000Z</time>
      </trkpt>
      <trkpt lat="47.32316" lon="-2.41602">
        <ele>58.599998474121</ele>
        <time>2020-08-16T08:16:07.000Z</time>
      </trkpt>
      <trkpt lat="47.3231" lon="-2.41621">
        <ele>58.599998474121</ele>
        <time>2020-08-16T08:16:09.000Z</time>
      </trkpt>
      <trkpt lat="47.32303" lon="-2.41638">
        <ele>58.599998474121</ele>
        <time>2020-08-16T08:16:11.000Z</time>
      </trkpt>
      <trkpt lat="47.32299" lon="-2.41663">
        <ele>58.599998474121</ele>
        <time>2020-08-16T08:16:14.000Z</time>
      </trkpt>
      <trkpt lat="47.32299" lon="-2.4168">
        <ele>58.599998474121</ele>
        <time>2020-08-16T08:16:16.000Z</time>
      </trkpt>
      <trkpt lat="47.32298" lon="-2.41705">
        <ele>58.599998474121</ele>
        <time>2020-08-16T08:16:19.000Z</time>
      </trkpt>
      <trkpt lat="47.32291" lon="-2.41733">
        <ele>58.599998474121</ele>
        <time>2020-08-16T08:16:23.000Z</time>
      </trkpt>
      <trkpt lat="47.32281" lon="-2.41761">
        <ele>58.200000762939</ele>
        <time>2020-08-16T08:16:28.000Z</time>
      </trkpt>
      <trkpt lat="47.32281" lon="-2.41766">
        <ele>57.799999237061</ele>
        <time>2020-08-16T08:16:29.000Z</time>
      </trkpt>
      <trkpt lat="47.32282" lon="-2.41771">
        <ele>57.200000762939</ele>
        <time>2020-08-16T08:16:30.000Z</time>
      </trkpt>
      <trkpt lat="47.32283" lon="-2.41774">
        <ele>56.799999237061</ele>
        <time>2020-08-16T08:16:31.000Z</time>
      </trkpt>
      <trkpt lat="47.32285" lon="-2.41777">
        <ele>56.400001525879</ele>
        <time>2020-08-16T08:16:32.000Z</time>
      </trkpt>
      <trkpt lat="47.32286" lon="-2.4178">
        <ele>56.400001525879</ele>
        <time>2020-08-16T08:16:34.000Z</time>
      </trkpt>
      <trkpt lat="47.32288" lon="-2.41783">
        <ele>56.400001525879</ele>
        <time>2020-08-16T08:16:36.000Z</time>
      </trkpt>
      <trkpt lat="47.32293" lon="-2.41791">
        <ele>56.400001525879</ele>
        <time>2020-08-16T08:16:40.000Z</time>
      </trkpt>
      <trkpt lat="47.32293" lon="-2.41793">
        <ele>56.400001525879</ele>
        <time>2020-08-16T08:16:41.000Z</time>
      </trkpt>
      <trkpt lat="47.32298" lon="-2.41807">
        <ele>56.400001525879</ele>
        <time>2020-08-16T08:16:46.000Z</time>
      </trkpt>
      <trkpt lat="47.32298" lon="-2.41819">
        <ele>56.400001525879</ele>
        <time>2020-08-16T08:16:49.000Z</time>
      </trkpt>
      <trkpt lat="47.32291" lon="-2.41827">
        <ele>56.400001525879</ele>
        <time>2020-08-16T08:16:51.000Z</time>
      </trkpt>
      <trkpt lat="47.32288" lon="-2.41832">
        <ele>56</ele>
        <time>2020-08-16T08:16:52.000Z</time>
      </trkpt>
      <trkpt lat="47.32285" lon="-2.41837">
        <ele>55.599998474121</ele>
        <time>2020-08-16T08:16:53.000Z</time>
      </trkpt>
      <trkpt lat="47.32281" lon="-2.41841">
        <ele>55.200000762939</ele>
        <time>2020-08-16T08:16:54.000Z</time>
      </trkpt>
      <trkpt lat="47.32277" lon="-2.41846">
        <ele>54.799999237061</ele>
        <time>2020-08-16T08:16:55.000Z</time>
      </trkpt>
      <trkpt lat="47.32274" lon="-2.41852">
        <ele>54.400001525879</ele>
        <time>2020-08-16T08:16:56.000Z</time>
      </trkpt>
      <trkpt lat="47.32267" lon="-2.4186">
        <ele>54.400001525879</ele>
        <time>2020-08-16T08:16:58.000Z</time>
      </trkpt>
      <trkpt lat="47.32263" lon="-2.41864">
        <ele>54.400001525879</ele>
        <time>2020-08-16T08:16:59.000Z</time>
      </trkpt>
      <trkpt lat="47.32254" lon="-2.41876">
        <ele>54.400001525879</ele>
        <time>2020-08-16T08:17:02.000Z</time>
      </trkpt>
      <trkpt lat="47.32254" lon="-2.4188">
        <ele>54.400001525879</ele>
        <time>2020-08-16T08:17:03.000Z</time>
      </trkpt>
      <trkpt lat="47.3226" lon="-2.41892">
        <ele>54.400001525879</ele>
        <time>2020-08-16T08:17:06.000Z</time>
      </trkpt>
      <trkpt lat="47.32262" lon="-2.41896">
        <ele>54.400001525879</ele>
        <time>2020-08-16T08:17:07.000Z</time>
      </trkpt>
      <trkpt lat="47.32282" lon="-2.41921">
        <ele>54.400001525879</ele>
        <time>2020-08-16T08:17:13.000Z</time>
      </trkpt>
      <trkpt lat="47.32291" lon="-2.41932">
        <ele>54.400001525879</ele>
        <time>2020-08-16T08:17:16.000Z</time>
      </trkpt>
      <trkpt lat="47.32298" lon="-2.41944">
        <ele>54.400001525879</ele>
        <time>2020-08-16T08:17:18.000Z</time>
      </trkpt>
      <trkpt lat="47.32308" lon="-2.41962">
        <ele>54.400001525879</ele>
        <time>2020-08-16T08:17:21.000Z</time>
      </trkpt>
      <trkpt lat="47.32317" lon="-2.41971">
        <ele>54.400001525879</ele>
        <time>2020-08-16T08:17:23.000Z</time>
      </trkpt>
      <trkpt lat="47.32343" lon="-2.41998">
        <ele>54.400001525879</ele>
        <time>2020-08-16T08:17:29.000Z</time>
      </trkpt>
      <trkpt lat="47.32347" lon="-2.42002">
        <ele>54.400001525879</ele>
        <time>2020-08-16T08:17:30.000Z</time>
      </trkpt>
      <trkpt lat="47.32361" lon="-2.42017">
        <ele>54.799999237061</ele>
        <time>2020-08-16T08:17:33.000Z</time>
      </trkpt>
      <trkpt lat="47.32365" lon="-2.42022">
        <ele>55.400001525879</ele>
        <time>2020-08-16T08:17:34.000Z</time>
      </trkpt>
      <trkpt lat="47.3237" lon="-2.42027">
        <ele>55.799999237061</ele>
        <time>2020-08-16T08:17:35.000Z</time>
      </trkpt>
      <trkpt lat="47.32375" lon="-2.42032">
        <ele>56.200000762939</ele>
        <time>2020-08-16T08:17:36.000Z</time>
      </trkpt>
      <trkpt lat="47.32379" lon="-2.42037">
        <ele>56.599998474121</ele>
        <time>2020-08-16T08:17:37.000Z</time>
      </trkpt>
      <trkpt lat="47.32421" lon="-2.42085">
        <ele>56.599998474121</ele>
        <time>2020-08-16T08:17:46.000Z</time>
      </trkpt>
      <trkpt lat="47.32426" lon="-2.4209">
        <ele>57</ele>
        <time>2020-08-16T08:17:47.000Z</time>
      </trkpt>
      <trkpt lat="47.3243" lon="-2.42095">
        <ele>57.400001525879</ele>
        <time>2020-08-16T08:17:48.000Z</time>
      </trkpt>
      <trkpt lat="47.32434" lon="-2.42099">
        <ele>57.799999237061</ele>
        <time>2020-08-16T08:17:49.000Z</time>
      </trkpt>
      <trkpt lat="47.32438" lon="-2.42104">
        <ele>58.400001525879</ele>
        <time>2020-08-16T08:17:50.000Z</time>
      </trkpt>
      <trkpt lat="47.32441" lon="-2.42109">
        <ele>58.799999237061</ele>
        <time>2020-08-16T08:17:51.000Z</time>
      </trkpt>
      <trkpt lat="47.32443" lon="-2.42114">
        <ele>58.799999237061</ele>
        <time>2020-08-16T08:17:52.000Z</time>
      </trkpt>
      <trkpt lat="47.32439" lon="-2.42132">
        <ele>58.799999237061</ele>
        <time>2020-08-16T08:17:55.000Z</time>
      </trkpt>
      <trkpt lat="47.32436" lon="-2.42138">
        <ele>59.200000762939</ele>
        <time>2020-08-16T08:17:56.000Z</time>
      </trkpt>
      <trkpt lat="47.32432" lon="-2.42144">
        <ele>59.599998474121</ele>
        <time>2020-08-16T08:17:57.000Z</time>
      </trkpt>
      <trkpt lat="47.32428" lon="-2.42149">
        <ele>60</ele>
        <time>2020-08-16T08:17:58.000Z</time>
      </trkpt>
      <trkpt lat="47.32424" lon="-2.42156">
        <ele>60.400001525879</ele>
        <time>2020-08-16T08:17:59.000Z</time>
      </trkpt>
      <trkpt lat="47.3242" lon="-2.42162">
        <ele>60.799999237061</ele>
        <time>2020-08-16T08:18:00.000Z</time>
      </trkpt>
      <trkpt lat="47.32416" lon="-2.42169">
        <ele>60.799999237061</ele>
        <time>2020-08-16T08:18:01.000Z</time>
      </trkpt>
      <trkpt lat="47.32385" lon="-2.42202">
        <ele>60.799999237061</ele>
        <time>2020-08-16T08:18:07.000Z</time>
      </trkpt>
      <trkpt lat="47.32356" lon="-2.4224">
        <ele>60.799999237061</ele>
        <time>2020-08-16T08:18:13.000Z</time>
      </trkpt>
      <trkpt lat="47.32328" lon="-2.42286">
        <ele>60.400001525879</ele>
        <time>2020-08-16T08:18:20.000Z</time>
      </trkpt>
      <trkpt lat="47.32325" lon="-2.42293">
        <ele>60</ele>
        <time>2020-08-16T08:18:21.000Z</time>
      </trkpt>
      <trkpt lat="47.32322" lon="-2.423">
        <ele>59.599998474121</ele>
        <time>2020-08-16T08:18:22.000Z</time>
      </trkpt>
      <trkpt lat="47.3232" lon="-2.42308">
        <ele>59.200000762939</ele>
        <time>2020-08-16T08:18:23.000Z</time>
      </trkpt>
      <trkpt lat="47.3232" lon="-2.42316">
        <ele>58.799999237061</ele>
        <time>2020-08-16T08:18:24.000Z</time>
      </trkpt>
      <trkpt lat="47.32322" lon="-2.42334">
        <ele>58.799999237061</ele>
        <time>2020-08-16T08:18:26.000Z</time>
      </trkpt>
      <trkpt lat="47.32325" lon="-2.4238">
        <ele>58.799999237061</ele>
        <time>2020-08-16T08:18:31.000Z</time>
      </trkpt>
      <trkpt lat="47.32332" lon="-2.42448">
        <ele>58.400001525879</ele>
        <time>2020-08-16T08:18:38.000Z</time>
      </trkpt>
      <trkpt lat="47.32334" lon="-2.42458">
        <ele>57.799999237061</ele>
        <time>2020-08-16T08:18:39.000Z</time>
      </trkpt>
      <trkpt lat="47.32336" lon="-2.42468">
        <ele>57</ele>
        <time>2020-08-16T08:18:40.000Z</time>
      </trkpt>
      <trkpt lat="47.32338" lon="-2.42478">
        <ele>56.599998474121</ele>
        <time>2020-08-16T08:18:41.000Z</time>
      </trkpt>
      <trkpt lat="47.3235" lon="-2.42541">
        <ele>56.200000762939</ele>
        <time>2020-08-16T08:18:47.000Z</time>
      </trkpt>
      <trkpt lat="47.32352" lon="-2.42552">
        <ele>55.799999237061</ele>
        <time>2020-08-16T08:18:48.000Z</time>
      </trkpt>
      <trkpt lat="47.32355" lon="-2.42563">
        <ele>55.200000762939</ele>
        <time>2020-08-16T08:18:49.000Z</time>
      </trkpt>
      <trkpt lat="47.32358" lon="-2.42572">
        <ele>54.799999237061</ele>
        <time>2020-08-16T08:18:50.000Z</time>
      </trkpt>
      <trkpt lat="47.32363" lon="-2.4258">
        <ele>54.400001525879</ele>
        <time>2020-08-16T08:18:51.000Z</time>
      </trkpt>
      <trkpt lat="47.3238" lon="-2.42585">
        <ele>54.400001525879</ele>
        <time>2020-08-16T08:18:54.000Z</time>
      </trkpt>
      <trkpt lat="47.32386" lon="-2.42581">
        <ele>54</ele>
        <time>2020-08-16T08:18:55.000Z</time>
      </trkpt>
      <trkpt lat="47.32391" lon="-2.42576">
        <ele>53.599998474121</ele>
        <time>2020-08-16T08:18:56.000Z</time>
      </trkpt>
      <trkpt lat="47.32397" lon="-2.42574">
        <ele>53</ele>
        <time>2020-08-16T08:18:57.000Z</time>
      </trkpt>
      <trkpt lat="47.32402" lon="-2.42576">
        <ele>52.599998474121</ele>
        <time>2020-08-16T08:18:58.000Z</time>
      </trkpt>
      <trkpt lat="47.32406" lon="-2.42581">
        <ele>52.200000762939</ele>
        <time>2020-08-16T08:18:59.000Z</time>
      </trkpt>
      <trkpt lat="47.32413" lon="-2.42604">
        <ele>52.200000762939</ele>
        <time>2020-08-16T08:19:02.000Z</time>
      </trkpt>
      <trkpt lat="47.32415" lon="-2.42613">
        <ele>52.200000762939</ele>
        <time>2020-08-16T08:19:03.000Z</time>
      </trkpt>
      <trkpt lat="47.3243" lon="-2.42678">
        <ele>52.200000762939</ele>
        <time>2020-08-16T08:19:10.000Z</time>
      </trkpt>
      <trkpt lat="47.32434" lon="-2.42699">
        <ele>52.200000762939</ele>
        <time>2020-08-16T08:19:12.000Z</time>
      </trkpt>
      <trkpt lat="47.32435" lon="-2.42721">
        <ele>51.799999237061</ele>
        <time>2020-08-16T08:19:14.000Z</time>
      </trkpt>
      <trkpt lat="47.32434" lon="-2.42733">
        <ele>51.200000762939</ele>
        <time>2020-08-16T08:19:15.000Z</time>
      </trkpt>
      <trkpt lat="47.32434" lon="-2.42743">
        <ele>50.799999237061</ele>
        <time>2020-08-16T08:19:16.000Z</time>
      </trkpt>
      <trkpt lat="47.32433" lon="-2.42755">
        <ele>50.400001525879</ele>
        <time>2020-08-16T08:19:17.000Z</time>
      </trkpt>
      <trkpt lat="47.32433" lon="-2.42766">
        <ele>50</ele>
        <time>2020-08-16T08:19:18.000Z</time>
      </trkpt>
      <trkpt lat="47.32432" lon="-2.42789">
        <ele>50</ele>
        <time>2020-08-16T08:19:20.000Z</time>
      </trkpt>
      <trkpt lat="47.32431" lon="-2.42818">
        <ele>49.400001525879</ele>
        <time>2020-08-16T08:19:23.000Z</time>
      </trkpt>
      <trkpt lat="47.3243" lon="-2.42826">
        <ele>49</ele>
        <time>2020-08-16T08:19:24.000Z</time>
      </trkpt>
      <trkpt lat="47.3243" lon="-2.42832">
        <ele>48.400001525879</ele>
        <time>2020-08-16T08:19:25.000Z</time>
      </trkpt>
      <trkpt lat="47.32431" lon="-2.42837">
        <ele>48</ele>
        <time>2020-08-16T08:19:26.000Z</time>
      </trkpt>
      <trkpt lat="47.32431" lon="-2.42842">
        <ele>47.599998474121</ele>
        <time>2020-08-16T08:19:27.000Z</time>
      </trkpt>
      <trkpt lat="47.32431" lon="-2.42847">
        <ele>47.599998474121</ele>
        <time>2020-08-16T08:19:28.000Z</time>
      </trkpt>
      <trkpt lat="47.32427" lon="-2.42869">
        <ele>47.599998474121</ele>
        <time>2020-08-16T08:19:33.000Z</time>
      </trkpt>
      <trkpt lat="47.32424" lon="-2.42882">
        <ele>47.599998474121</ele>
        <time>2020-08-16T08:19:35.000Z</time>
      </trkpt>
      <trkpt lat="47.32417" lon="-2.42898">
        <ele>47.599998474121</ele>
        <time>2020-08-16T08:19:38.000Z</time>
      </trkpt>
      <trkpt lat="47.32401" lon="-2.42899">
        <ele>47.599998474121</ele>
        <time>2020-08-16T08:19:41.000Z</time>
      </trkpt>
      <trkpt lat="47.32363" lon="-2.429">
        <ele>47.599998474121</ele>
        <time>2020-08-16T08:19:47.000Z</time>
      </trkpt>
      <trkpt lat="47.32357" lon="-2.42901">
        <ele>47.200000762939</ele>
        <time>2020-08-16T08:19:48.000Z</time>
      </trkpt>
      <trkpt lat="47.32351" lon="-2.42901">
        <ele>46.799999237061</ele>
        <time>2020-08-16T08:19:49.000Z</time>
      </trkpt>
      <trkpt lat="47.32344" lon="-2.42901">
        <ele>46.200000762939</ele>
        <time>2020-08-16T08:19:50.000Z</time>
      </trkpt>
      <trkpt lat="47.32338" lon="-2.429">
        <ele>45.799999237061</ele>
        <time>2020-08-16T08:19:51.000Z</time>
      </trkpt>
      <trkpt lat="47.32332" lon="-2.42899">
        <ele>45.400001525879</ele>
        <time>2020-08-16T08:19:52.000Z</time>
      </trkpt>
      <trkpt lat="47.3232" lon="-2.42897">
        <ele>45.400001525879</ele>
        <time>2020-08-16T08:19:54.000Z</time>
      </trkpt>
      <trkpt lat="47.32278" lon="-2.42881">
        <ele>45.400001525879</ele>
        <time>2020-08-16T08:20:02.000Z</time>
      </trkpt>
      <trkpt lat="47.32242" lon="-2.42868">
        <ele>45.400001525879</ele>
        <time>2020-08-16T08:20:09.000Z</time>
      </trkpt>
      <trkpt lat="47.32197" lon="-2.42856">
        <ele>45.400001525879</ele>
        <time>2020-08-16T08:20:17.000Z</time>
      </trkpt>
      <trkpt lat="47.32159" lon="-2.42848">
        <ele>45</ele>
        <time>2020-08-16T08:20:23.000Z</time>
      </trkpt>
      <trkpt lat="47.32152" lon="-2.42846">
        <ele>44.599998474121</ele>
        <time>2020-08-16T08:20:24.000Z</time>
      </trkpt>
      <trkpt lat="47.32145" lon="-2.42845">
        <ele>44.200000762939</ele>
        <time>2020-08-16T08:20:25.000Z</time>
      </trkpt>
      <trkpt lat="47.32139" lon="-2.42844">
        <ele>43.799999237061</ele>
        <time>2020-08-16T08:20:26.000Z</time>
      </trkpt>
      <trkpt lat="47.32132" lon="-2.42842">
        <ele>43.400001525879</ele>
        <time>2020-08-16T08:20:27.000Z</time>
      </trkpt>
      <trkpt lat="47.32121" lon="-2.42841">
        <ele>43.400001525879</ele>
        <time>2020-08-16T08:20:29.000Z</time>
      </trkpt>
      <trkpt lat="47.32116" lon="-2.42842">
        <ele>43.400001525879</ele>
        <time>2020-08-16T08:20:30.000Z</time>
      </trkpt>
      <trkpt lat="47.32107" lon="-2.42845">
        <ele>43</ele>
        <time>2020-08-16T08:20:32.000Z</time>
      </trkpt>
      <trkpt lat="47.32102" lon="-2.42845">
        <ele>42.400001525879</ele>
        <time>2020-08-16T08:20:33.000Z</time>
      </trkpt>
      <trkpt lat="47.32098" lon="-2.42842">
        <ele>42</ele>
        <time>2020-08-16T08:20:34.000Z</time>
      </trkpt>
      <trkpt lat="47.32093" lon="-2.4284">
        <ele>41.599998474121</ele>
        <time>2020-08-16T08:20:35.000Z</time>
      </trkpt>
      <trkpt lat="47.32088" lon="-2.42838">
        <ele>41.200000762939</ele>
        <time>2020-08-16T08:20:36.000Z</time>
      </trkpt>
      <trkpt lat="47.32071" lon="-2.42835">
        <ele>41.200000762939</ele>
        <time>2020-08-16T08:20:39.000Z</time>
      </trkpt>
      <trkpt lat="47.32046" lon="-2.42836">
        <ele>40.200000762939</ele>
        <time>2020-08-16T08:20:44.000Z</time>
      </trkpt>
      <trkpt lat="47.32041" lon="-2.42836">
        <ele>39.799999237061</ele>
        <time>2020-08-16T08:20:45.000Z</time>
      </trkpt>
      <trkpt lat="47.32035" lon="-2.42837">
        <ele>39.400001525879</ele>
        <time>2020-08-16T08:20:46.000Z</time>
      </trkpt>
      <trkpt lat="47.3203" lon="-2.42839">
        <ele>39</ele>
        <time>2020-08-16T08:20:47.000Z</time>
      </trkpt>
      <trkpt lat="47.32019" lon="-2.42846">
        <ele>39</ele>
        <time>2020-08-16T08:20:49.000Z</time>
      </trkpt>
      <trkpt lat="47.32008" lon="-2.42867">
        <ele>39</ele>
        <time>2020-08-16T08:20:52.000Z</time>
      </trkpt>
      <trkpt lat="47.32003" lon="-2.42903">
        <ele>39</ele>
        <time>2020-08-16T08:20:56.000Z</time>
      </trkpt>
      <trkpt lat="47.32" lon="-2.42959">
        <ele>39</ele>
        <time>2020-08-16T08:21:03.000Z</time>
      </trkpt>
      <trkpt lat="47.31999" lon="-2.43006">
        <ele>39</ele>
        <time>2020-08-16T08:21:09.000Z</time>
      </trkpt>
      <trkpt lat="47.31999" lon="-2.43014">
        <ele>39</ele>
        <time>2020-08-16T08:21:10.000Z</time>
      </trkpt>
      <trkpt lat="47.32005" lon="-2.43053">
        <ele>38.599998474121</ele>
        <time>2020-08-16T08:21:14.000Z</time>
      </trkpt>
      <trkpt lat="47.32007" lon="-2.43063">
        <ele>38.200000762939</ele>
        <time>2020-08-16T08:21:15.000Z</time>
      </trkpt>
      <trkpt lat="47.32009" lon="-2.43073">
        <ele>37.599998474121</ele>
        <time>2020-08-16T08:21:16.000Z</time>
      </trkpt>
      <trkpt lat="47.32011" lon="-2.43083">
        <ele>37.200000762939</ele>
        <time>2020-08-16T08:21:17.000Z</time>
      </trkpt>
      <trkpt lat="47.32014" lon="-2.43094">
        <ele>36.799999237061</ele>
        <time>2020-08-16T08:21:18.000Z</time>
      </trkpt>
      <trkpt lat="47.32025" lon="-2.43148">
        <ele>36.400001525879</ele>
        <time>2020-08-16T08:21:23.000Z</time>
      </trkpt>
      <trkpt lat="47.32028" lon="-2.43159">
        <ele>36</ele>
        <time>2020-08-16T08:21:24.000Z</time>
      </trkpt>
      <trkpt lat="47.3203" lon="-2.4317">
        <ele>35.599998474121</ele>
        <time>2020-08-16T08:21:25.000Z</time>
      </trkpt>
      <trkpt lat="47.32032" lon="-2.43179">
        <ele>35.200000762939</ele>
        <time>2020-08-16T08:21:26.000Z</time>
      </trkpt>
      <trkpt lat="47.32035" lon="-2.43189">
        <ele>34.799999237061</ele>
        <time>2020-08-16T08:21:27.000Z</time>
      </trkpt>
      <trkpt lat="47.32039" lon="-2.43206">
        <ele>34.799999237061</ele>
        <time>2020-08-16T08:21:29.000Z</time>
      </trkpt>
      <trkpt lat="47.32044" lon="-2.43229">
        <ele>34.799999237061</ele>
        <time>2020-08-16T08:21:33.000Z</time>
      </trkpt>
      <trkpt lat="47.32036" lon="-2.43242">
        <ele>34.799999237061</ele>
        <time>2020-08-16T08:21:36.000Z</time>
      </trkpt>
      <trkpt lat="47.32027" lon="-2.43249">
        <ele>34.799999237061</ele>
        <time>2020-08-16T08:21:38.000Z</time>
      </trkpt>
      <trkpt lat="47.32012" lon="-2.43261">
        <ele>34.400001525879</ele>
        <time>2020-08-16T08:21:41.000Z</time>
      </trkpt>
      <trkpt lat="47.32006" lon="-2.43264">
        <ele>34</ele>
        <time>2020-08-16T08:21:42.000Z</time>
      </trkpt>
      <trkpt lat="47.32" lon="-2.43268">
        <ele>33.599998474121</ele>
        <time>2020-08-16T08:21:43.000Z</time>
      </trkpt>
      <trkpt lat="47.31994" lon="-2.43272">
        <ele>33.200000762939</ele>
        <time>2020-08-16T08:21:44.000Z</time>
      </trkpt>
      <trkpt lat="47.31988" lon="-2.43275">
        <ele>32.799999237061</ele>
        <time>2020-08-16T08:21:45.000Z</time>
      </trkpt>
      <trkpt lat="47.3198" lon="-2.43283">
        <ele>32.200000762939</ele>
        <time>2020-08-16T08:21:47.000Z</time>
      </trkpt>
      <trkpt lat="47.31979" lon="-2.4329">
        <ele>31.799999237061</ele>
        <time>2020-08-16T08:21:48.000Z</time>
      </trkpt>
      <trkpt lat="47.31978" lon="-2.43297">
        <ele>31.39999961853</ele>
        <time>2020-08-16T08:21:49.000Z</time>
      </trkpt>
      <trkpt lat="47.31977" lon="-2.43306">
        <ele>30.799999237061</ele>
        <time>2020-08-16T08:21:50.000Z</time>
      </trkpt>
      <trkpt lat="47.31976" lon="-2.43315">
        <ele>30.39999961853</ele>
        <time>2020-08-16T08:21:51.000Z</time>
      </trkpt>
      <trkpt lat="47.3197" lon="-2.43355">
        <ele>30.39999961853</ele>
        <time>2020-08-16T08:21:55.000Z</time>
      </trkpt>
      <trkpt lat="47.31962" lon="-2.43388">
        <ele>30</ele>
        <time>2020-08-16T08:21:58.000Z</time>
      </trkpt>
      <trkpt lat="47.31958" lon="-2.43398">
        <ele>29.60000038147</ele>
        <time>2020-08-16T08:21:59.000Z</time>
      </trkpt>
      <trkpt lat="47.31954" lon="-2.43409">
        <ele>29.200000762939</ele>
        <time>2020-08-16T08:22:00.000Z</time>
      </trkpt>
      <trkpt lat="47.3195" lon="-2.43419">
        <ele>28.799999237061</ele>
        <time>2020-08-16T08:22:01.000Z</time>
      </trkpt>
      <trkpt lat="47.31947" lon="-2.4343">
        <ele>28.39999961853</ele>
        <time>2020-08-16T08:22:02.000Z</time>
      </trkpt>
      <trkpt lat="47.3194" lon="-2.4345">
        <ele>27.799999237061</ele>
        <time>2020-08-16T08:22:04.000Z</time>
      </trkpt>
      <trkpt lat="47.31937" lon="-2.43461">
        <ele>27.200000762939</ele>
        <time>2020-08-16T08:22:05.000Z</time>
      </trkpt>
      <trkpt lat="47.31934" lon="-2.43471">
        <ele>26.799999237061</ele>
        <time>2020-08-16T08:22:06.000Z</time>
      </trkpt>
      <trkpt lat="47.31931" lon="-2.43482">
        <ele>26.200000762939</ele>
        <time>2020-08-16T08:22:07.000Z</time>
      </trkpt>
      <trkpt lat="47.31929" lon="-2.43494">
        <ele>25.60000038147</ele>
        <time>2020-08-16T08:22:08.000Z</time>
      </trkpt>
      <trkpt lat="47.31927" lon="-2.43527">
        <ele>25.60000038147</ele>
        <time>2020-08-16T08:22:11.000Z</time>
      </trkpt>
      <trkpt lat="47.31929" lon="-2.43546">
        <ele>25.200000762939</ele>
        <time>2020-08-16T08:22:13.000Z</time>
      </trkpt>
      <trkpt lat="47.31929" lon="-2.43555">
        <ele>24.799999237061</ele>
        <time>2020-08-16T08:22:14.000Z</time>
      </trkpt>
      <trkpt lat="47.31929" lon="-2.43565">
        <ele>24.39999961853</ele>
        <time>2020-08-16T08:22:15.000Z</time>
      </trkpt>
      <trkpt lat="47.31929" lon="-2.43575">
        <ele>24</ele>
        <time>2020-08-16T08:22:16.000Z</time>
      </trkpt>
      <trkpt lat="47.31927" lon="-2.43584">
        <ele>23.60000038147</ele>
        <time>2020-08-16T08:22:17.000Z</time>
      </trkpt>
      <trkpt lat="47.3192" lon="-2.436">
        <ele>23.60000038147</ele>
        <time>2020-08-16T08:22:19.000Z</time>
      </trkpt>
      <trkpt lat="47.31915" lon="-2.43605">
        <ele>23.200000762939</ele>
        <time>2020-08-16T08:22:20.000Z</time>
      </trkpt>
      <trkpt lat="47.31909" lon="-2.4361">
        <ele>22.799999237061</ele>
        <time>2020-08-16T08:22:21.000Z</time>
      </trkpt>
      <trkpt lat="47.31904" lon="-2.43615">
        <ele>22.200000762939</ele>
        <time>2020-08-16T08:22:22.000Z</time>
      </trkpt>
      <trkpt lat="47.31899" lon="-2.4362">
        <ele>21.39999961853</ele>
        <time>2020-08-16T08:22:23.000Z</time>
      </trkpt>
      <trkpt lat="47.31895" lon="-2.43625">
        <ele>21</ele>
        <time>2020-08-16T08:22:24.000Z</time>
      </trkpt>
      <trkpt lat="47.31892" lon="-2.43631">
        <ele>20.39999961853</ele>
        <time>2020-08-16T08:22:25.000Z</time>
      </trkpt>
      <trkpt lat="47.3189" lon="-2.43638">
        <ele>20</ele>
        <time>2020-08-16T08:22:26.000Z</time>
      </trkpt>
      <trkpt lat="47.3189" lon="-2.43645">
        <ele>19.39999961853</ele>
        <time>2020-08-16T08:22:27.000Z</time>
      </trkpt>
      <trkpt lat="47.31891" lon="-2.43651">
        <ele>19</ele>
        <time>2020-08-16T08:22:28.000Z</time>
      </trkpt>
      <trkpt lat="47.31896" lon="-2.43662">
        <ele>19</ele>
        <time>2020-08-16T08:22:30.000Z</time>
      </trkpt>
      <trkpt lat="47.31899" lon="-2.43667">
        <ele>19</ele>
        <time>2020-08-16T08:22:31.000Z</time>
      </trkpt>
      <trkpt lat="47.31901" lon="-2.43673">
        <ele>19</ele>
        <time>2020-08-16T08:22:32.000Z</time>
      </trkpt>
      <trkpt lat="47.31909" lon="-2.43691">
        <ele>19</ele>
        <time>2020-08-16T08:22:35.000Z</time>
      </trkpt>
      <trkpt lat="47.31927" lon="-2.4373">
        <ele>19</ele>
        <time>2020-08-16T08:22:40.000Z</time>
      </trkpt>
      <trkpt lat="47.31944" lon="-2.43779">
        <ele>19</ele>
        <time>2020-08-16T08:22:46.000Z</time>
      </trkpt>
      <trkpt lat="47.31957" lon="-2.43807">
        <ele>19</ele>
        <time>2020-08-16T08:22:50.000Z</time>
      </trkpt>
      <trkpt lat="47.31968" lon="-2.43826">
        <ele>19</ele>
        <time>2020-08-16T08:22:53.000Z</time>
      </trkpt>
      <trkpt lat="47.31976" lon="-2.43836">
        <ele>19</ele>
        <time>2020-08-16T08:22:55.000Z</time>
      </trkpt>
      <trkpt lat="47.31986" lon="-2.43839">
        <ele>19</ele>
        <time>2020-08-16T08:22:57.000Z</time>
      </trkpt>
      <trkpt lat="47.32" lon="-2.43828">
        <ele>19</ele>
        <time>2020-08-16T08:23:00.000Z</time>
      </trkpt>
      <trkpt lat="47.32008" lon="-2.43819">
        <ele>19.39999961853</ele>
        <time>2020-08-16T08:23:02.000Z</time>
      </trkpt>
      <trkpt lat="47.32011" lon="-2.43816">
        <ele>19.799999237061</ele>
        <time>2020-08-16T08:23:03.000Z</time>
      </trkpt>
      <trkpt lat="47.32015" lon="-2.43813">
        <ele>20.200000762939</ele>
        <time>2020-08-16T08:23:04.000Z</time>
      </trkpt>
      <trkpt lat="47.32019" lon="-2.4381">
        <ele>20.60000038147</ele>
        <time>2020-08-16T08:23:05.000Z</time>
      </trkpt>
      <trkpt lat="47.32022" lon="-2.43807">
        <ele>21.200000762939</ele>
        <time>2020-08-16T08:23:06.000Z</time>
      </trkpt>
      <trkpt lat="47.3203" lon="-2.43802">
        <ele>21.60000038147</ele>
        <time>2020-08-16T08:23:08.000Z</time>
      </trkpt>
      <trkpt lat="47.32034" lon="-2.43803">
        <ele>22</ele>
        <time>2020-08-16T08:23:09.000Z</time>
      </trkpt>
      <trkpt lat="47.32036" lon="-2.43805">
        <ele>22.39999961853</ele>
        <time>2020-08-16T08:23:10.000Z</time>
      </trkpt>
      <trkpt lat="47.32039" lon="-2.43809">
        <ele>22.799999237061</ele>
        <time>2020-08-16T08:23:11.000Z</time>
      </trkpt>
      <trkpt lat="47.32042" lon="-2.43814">
        <ele>23.799999237061</ele>
        <time>2020-08-16T08:23:12.000Z</time>
      </trkpt>
      <trkpt lat="47.32045" lon="-2.43818">
        <ele>24.200000762939</ele>
        <time>2020-08-16T08:23:13.000Z</time>
      </trkpt>
      <trkpt lat="47.32048" lon="-2.43823">
        <ele>24.799999237061</ele>
        <time>2020-08-16T08:23:14.000Z</time>
      </trkpt>
      <trkpt lat="47.32051" lon="-2.43829">
        <ele>25.200000762939</ele>
        <time>2020-08-16T08:23:15.000Z</time>
      </trkpt>
      <trkpt lat="47.32056" lon="-2.4384">
        <ele>25.200000762939</ele>
        <time>2020-08-16T08:23:17.000Z</time>
      </trkpt>
      <trkpt lat="47.32068" lon="-2.43862">
        <ele>25.200000762939</ele>
        <time>2020-08-16T08:23:21.000Z</time>
      </trkpt>
      <trkpt lat="47.32085" lon="-2.43889">
        <ele>25.200000762939</ele>
        <time>2020-08-16T08:23:26.000Z</time>
      </trkpt>
      <trkpt lat="47.32093" lon="-2.43897">
        <ele>25.60000038147</ele>
        <time>2020-08-16T08:23:28.000Z</time>
      </trkpt>
      <trkpt lat="47.32097" lon="-2.43899">
        <ele>26</ele>
        <time>2020-08-16T08:23:29.000Z</time>
      </trkpt>
      <trkpt lat="47.32101" lon="-2.43902">
        <ele>26.39999961853</ele>
        <time>2020-08-16T08:23:30.000Z</time>
      </trkpt>
      <trkpt lat="47.32105" lon="-2.43903">
        <ele>26.799999237061</ele>
        <time>2020-08-16T08:23:31.000Z</time>
      </trkpt>
      <trkpt lat="47.32109" lon="-2.43905">
        <ele>27.200000762939</ele>
        <time>2020-08-16T08:23:32.000Z</time>
      </trkpt>
      <trkpt lat="47.32113" lon="-2.43908">
        <ele>27.200000762939</ele>
        <time>2020-08-16T08:23:33.000Z</time>
      </trkpt>
      <trkpt lat="47.32121" lon="-2.43913">
        <ele>27.200000762939</ele>
        <time>2020-08-16T08:23:35.000Z</time>
      </trkpt>
      <trkpt lat="47.32127" lon="-2.43919">
        <ele>27.60000038147</ele>
        <time>2020-08-16T08:23:37.000Z</time>
      </trkpt>
      <trkpt lat="47.32131" lon="-2.43923">
        <ele>28.200000762939</ele>
        <time>2020-08-16T08:23:38.000Z</time>
      </trkpt>
      <trkpt lat="47.32134" lon="-2.43926">
        <ele>28.60000038147</ele>
        <time>2020-08-16T08:23:39.000Z</time>
      </trkpt>
      <trkpt lat="47.32137" lon="-2.4393">
        <ele>29</ele>
        <time>2020-08-16T08:23:40.000Z</time>
      </trkpt>
      <trkpt lat="47.32139" lon="-2.43934">
        <ele>29.39999961853</ele>
        <time>2020-08-16T08:23:41.000Z</time>
      </trkpt>
      <trkpt lat="47.32153" lon="-2.43953">
        <ele>29.799999237061</ele>
        <time>2020-08-16T08:23:46.000Z</time>
      </trkpt>
      <trkpt lat="47.32156" lon="-2.43957">
        <ele>30.200000762939</ele>
        <time>2020-08-16T08:23:47.000Z</time>
      </trkpt>
      <trkpt lat="47.32159" lon="-2.43961">
        <ele>30.60000038147</ele>
        <time>2020-08-16T08:23:48.000Z</time>
      </trkpt>
      <trkpt lat="47.32162" lon="-2.43964">
        <ele>31</ele>
        <time>2020-08-16T08:23:49.000Z</time>
      </trkpt>
      <trkpt lat="47.32165" lon="-2.43968">
        <ele>31.39999961853</ele>
        <time>2020-08-16T08:23:50.000Z</time>
      </trkpt>
      <trkpt lat="47.32174" lon="-2.4398">
        <ele>31.39999961853</ele>
        <time>2020-08-16T08:23:53.000Z</time>
      </trkpt>
      <trkpt lat="47.3218" lon="-2.43988">
        <ele>32</ele>
        <time>2020-08-16T08:23:55.000Z</time>
      </trkpt>
      <trkpt lat="47.32183" lon="-2.43992">
        <ele>32.400001525879</ele>
        <time>2020-08-16T08:23:56.000Z</time>
      </trkpt>
      <trkpt lat="47.32186" lon="-2.43996">
        <ele>32.799999237061</ele>
        <time>2020-08-16T08:23:57.000Z</time>
      </trkpt>
      <trkpt lat="47.3219" lon="-2.44">
        <ele>33.200000762939</ele>
        <time>2020-08-16T08:23:58.000Z</time>
      </trkpt>
      <trkpt lat="47.32193" lon="-2.44005">
        <ele>33.599998474121</ele>
        <time>2020-08-16T08:23:59.000Z</time>
      </trkpt>
      <trkpt lat="47.322" lon="-2.44013">
        <ele>33.599998474121</ele>
        <time>2020-08-16T08:24:01.000Z</time>
      </trkpt>
      <trkpt lat="47.32224" lon="-2.44039">
        <ele>33.599998474121</ele>
        <time>2020-08-16T08:24:08.000Z</time>
      </trkpt>
      <trkpt lat="47.32237" lon="-2.44046">
        <ele>33.599998474121</ele>
        <time>2020-08-16T08:24:11.000Z</time>
      </trkpt>
      <trkpt lat="47.32242" lon="-2.44046">
        <ele>34</ele>
        <time>2020-08-16T08:24:12.000Z</time>
      </trkpt>
      <trkpt lat="47.32246" lon="-2.44046">
        <ele>34.400001525879</ele>
        <time>2020-08-16T08:24:13.000Z</time>
      </trkpt>
      <trkpt lat="47.32251" lon="-2.44046">
        <ele>34.799999237061</ele>
        <time>2020-08-16T08:24:14.000Z</time>
      </trkpt>
      <trkpt lat="47.32256" lon="-2.44046">
        <ele>35.200000762939</ele>
        <time>2020-08-16T08:24:15.000Z</time>
      </trkpt>
      <trkpt lat="47.32261" lon="-2.44046">
        <ele>35.599998474121</ele>
        <time>2020-08-16T08:24:16.000Z</time>
      </trkpt>
      <trkpt lat="47.32277" lon="-2.44048">
        <ele>35.599998474121</ele>
        <time>2020-08-16T08:24:19.000Z</time>
      </trkpt>
      <trkpt lat="47.32285" lon="-2.44051">
        <ele>35.599998474121</ele>
        <time>2020-08-16T08:24:21.000Z</time>
      </trkpt>
      <trkpt lat="47.32293" lon="-2.44055">
        <ele>35.599998474121</ele>
        <time>2020-08-16T08:24:23.000Z</time>
      </trkpt>
      <trkpt lat="47.32312" lon="-2.44061">
        <ele>36.200000762939</ele>
        <time>2020-08-16T08:24:27.000Z</time>
      </trkpt>
      <trkpt lat="47.32317" lon="-2.44062">
        <ele>36.599998474121</ele>
        <time>2020-08-16T08:24:28.000Z</time>
      </trkpt>
      <trkpt lat="47.32321" lon="-2.44063">
        <ele>37</ele>
        <time>2020-08-16T08:24:29.000Z</time>
      </trkpt>
      <trkpt lat="47.32326" lon="-2.44064">
        <ele>37.400001525879</ele>
        <time>2020-08-16T08:24:30.000Z</time>
      </trkpt>
      <trkpt lat="47.3233" lon="-2.44065">
        <ele>37.799999237061</ele>
        <time>2020-08-16T08:24:31.000Z</time>
      </trkpt>
      <trkpt lat="47.32339" lon="-2.44068">
        <ele>37.799999237061</ele>
        <time>2020-08-16T08:24:33.000Z</time>
      </trkpt>
      <trkpt lat="47.32349" lon="-2.4407">
        <ele>37.799999237061</ele>
        <time>2020-08-16T08:24:35.000Z</time>
      </trkpt>
      <trkpt lat="47.32353" lon="-2.4407">
        <ele>37.799999237061</ele>
        <time>2020-08-16T08:24:36.000Z</time>
      </trkpt>
      <trkpt lat="47.32373" lon="-2.44066">
        <ele>38.200000762939</ele>
        <time>2020-08-16T08:24:40.000Z</time>
      </trkpt>
      <trkpt lat="47.32377" lon="-2.44065">
        <ele>38.799999237061</ele>
        <time>2020-08-16T08:24:41.000Z</time>
      </trkpt>
      <trkpt lat="47.32382" lon="-2.44063">
        <ele>39.200000762939</ele>
        <time>2020-08-16T08:24:42.000Z</time>
      </trkpt>
      <trkpt lat="47.32386" lon="-2.4406">
        <ele>39.599998474121</ele>
        <time>2020-08-16T08:24:43.000Z</time>
      </trkpt>
      <trkpt lat="47.32391" lon="-2.44058">
        <ele>40</ele>
        <time>2020-08-16T08:24:44.000Z</time>
      </trkpt>
      <trkpt lat="47.32399" lon="-2.44054">
        <ele>40</ele>
        <time>2020-08-16T08:24:46.000Z</time>
      </trkpt>
      <trkpt lat="47.3242" lon="-2.44041">
        <ele>40.400001525879</ele>
        <time>2020-08-16T08:24:51.000Z</time>
      </trkpt>
      <trkpt lat="47.32424" lon="-2.44038">
        <ele>40.799999237061</ele>
        <time>2020-08-16T08:24:52.000Z</time>
      </trkpt>
      <trkpt lat="47.32428" lon="-2.44035">
        <ele>41.200000762939</ele>
        <time>2020-08-16T08:24:53.000Z</time>
      </trkpt>
      <trkpt lat="47.32432" lon="-2.44033">
        <ele>41.599998474121</ele>
        <time>2020-08-16T08:24:54.000Z</time>
      </trkpt>
      <trkpt lat="47.32436" lon="-2.4403">
        <ele>42.200000762939</ele>
        <time>2020-08-16T08:24:55.000Z</time>
      </trkpt>
      <trkpt lat="47.32461" lon="-2.44011">
        <ele>42.200000762939</ele>
        <time>2020-08-16T08:25:01.000Z</time>
      </trkpt>
      <trkpt lat="47.32481" lon="-2.43997">
        <ele>42.599998474121</ele>
        <time>2020-08-16T08:25:06.000Z</time>
      </trkpt>
      <trkpt lat="47.32485" lon="-2.43995">
        <ele>43</ele>
        <time>2020-08-16T08:25:07.000Z</time>
      </trkpt>
      <trkpt lat="47.32489" lon="-2.43992">
        <ele>43.400001525879</ele>
        <time>2020-08-16T08:25:08.000Z</time>
      </trkpt>
      <trkpt lat="47.32493" lon="-2.43989">
        <ele>43.799999237061</ele>
        <time>2020-08-16T08:25:09.000Z</time>
      </trkpt>
      <trkpt lat="47.32497" lon="-2.43986">
        <ele>44.200000762939</ele>
        <time>2020-08-16T08:25:10.000Z</time>
      </trkpt>
      <trkpt lat="47.32505" lon="-2.4398">
        <ele>44.200000762939</ele>
        <time>2020-08-16T08:25:13.000Z</time>
      </trkpt>
      <trkpt lat="47.3251" lon="-2.4398">
        <ele>44.200000762939</ele>
        <time>2020-08-16T08:25:17.000Z</time>
      </trkpt>
      <trkpt lat="47.32513" lon="-2.4398">
        <ele>44.200000762939</ele>
        <time>2020-08-16T08:25:24.000Z</time>
      </trkpt>
      <trkpt lat="47.32515" lon="-2.43979">
        <ele>44.200000762939</ele>
        <time>2020-08-16T08:25:27.000Z</time>
      </trkpt>
      <trkpt lat="47.32515" lon="-2.43979">
        <ele>44.200000762939</ele>
        <time>2020-08-16T08:25:28.000Z</time>
      </trkpt>
      <trkpt lat="47.32511" lon="-2.43981">
        <ele>44.200000762939</ele>
        <time>2020-08-16T08:26:02.000Z</time>
      </trkpt>
      <trkpt lat="47.32514" lon="-2.43987">
        <ele>44.200000762939</ele>
        <time>2020-08-16T08:26:04.000Z</time>
      </trkpt>
      <trkpt lat="47.32531" lon="-2.44009">
        <ele>44.200000762939</ele>
        <time>2020-08-16T08:26:09.000Z</time>
      </trkpt>
      <trkpt lat="47.32538" lon="-2.44017">
        <ele>44.200000762939</ele>
        <time>2020-08-16T08:26:11.000Z</time>
      </trkpt>
      <trkpt lat="47.32553" lon="-2.44026">
        <ele>44.200000762939</ele>
        <time>2020-08-16T08:26:15.000Z</time>
      </trkpt>
      <trkpt lat="47.32571" lon="-2.44034">
        <ele>44.200000762939</ele>
        <time>2020-08-16T08:26:20.000Z</time>
      </trkpt>
      <trkpt lat="47.32574" lon="-2.44038">
        <ele>44.200000762939</ele>
        <time>2020-08-16T08:26:22.000Z</time>
      </trkpt>
      <trkpt lat="47.32573" lon="-2.44041">
        <ele>44.599998474121</ele>
        <time>2020-08-16T08:26:23.000Z</time>
      </trkpt>
      <trkpt lat="47.32571" lon="-2.44044">
        <ele>45</ele>
        <time>2020-08-16T08:26:24.000Z</time>
      </trkpt>
      <trkpt lat="47.3257" lon="-2.44049">
        <ele>45.400001525879</ele>
        <time>2020-08-16T08:26:25.000Z</time>
      </trkpt>
      <trkpt lat="47.32567" lon="-2.44054">
        <ele>45.799999237061</ele>
        <time>2020-08-16T08:26:26.000Z</time>
      </trkpt>
      <trkpt lat="47.32565" lon="-2.44059">
        <ele>46.200000762939</ele>
        <time>2020-08-16T08:26:27.000Z</time>
      </trkpt>
      <trkpt lat="47.32564" lon="-2.44064">
        <ele>46.200000762939</ele>
        <time>2020-08-16T08:26:28.000Z</time>
      </trkpt>
      <trkpt lat="47.32556" lon="-2.44091">
        <ele>46.200000762939</ele>
        <time>2020-08-16T08:26:34.000Z</time>
      </trkpt>
      <trkpt lat="47.32547" lon="-2.44122">
        <ele>46.200000762939</ele>
        <time>2020-08-16T08:26:40.000Z</time>
      </trkpt>
      <trkpt lat="47.32537" lon="-2.44156">
        <ele>46.200000762939</ele>
        <time>2020-08-16T08:26:46.000Z</time>
      </trkpt>
      <trkpt lat="47.32535" lon="-2.44162">
        <ele>46.200000762939</ele>
        <time>2020-08-16T08:26:47.000Z</time>
      </trkpt>
      <trkpt lat="47.32527" lon="-2.44193">
        <ele>46.200000762939</ele>
        <time>2020-08-16T08:26:52.000Z</time>
      </trkpt>
      <trkpt lat="47.32528" lon="-2.442">
        <ele>46.200000762939</ele>
        <time>2020-08-16T08:26:53.000Z</time>
      </trkpt>
      <trkpt lat="47.32538" lon="-2.44225">
        <ele>46.200000762939</ele>
        <time>2020-08-16T08:26:58.000Z</time>
      </trkpt>
      <trkpt lat="47.32554" lon="-2.44251">
        <ele>46.200000762939</ele>
        <time>2020-08-16T08:27:04.000Z</time>
      </trkpt>
      <trkpt lat="47.3256" lon="-2.44268">
        <ele>46.200000762939</ele>
        <time>2020-08-16T08:27:07.000Z</time>
      </trkpt>
      <trkpt lat="47.32561" lon="-2.44281">
        <ele>46.200000762939</ele>
        <time>2020-08-16T08:27:09.000Z</time>
      </trkpt>
      <trkpt lat="47.32563" lon="-2.44295">
        <ele>46.200000762939</ele>
        <time>2020-08-16T08:27:11.000Z</time>
      </trkpt>
      <trkpt lat="47.32565" lon="-2.44301">
        <ele>46.200000762939</ele>
        <time>2020-08-16T08:27:12.000Z</time>
      </trkpt>
      <trkpt lat="47.3257" lon="-2.44319">
        <ele>46.200000762939</ele>
        <time>2020-08-16T08:27:15.000Z</time>
      </trkpt>
      <trkpt lat="47.3258" lon="-2.44341">
        <ele>46.200000762939</ele>
        <time>2020-08-16T08:27:19.000Z</time>
      </trkpt>
      <trkpt lat="47.32582" lon="-2.44348">
        <ele>46.200000762939</ele>
        <time>2020-08-16T08:27:20.000Z</time>
      </trkpt>
      <trkpt lat="47.32596" lon="-2.44375">
        <ele>45.799999237061</ele>
        <time>2020-08-16T08:27:25.000Z</time>
      </trkpt>
      <trkpt lat="47.32599" lon="-2.44379">
        <ele>45.400001525879</ele>
        <time>2020-08-16T08:27:26.000Z</time>
      </trkpt>
      <trkpt lat="47.32603" lon="-2.44383">
        <ele>45</ele>
        <time>2020-08-16T08:27:27.000Z</time>
      </trkpt>
      <trkpt lat="47.32607" lon="-2.44387">
        <ele>44.599998474121</ele>
        <time>2020-08-16T08:27:28.000Z</time>
      </trkpt>
      <trkpt lat="47.3261" lon="-2.4439">
        <ele>44.200000762939</ele>
        <time>2020-08-16T08:27:29.000Z</time>
      </trkpt>
      <trkpt lat="47.32613" lon="-2.44394">
        <ele>44.200000762939</ele>
        <time>2020-08-16T08:27:30.000Z</time>
      </trkpt>
      <trkpt lat="47.32625" lon="-2.44416">
        <ele>44.599998474121</ele>
        <time>2020-08-16T08:27:34.000Z</time>
      </trkpt>
      <trkpt lat="47.32629" lon="-2.44423">
        <ele>45.200000762939</ele>
        <time>2020-08-16T08:27:35.000Z</time>
      </trkpt>
      <trkpt lat="47.32632" lon="-2.4443">
        <ele>45.599998474121</ele>
        <time>2020-08-16T08:27:36.000Z</time>
      </trkpt>
      <trkpt lat="47.32636" lon="-2.44436">
        <ele>46</ele>
        <time>2020-08-16T08:27:37.000Z</time>
      </trkpt>
      <trkpt lat="47.32639" lon="-2.44442">
        <ele>46.400001525879</ele>
        <time>2020-08-16T08:27:38.000Z</time>
      </trkpt>
      <trkpt lat="47.32649" lon="-2.44471">
        <ele>46.400001525879</ele>
        <time>2020-08-16T08:27:42.000Z</time>
      </trkpt>
      <trkpt lat="47.32654" lon="-2.44485">
        <ele>46.400001525879</ele>
        <time>2020-08-16T08:27:44.000Z</time>
      </trkpt>
      <trkpt lat="47.32662" lon="-2.44493">
        <ele>46.400001525879</ele>
        <time>2020-08-16T08:27:46.000Z</time>
      </trkpt>
      <trkpt lat="47.32668" lon="-2.44496">
        <ele>46.400001525879</ele>
        <time>2020-08-16T08:27:48.000Z</time>
      </trkpt>
      <trkpt lat="47.32669" lon="-2.44498">
        <ele>46.400001525879</ele>
        <time>2020-08-16T08:27:49.000Z</time>
      </trkpt>
      <trkpt lat="47.32667" lon="-2.4451">
        <ele>46.400001525879</ele>
        <time>2020-08-16T08:27:53.000Z</time>
      </trkpt>
      <trkpt lat="47.3266" lon="-2.44524">
        <ele>46.400001525879</ele>
        <time>2020-08-16T08:27:57.000Z</time>
      </trkpt>
      <trkpt lat="47.32657" lon="-2.44529">
        <ele>46.400001525879</ele>
        <time>2020-08-16T08:27:58.000Z</time>
      </trkpt>
      <trkpt lat="47.32643" lon="-2.44557">
        <ele>46.400001525879</ele>
        <time>2020-08-16T08:28:03.000Z</time>
      </trkpt>
      <trkpt lat="47.3262" lon="-2.44596">
        <ele>46.400001525879</ele>
        <time>2020-08-16T08:28:09.000Z</time>
      </trkpt>
      <trkpt lat="47.32596" lon="-2.44633">
        <ele>46</ele>
        <time>2020-08-16T08:28:15.000Z</time>
      </trkpt>
      <trkpt lat="47.32593" lon="-2.44637">
        <ele>45.599998474121</ele>
        <time>2020-08-16T08:28:16.000Z</time>
      </trkpt>
      <trkpt lat="47.3259" lon="-2.44641">
        <ele>45.200000762939</ele>
        <time>2020-08-16T08:28:17.000Z</time>
      </trkpt>
      <trkpt lat="47.32587" lon="-2.44645">
        <ele>44.799999237061</ele>
        <time>2020-08-16T08:28:18.000Z</time>
      </trkpt>
      <trkpt lat="47.32583" lon="-2.4465">
        <ele>44.400001525879</ele>
        <time>2020-08-16T08:28:19.000Z</time>
      </trkpt>
      <trkpt lat="47.32575" lon="-2.44659">
        <ele>44.400001525879</ele>
        <time>2020-08-16T08:28:21.000Z</time>
      </trkpt>
      <trkpt lat="47.32561" lon="-2.44678">
        <ele>43.799999237061</ele>
        <time>2020-08-16T08:28:24.000Z</time>
      </trkpt>
      <trkpt lat="47.32556" lon="-2.44686">
        <ele>43.400001525879</ele>
        <time>2020-08-16T08:28:25.000Z</time>
      </trkpt>
      <trkpt lat="47.32552" lon="-2.44693">
        <ele>43</ele>
        <time>2020-08-16T08:28:26.000Z</time>
      </trkpt>
      <trkpt lat="47.32548" lon="-2.447">
        <ele>42.599998474121</ele>
        <time>2020-08-16T08:28:27.000Z</time>
      </trkpt>
      <trkpt lat="47.32544" lon="-2.44708">
        <ele>42.200000762939</ele>
        <time>2020-08-16T08:28:28.000Z</time>
      </trkpt>
      <trkpt lat="47.32538" lon="-2.44722">
        <ele>41.599998474121</ele>
        <time>2020-08-16T08:28:30.000Z</time>
      </trkpt>
      <trkpt lat="47.32536" lon="-2.44728">
        <ele>41.200000762939</ele>
        <time>2020-08-16T08:28:31.000Z</time>
      </trkpt>
      <trkpt lat="47.32534" lon="-2.44733">
        <ele>40.599998474121</ele>
        <time>2020-08-16T08:28:32.000Z</time>
      </trkpt>
      <trkpt lat="47.32532" lon="-2.44737">
        <ele>40</ele>
        <time>2020-08-16T08:28:33.000Z</time>
      </trkpt>
      <trkpt lat="47.32528" lon="-2.44741">
        <ele>39.400001525879</ele>
        <time>2020-08-16T08:28:34.000Z</time>
      </trkpt>
      <trkpt lat="47.32525" lon="-2.44743">
        <ele>39</ele>
        <time>2020-08-16T08:28:35.000Z</time>
      </trkpt>
      <trkpt lat="47.32522" lon="-2.44745">
        <ele>38.599998474121</ele>
        <time>2020-08-16T08:28:36.000Z</time>
      </trkpt>
      <trkpt lat="47.32518" lon="-2.44747">
        <ele>38.200000762939</ele>
        <time>2020-08-16T08:28:37.000Z</time>
      </trkpt>
      <trkpt lat="47.32514" lon="-2.44748">
        <ele>37.799999237061</ele>
        <time>2020-08-16T08:28:38.000Z</time>
      </trkpt>
      <trkpt lat="47.32511" lon="-2.4475">
        <ele>37.400001525879</ele>
        <time>2020-08-16T08:28:39.000Z</time>
      </trkpt>
      <trkpt lat="47.3249" lon="-2.44762">
        <ele>37.400001525879</ele>
        <time>2020-08-16T08:28:43.000Z</time>
      </trkpt>
      <trkpt lat="47.3246" lon="-2.44786">
        <ele>37</ele>
        <time>2020-08-16T08:28:47.000Z</time>
      </trkpt>
      <trkpt lat="47.32453" lon="-2.4479">
        <ele>36.599998474121</ele>
        <time>2020-08-16T08:28:48.000Z</time>
      </trkpt>
      <trkpt lat="47.32445" lon="-2.44796">
        <ele>36.200000762939</ele>
        <time>2020-08-16T08:28:49.000Z</time>
      </trkpt>
      <trkpt lat="47.32437" lon="-2.44801">
        <ele>35.599998474121</ele>
        <time>2020-08-16T08:28:50.000Z</time>
      </trkpt>
      <trkpt lat="47.32428" lon="-2.44807">
        <ele>35.200000762939</ele>
        <time>2020-08-16T08:28:51.000Z</time>
      </trkpt>
      <trkpt lat="47.32418" lon="-2.44814">
        <ele>34.799999237061</ele>
        <time>2020-08-16T08:28:52.000Z</time>
      </trkpt>
      <trkpt lat="47.32409" lon="-2.4482">
        <ele>34.400001525879</ele>
        <time>2020-08-16T08:28:53.000Z</time>
      </trkpt>
      <trkpt lat="47.32399" lon="-2.44827">
        <ele>34</ele>
        <time>2020-08-16T08:28:54.000Z</time>
      </trkpt>
      <trkpt lat="47.3239" lon="-2.44834">
        <ele>33.599998474121</ele>
        <time>2020-08-16T08:28:55.000Z</time>
      </trkpt>
      <trkpt lat="47.32381" lon="-2.44842">
        <ele>33.200000762939</ele>
        <time>2020-08-16T08:28:56.000Z</time>
      </trkpt>
      <trkpt lat="47.32358" lon="-2.44864">
        <ele>33.200000762939</ele>
        <time>2020-08-16T08:28:59.000Z</time>
      </trkpt>
      <trkpt lat="47.32351" lon="-2.44872">
        <ele>32.799999237061</ele>
        <time>2020-08-16T08:29:00.000Z</time>
      </trkpt>
      <trkpt lat="47.32346" lon="-2.44879">
        <ele>32.400001525879</ele>
        <time>2020-08-16T08:29:01.000Z</time>
      </trkpt>
      <trkpt lat="47.3234" lon="-2.44887">
        <ele>32</ele>
        <time>2020-08-16T08:29:02.000Z</time>
      </trkpt>
      <trkpt lat="47.32334" lon="-2.44895">
        <ele>31.60000038147</ele>
        <time>2020-08-16T08:29:03.000Z</time>
      </trkpt>
      <trkpt lat="47.32328" lon="-2.44903">
        <ele>31</ele>
        <time>2020-08-16T08:29:04.000Z</time>
      </trkpt>
      <trkpt lat="47.32282" lon="-2.44957">
        <ele>31</ele>
        <time>2020-08-16T08:29:11.000Z</time>
      </trkpt>
      <trkpt lat="47.32275" lon="-2.44964">
        <ele>31</ele>
        <time>2020-08-16T08:29:12.000Z</time>
      </trkpt>
      <trkpt lat="47.32256" lon="-2.44986">
        <ele>30.60000038147</ele>
        <time>2020-08-16T08:29:15.000Z</time>
      </trkpt>
      <trkpt lat="47.32249" lon="-2.44993">
        <ele>30.200000762939</ele>
        <time>2020-08-16T08:29:16.000Z</time>
      </trkpt>
      <trkpt lat="47.32243" lon="-2.45">
        <ele>29.60000038147</ele>
        <time>2020-08-16T08:29:17.000Z</time>
      </trkpt>
      <trkpt lat="47.32237" lon="-2.45007">
        <ele>29.200000762939</ele>
        <time>2020-08-16T08:29:18.000Z</time>
      </trkpt>
      <trkpt lat="47.32231" lon="-2.45013">
        <ele>28.60000038147</ele>
        <time>2020-08-16T08:29:19.000Z</time>
      </trkpt>
      <trkpt lat="47.32226" lon="-2.45018">
        <ele>28</ele>
        <time>2020-08-16T08:29:20.000Z</time>
      </trkpt>
      <trkpt lat="47.32222" lon="-2.45023">
        <ele>27.200000762939</ele>
        <time>2020-08-16T08:29:21.000Z</time>
      </trkpt>
      <trkpt lat="47.32219" lon="-2.45028">
        <ele>26.39999961853</ele>
        <time>2020-08-16T08:29:22.000Z</time>
      </trkpt>
      <trkpt lat="47.32218" lon="-2.45031">
        <ele>25.39999961853</ele>
        <time>2020-08-16T08:29:23.000Z</time>
      </trkpt>
      <trkpt lat="47.32217" lon="-2.45034">
        <ele>23.60000038147</ele>
        <time>2020-08-16T08:29:24.000Z</time>
      </trkpt>
      <trkpt lat="47.32217" lon="-2.45035">
        <ele>22.799999237061</ele>
        <time>2020-08-16T08:29:25.000Z</time>
      </trkpt>
      <trkpt lat="47.32217" lon="-2.45036">
        <ele>21.799999237061</ele>
        <time>2020-08-16T08:29:26.000Z</time>
      </trkpt>
      <trkpt lat="47.32217" lon="-2.45036">
        <ele>21.39999961853</ele>
        <time>2020-08-16T08:29:27.000Z</time>
      </trkpt>
      <trkpt lat="47.32218" lon="-2.45039">
        <ele>20.60000038147</ele>
        <time>2020-08-16T08:29:29.000Z</time>
      </trkpt>
      <trkpt lat="47.3222" lon="-2.45042">
        <ele>20.200000762939</ele>
        <time>2020-08-16T08:29:30.000Z</time>
      </trkpt>
      <trkpt lat="47.32221" lon="-2.45045">
        <ele>19.799999237061</ele>
        <time>2020-08-16T08:29:31.000Z</time>
      </trkpt>
      <trkpt lat="47.32232" lon="-2.45068">
        <ele>19.799999237061</ele>
        <time>2020-08-16T08:29:36.000Z</time>
      </trkpt>
      <trkpt lat="47.32246" lon="-2.45099">
        <ele>19.799999237061</ele>
        <time>2020-08-16T08:29:41.000Z</time>
      </trkpt>
      <trkpt lat="47.32262" lon="-2.45143">
        <ele>19.799999237061</ele>
        <time>2020-08-16T08:29:48.000Z</time>
      </trkpt>
      <trkpt lat="47.32264" lon="-2.45148">
        <ele>19.799999237061</ele>
        <time>2020-08-16T08:29:49.000Z</time>
      </trkpt>
      <trkpt lat="47.32265" lon="-2.45155">
        <ele>19.799999237061</ele>
        <time>2020-08-16T08:29:50.000Z</time>
      </trkpt>
      <trkpt lat="47.3227" lon="-2.45178">
        <ele>19.799999237061</ele>
        <time>2020-08-16T08:29:53.000Z</time>
      </trkpt>
      <trkpt lat="47.32272" lon="-2.45186">
        <ele>19.39999961853</ele>
        <time>2020-08-16T08:29:54.000Z</time>
      </trkpt>
      <trkpt lat="47.32276" lon="-2.45196">
        <ele>19</ele>
        <time>2020-08-16T08:29:55.000Z</time>
      </trkpt>
      <trkpt lat="47.32279" lon="-2.45206">
        <ele>18.39999961853</ele>
        <time>2020-08-16T08:29:56.000Z</time>
      </trkpt>
      <trkpt lat="47.32283" lon="-2.45215">
        <ele>18</ele>
        <time>2020-08-16T08:29:57.000Z</time>
      </trkpt>
      <trkpt lat="47.32287" lon="-2.45224">
        <ele>17.60000038147</ele>
        <time>2020-08-16T08:29:58.000Z</time>
      </trkpt>
      <trkpt lat="47.323" lon="-2.4526">
        <ele>17.60000038147</ele>
        <time>2020-08-16T08:30:02.000Z</time>
      </trkpt>
      <trkpt lat="47.3231" lon="-2.45296">
        <ele>17.60000038147</ele>
        <time>2020-08-16T08:30:07.000Z</time>
      </trkpt>
      <trkpt lat="47.32316" lon="-2.45328">
        <ele>17.60000038147</ele>
        <time>2020-08-16T08:30:13.000Z</time>
      </trkpt>
      <trkpt lat="47.32319" lon="-2.45366">
        <ele>17.60000038147</ele>
        <time>2020-08-16T08:30:18.000Z</time>
      </trkpt>
      <trkpt lat="47.3232" lon="-2.45389">
        <ele>17.60000038147</ele>
        <time>2020-08-16T08:30:21.000Z</time>
      </trkpt>
      <trkpt lat="47.3232" lon="-2.45396">
        <ele>17.60000038147</ele>
        <time>2020-08-16T08:30:22.000Z</time>
      </trkpt>
      <trkpt lat="47.32317" lon="-2.45403">
        <ele>17.200000762939</ele>
        <time>2020-08-16T08:30:23.000Z</time>
      </trkpt>
      <trkpt lat="47.32316" lon="-2.45412">
        <ele>16.799999237061</ele>
        <time>2020-08-16T08:30:24.000Z</time>
      </trkpt>
      <trkpt lat="47.32317" lon="-2.45421">
        <ele>16.200000762939</ele>
        <time>2020-08-16T08:30:25.000Z</time>
      </trkpt>
      <trkpt lat="47.32319" lon="-2.4543">
        <ele>15.800000190735</ele>
        <time>2020-08-16T08:30:26.000Z</time>
      </trkpt>
      <trkpt lat="47.32322" lon="-2.45438">
        <ele>15.39999961853</ele>
        <time>2020-08-16T08:30:27.000Z</time>
      </trkpt>
      <trkpt lat="47.32326" lon="-2.45445">
        <ele>15.39999961853</ele>
        <time>2020-08-16T08:30:28.000Z</time>
      </trkpt>
      <trkpt lat="47.32334" lon="-2.45457">
        <ele>15.39999961853</ele>
        <time>2020-08-16T08:30:30.000Z</time>
      </trkpt>
      <trkpt lat="47.32346" lon="-2.45473">
        <ele>15.39999961853</ele>
        <time>2020-08-16T08:30:33.000Z</time>
      </trkpt>
      <trkpt lat="47.32366" lon="-2.45503">
        <ele>15.39999961853</ele>
        <time>2020-08-16T08:30:39.000Z</time>
      </trkpt>
      <trkpt lat="47.32369" lon="-2.45507">
        <ele>15.39999961853</ele>
        <time>2020-08-16T08:30:40.000Z</time>
      </trkpt>
      <trkpt lat="47.32377" lon="-2.4552">
        <ele>15.39999961853</ele>
        <time>2020-08-16T08:30:43.000Z</time>
      </trkpt>
      <trkpt lat="47.3238" lon="-2.45525">
        <ele>15.39999961853</ele>
        <time>2020-08-16T08:30:44.000Z</time>
      </trkpt>
      <trkpt lat="47.32394" lon="-2.45552">
        <ele>15.39999961853</ele>
        <time>2020-08-16T08:30:50.000Z</time>
      </trkpt>
      <trkpt lat="47.32408" lon="-2.45576">
        <ele>15.39999961853</ele>
        <time>2020-08-16T08:30:56.000Z</time>
      </trkpt>
      <trkpt lat="47.3242" lon="-2.45609">
        <ele>15.39999961853</ele>
        <time>2020-08-16T08:31:02.000Z</time>
      </trkpt>
      <trkpt lat="47.32422" lon="-2.45615">
        <ele>15.39999961853</ele>
        <time>2020-08-16T08:31:03.000Z</time>
      </trkpt>
      <trkpt lat="47.32437" lon="-2.45643">
        <ele>15.39999961853</ele>
        <time>2020-08-16T08:31:08.000Z</time>
      </trkpt>
      <trkpt lat="47.32464" lon="-2.45683">
        <ele>15.39999961853</ele>
        <time>2020-08-16T08:31:15.000Z</time>
      </trkpt>
      <trkpt lat="47.32491" lon="-2.45728">
        <ele>15.39999961853</ele>
        <time>2020-08-16T08:31:22.000Z</time>
      </trkpt>
      <trkpt lat="47.32506" lon="-2.45753">
        <ele>15</ele>
        <time>2020-08-16T08:31:26.000Z</time>
      </trkpt>
      <trkpt lat="47.32509" lon="-2.45759">
        <ele>14.60000038147</ele>
        <time>2020-08-16T08:31:27.000Z</time>
      </trkpt>
      <trkpt lat="47.32512" lon="-2.45765">
        <ele>14.199999809265</ele>
        <time>2020-08-16T08:31:28.000Z</time>
      </trkpt>
      <trkpt lat="47.32516" lon="-2.45771">
        <ele>13.800000190735</ele>
        <time>2020-08-16T08:31:29.000Z</time>
      </trkpt>
      <trkpt lat="47.32519" lon="-2.45777">
        <ele>13.39999961853</ele>
        <time>2020-08-16T08:31:30.000Z</time>
      </trkpt>
      <trkpt lat="47.32522" lon="-2.45783">
        <ele>13.39999961853</ele>
        <time>2020-08-16T08:31:31.000Z</time>
      </trkpt>
      <trkpt lat="47.32536" lon="-2.45807">
        <ele>13.39999961853</ele>
        <time>2020-08-16T08:31:35.000Z</time>
      </trkpt>
      <trkpt lat="47.32563" lon="-2.45847">
        <ele>13.39999961853</ele>
        <time>2020-08-16T08:31:42.000Z</time>
      </trkpt>
      <trkpt lat="47.32579" lon="-2.45878">
        <ele>13.800000190735</ele>
        <time>2020-08-16T08:31:47.000Z</time>
      </trkpt>
      <trkpt lat="47.32582" lon="-2.45884">
        <ele>14.199999809265</ele>
        <time>2020-08-16T08:31:48.000Z</time>
      </trkpt>
      <trkpt lat="47.32586" lon="-2.45889">
        <ele>14.60000038147</ele>
        <time>2020-08-16T08:31:49.000Z</time>
      </trkpt>
      <trkpt lat="47.3259" lon="-2.45894">
        <ele>15.39999961853</ele>
        <time>2020-08-16T08:31:50.000Z</time>
      </trkpt>
      <trkpt lat="47.32602" lon="-2.45911">
        <ele>15.39999961853</ele>
        <time>2020-08-16T08:31:53.000Z</time>
      </trkpt>
      <trkpt lat="47.32623" lon="-2.45943">
        <ele>15.39999961853</ele>
        <time>2020-08-16T08:31:59.000Z</time>
      </trkpt>
      <trkpt lat="47.32626" lon="-2.45948">
        <ele>15.39999961853</ele>
        <time>2020-08-16T08:32:00.000Z</time>
      </trkpt>
      <trkpt lat="47.32635" lon="-2.45964">
        <ele>15.39999961853</ele>
        <time>2020-08-16T08:32:03.000Z</time>
      </trkpt>
      <trkpt lat="47.32643" lon="-2.45971">
        <ele>15.39999961853</ele>
        <time>2020-08-16T08:32:05.000Z</time>
      </trkpt>
      <trkpt lat="47.32654" lon="-2.4598">
        <ele>15.39999961853</ele>
        <time>2020-08-16T08:32:08.000Z</time>
      </trkpt>
      <trkpt lat="47.32659" lon="-2.45984">
        <ele>15.39999961853</ele>
        <time>2020-08-16T08:32:10.000Z</time>
      </trkpt>
      <trkpt lat="47.32676" lon="-2.45997">
        <ele>15.39999961853</ele>
        <time>2020-08-16T08:32:17.000Z</time>
      </trkpt>
      <trkpt lat="47.32687" lon="-2.46014">
        <ele>15.39999961853</ele>
        <time>2020-08-16T08:32:22.000Z</time>
      </trkpt>
      <trkpt lat="47.327" lon="-2.4603">
        <ele>15.39999961853</ele>
        <time>2020-08-16T08:32:27.000Z</time>
      </trkpt>
      <trkpt lat="47.32712" lon="-2.46045">
        <ele>15.39999961853</ele>
        <time>2020-08-16T08:32:32.000Z</time>
      </trkpt>
      <trkpt lat="47.32724" lon="-2.4606">
        <ele>15.39999961853</ele>
        <time>2020-08-16T08:32:38.000Z</time>
      </trkpt>
      <trkpt lat="47.32728" lon="-2.46065">
        <ele>15.39999961853</ele>
        <time>2020-08-16T08:32:42.000Z</time>
      </trkpt>
      <trkpt lat="47.3274" lon="-2.46079">
        <ele>15.39999961853</ele>
        <time>2020-08-16T08:32:48.000Z</time>
      </trkpt>
      <trkpt lat="47.32753" lon="-2.46099">
        <ele>15.800000190735</ele>
        <time>2020-08-16T08:32:55.000Z</time>
      </trkpt>
      <trkpt lat="47.32754" lon="-2.46103">
        <ele>16.39999961853</ele>
        <time>2020-08-16T08:32:56.000Z</time>
      </trkpt>
      <trkpt lat="47.32756" lon="-2.4611">
        <ele>16.799999237061</ele>
        <time>2020-08-16T08:32:57.000Z</time>
      </trkpt>
      <trkpt lat="47.32758" lon="-2.46115">
        <ele>17.200000762939</ele>
        <time>2020-08-16T08:32:58.000Z</time>
      </trkpt>
      <trkpt lat="47.32759" lon="-2.4612">
        <ele>17.60000038147</ele>
        <time>2020-08-16T08:32:59.000Z</time>
      </trkpt>
      <trkpt lat="47.32761" lon="-2.46128">
        <ele>17.60000038147</ele>
        <time>2020-08-16T08:33:00.000Z</time>
      </trkpt>
      <trkpt lat="47.32767" lon="-2.46147">
        <ele>17.60000038147</ele>
        <time>2020-08-16T08:33:05.000Z</time>
      </trkpt>
      <trkpt lat="47.32767" lon="-2.46148">
        <ele>17.60000038147</ele>
        <time>2020-08-16T08:33:06.000Z</time>
      </trkpt>
      <trkpt lat="47.32772" lon="-2.46156">
        <ele>17.60000038147</ele>
        <time>2020-08-16T08:33:45.000Z</time>
      </trkpt>
      <trkpt lat="47.32776" lon="-2.46161">
        <ele>18</ele>
        <time>2020-08-16T08:33:47.000Z</time>
      </trkpt>
      <trkpt lat="47.32778" lon="-2.46164">
        <ele>18.39999961853</ele>
        <time>2020-08-16T08:33:48.000Z</time>
      </trkpt>
      <trkpt lat="47.3278" lon="-2.46168">
        <ele>18.799999237061</ele>
        <time>2020-08-16T08:33:49.000Z</time>
      </trkpt>
      <trkpt lat="47.32783" lon="-2.46171">
        <ele>19.200000762939</ele>
        <time>2020-08-16T08:33:50.000Z</time>
      </trkpt>
      <trkpt lat="47.32785" lon="-2.46174">
        <ele>19.60000038147</ele>
        <time>2020-08-16T08:33:51.000Z</time>
      </trkpt>
      <trkpt lat="47.32792" lon="-2.46182">
        <ele>19.60000038147</ele>
        <time>2020-08-16T08:33:54.000Z</time>
      </trkpt>
      <trkpt lat="47.32815" lon="-2.46195">
        <ele>19.60000038147</ele>
        <time>2020-08-16T08:34:00.000Z</time>
      </trkpt>
      <trkpt lat="47.32828" lon="-2.4619">
        <ele>20</ele>
        <time>2020-08-16T08:34:03.000Z</time>
      </trkpt>
      <trkpt lat="47.32832" lon="-2.46187">
        <ele>20.39999961853</ele>
        <time>2020-08-16T08:34:04.000Z</time>
      </trkpt>
      <trkpt lat="47.32837" lon="-2.46185">
        <ele>21</ele>
        <time>2020-08-16T08:34:05.000Z</time>
      </trkpt>
      <trkpt lat="47.32841" lon="-2.46183">
        <ele>21.39999961853</ele>
        <time>2020-08-16T08:34:06.000Z</time>
      </trkpt>
      <trkpt lat="47.32845" lon="-2.4618">
        <ele>21.799999237061</ele>
        <time>2020-08-16T08:34:07.000Z</time>
      </trkpt>
      <trkpt lat="47.32856" lon="-2.46174">
        <ele>22.200000762939</ele>
        <time>2020-08-16T08:34:10.000Z</time>
      </trkpt>
      <trkpt lat="47.32859" lon="-2.46172">
        <ele>22.60000038147</ele>
        <time>2020-08-16T08:34:11.000Z</time>
      </trkpt>
      <trkpt lat="47.32862" lon="-2.46171">
        <ele>23</ele>
        <time>2020-08-16T08:34:12.000Z</time>
      </trkpt>
      <trkpt lat="47.32866" lon="-2.46169">
        <ele>23.39999961853</ele>
        <time>2020-08-16T08:34:13.000Z</time>
      </trkpt>
      <trkpt lat="47.3287" lon="-2.46166">
        <ele>23.799999237061</ele>
        <time>2020-08-16T08:34:14.000Z</time>
      </trkpt>
      <trkpt lat="47.32884" lon="-2.46158">
        <ele>24.60000038147</ele>
        <time>2020-08-16T08:34:18.000Z</time>
      </trkpt>
      <trkpt lat="47.32887" lon="-2.46156">
        <ele>25</ele>
        <time>2020-08-16T08:34:19.000Z</time>
      </trkpt>
      <trkpt lat="47.3289" lon="-2.46154">
        <ele>25.39999961853</ele>
        <time>2020-08-16T08:34:20.000Z</time>
      </trkpt>
      <trkpt lat="47.32893" lon="-2.46152">
        <ele>25.799999237061</ele>
        <time>2020-08-16T08:34:21.000Z</time>
      </trkpt>
      <trkpt lat="47.32898" lon="-2.46153">
        <ele>25.799999237061</ele>
        <time>2020-08-16T08:34:23.000Z</time>
      </trkpt>
      <trkpt lat="47.32908" lon="-2.46166">
        <ele>25.799999237061</ele>
        <time>2020-08-16T08:34:28.000Z</time>
      </trkpt>
      <trkpt lat="47.32912" lon="-2.46177">
        <ele>25.799999237061</ele>
        <time>2020-08-16T08:34:30.000Z</time>
      </trkpt>
      <trkpt lat="47.32914" lon="-2.46184">
        <ele>26.200000762939</ele>
        <time>2020-08-16T08:34:31.000Z</time>
      </trkpt>
      <trkpt lat="47.32916" lon="-2.46191">
        <ele>26.60000038147</ele>
        <time>2020-08-16T08:34:32.000Z</time>
      </trkpt>
      <trkpt lat="47.32918" lon="-2.46197">
        <ele>27</ele>
        <time>2020-08-16T08:34:33.000Z</time>
      </trkpt>
      <trkpt lat="47.32919" lon="-2.46205">
        <ele>27.39999961853</ele>
        <time>2020-08-16T08:34:34.000Z</time>
      </trkpt>
      <trkpt lat="47.32921" lon="-2.46212">
        <ele>27.799999237061</ele>
        <time>2020-08-16T08:34:35.000Z</time>
      </trkpt>
      <trkpt lat="47.32933" lon="-2.46253">
        <ele>27.799999237061</ele>
        <time>2020-08-16T08:34:41.000Z</time>
      </trkpt>
      <trkpt lat="47.32951" lon="-2.46317">
        <ele>27.799999237061</ele>
        <time>2020-08-16T08:34:50.000Z</time>
      </trkpt>
      <trkpt lat="47.32961" lon="-2.46355">
        <ele>27.39999961853</ele>
        <time>2020-08-16T08:34:54.000Z</time>
      </trkpt>
      <trkpt lat="47.32964" lon="-2.46366">
        <ele>26.799999237061</ele>
        <time>2020-08-16T08:34:55.000Z</time>
      </trkpt>
      <trkpt lat="47.32965" lon="-2.46378">
        <ele>26.39999961853</ele>
        <time>2020-08-16T08:34:56.000Z</time>
      </trkpt>
      <trkpt lat="47.32966" lon="-2.46391">
        <ele>25.799999237061</ele>
        <time>2020-08-16T08:34:57.000Z</time>
      </trkpt>
      <trkpt lat="47.32966" lon="-2.46405">
        <ele>25.39999961853</ele>
        <time>2020-08-16T08:34:58.000Z</time>
      </trkpt>
      <trkpt lat="47.32965" lon="-2.4642">
        <ele>25</ele>
        <time>2020-08-16T08:34:59.000Z</time>
      </trkpt>
      <trkpt lat="47.32965" lon="-2.46435">
        <ele>24.39999961853</ele>
        <time>2020-08-16T08:35:00.000Z</time>
      </trkpt>
      <trkpt lat="47.32964" lon="-2.46451">
        <ele>24</ele>
        <time>2020-08-16T08:35:01.000Z</time>
      </trkpt>
      <trkpt lat="47.32963" lon="-2.46467">
        <ele>23.39999961853</ele>
        <time>2020-08-16T08:35:02.000Z</time>
      </trkpt>
      <trkpt lat="47.32963" lon="-2.46483">
        <ele>22.60000038147</ele>
        <time>2020-08-16T08:35:03.000Z</time>
      </trkpt>
      <trkpt lat="47.32962" lon="-2.46498">
        <ele>22</ele>
        <time>2020-08-16T08:35:04.000Z</time>
      </trkpt>
      <trkpt lat="47.32961" lon="-2.46513">
        <ele>21.200000762939</ele>
        <time>2020-08-16T08:35:05.000Z</time>
      </trkpt>
      <trkpt lat="47.3296" lon="-2.46527">
        <ele>20.39999961853</ele>
        <time>2020-08-16T08:35:06.000Z</time>
      </trkpt>
      <trkpt lat="47.32959" lon="-2.46539">
        <ele>18.60000038147</ele>
        <time>2020-08-16T08:35:07.000Z</time>
      </trkpt>
      <trkpt lat="47.32958" lon="-2.46549">
        <ele>17.60000038147</ele>
        <time>2020-08-16T08:35:08.000Z</time>
      </trkpt>
      <trkpt lat="47.32959" lon="-2.46558">
        <ele>16.799999237061</ele>
        <time>2020-08-16T08:35:09.000Z</time>
      </trkpt>
      <trkpt lat="47.32962" lon="-2.46565">
        <ele>15.800000190735</ele>
        <time>2020-08-16T08:35:10.000Z</time>
      </trkpt>
      <trkpt lat="47.32966" lon="-2.46569">
        <ele>14.800000190735</ele>
        <time>2020-08-16T08:35:11.000Z</time>
      </trkpt>
      <trkpt lat="47.32969" lon="-2.4657">
        <ele>13.800000190735</ele>
        <time>2020-08-16T08:35:12.000Z</time>
      </trkpt>
      <trkpt lat="47.32976" lon="-2.46569">
        <ele>13.800000190735</ele>
        <time>2020-08-16T08:35:14.000Z</time>
      </trkpt>
      <trkpt lat="47.32992" lon="-2.46555">
        <ele>14.199999809265</ele>
        <time>2020-08-16T08:35:18.000Z</time>
      </trkpt>
      <trkpt lat="47.32997" lon="-2.46552">
        <ele>14.60000038147</ele>
        <time>2020-08-16T08:35:19.000Z</time>
      </trkpt>
      <trkpt lat="47.33001" lon="-2.46549">
        <ele>15</ele>
        <time>2020-08-16T08:35:20.000Z</time>
      </trkpt>
      <trkpt lat="47.33007" lon="-2.46546">
        <ele>15.39999961853</ele>
        <time>2020-08-16T08:35:21.000Z</time>
      </trkpt>
      <trkpt lat="47.33012" lon="-2.46544">
        <ele>16</ele>
        <time>2020-08-16T08:35:22.000Z</time>
      </trkpt>
      <trkpt lat="47.33022" lon="-2.46541">
        <ele>16.39999961853</ele>
        <time>2020-08-16T08:35:24.000Z</time>
      </trkpt>
      <trkpt lat="47.33027" lon="-2.46542">
        <ele>16.799999237061</ele>
        <time>2020-08-16T08:35:25.000Z</time>
      </trkpt>
      <trkpt lat="47.33031" lon="-2.46542">
        <ele>17.200000762939</ele>
        <time>2020-08-16T08:35:26.000Z</time>
      </trkpt>
      <trkpt lat="47.33035" lon="-2.46541">
        <ele>17.60000038147</ele>
        <time>2020-08-16T08:35:27.000Z</time>
      </trkpt>
      <trkpt lat="47.3304" lon="-2.4654">
        <ele>18</ele>
        <time>2020-08-16T08:35:28.000Z</time>
      </trkpt>
      <trkpt lat="47.33054" lon="-2.46536">
        <ele>18</ele>
        <time>2020-08-16T08:35:31.000Z</time>
      </trkpt>
      <trkpt lat="47.33064" lon="-2.4653">
        <ele>18</ele>
        <time>2020-08-16T08:35:33.000Z</time>
      </trkpt>
      <trkpt lat="47.33073" lon="-2.46526">
        <ele>18.39999961853</ele>
        <time>2020-08-16T08:35:35.000Z</time>
      </trkpt>
      <trkpt lat="47.33077" lon="-2.46525">
        <ele>18.799999237061</ele>
        <time>2020-08-16T08:35:36.000Z</time>
      </trkpt>
      <trkpt lat="47.33081" lon="-2.46523">
        <ele>19.200000762939</ele>
        <time>2020-08-16T08:35:37.000Z</time>
      </trkpt>
      <trkpt lat="47.33085" lon="-2.46521">
        <ele>19.60000038147</ele>
        <time>2020-08-16T08:35:38.000Z</time>
      </trkpt>
      <trkpt lat="47.33088" lon="-2.46519">
        <ele>20</ele>
        <time>2020-08-16T08:35:39.000Z</time>
      </trkpt>
      <trkpt lat="47.33098" lon="-2.46515">
        <ele>20.39999961853</ele>
        <time>2020-08-16T08:35:42.000Z</time>
      </trkpt>
      <trkpt lat="47.33101" lon="-2.46513">
        <ele>20.799999237061</ele>
        <time>2020-08-16T08:35:43.000Z</time>
      </trkpt>
      <trkpt lat="47.33103" lon="-2.46511">
        <ele>21.39999961853</ele>
        <time>2020-08-16T08:35:44.000Z</time>
      </trkpt>
      <trkpt lat="47.33106" lon="-2.4651">
        <ele>21.799999237061</ele>
        <time>2020-08-16T08:35:45.000Z</time>
      </trkpt>
      <trkpt lat="47.33108" lon="-2.46508">
        <ele>22.200000762939</ele>
        <time>2020-08-16T08:35:46.000Z</time>
      </trkpt>
      <trkpt lat="47.33118" lon="-2.46503">
        <ele>22.200000762939</ele>
        <time>2020-08-16T08:35:50.000Z</time>
      </trkpt>
      <trkpt lat="47.33121" lon="-2.46503">
        <ele>22.60000038147</ele>
        <time>2020-08-16T08:35:51.000Z</time>
      </trkpt>
      <trkpt lat="47.33124" lon="-2.46503">
        <ele>23</ele>
        <time>2020-08-16T08:35:52.000Z</time>
      </trkpt>
      <trkpt lat="47.33127" lon="-2.46502">
        <ele>23.39999961853</ele>
        <time>2020-08-16T08:35:53.000Z</time>
      </trkpt>
      <trkpt lat="47.3313" lon="-2.46501">
        <ele>23.799999237061</ele>
        <time>2020-08-16T08:35:54.000Z</time>
      </trkpt>
      <trkpt lat="47.33133" lon="-2.465">
        <ele>24.200000762939</ele>
        <time>2020-08-16T08:35:55.000Z</time>
      </trkpt>
      <trkpt lat="47.33139" lon="-2.46499">
        <ele>24.200000762939</ele>
        <time>2020-08-16T08:35:57.000Z</time>
      </trkpt>
      <trkpt lat="47.3316" lon="-2.46493">
        <ele>24.60000038147</ele>
        <time>2020-08-16T08:36:04.000Z</time>
      </trkpt>
      <trkpt lat="47.33163" lon="-2.46492">
        <ele>25</ele>
        <time>2020-08-16T08:36:05.000Z</time>
      </trkpt>
      <trkpt lat="47.33165" lon="-2.46491">
        <ele>25.39999961853</ele>
        <time>2020-08-16T08:36:06.000Z</time>
      </trkpt>
      <trkpt lat="47.33168" lon="-2.4649">
        <ele>25.799999237061</ele>
        <time>2020-08-16T08:36:07.000Z</time>
      </trkpt>
      <trkpt lat="47.3317" lon="-2.46488">
        <ele>26.200000762939</ele>
        <time>2020-08-16T08:36:08.000Z</time>
      </trkpt>
      <trkpt lat="47.33178" lon="-2.46484">
        <ele>26.200000762939</ele>
        <time>2020-08-16T08:36:11.000Z</time>
      </trkpt>
      <trkpt lat="47.33191" lon="-2.46476">
        <ele>26.799999237061</ele>
        <time>2020-08-16T08:36:17.000Z</time>
      </trkpt>
      <trkpt lat="47.33193" lon="-2.46476">
        <ele>27.200000762939</ele>
        <time>2020-08-16T08:36:18.000Z</time>
      </trkpt>
      <trkpt lat="47.33195" lon="-2.46476">
        <ele>27.60000038147</ele>
        <time>2020-08-16T08:36:19.000Z</time>
      </trkpt>
      <trkpt lat="47.33196" lon="-2.46476">
        <ele>28</ele>
        <time>2020-08-16T08:36:20.000Z</time>
      </trkpt>
      <trkpt lat="47.33198" lon="-2.46475">
        <ele>28.39999961853</ele>
        <time>2020-08-16T08:36:21.000Z</time>
      </trkpt>
      <trkpt lat="47.33202" lon="-2.46475">
        <ele>28.39999961853</ele>
        <time>2020-08-16T08:36:23.000Z</time>
      </trkpt>
      <trkpt lat="47.3321" lon="-2.46475">
        <ele>28.799999237061</ele>
        <time>2020-08-16T08:36:27.000Z</time>
      </trkpt>
      <trkpt lat="47.33212" lon="-2.46474">
        <ele>29.200000762939</ele>
        <time>2020-08-16T08:36:28.000Z</time>
      </trkpt>
      <trkpt lat="47.33214" lon="-2.46473">
        <ele>29.799999237061</ele>
        <time>2020-08-16T08:36:29.000Z</time>
      </trkpt>
      <trkpt lat="47.33217" lon="-2.46473">
        <ele>30.200000762939</ele>
        <time>2020-08-16T08:36:30.000Z</time>
      </trkpt>
      <trkpt lat="47.33219" lon="-2.46472">
        <ele>30.60000038147</ele>
        <time>2020-08-16T08:36:31.000Z</time>
      </trkpt>
      <trkpt lat="47.33223" lon="-2.46467">
        <ele>30.60000038147</ele>
        <time>2020-08-16T08:36:33.000Z</time>
      </trkpt>
      <trkpt lat="47.33225" lon="-2.46464">
        <ele>30.60000038147</ele>
        <time>2020-08-16T08:36:34.000Z</time>
      </trkpt>
      <trkpt lat="47.33227" lon="-2.46461">
        <ele>31</ele>
        <time>2020-08-16T08:36:35.000Z</time>
      </trkpt>
      <trkpt lat="47.33229" lon="-2.46458">
        <ele>31.39999961853</ele>
        <time>2020-08-16T08:36:36.000Z</time>
      </trkpt>
      <trkpt lat="47.33231" lon="-2.46455">
        <ele>31.799999237061</ele>
        <time>2020-08-16T08:36:37.000Z</time>
      </trkpt>
      <trkpt lat="47.33232" lon="-2.46452">
        <ele>32.200000762939</ele>
        <time>2020-08-16T08:36:38.000Z</time>
      </trkpt>
      <trkpt lat="47.33234" lon="-2.46449">
        <ele>32.599998474121</ele>
        <time>2020-08-16T08:36:39.000Z</time>
      </trkpt>
      <trkpt lat="47.33248" lon="-2.46432">
        <ele>32.599998474121</ele>
        <time>2020-08-16T08:36:46.000Z</time>
      </trkpt>
      <trkpt lat="47.3325" lon="-2.46431">
        <ele>33</ele>
        <time>2020-08-16T08:36:47.000Z</time>
      </trkpt>
      <trkpt lat="47.33252" lon="-2.4643">
        <ele>33.400001525879</ele>
        <time>2020-08-16T08:36:48.000Z</time>
      </trkpt>
      <trkpt lat="47.33254" lon="-2.4643">
        <ele>34</ele>
        <time>2020-08-16T08:36:49.000Z</time>
      </trkpt>
      <trkpt lat="47.33257" lon="-2.46429">
        <ele>34.400001525879</ele>
        <time>2020-08-16T08:36:50.000Z</time>
      </trkpt>
      <trkpt lat="47.33259" lon="-2.46429">
        <ele>34.799999237061</ele>
        <time>2020-08-16T08:36:51.000Z</time>
      </trkpt>
      <trkpt lat="47.33267" lon="-2.4643">
        <ele>34.799999237061</ele>
        <time>2020-08-16T08:36:54.000Z</time>
      </trkpt>
      <trkpt lat="47.3328" lon="-2.46437">
        <ele>34.799999237061</ele>
        <time>2020-08-16T08:37:00.000Z</time>
      </trkpt>
      <trkpt lat="47.33286" lon="-2.46448">
        <ele>34.799999237061</ele>
        <time>2020-08-16T08:37:05.000Z</time>
      </trkpt>
      <trkpt lat="47.33286" lon="-2.4645">
        <ele>34.799999237061</ele>
        <time>2020-08-16T08:37:06.000Z</time>
      </trkpt>
      <trkpt lat="47.33286" lon="-2.46449">
        <ele>34.799999237061</ele>
        <time>2020-08-16T08:37:07.000Z</time>
      </trkpt>
      <trkpt lat="47.33286" lon="-2.46453">
        <ele>34.799999237061</ele>
        <time>2020-08-16T08:37:57.000Z</time>
      </trkpt>
      <trkpt lat="47.33287" lon="-2.46456">
        <ele>34.799999237061</ele>
        <time>2020-08-16T08:37:58.000Z</time>
      </trkpt>
      <trkpt lat="47.33286" lon="-2.46475">
        <ele>34.799999237061</ele>
        <time>2020-08-16T08:38:04.000Z</time>
      </trkpt>
      <trkpt lat="47.33288" lon="-2.46499">
        <ele>34.799999237061</ele>
        <time>2020-08-16T08:38:08.000Z</time>
      </trkpt>
      <trkpt lat="47.33293" lon="-2.46545">
        <ele>34.799999237061</ele>
        <time>2020-08-16T08:38:14.000Z</time>
      </trkpt>
      <trkpt lat="47.33298" lon="-2.46578">
        <ele>34.799999237061</ele>
        <time>2020-08-16T08:38:19.000Z</time>
      </trkpt>
      <trkpt lat="47.33302" lon="-2.4659">
        <ele>34.799999237061</ele>
        <time>2020-08-16T08:38:21.000Z</time>
      </trkpt>
      <trkpt lat="47.33304" lon="-2.46594">
        <ele>34.400001525879</ele>
        <time>2020-08-16T08:38:22.000Z</time>
      </trkpt>
      <trkpt lat="47.33307" lon="-2.46599">
        <ele>34</ele>
        <time>2020-08-16T08:38:23.000Z</time>
      </trkpt>
      <trkpt lat="47.33309" lon="-2.46603">
        <ele>33.400001525879</ele>
        <time>2020-08-16T08:38:24.000Z</time>
      </trkpt>
      <trkpt lat="47.33312" lon="-2.46606">
        <ele>32.599998474121</ele>
        <time>2020-08-16T08:38:25.000Z</time>
      </trkpt>
      <trkpt lat="47.33317" lon="-2.46614">
        <ele>32.599998474121</ele>
        <time>2020-08-16T08:38:27.000Z</time>
      </trkpt>
      <trkpt lat="47.33328" lon="-2.46633">
        <ele>32.599998474121</ele>
        <time>2020-08-16T08:38:31.000Z</time>
      </trkpt>
      <trkpt lat="47.33329" lon="-2.46645">
        <ele>32.599998474121</ele>
        <time>2020-08-16T08:38:33.000Z</time>
      </trkpt>
      <trkpt lat="47.33326" lon="-2.46652">
        <ele>32.599998474121</ele>
        <time>2020-08-16T08:38:35.000Z</time>
      </trkpt>
      <trkpt lat="47.33327" lon="-2.46658">
        <ele>32.599998474121</ele>
        <time>2020-08-16T08:38:37.000Z</time>
      </trkpt>
      <trkpt lat="47.33332" lon="-2.46657">
        <ele>32.599998474121</ele>
        <time>2020-08-16T08:38:40.000Z</time>
      </trkpt>
      <trkpt lat="47.3334" lon="-2.46655">
        <ele>32.599998474121</ele>
        <time>2020-08-16T08:38:44.000Z</time>
      </trkpt>
      <trkpt lat="47.33342" lon="-2.46654">
        <ele>32.599998474121</ele>
        <time>2020-08-16T08:38:45.000Z</time>
      </trkpt>
      <trkpt lat="47.3336" lon="-2.46649">
        <ele>32.599998474121</ele>
        <time>2020-08-16T08:38:52.000Z</time>
      </trkpt>
      <trkpt lat="47.33375" lon="-2.46637">
        <ele>32.599998474121</ele>
        <time>2020-08-16T08:38:58.000Z</time>
      </trkpt>
      <trkpt lat="47.33388" lon="-2.46621">
        <ele>32.599998474121</ele>
        <time>2020-08-16T08:39:04.000Z</time>
      </trkpt>
      <trkpt lat="47.33405" lon="-2.46607">
        <ele>32.599998474121</ele>
        <time>2020-08-16T08:39:11.000Z</time>
      </trkpt>
      <trkpt lat="47.33408" lon="-2.46605">
        <ele>33</ele>
        <time>2020-08-16T08:39:12.000Z</time>
      </trkpt>
      <trkpt lat="47.3341" lon="-2.46602">
        <ele>33.599998474121</ele>
        <time>2020-08-16T08:39:13.000Z</time>
      </trkpt>
      <trkpt lat="47.33412" lon="-2.46601">
        <ele>34.400001525879</ele>
        <time>2020-08-16T08:39:14.000Z</time>
      </trkpt>
      <trkpt lat="47.33413" lon="-2.466">
        <ele>34.799999237061</ele>
        <time>2020-08-16T08:39:15.000Z</time>
      </trkpt>
      <trkpt lat="47.33417" lon="-2.46596">
        <ele>34.799999237061</ele>
        <time>2020-08-16T08:39:17.000Z</time>
      </trkpt>
      <trkpt lat="47.33427" lon="-2.4659">
        <ele>35.200000762939</ele>
        <time>2020-08-16T08:39:22.000Z</time>
      </trkpt>
      <trkpt lat="47.33429" lon="-2.46587">
        <ele>35.599998474121</ele>
        <time>2020-08-16T08:39:23.000Z</time>
      </trkpt>
      <trkpt lat="47.33431" lon="-2.46585">
        <ele>36</ele>
        <time>2020-08-16T08:39:24.000Z</time>
      </trkpt>
      <trkpt lat="47.33433" lon="-2.46584">
        <ele>36.400001525879</ele>
        <time>2020-08-16T08:39:25.000Z</time>
      </trkpt>
      <trkpt lat="47.33436" lon="-2.46583">
        <ele>36.799999237061</ele>
        <time>2020-08-16T08:39:26.000Z</time>
      </trkpt>
      <trkpt lat="47.33446" lon="-2.46576">
        <ele>36.799999237061</ele>
        <time>2020-08-16T08:39:30.000Z</time>
      </trkpt>
      <trkpt lat="47.33457" lon="-2.46563">
        <ele>37.200000762939</ele>
        <time>2020-08-16T08:39:35.000Z</time>
      </trkpt>
      <trkpt lat="47.3346" lon="-2.4656">
        <ele>37.599998474121</ele>
        <time>2020-08-16T08:39:36.000Z</time>
      </trkpt>
      <trkpt lat="47.33462" lon="-2.46558">
        <ele>38.200000762939</ele>
        <time>2020-08-16T08:39:37.000Z</time>
      </trkpt>
      <trkpt lat="47.33464" lon="-2.46555">
        <ele>38.599998474121</ele>
        <time>2020-08-16T08:39:38.000Z</time>
      </trkpt>
      <trkpt lat="47.33466" lon="-2.46553">
        <ele>39</ele>
        <time>2020-08-16T08:39:39.000Z</time>
      </trkpt>
      <trkpt lat="47.33475" lon="-2.46542">
        <ele>39</ele>
        <time>2020-08-16T08:39:43.000Z</time>
      </trkpt>
      <trkpt lat="47.33477" lon="-2.46539">
        <ele>39.400001525879</ele>
        <time>2020-08-16T08:39:44.000Z</time>
      </trkpt>
      <trkpt lat="47.33479" lon="-2.46536">
        <ele>39.799999237061</ele>
        <time>2020-08-16T08:39:45.000Z</time>
      </trkpt>
      <trkpt lat="47.33482" lon="-2.46532">
        <ele>40.200000762939</ele>
        <time>2020-08-16T08:39:46.000Z</time>
      </trkpt>
      <trkpt lat="47.33484" lon="-2.46528">
        <ele>40.599998474121</ele>
        <time>2020-08-16T08:39:47.000Z</time>
      </trkpt>
      <trkpt lat="47.33487" lon="-2.46524">
        <ele>41</ele>
        <time>2020-08-16T08:39:48.000Z</time>
      </trkpt>
      <trkpt lat="47.3349" lon="-2.46521">
        <ele>41</ele>
        <time>2020-08-16T08:39:49.000Z</time>
      </trkpt>
      <trkpt lat="47.3351" lon="-2.46499">
        <ele>41</ele>
        <time>2020-08-16T08:39:56.000Z</time>
      </trkpt>
      <trkpt lat="47.33514" lon="-2.46495">
        <ele>41.400001525879</ele>
        <time>2020-08-16T08:39:58.000Z</time>
      </trkpt>
      <trkpt lat="47.33516" lon="-2.46493">
        <ele>41.799999237061</ele>
        <time>2020-08-16T08:39:59.000Z</time>
      </trkpt>
      <trkpt lat="47.33518" lon="-2.46491">
        <ele>42.200000762939</ele>
        <time>2020-08-16T08:40:00.000Z</time>
      </trkpt>
      <trkpt lat="47.33521" lon="-2.46489">
        <ele>42.599998474121</ele>
        <time>2020-08-16T08:40:01.000Z</time>
      </trkpt>
      <trkpt lat="47.33523" lon="-2.46488">
        <ele>43</ele>
        <time>2020-08-16T08:40:02.000Z</time>
      </trkpt>
      <trkpt lat="47.33527" lon="-2.46488">
        <ele>43.400001525879</ele>
        <time>2020-08-16T08:40:04.000Z</time>
      </trkpt>
      <trkpt lat="47.33529" lon="-2.46488">
        <ele>43.799999237061</ele>
        <time>2020-08-16T08:40:05.000Z</time>
      </trkpt>
      <trkpt lat="47.33531" lon="-2.46488">
        <ele>44.200000762939</ele>
        <time>2020-08-16T08:40:06.000Z</time>
      </trkpt>
      <trkpt lat="47.33532" lon="-2.46488">
        <ele>44.599998474121</ele>
        <time>2020-08-16T08:40:07.000Z</time>
      </trkpt>
      <trkpt lat="47.33533" lon="-2.46488">
        <ele>45.200000762939</ele>
        <time>2020-08-16T08:40:08.000Z</time>
      </trkpt>
      <trkpt lat="47.33538" lon="-2.46488">
        <ele>45.200000762939</ele>
        <time>2020-08-16T08:40:14.000Z</time>
      </trkpt>
      <trkpt lat="47.33539" lon="-2.46495">
        <ele>45.200000762939</ele>
        <time>2020-08-16T08:40:28.000Z</time>
      </trkpt>
      <trkpt lat="47.33541" lon="-2.46505">
        <ele>45.200000762939</ele>
        <time>2020-08-16T08:40:30.000Z</time>
      </trkpt>
      <trkpt lat="47.33544" lon="-2.46523">
        <ele>45.200000762939</ele>
        <time>2020-08-16T08:40:33.000Z</time>
      </trkpt>
      <trkpt lat="47.33547" lon="-2.46533">
        <ele>45.200000762939</ele>
        <time>2020-08-16T08:40:35.000Z</time>
      </trkpt>
      <trkpt lat="47.33548" lon="-2.46539">
        <ele>44.599998474121</ele>
        <time>2020-08-16T08:40:36.000Z</time>
      </trkpt>
      <trkpt lat="47.33549" lon="-2.46544">
        <ele>44.200000762939</ele>
        <time>2020-08-16T08:40:37.000Z</time>
      </trkpt>
      <trkpt lat="47.3355" lon="-2.4655">
        <ele>43.799999237061</ele>
        <time>2020-08-16T08:40:38.000Z</time>
      </trkpt>
      <trkpt lat="47.33552" lon="-2.46556">
        <ele>43.400001525879</ele>
        <time>2020-08-16T08:40:39.000Z</time>
      </trkpt>
      <trkpt lat="47.33554" lon="-2.46562">
        <ele>43</ele>
        <time>2020-08-16T08:40:40.000Z</time>
      </trkpt>
      <trkpt lat="47.33555" lon="-2.46569">
        <ele>43</ele>
        <time>2020-08-16T08:40:41.000Z</time>
      </trkpt>
      <trkpt lat="47.33559" lon="-2.46582">
        <ele>43</ele>
        <time>2020-08-16T08:40:43.000Z</time>
      </trkpt>
      <trkpt lat="47.33566" lon="-2.46589">
        <ele>43</ele>
        <time>2020-08-16T08:40:45.000Z</time>
      </trkpt>
      <trkpt lat="47.33573" lon="-2.46596">
        <ele>43</ele>
        <time>2020-08-16T08:40:47.000Z</time>
      </trkpt>
      <trkpt lat="47.33579" lon="-2.46615">
        <ele>43</ele>
        <time>2020-08-16T08:40:50.000Z</time>
      </trkpt>
      <trkpt lat="47.33585" lon="-2.46636">
        <ele>43</ele>
        <time>2020-08-16T08:40:53.000Z</time>
      </trkpt>
      <trkpt lat="47.3359" lon="-2.46649">
        <ele>43</ele>
        <time>2020-08-16T08:40:55.000Z</time>
      </trkpt>
      <trkpt lat="47.33609" lon="-2.46699">
        <ele>43</ele>
        <time>2020-08-16T08:41:02.000Z</time>
      </trkpt>
      <trkpt lat="47.33621" lon="-2.46733">
        <ele>43</ele>
        <time>2020-08-16T08:41:08.000Z</time>
      </trkpt>
      <trkpt lat="47.33628" lon="-2.46764">
        <ele>43</ele>
        <time>2020-08-16T08:41:14.000Z</time>
      </trkpt>
      <trkpt lat="47.33648" lon="-2.46794">
        <ele>43</ele>
        <time>2020-08-16T08:41:21.000Z</time>
      </trkpt>
      <trkpt lat="47.33663" lon="-2.46815">
        <ele>43</ele>
        <time>2020-08-16T08:41:26.000Z</time>
      </trkpt>
      <trkpt lat="47.33667" lon="-2.46816">
        <ele>43</ele>
        <time>2020-08-16T08:41:27.000Z</time>
      </trkpt>
      <trkpt lat="47.33686" lon="-2.46819">
        <ele>43</ele>
        <time>2020-08-16T08:41:32.000Z</time>
      </trkpt>
      <trkpt lat="47.33692" lon="-2.46826">
        <ele>43</ele>
        <time>2020-08-16T08:41:34.000Z</time>
      </trkpt>
      <trkpt lat="47.33696" lon="-2.46836">
        <ele>43</ele>
        <time>2020-08-16T08:41:36.000Z</time>
      </trkpt>
      <trkpt lat="47.33715" lon="-2.46868">
        <ele>43</ele>
        <time>2020-08-16T08:41:42.000Z</time>
      </trkpt>
      <trkpt lat="47.33738" lon="-2.46901">
        <ele>43</ele>
        <time>2020-08-16T08:41:48.000Z</time>
      </trkpt>
      <trkpt lat="47.33748" lon="-2.46932">
        <ele>43.400001525879</ele>
        <time>2020-08-16T08:41:54.000Z</time>
      </trkpt>
      <trkpt lat="47.33747" lon="-2.4694">
        <ele>43.799999237061</ele>
        <time>2020-08-16T08:41:55.000Z</time>
      </trkpt>
      <trkpt lat="47.33747" lon="-2.46948">
        <ele>44.200000762939</ele>
        <time>2020-08-16T08:41:56.000Z</time>
      </trkpt>
      <trkpt lat="47.33747" lon="-2.46957">
        <ele>44.599998474121</ele>
        <time>2020-08-16T08:41:57.000Z</time>
      </trkpt>
      <trkpt lat="47.33747" lon="-2.46966">
        <ele>45</ele>
        <time>2020-08-16T08:41:58.000Z</time>
      </trkpt>
      <trkpt lat="47.3375" lon="-2.47018">
        <ele>44.599998474121</ele>
        <time>2020-08-16T08:42:03.000Z</time>
      </trkpt>
      <trkpt lat="47.3375" lon="-2.47029">
        <ele>44.200000762939</ele>
        <time>2020-08-16T08:42:04.000Z</time>
      </trkpt>
      <trkpt lat="47.33751" lon="-2.47039">
        <ele>43.599998474121</ele>
        <time>2020-08-16T08:42:05.000Z</time>
      </trkpt>
      <trkpt lat="47.33752" lon="-2.4705">
        <ele>43.200000762939</ele>
        <time>2020-08-16T08:42:06.000Z</time>
      </trkpt>
      <trkpt lat="47.33753" lon="-2.47061">
        <ele>42.799999237061</ele>
        <time>2020-08-16T08:42:07.000Z</time>
      </trkpt>
      <trkpt lat="47.33757" lon="-2.47092">
        <ele>42.799999237061</ele>
        <time>2020-08-16T08:42:10.000Z</time>
      </trkpt>
      <trkpt lat="47.3376" lon="-2.47111">
        <ele>42.200000762939</ele>
        <time>2020-08-16T08:42:12.000Z</time>
      </trkpt>
      <trkpt lat="47.33763" lon="-2.4712">
        <ele>41.799999237061</ele>
        <time>2020-08-16T08:42:13.000Z</time>
      </trkpt>
      <trkpt lat="47.33765" lon="-2.47128">
        <ele>41.400001525879</ele>
        <time>2020-08-16T08:42:14.000Z</time>
      </trkpt>
      <trkpt lat="47.33767" lon="-2.47137">
        <ele>41</ele>
        <time>2020-08-16T08:42:15.000Z</time>
      </trkpt>
      <trkpt lat="47.33769" lon="-2.47145">
        <ele>40.599998474121</ele>
        <time>2020-08-16T08:42:16.000Z</time>
      </trkpt>
      <trkpt lat="47.33779" lon="-2.47187">
        <ele>40.599998474121</ele>
        <time>2020-08-16T08:42:21.000Z</time>
      </trkpt>
      <trkpt lat="47.33781" lon="-2.47204">
        <ele>40.599998474121</ele>
        <time>2020-08-16T08:42:23.000Z</time>
      </trkpt>
      <trkpt lat="47.33781" lon="-2.47212">
        <ele>40.200000762939</ele>
        <time>2020-08-16T08:42:24.000Z</time>
      </trkpt>
      <trkpt lat="47.33782" lon="-2.47221">
        <ele>39.799999237061</ele>
        <time>2020-08-16T08:42:25.000Z</time>
      </trkpt>
      <trkpt lat="47.33782" lon="-2.47229">
        <ele>39.400001525879</ele>
        <time>2020-08-16T08:42:26.000Z</time>
      </trkpt>
      <trkpt lat="47.33782" lon="-2.47238">
        <ele>39</ele>
        <time>2020-08-16T08:42:27.000Z</time>
      </trkpt>
      <trkpt lat="47.33783" lon="-2.47247">
        <ele>38.599998474121</ele>
        <time>2020-08-16T08:42:28.000Z</time>
      </trkpt>
      <trkpt lat="47.33785" lon="-2.47276">
        <ele>38.599998474121</ele>
        <time>2020-08-16T08:42:31.000Z</time>
      </trkpt>
      <trkpt lat="47.33787" lon="-2.47324">
        <ele>38.200000762939</ele>
        <time>2020-08-16T08:42:36.000Z</time>
      </trkpt>
      <trkpt lat="47.33785" lon="-2.47334">
        <ele>37.599998474121</ele>
        <time>2020-08-16T08:42:37.000Z</time>
      </trkpt>
      <trkpt lat="47.33784" lon="-2.47342">
        <ele>37.200000762939</ele>
        <time>2020-08-16T08:42:38.000Z</time>
      </trkpt>
      <trkpt lat="47.33784" lon="-2.47351">
        <ele>36.799999237061</ele>
        <time>2020-08-16T08:42:39.000Z</time>
      </trkpt>
      <trkpt lat="47.33783" lon="-2.4736">
        <ele>36.400001525879</ele>
        <time>2020-08-16T08:42:40.000Z</time>
      </trkpt>
      <trkpt lat="47.33778" lon="-2.47397">
        <ele>36</ele>
        <time>2020-08-16T08:42:44.000Z</time>
      </trkpt>
      <trkpt lat="47.33777" lon="-2.47407">
        <ele>35.599998474121</ele>
        <time>2020-08-16T08:42:45.000Z</time>
      </trkpt>
      <trkpt lat="47.33776" lon="-2.47415">
        <ele>35.200000762939</ele>
        <time>2020-08-16T08:42:46.000Z</time>
      </trkpt>
      <trkpt lat="47.33775" lon="-2.47424">
        <ele>34.599998474121</ele>
        <time>2020-08-16T08:42:47.000Z</time>
      </trkpt>
      <trkpt lat="47.33774" lon="-2.47433">
        <ele>34.200000762939</ele>
        <time>2020-08-16T08:42:48.000Z</time>
      </trkpt>
      <trkpt lat="47.33771" lon="-2.47451">
        <ele>33.799999237061</ele>
        <time>2020-08-16T08:42:50.000Z</time>
      </trkpt>
      <trkpt lat="47.33769" lon="-2.4746">
        <ele>33.400001525879</ele>
        <time>2020-08-16T08:42:51.000Z</time>
      </trkpt>
      <trkpt lat="47.33768" lon="-2.4747">
        <ele>33</ele>
        <time>2020-08-16T08:42:52.000Z</time>
      </trkpt>
      <trkpt lat="47.33766" lon="-2.47479">
        <ele>32.599998474121</ele>
        <time>2020-08-16T08:42:53.000Z</time>
      </trkpt>
      <trkpt lat="47.33764" lon="-2.47488">
        <ele>32.200000762939</ele>
        <time>2020-08-16T08:42:54.000Z</time>
      </trkpt>
      <trkpt lat="47.33758" lon="-2.47515">
        <ele>31.60000038147</ele>
        <time>2020-08-16T08:42:57.000Z</time>
      </trkpt>
      <trkpt lat="47.33756" lon="-2.47524">
        <ele>31.200000762939</ele>
        <time>2020-08-16T08:42:58.000Z</time>
      </trkpt>
      <trkpt lat="47.33754" lon="-2.47533">
        <ele>30.799999237061</ele>
        <time>2020-08-16T08:42:59.000Z</time>
      </trkpt>
      <trkpt lat="47.33751" lon="-2.47542">
        <ele>30.39999961853</ele>
        <time>2020-08-16T08:43:00.000Z</time>
      </trkpt>
      <trkpt lat="47.33749" lon="-2.47551">
        <ele>30</ele>
        <time>2020-08-16T08:43:01.000Z</time>
      </trkpt>
      <trkpt lat="47.33743" lon="-2.47588">
        <ele>30</ele>
        <time>2020-08-16T08:43:05.000Z</time>
      </trkpt>
      <trkpt lat="47.33738" lon="-2.47609">
        <ele>29.60000038147</ele>
        <time>2020-08-16T08:43:08.000Z</time>
      </trkpt>
      <trkpt lat="47.33736" lon="-2.47614">
        <ele>29.200000762939</ele>
        <time>2020-08-16T08:43:09.000Z</time>
      </trkpt>
      <trkpt lat="47.33734" lon="-2.47618">
        <ele>28.799999237061</ele>
        <time>2020-08-16T08:43:10.000Z</time>
      </trkpt>
      <trkpt lat="47.3373" lon="-2.47619">
        <ele>28.39999961853</ele>
        <time>2020-08-16T08:43:11.000Z</time>
      </trkpt>
      <trkpt lat="47.33727" lon="-2.47621">
        <ele>28</ele>
        <time>2020-08-16T08:43:12.000Z</time>
      </trkpt>
      <trkpt lat="47.33721" lon="-2.47622">
        <ele>28</ele>
        <time>2020-08-16T08:43:14.000Z</time>
      </trkpt>
      <trkpt lat="47.33713" lon="-2.47621">
        <ele>28</ele>
        <time>2020-08-16T08:43:16.000Z</time>
      </trkpt>
      <trkpt lat="47.33702" lon="-2.47622">
        <ele>28</ele>
        <time>2020-08-16T08:43:19.000Z</time>
      </trkpt>
      <trkpt lat="47.33689" lon="-2.47624">
        <ele>28</ele>
        <time>2020-08-16T08:43:22.000Z</time>
      </trkpt>
      <trkpt lat="47.3368" lon="-2.47629">
        <ele>28</ele>
        <time>2020-08-16T08:43:24.000Z</time>
      </trkpt>
      <trkpt lat="47.33647" lon="-2.47653">
        <ele>28</ele>
        <time>2020-08-16T08:43:31.000Z</time>
      </trkpt>
      <trkpt lat="47.33615" lon="-2.47679">
        <ele>28</ele>
        <time>2020-08-16T08:43:38.000Z</time>
      </trkpt>
      <trkpt lat="47.33592" lon="-2.47697">
        <ele>28</ele>
        <time>2020-08-16T08:43:43.000Z</time>
      </trkpt>
      <trkpt lat="47.33582" lon="-2.477">
        <ele>28</ele>
        <time>2020-08-16T08:43:45.000Z</time>
      </trkpt>
      <trkpt lat="47.33563" lon="-2.47697">
        <ele>28</ele>
        <time>2020-08-16T08:43:49.000Z</time>
      </trkpt>
      <trkpt lat="47.3355" lon="-2.4769">
        <ele>27.60000038147</ele>
        <time>2020-08-16T08:43:53.000Z</time>
      </trkpt>
      <trkpt lat="47.33547" lon="-2.47687">
        <ele>27.200000762939</ele>
        <time>2020-08-16T08:43:54.000Z</time>
      </trkpt>
      <trkpt lat="47.33543" lon="-2.47684">
        <ele>26.799999237061</ele>
        <time>2020-08-16T08:43:55.000Z</time>
      </trkpt>
      <trkpt lat="47.33539" lon="-2.47681">
        <ele>26.39999961853</ele>
        <time>2020-08-16T08:43:56.000Z</time>
      </trkpt>
      <trkpt lat="47.33536" lon="-2.47679">
        <ele>26</ele>
        <time>2020-08-16T08:43:57.000Z</time>
      </trkpt>
      <trkpt lat="47.33533" lon="-2.47679">
        <ele>26</ele>
        <time>2020-08-16T08:43:59.000Z</time>
      </trkpt>
      <trkpt lat="47.3353" lon="-2.4768">
        <ele>26</ele>
        <time>2020-08-16T08:44:02.000Z</time>
      </trkpt>
      <trkpt lat="47.33527" lon="-2.47676">
        <ele>26</ele>
        <time>2020-08-16T08:44:04.000Z</time>
      </trkpt>
      <trkpt lat="47.33524" lon="-2.4767">
        <ele>26</ele>
        <time>2020-08-16T08:44:06.000Z</time>
      </trkpt>
      <trkpt lat="47.33519" lon="-2.47661">
        <ele>26</ele>
        <time>2020-08-16T08:44:08.000Z</time>
      </trkpt>
      <trkpt lat="47.33509" lon="-2.47638">
        <ele>25.60000038147</ele>
        <time>2020-08-16T08:44:12.000Z</time>
      </trkpt>
      <trkpt lat="47.33507" lon="-2.47632">
        <ele>25.200000762939</ele>
        <time>2020-08-16T08:44:13.000Z</time>
      </trkpt>
      <trkpt lat="47.33504" lon="-2.47627">
        <ele>24.799999237061</ele>
        <time>2020-08-16T08:44:14.000Z</time>
      </trkpt>
      <trkpt lat="47.33502" lon="-2.47621">
        <ele>24.39999961853</ele>
        <time>2020-08-16T08:44:15.000Z</time>
      </trkpt>
      <trkpt lat="47.33499" lon="-2.47616">
        <ele>23.799999237061</ele>
        <time>2020-08-16T08:44:16.000Z</time>
      </trkpt>
      <trkpt lat="47.33492" lon="-2.47607">
        <ele>23.799999237061</ele>
        <time>2020-08-16T08:44:18.000Z</time>
      </trkpt>
      <trkpt lat="47.33488" lon="-2.47605">
        <ele>23.799999237061</ele>
        <time>2020-08-16T08:44:19.000Z</time>
      </trkpt>
      <trkpt lat="47.33475" lon="-2.47605">
        <ele>23.799999237061</ele>
        <time>2020-08-16T08:44:23.000Z</time>
      </trkpt>
      <trkpt lat="47.3347" lon="-2.47609">
        <ele>23.799999237061</ele>
        <time>2020-08-16T08:44:25.000Z</time>
      </trkpt>
      <trkpt lat="47.33464" lon="-2.47613">
        <ele>23.39999961853</ele>
        <time>2020-08-16T08:44:28.000Z</time>
      </trkpt>
      <trkpt lat="47.33462" lon="-2.47616">
        <ele>23</ele>
        <time>2020-08-16T08:44:29.000Z</time>
      </trkpt>
      <trkpt lat="47.3346" lon="-2.47617">
        <ele>22.60000038147</ele>
        <time>2020-08-16T08:44:30.000Z</time>
      </trkpt>
      <trkpt lat="47.33458" lon="-2.47618">
        <ele>22.200000762939</ele>
        <time>2020-08-16T08:44:31.000Z</time>
      </trkpt>
      <trkpt lat="47.33456" lon="-2.47619">
        <ele>21.799999237061</ele>
        <time>2020-08-16T08:44:32.000Z</time>
      </trkpt>
      <trkpt lat="47.33452" lon="-2.47622">
        <ele>21.799999237061</ele>
        <time>2020-08-16T08:44:34.000Z</time>
      </trkpt>
      <trkpt lat="47.33443" lon="-2.47626">
        <ele>21.39999961853</ele>
        <time>2020-08-16T08:44:39.000Z</time>
      </trkpt>
      <trkpt lat="47.33441" lon="-2.47627">
        <ele>21</ele>
        <time>2020-08-16T08:44:40.000Z</time>
      </trkpt>
      <trkpt lat="47.33439" lon="-2.47627">
        <ele>20.39999961853</ele>
        <time>2020-08-16T08:44:41.000Z</time>
      </trkpt>
      <trkpt lat="47.33436" lon="-2.47628">
        <ele>20</ele>
        <time>2020-08-16T08:44:42.000Z</time>
      </trkpt>
      <trkpt lat="47.33431" lon="-2.47629">
        <ele>19.60000038147</ele>
        <time>2020-08-16T08:44:43.000Z</time>
      </trkpt>
      <trkpt lat="47.33426" lon="-2.4763">
        <ele>19.200000762939</ele>
        <time>2020-08-16T08:44:44.000Z</time>
      </trkpt>
      <trkpt lat="47.33422" lon="-2.47631">
        <ele>18.60000038147</ele>
        <time>2020-08-16T08:44:45.000Z</time>
      </trkpt>
      <trkpt lat="47.33418" lon="-2.47635">
        <ele>18.200000762939</ele>
        <time>2020-08-16T08:44:46.000Z</time>
      </trkpt>
      <trkpt lat="47.33414" lon="-2.47639">
        <ele>17.799999237061</ele>
        <time>2020-08-16T08:44:47.000Z</time>
      </trkpt>
      <trkpt lat="47.3341" lon="-2.47645">
        <ele>17.200000762939</ele>
        <time>2020-08-16T08:44:48.000Z</time>
      </trkpt>
      <trkpt lat="47.33406" lon="-2.4765">
        <ele>16.60000038147</ele>
        <time>2020-08-16T08:44:49.000Z</time>
      </trkpt>
      <trkpt lat="47.33403" lon="-2.47653">
        <ele>16</ele>
        <time>2020-08-16T08:44:50.000Z</time>
      </trkpt>
      <trkpt lat="47.33399" lon="-2.47659">
        <ele>15.60000038147</ele>
        <time>2020-08-16T08:44:51.000Z</time>
      </trkpt>
      <trkpt lat="47.33396" lon="-2.47663">
        <ele>15</ele>
        <time>2020-08-16T08:44:52.000Z</time>
      </trkpt>
      <trkpt lat="47.33385" lon="-2.47675">
        <ele>15</ele>
        <time>2020-08-16T08:44:56.000Z</time>
      </trkpt>
      <trkpt lat="47.33382" lon="-2.47678">
        <ele>14.60000038147</ele>
        <time>2020-08-16T08:44:57.000Z</time>
      </trkpt>
      <trkpt lat="47.3338" lon="-2.4768">
        <ele>14.199999809265</ele>
        <time>2020-08-16T08:44:58.000Z</time>
      </trkpt>
      <trkpt lat="47.33378" lon="-2.47682">
        <ele>13.800000190735</ele>
        <time>2020-08-16T08:44:59.000Z</time>
      </trkpt>
      <trkpt lat="47.33376" lon="-2.47685">
        <ele>13</ele>
        <time>2020-08-16T08:45:00.000Z</time>
      </trkpt>
      <trkpt lat="47.33367" lon="-2.47694">
        <ele>13</ele>
        <time>2020-08-16T08:45:03.000Z</time>
      </trkpt>
      <trkpt lat="47.33349" lon="-2.47711">
        <ele>13</ele>
        <time>2020-08-16T08:45:09.000Z</time>
      </trkpt>
      <trkpt lat="47.33347" lon="-2.47712">
        <ele>12.60000038147</ele>
        <time>2020-08-16T08:45:10.000Z</time>
      </trkpt>
      <trkpt lat="47.33344" lon="-2.47713">
        <ele>12</ele>
        <time>2020-08-16T08:45:11.000Z</time>
      </trkpt>
      <trkpt lat="47.33343" lon="-2.47714">
        <ele>11.60000038147</ele>
        <time>2020-08-16T08:45:12.000Z</time>
      </trkpt>
      <trkpt lat="47.33342" lon="-2.47715">
        <ele>11.199999809265</ele>
        <time>2020-08-16T08:45:13.000Z</time>
      </trkpt>
      <trkpt lat="47.33341" lon="-2.47717">
        <ele>10.800000190735</ele>
        <time>2020-08-16T08:45:14.000Z</time>
      </trkpt>
      <trkpt lat="47.3334" lon="-2.47718">
        <ele>10.800000190735</ele>
        <time>2020-08-16T08:45:15.000Z</time>
      </trkpt>
      <trkpt lat="47.33329" lon="-2.47728">
        <ele>10.800000190735</ele>
        <time>2020-08-16T08:45:18.000Z</time>
      </trkpt>
      <trkpt lat="47.333" lon="-2.47746">
        <ele>10.800000190735</ele>
        <time>2020-08-16T08:45:24.000Z</time>
      </trkpt>
      <trkpt lat="47.33274" lon="-2.47767">
        <ele>10.800000190735</ele>
        <time>2020-08-16T08:45:30.000Z</time>
      </trkpt>
      <trkpt lat="47.3327" lon="-2.4777">
        <ele>10.800000190735</ele>
        <time>2020-08-16T08:45:31.000Z</time>
      </trkpt>
      <trkpt lat="47.33266" lon="-2.47775">
        <ele>10.800000190735</ele>
        <time>2020-08-16T08:45:32.000Z</time>
      </trkpt>
      <trkpt lat="47.33247" lon="-2.47797">
        <ele>10.800000190735</ele>
        <time>2020-08-16T08:45:37.000Z</time>
      </trkpt>
      <trkpt lat="47.33213" lon="-2.47836">
        <ele>10.800000190735</ele>
        <time>2020-08-16T08:45:44.000Z</time>
      </trkpt>
      <trkpt lat="47.33195" lon="-2.4786">
        <ele>10.800000190735</ele>
        <time>2020-08-16T08:45:48.000Z</time>
      </trkpt>
      <trkpt lat="47.33186" lon="-2.47874">
        <ele>10.800000190735</ele>
        <time>2020-08-16T08:45:50.000Z</time>
      </trkpt>
      <trkpt lat="47.33166" lon="-2.47907">
        <ele>10.39999961853</ele>
        <time>2020-08-16T08:45:55.000Z</time>
      </trkpt>
      <trkpt lat="47.33163" lon="-2.47913">
        <ele>10</ele>
        <time>2020-08-16T08:45:56.000Z</time>
      </trkpt>
      <trkpt lat="47.3316" lon="-2.47918">
        <ele>9.6000003814697</ele>
        <time>2020-08-16T08:45:57.000Z</time>
      </trkpt>
      <trkpt lat="47.33158" lon="-2.47922">
        <ele>9</ele>
        <time>2020-08-16T08:45:58.000Z</time>
      </trkpt>
      <trkpt lat="47.33157" lon="-2.47926">
        <ele>8.6000003814697</ele>
        <time>2020-08-16T08:45:59.000Z</time>
      </trkpt>
      <trkpt lat="47.33156" lon="-2.47928">
        <ele>8.6000003814697</ele>
        <time>2020-08-16T08:46:00.000Z</time>
      </trkpt>
      <trkpt lat="47.33155" lon="-2.4793">
        <ele>8.6000003814697</ele>
        <time>2020-08-16T08:46:02.000Z</time>
      </trkpt>
      <trkpt lat="47.33155" lon="-2.47932">
        <ele>8.6000003814697</ele>
        <time>2020-08-16T08:46:37.000Z</time>
      </trkpt>
      <trkpt lat="47.33154" lon="-2.47934">
        <ele>8.6000003814697</ele>
        <time>2020-08-16T08:46:38.000Z</time>
      </trkpt>
      <trkpt lat="47.33154" lon="-2.47938">
        <ele>8.6000003814697</ele>
        <time>2020-08-16T08:46:40.000Z</time>
      </trkpt>
      <trkpt lat="47.33154" lon="-2.47951">
        <ele>8.6000003814697</ele>
        <time>2020-08-16T08:46:43.000Z</time>
      </trkpt>
      <trkpt lat="47.33152" lon="-2.48">
        <ele>8.6000003814697</ele>
        <time>2020-08-16T08:46:50.000Z</time>
      </trkpt>
      <trkpt lat="47.33149" lon="-2.48054">
        <ele>8.6000003814697</ele>
        <time>2020-08-16T08:46:57.000Z</time>
      </trkpt>
      <trkpt lat="47.33146" lon="-2.48122">
        <ele>8.6000003814697</ele>
        <time>2020-08-16T08:47:06.000Z</time>
      </trkpt>
      <trkpt lat="47.33145" lon="-2.48177">
        <ele>8.6000003814697</ele>
        <time>2020-08-16T08:47:14.000Z</time>
      </trkpt>
      <trkpt lat="47.33146" lon="-2.48236">
        <ele>8.6000003814697</ele>
        <time>2020-08-16T08:47:22.000Z</time>
      </trkpt>
      <trkpt lat="47.33148" lon="-2.48299">
        <ele>8.6000003814697</ele>
        <time>2020-08-16T08:47:30.000Z</time>
      </trkpt>
      <trkpt lat="47.33148" lon="-2.48333">
        <ele>8.6000003814697</ele>
        <time>2020-08-16T08:47:35.000Z</time>
      </trkpt>
      <trkpt lat="47.33149" lon="-2.48346">
        <ele>8.6000003814697</ele>
        <time>2020-08-16T08:47:39.000Z</time>
      </trkpt>
      <trkpt lat="47.33149" lon="-2.4835">
        <ele>8.6000003814697</ele>
        <time>2020-08-16T08:47:42.000Z</time>
      </trkpt>
      <trkpt lat="47.33149" lon="-2.48352">
        <ele>8.6000003814697</ele>
        <time>2020-08-16T08:47:46.000Z</time>
      </trkpt>
      <trkpt lat="47.33149" lon="-2.48354">
        <ele>8.6000003814697</ele>
        <time>2020-08-16T08:47:47.000Z</time>
      </trkpt>
      <trkpt lat="47.33142" lon="-2.48367">
        <ele>8.6000003814697</ele>
        <time>2020-08-16T08:47:52.000Z</time>
      </trkpt>
      <trkpt lat="47.33135" lon="-2.48385">
        <ele>8.6000003814697</ele>
        <time>2020-08-16T08:47:57.000Z</time>
      </trkpt>
      <trkpt lat="47.33121" lon="-2.48405">
        <ele>8.6000003814697</ele>
        <time>2020-08-16T08:48:02.000Z</time>
      </trkpt>
      <trkpt lat="47.33114" lon="-2.48413">
        <ele>8.6000003814697</ele>
        <time>2020-08-16T08:48:04.000Z</time>
      </trkpt>
      <trkpt lat="47.33101" lon="-2.48421">
        <ele>8.6000003814697</ele>
        <time>2020-08-16T08:48:07.000Z</time>
      </trkpt>
      <trkpt lat="47.33066" lon="-2.48444">
        <ele>8.6000003814697</ele>
        <time>2020-08-16T08:48:14.000Z</time>
      </trkpt>
      <trkpt lat="47.33029" lon="-2.48469">
        <ele>8.6000003814697</ele>
        <time>2020-08-16T08:48:21.000Z</time>
      </trkpt>
      <trkpt lat="47.32988" lon="-2.48496">
        <ele>8.6000003814697</ele>
        <time>2020-08-16T08:48:28.000Z</time>
      </trkpt>
      <trkpt lat="47.32951" lon="-2.48526">
        <ele>8.6000003814697</ele>
        <time>2020-08-16T08:48:35.000Z</time>
      </trkpt>
      <trkpt lat="47.32929" lon="-2.48552">
        <ele>8.6000003814697</ele>
        <time>2020-08-16T08:48:40.000Z</time>
      </trkpt>
      <trkpt lat="47.32896" lon="-2.4859">
        <ele>8.6000003814697</ele>
        <time>2020-08-16T08:48:47.000Z</time>
      </trkpt>
      <trkpt lat="47.32871" lon="-2.48596">
        <ele>8.6000003814697</ele>
        <time>2020-08-16T08:48:51.000Z</time>
      </trkpt>
      <trkpt lat="47.32864" lon="-2.48596">
        <ele>8.6000003814697</ele>
        <time>2020-08-16T08:48:52.000Z</time>
      </trkpt>
      <trkpt lat="47.32858" lon="-2.48596">
        <ele>8.6000003814697</ele>
        <time>2020-08-16T08:48:53.000Z</time>
      </trkpt>
      <trkpt lat="47.3284" lon="-2.48595">
        <ele>8.6000003814697</ele>
        <time>2020-08-16T08:48:56.000Z</time>
      </trkpt>
      <trkpt lat="47.3279" lon="-2.48594">
        <ele>8.6000003814697</ele>
        <time>2020-08-16T08:49:04.000Z</time>
      </trkpt>
      <trkpt lat="47.32777" lon="-2.48595">
        <ele>8.6000003814697</ele>
        <time>2020-08-16T08:49:06.000Z</time>
      </trkpt>
      <trkpt lat="47.32759" lon="-2.48601">
        <ele>8.6000003814697</ele>
        <time>2020-08-16T08:49:09.000Z</time>
      </trkpt>
      <trkpt lat="47.32707" lon="-2.4863">
        <ele>8.6000003814697</ele>
        <time>2020-08-16T08:49:18.000Z</time>
      </trkpt>
      <trkpt lat="47.32666" lon="-2.48651">
        <ele>8.6000003814697</ele>
        <time>2020-08-16T08:49:25.000Z</time>
      </trkpt>
      <trkpt lat="47.3262" lon="-2.48673">
        <ele>8.6000003814697</ele>
        <time>2020-08-16T08:49:33.000Z</time>
      </trkpt>
      <trkpt lat="47.32585" lon="-2.48678">
        <ele>8.6000003814697</ele>
        <time>2020-08-16T08:49:39.000Z</time>
      </trkpt>
      <trkpt lat="47.32551" lon="-2.48665">
        <ele>8.6000003814697</ele>
        <time>2020-08-16T08:49:45.000Z</time>
      </trkpt>
      <trkpt lat="47.3252" lon="-2.48638">
        <ele>8.6000003814697</ele>
        <time>2020-08-16T08:49:51.000Z</time>
      </trkpt>
      <trkpt lat="47.32475" lon="-2.48596">
        <ele>8.6000003814697</ele>
        <time>2020-08-16T08:50:00.000Z</time>
      </trkpt>
      <trkpt lat="47.32444" lon="-2.48579">
        <ele>8.6000003814697</ele>
        <time>2020-08-16T08:50:06.000Z</time>
      </trkpt>
      <trkpt lat="47.32395" lon="-2.48572">
        <ele>8.6000003814697</ele>
        <time>2020-08-16T08:50:14.000Z</time>
      </trkpt>
      <trkpt lat="47.32382" lon="-2.48575">
        <ele>8.6000003814697</ele>
        <time>2020-08-16T08:50:16.000Z</time>
      </trkpt>
      <trkpt lat="47.32365" lon="-2.48582">
        <ele>8.6000003814697</ele>
        <time>2020-08-16T08:50:19.000Z</time>
      </trkpt>
      <trkpt lat="47.32329" lon="-2.48609">
        <ele>8.6000003814697</ele>
        <time>2020-08-16T08:50:26.000Z</time>
      </trkpt>
      <trkpt lat="47.32279" lon="-2.48646">
        <ele>8.6000003814697</ele>
        <time>2020-08-16T08:50:35.000Z</time>
      </trkpt>
      <trkpt lat="47.32264" lon="-2.48659">
        <ele>8.6000003814697</ele>
        <time>2020-08-16T08:50:38.000Z</time>
      </trkpt>
      <trkpt lat="47.32251" lon="-2.48677">
        <ele>8.6000003814697</ele>
        <time>2020-08-16T08:50:41.000Z</time>
      </trkpt>
      <trkpt lat="47.3224" lon="-2.48709">
        <ele>8.6000003814697</ele>
        <time>2020-08-16T08:50:45.000Z</time>
      </trkpt>
      <trkpt lat="47.32238" lon="-2.48717">
        <ele>8.6000003814697</ele>
        <time>2020-08-16T08:50:46.000Z</time>
      </trkpt>
      <trkpt lat="47.32225" lon="-2.48765">
        <ele>8.6000003814697</ele>
        <time>2020-08-16T08:50:52.000Z</time>
      </trkpt>
      <trkpt lat="47.32222" lon="-2.48771">
        <ele>8.6000003814697</ele>
        <time>2020-08-16T08:50:53.000Z</time>
      </trkpt>
      <trkpt lat="47.32206" lon="-2.48804">
        <ele>8.6000003814697</ele>
        <time>2020-08-16T08:50:58.000Z</time>
      </trkpt>
      <trkpt lat="47.32185" lon="-2.48838">
        <ele>8.6000003814697</ele>
        <time>2020-08-16T08:51:03.000Z</time>
      </trkpt>
      <trkpt lat="47.32156" lon="-2.48894">
        <ele>8.6000003814697</ele>
        <time>2020-08-16T08:51:11.000Z</time>
      </trkpt>
      <trkpt lat="47.32142" lon="-2.48932">
        <ele>8.6000003814697</ele>
        <time>2020-08-16T08:51:16.000Z</time>
      </trkpt>
      <trkpt lat="47.3214" lon="-2.4894">
        <ele>8.6000003814697</ele>
        <time>2020-08-16T08:51:17.000Z</time>
      </trkpt>
      <trkpt lat="47.32139" lon="-2.48975">
        <ele>8.6000003814697</ele>
        <time>2020-08-16T08:51:21.000Z</time>
      </trkpt>
      <trkpt lat="47.3214" lon="-2.49024">
        <ele>8.6000003814697</ele>
        <time>2020-08-16T08:51:27.000Z</time>
      </trkpt>
      <trkpt lat="47.32131" lon="-2.49073">
        <ele>8.6000003814697</ele>
        <time>2020-08-16T08:51:33.000Z</time>
      </trkpt>
      <trkpt lat="47.32115" lon="-2.49107">
        <ele>8.6000003814697</ele>
        <time>2020-08-16T08:51:38.000Z</time>
      </trkpt>
      <trkpt lat="47.32098" lon="-2.49132">
        <ele>8.6000003814697</ele>
        <time>2020-08-16T08:51:43.000Z</time>
      </trkpt>
      <trkpt lat="47.32088" lon="-2.49143">
        <ele>8.6000003814697</ele>
        <time>2020-08-16T08:51:47.000Z</time>
      </trkpt>
      <trkpt lat="47.32084" lon="-2.49147">
        <ele>8.6000003814697</ele>
        <time>2020-08-16T08:51:48.000Z</time>
      </trkpt>
      <trkpt lat="47.32067" lon="-2.49169">
        <ele>8.6000003814697</ele>
        <time>2020-08-16T08:51:52.000Z</time>
      </trkpt>
      <trkpt lat="47.32036" lon="-2.49219">
        <ele>8.6000003814697</ele>
        <time>2020-08-16T08:51:59.000Z</time>
      </trkpt>
      <trkpt lat="47.31998" lon="-2.4928">
        <ele>8.6000003814697</ele>
        <time>2020-08-16T08:52:07.000Z</time>
      </trkpt>
      <trkpt lat="47.31964" lon="-2.49337">
        <ele>8.6000003814697</ele>
        <time>2020-08-16T08:52:14.000Z</time>
      </trkpt>
      <trkpt lat="47.3193" lon="-2.4939">
        <ele>8.6000003814697</ele>
        <time>2020-08-16T08:52:21.000Z</time>
      </trkpt>
      <trkpt lat="47.31899" lon="-2.49439">
        <ele>8.6000003814697</ele>
        <time>2020-08-16T08:52:28.000Z</time>
      </trkpt>
      <trkpt lat="47.31863" lon="-2.49494">
        <ele>8.6000003814697</ele>
        <time>2020-08-16T08:52:36.000Z</time>
      </trkpt>
      <trkpt lat="47.3183" lon="-2.49545">
        <ele>8.6000003814697</ele>
        <time>2020-08-16T08:52:44.000Z</time>
      </trkpt>
      <trkpt lat="47.318" lon="-2.49591">
        <ele>8.6000003814697</ele>
        <time>2020-08-16T08:52:51.000Z</time>
      </trkpt>
      <trkpt lat="47.31759" lon="-2.49651">
        <ele>8.6000003814697</ele>
        <time>2020-08-16T08:53:00.000Z</time>
      </trkpt>
      <trkpt lat="47.3172" lon="-2.4971">
        <ele>8.6000003814697</ele>
        <time>2020-08-16T08:53:09.000Z</time>
      </trkpt>
      <trkpt lat="47.31681" lon="-2.4977">
        <ele>8.6000003814697</ele>
        <time>2020-08-16T08:53:18.000Z</time>
      </trkpt>
      <trkpt lat="47.3166" lon="-2.49801">
        <ele>9</ele>
        <time>2020-08-16T08:53:23.000Z</time>
      </trkpt>
      <trkpt lat="47.31657" lon="-2.49807">
        <ele>9.6000003814697</ele>
        <time>2020-08-16T08:53:24.000Z</time>
      </trkpt>
      <trkpt lat="47.31652" lon="-2.49813">
        <ele>10</ele>
        <time>2020-08-16T08:53:25.000Z</time>
      </trkpt>
      <trkpt lat="47.31646" lon="-2.49816">
        <ele>10.39999961853</ele>
        <time>2020-08-16T08:53:26.000Z</time>
      </trkpt>
      <trkpt lat="47.31641" lon="-2.49819">
        <ele>10.800000190735</ele>
        <time>2020-08-16T08:53:27.000Z</time>
      </trkpt>
      <trkpt lat="47.31636" lon="-2.49824">
        <ele>10.800000190735</ele>
        <time>2020-08-16T08:53:28.000Z</time>
      </trkpt>
      <trkpt lat="47.31618" lon="-2.49852">
        <ele>10.800000190735</ele>
        <time>2020-08-16T08:53:32.000Z</time>
      </trkpt>
      <trkpt lat="47.31596" lon="-2.49888">
        <ele>10.800000190735</ele>
        <time>2020-08-16T08:53:38.000Z</time>
      </trkpt>
      <trkpt lat="47.31561" lon="-2.49939">
        <ele>10.800000190735</ele>
        <time>2020-08-16T08:53:45.000Z</time>
      </trkpt>
      <trkpt lat="47.31531" lon="-2.49983">
        <ele>10.800000190735</ele>
        <time>2020-08-16T08:53:51.000Z</time>
      </trkpt>
      <trkpt lat="47.31501" lon="-2.50033">
        <ele>10.800000190735</ele>
        <time>2020-08-16T08:53:58.000Z</time>
      </trkpt>
      <trkpt lat="47.31474" lon="-2.50075">
        <ele>10.800000190735</ele>
        <time>2020-08-16T08:54:04.000Z</time>
      </trkpt>
      <trkpt lat="47.31436" lon="-2.50133">
        <ele>10.800000190735</ele>
        <time>2020-08-16T08:54:12.000Z</time>
      </trkpt>
      <trkpt lat="47.31401" lon="-2.50185">
        <ele>10.800000190735</ele>
        <time>2020-08-16T08:54:20.000Z</time>
      </trkpt>
      <trkpt lat="47.31369" lon="-2.50229">
        <ele>10.800000190735</ele>
        <time>2020-08-16T08:54:27.000Z</time>
      </trkpt>
      <trkpt lat="47.31346" lon="-2.50262">
        <ele>10.800000190735</ele>
        <time>2020-08-16T08:54:32.000Z</time>
      </trkpt>
      <trkpt lat="47.31321" lon="-2.50303">
        <ele>10.800000190735</ele>
        <time>2020-08-16T08:54:38.000Z</time>
      </trkpt>
      <trkpt lat="47.31293" lon="-2.5034">
        <ele>10.800000190735</ele>
        <time>2020-08-16T08:54:44.000Z</time>
      </trkpt>
      <trkpt lat="47.31266" lon="-2.50376">
        <ele>10.800000190735</ele>
        <time>2020-08-16T08:54:50.000Z</time>
      </trkpt>
      <trkpt lat="47.31228" lon="-2.50425">
        <ele>10.800000190735</ele>
        <time>2020-08-16T08:54:58.000Z</time>
      </trkpt>
      <trkpt lat="47.31196" lon="-2.50463">
        <ele>10.800000190735</ele>
        <time>2020-08-16T08:55:05.000Z</time>
      </trkpt>
      <trkpt lat="47.31167" lon="-2.50499">
        <ele>10.800000190735</ele>
        <time>2020-08-16T08:55:12.000Z</time>
      </trkpt>
      <trkpt lat="47.31146" lon="-2.50522">
        <ele>10.800000190735</ele>
        <time>2020-08-16T08:55:17.000Z</time>
      </trkpt>
      <trkpt lat="47.31137" lon="-2.50531">
        <ele>11.199999809265</ele>
        <time>2020-08-16T08:55:19.000Z</time>
      </trkpt>
      <trkpt lat="47.31132" lon="-2.50534">
        <ele>11.60000038147</ele>
        <time>2020-08-16T08:55:20.000Z</time>
      </trkpt>
      <trkpt lat="47.31127" lon="-2.50538">
        <ele>12</ele>
        <time>2020-08-16T08:55:21.000Z</time>
      </trkpt>
      <trkpt lat="47.31122" lon="-2.50542">
        <ele>12.39999961853</ele>
        <time>2020-08-16T08:55:22.000Z</time>
      </trkpt>
      <trkpt lat="47.31117" lon="-2.50546">
        <ele>12.800000190735</ele>
        <time>2020-08-16T08:55:23.000Z</time>
      </trkpt>
      <trkpt lat="47.31107" lon="-2.50555">
        <ele>12.800000190735</ele>
        <time>2020-08-16T08:55:25.000Z</time>
      </trkpt>
      <trkpt lat="47.3107" lon="-2.50585">
        <ele>12.800000190735</ele>
        <time>2020-08-16T08:55:32.000Z</time>
      </trkpt>
      <trkpt lat="47.31037" lon="-2.50609">
        <ele>12.800000190735</ele>
        <time>2020-08-16T08:55:38.000Z</time>
      </trkpt>
      <trkpt lat="47.31004" lon="-2.50634">
        <ele>12.800000190735</ele>
        <time>2020-08-16T08:55:44.000Z</time>
      </trkpt>
      <trkpt lat="47.30961" lon="-2.50669">
        <ele>12.800000190735</ele>
        <time>2020-08-16T08:55:52.000Z</time>
      </trkpt>
      <trkpt lat="47.30909" lon="-2.5071">
        <ele>12.800000190735</ele>
        <time>2020-08-16T08:56:02.000Z</time>
      </trkpt>
      <trkpt lat="47.3087" lon="-2.50739">
        <ele>12.800000190735</ele>
        <time>2020-08-16T08:56:10.000Z</time>
      </trkpt>
      <trkpt lat="47.30845" lon="-2.50758">
        <ele>12.800000190735</ele>
        <time>2020-08-16T08:56:15.000Z</time>
      </trkpt>
      <trkpt lat="47.30836" lon="-2.50766">
        <ele>12.800000190735</ele>
        <time>2020-08-16T08:56:17.000Z</time>
      </trkpt>
      <trkpt lat="47.30818" lon="-2.50781">
        <ele>12.800000190735</ele>
        <time>2020-08-16T08:56:22.000Z</time>
      </trkpt>
      <trkpt lat="47.30804" lon="-2.50792">
        <ele>12.39999961853</ele>
        <time>2020-08-16T08:56:26.000Z</time>
      </trkpt>
      <trkpt lat="47.308" lon="-2.50795">
        <ele>12</ele>
        <time>2020-08-16T08:56:27.000Z</time>
      </trkpt>
      <trkpt lat="47.30796" lon="-2.50798">
        <ele>11.199999809265</ele>
        <time>2020-08-16T08:56:28.000Z</time>
      </trkpt>
      <trkpt lat="47.30791" lon="-2.50801">
        <ele>10.800000190735</ele>
        <time>2020-08-16T08:56:29.000Z</time>
      </trkpt>
      <trkpt lat="47.30758" lon="-2.50824">
        <ele>10.800000190735</ele>
        <time>2020-08-16T08:56:36.000Z</time>
      </trkpt>
      <trkpt lat="47.30744" lon="-2.50836">
        <ele>10.800000190735</ele>
        <time>2020-08-16T08:56:39.000Z</time>
      </trkpt>
      <trkpt lat="47.30735" lon="-2.50844">
        <ele>10.800000190735</ele>
        <time>2020-08-16T08:56:41.000Z</time>
      </trkpt>
      <trkpt lat="47.30731" lon="-2.50847">
        <ele>10.800000190735</ele>
        <time>2020-08-16T08:56:42.000Z</time>
      </trkpt>
      <trkpt lat="47.30726" lon="-2.5085">
        <ele>10.800000190735</ele>
        <time>2020-08-16T08:56:43.000Z</time>
      </trkpt>
      <trkpt lat="47.30711" lon="-2.50854">
        <ele>10.800000190735</ele>
        <time>2020-08-16T08:56:46.000Z</time>
      </trkpt>
      <trkpt lat="47.30706" lon="-2.50855">
        <ele>10.800000190735</ele>
        <time>2020-08-16T08:56:47.000Z</time>
      </trkpt>
      <trkpt lat="47.30702" lon="-2.50857">
        <ele>10.800000190735</ele>
        <time>2020-08-16T08:56:48.000Z</time>
      </trkpt>
      <trkpt lat="47.30694" lon="-2.50865">
        <ele>10.800000190735</ele>
        <time>2020-08-16T08:56:50.000Z</time>
      </trkpt>
      <trkpt lat="47.30687" lon="-2.50874">
        <ele>10.800000190735</ele>
        <time>2020-08-16T08:56:52.000Z</time>
      </trkpt>
      <trkpt lat="47.30683" lon="-2.50883">
        <ele>10.800000190735</ele>
        <time>2020-08-16T08:56:54.000Z</time>
      </trkpt>
      <trkpt lat="47.3067" lon="-2.50893">
        <ele>10.800000190735</ele>
        <time>2020-08-16T08:56:57.000Z</time>
      </trkpt>
      <trkpt lat="47.30666" lon="-2.50896">
        <ele>10.800000190735</ele>
        <time>2020-08-16T08:56:58.000Z</time>
      </trkpt>
      <trkpt lat="47.30627" lon="-2.50927">
        <ele>10.800000190735</ele>
        <time>2020-08-16T08:57:06.000Z</time>
      </trkpt>
      <trkpt lat="47.30588" lon="-2.50962">
        <ele>10.800000190735</ele>
        <time>2020-08-16T08:57:14.000Z</time>
      </trkpt>
      <trkpt lat="47.30558" lon="-2.50984">
        <ele>10.800000190735</ele>
        <time>2020-08-16T08:57:19.000Z</time>
      </trkpt>
      <trkpt lat="47.30552" lon="-2.50987">
        <ele>10.800000190735</ele>
        <time>2020-08-16T08:57:20.000Z</time>
      </trkpt>
      <trkpt lat="47.30538" lon="-2.50994">
        <ele>10.800000190735</ele>
        <time>2020-08-16T08:57:22.000Z</time>
      </trkpt>
      <trkpt lat="47.30512" lon="-2.51009">
        <ele>10.800000190735</ele>
        <time>2020-08-16T08:57:26.000Z</time>
      </trkpt>
      <trkpt lat="47.30465" lon="-2.51033">
        <ele>10.800000190735</ele>
        <time>2020-08-16T08:57:33.000Z</time>
      </trkpt>
      <trkpt lat="47.30409" lon="-2.5106">
        <ele>10.800000190735</ele>
        <time>2020-08-16T08:57:41.000Z</time>
      </trkpt>
      <trkpt lat="47.3037" lon="-2.51072">
        <ele>10.800000190735</ele>
        <time>2020-08-16T08:57:47.000Z</time>
      </trkpt>
      <trkpt lat="47.3035" lon="-2.51067">
        <ele>10.800000190735</ele>
        <time>2020-08-16T08:57:51.000Z</time>
      </trkpt>
      <trkpt lat="47.30315" lon="-2.5106">
        <ele>10.800000190735</ele>
        <time>2020-08-16T08:57:57.000Z</time>
      </trkpt>
      <trkpt lat="47.30288" lon="-2.51063">
        <ele>10.800000190735</ele>
        <time>2020-08-16T08:58:02.000Z</time>
      </trkpt>
      <trkpt lat="47.30268" lon="-2.51064">
        <ele>10.800000190735</ele>
        <time>2020-08-16T08:58:06.000Z</time>
      </trkpt>
      <trkpt lat="47.30264" lon="-2.51065">
        <ele>10</ele>
        <time>2020-08-16T08:58:07.000Z</time>
      </trkpt>
      <trkpt lat="47.3026" lon="-2.51066">
        <ele>9.6000003814697</ele>
        <time>2020-08-16T08:58:08.000Z</time>
      </trkpt>
      <trkpt lat="47.30256" lon="-2.51067">
        <ele>9.1999998092651</ele>
        <time>2020-08-16T08:58:09.000Z</time>
      </trkpt>
      <trkpt lat="47.30253" lon="-2.51069">
        <ele>8.8000001907349</ele>
        <time>2020-08-16T08:58:10.000Z</time>
      </trkpt>
      <trkpt lat="47.30245" lon="-2.51069">
        <ele>8.8000001907349</ele>
        <time>2020-08-16T08:58:13.000Z</time>
      </trkpt>
      <trkpt lat="47.30224" lon="-2.51073">
        <ele>8.8000001907349</ele>
        <time>2020-08-16T08:58:21.000Z</time>
      </trkpt>
      <trkpt lat="47.30215" lon="-2.51081">
        <ele>8.8000001907349</ele>
        <time>2020-08-16T08:58:26.000Z</time>
      </trkpt>
      <trkpt lat="47.30215" lon="-2.51081">
        <ele>8.8000001907349</ele>
        <time>2020-08-16T08:58:27.000Z</time>
      </trkpt>
      <trkpt lat="47.30211" lon="-2.51082">
        <ele>6.8000001907349</ele>
        <time>2020-08-16T09:07:05.000Z</time>
      </trkpt>
      <trkpt lat="47.30212" lon="-2.51082">
        <ele>6.8000001907349</ele>
        <time>2020-08-16T09:07:06.000Z</time>
      </trkpt>
      <trkpt lat="47.30212" lon="-2.51082">
        <ele>6.8000001907349</ele>
        <time>2020-08-16T09:07:07.000Z</time>
      </trkpt>
      <trkpt lat="47.30215" lon="-2.5108">
        <ele>6.8000001907349</ele>
        <time>2020-08-16T09:07:11.000Z</time>
      </trkpt>
      <trkpt lat="47.30218" lon="-2.51078">
        <ele>6.8000001907349</ele>
        <time>2020-08-16T09:07:13.000Z</time>
      </trkpt>
      <trkpt lat="47.30225" lon="-2.51076">
        <ele>6.8000001907349</ele>
        <time>2020-08-16T09:07:16.000Z</time>
      </trkpt>
      <trkpt lat="47.30235" lon="-2.51071">
        <ele>6.8000001907349</ele>
        <time>2020-08-16T09:07:19.000Z</time>
      </trkpt>
      <trkpt lat="47.30257" lon="-2.51064">
        <ele>6.8000001907349</ele>
        <time>2020-08-16T09:07:24.000Z</time>
      </trkpt>
      <trkpt lat="47.30293" lon="-2.51056">
        <ele>6.8000001907349</ele>
        <time>2020-08-16T09:07:32.000Z</time>
      </trkpt>
      <trkpt lat="47.30301" lon="-2.51056">
        <ele>6.8000001907349</ele>
        <time>2020-08-16T09:07:34.000Z</time>
      </trkpt>
      <trkpt lat="47.30316" lon="-2.51056">
        <ele>6.8000001907349</ele>
        <time>2020-08-16T09:07:37.000Z</time>
      </trkpt>
      <trkpt lat="47.30354" lon="-2.51059">
        <ele>6.8000001907349</ele>
        <time>2020-08-16T09:07:44.000Z</time>
      </trkpt>
      <trkpt lat="47.30358" lon="-2.51057">
        <ele>6.8000001907349</ele>
        <time>2020-08-16T09:07:45.000Z</time>
      </trkpt>
      <trkpt lat="47.30379" lon="-2.51055">
        <ele>6.8000001907349</ele>
        <time>2020-08-16T09:07:49.000Z</time>
      </trkpt>
      <trkpt lat="47.30398" lon="-2.51055">
        <ele>6.8000001907349</ele>
        <time>2020-08-16T09:07:53.000Z</time>
      </trkpt>
      <trkpt lat="47.30403" lon="-2.51057">
        <ele>6.8000001907349</ele>
        <time>2020-08-16T09:07:54.000Z</time>
      </trkpt>
      <trkpt lat="47.30424" lon="-2.5105">
        <ele>6.8000001907349</ele>
        <time>2020-08-16T09:07:58.000Z</time>
      </trkpt>
      <trkpt lat="47.30463" lon="-2.51031">
        <ele>6.8000001907349</ele>
        <time>2020-08-16T09:08:05.000Z</time>
      </trkpt>
      <trkpt lat="47.30479" lon="-2.51022">
        <ele>7.1999998092651</ele>
        <time>2020-08-16T09:08:08.000Z</time>
      </trkpt>
      <trkpt lat="47.30484" lon="-2.5102">
        <ele>7.5999999046326</ele>
        <time>2020-08-16T09:08:09.000Z</time>
      </trkpt>
      <trkpt lat="47.3049" lon="-2.51017">
        <ele>8</ele>
        <time>2020-08-16T09:08:10.000Z</time>
      </trkpt>
      <trkpt lat="47.30496" lon="-2.51014">
        <ele>8.3999996185303</ele>
        <time>2020-08-16T09:08:11.000Z</time>
      </trkpt>
      <trkpt lat="47.30501" lon="-2.51012">
        <ele>8.8000001907349</ele>
        <time>2020-08-16T09:08:12.000Z</time>
      </trkpt>
      <trkpt lat="47.30541" lon="-2.50989">
        <ele>8.8000001907349</ele>
        <time>2020-08-16T09:08:19.000Z</time>
      </trkpt>
      <trkpt lat="47.3057" lon="-2.50973">
        <ele>8.8000001907349</ele>
        <time>2020-08-16T09:08:24.000Z</time>
      </trkpt>
      <trkpt lat="47.30614" lon="-2.50939">
        <ele>8.8000001907349</ele>
        <time>2020-08-16T09:08:32.000Z</time>
      </trkpt>
      <trkpt lat="47.30645" lon="-2.50915">
        <ele>8.8000001907349</ele>
        <time>2020-08-16T09:08:38.000Z</time>
      </trkpt>
      <trkpt lat="47.30655" lon="-2.50908">
        <ele>8.8000001907349</ele>
        <time>2020-08-16T09:08:40.000Z</time>
      </trkpt>
      <trkpt lat="47.30685" lon="-2.50882">
        <ele>8.8000001907349</ele>
        <time>2020-08-16T09:08:46.000Z</time>
      </trkpt>
      <trkpt lat="47.30687" lon="-2.50875">
        <ele>8.8000001907349</ele>
        <time>2020-08-16T09:08:47.000Z</time>
      </trkpt>
      <trkpt lat="47.307" lon="-2.50859">
        <ele>8.8000001907349</ele>
        <time>2020-08-16T09:08:51.000Z</time>
      </trkpt>
      <trkpt lat="47.30704" lon="-2.50856">
        <ele>8.8000001907349</ele>
        <time>2020-08-16T09:08:52.000Z</time>
      </trkpt>
      <trkpt lat="47.30714" lon="-2.50846">
        <ele>8.8000001907349</ele>
        <time>2020-08-16T09:08:55.000Z</time>
      </trkpt>
      <trkpt lat="47.30721" lon="-2.50839">
        <ele>8.8000001907349</ele>
        <time>2020-08-16T09:08:57.000Z</time>
      </trkpt>
      <trkpt lat="47.30725" lon="-2.50835">
        <ele>8.8000001907349</ele>
        <time>2020-08-16T09:08:58.000Z</time>
      </trkpt>
      <trkpt lat="47.30739" lon="-2.5083">
        <ele>8.8000001907349</ele>
        <time>2020-08-16T09:09:01.000Z</time>
      </trkpt>
      <trkpt lat="47.30744" lon="-2.50829">
        <ele>8.8000001907349</ele>
        <time>2020-08-16T09:09:02.000Z</time>
      </trkpt>
      <trkpt lat="47.30749" lon="-2.50828">
        <ele>8.8000001907349</ele>
        <time>2020-08-16T09:09:03.000Z</time>
      </trkpt>
      <trkpt lat="47.30761" lon="-2.50821">
        <ele>8.8000001907349</ele>
        <time>2020-08-16T09:09:05.000Z</time>
      </trkpt>
      <trkpt lat="47.30809" lon="-2.50786">
        <ele>8.8000001907349</ele>
        <time>2020-08-16T09:09:14.000Z</time>
      </trkpt>
      <trkpt lat="47.30842" lon="-2.50759">
        <ele>8.8000001907349</ele>
        <time>2020-08-16T09:09:20.000Z</time>
      </trkpt>
      <trkpt lat="47.30881" lon="-2.50729">
        <ele>8.8000001907349</ele>
        <time>2020-08-16T09:09:27.000Z</time>
      </trkpt>
      <trkpt lat="47.30929" lon="-2.5069">
        <ele>8.8000001907349</ele>
        <time>2020-08-16T09:09:36.000Z</time>
      </trkpt>
      <trkpt lat="47.30935" lon="-2.50686">
        <ele>9.6000003814697</ele>
        <time>2020-08-16T09:09:37.000Z</time>
      </trkpt>
      <trkpt lat="47.3094" lon="-2.50682">
        <ele>10</ele>
        <time>2020-08-16T09:09:38.000Z</time>
      </trkpt>
      <trkpt lat="47.30945" lon="-2.50678">
        <ele>10.39999961853</ele>
        <time>2020-08-16T09:09:39.000Z</time>
      </trkpt>
      <trkpt lat="47.30951" lon="-2.50674">
        <ele>10.800000190735</ele>
        <time>2020-08-16T09:09:40.000Z</time>
      </trkpt>
      <trkpt lat="47.30972" lon="-2.50657">
        <ele>10.800000190735</ele>
        <time>2020-08-16T09:09:44.000Z</time>
      </trkpt>
      <trkpt lat="47.31014" lon="-2.50626">
        <ele>10.800000190735</ele>
        <time>2020-08-16T09:09:52.000Z</time>
      </trkpt>
      <trkpt lat="47.31025" lon="-2.50618">
        <ele>10.800000190735</ele>
        <time>2020-08-16T09:09:56.000Z</time>
      </trkpt>
      <trkpt lat="47.31044" lon="-2.50604">
        <ele>10.800000190735</ele>
        <time>2020-08-16T09:10:01.000Z</time>
      </trkpt>
      <trkpt lat="47.31074" lon="-2.5058">
        <ele>10.800000190735</ele>
        <time>2020-08-16T09:10:07.000Z</time>
      </trkpt>
      <trkpt lat="47.31116" lon="-2.50548">
        <ele>10.800000190735</ele>
        <time>2020-08-16T09:10:14.000Z</time>
      </trkpt>
      <trkpt lat="47.31162" lon="-2.50505">
        <ele>10.800000190735</ele>
        <time>2020-08-16T09:10:22.000Z</time>
      </trkpt>
      <trkpt lat="47.31206" lon="-2.50452">
        <ele>10.800000190735</ele>
        <time>2020-08-16T09:10:30.000Z</time>
      </trkpt>
      <trkpt lat="47.31215" lon="-2.50439">
        <ele>10.800000190735</ele>
        <time>2020-08-16T09:10:32.000Z</time>
      </trkpt>
      <trkpt lat="47.3124" lon="-2.50406">
        <ele>10.39999961853</ele>
        <time>2020-08-16T09:10:37.000Z</time>
      </trkpt>
      <trkpt lat="47.31245" lon="-2.504">
        <ele>10</ele>
        <time>2020-08-16T09:10:38.000Z</time>
      </trkpt>
      <trkpt lat="47.3125" lon="-2.50394">
        <ele>9.6000003814697</ele>
        <time>2020-08-16T09:10:39.000Z</time>
      </trkpt>
      <trkpt lat="47.31255" lon="-2.50389">
        <ele>9.1999998092651</ele>
        <time>2020-08-16T09:10:40.000Z</time>
      </trkpt>
      <trkpt lat="47.31259" lon="-2.50383">
        <ele>8.8000001907349</ele>
        <time>2020-08-16T09:10:41.000Z</time>
      </trkpt>
      <trkpt lat="47.3128" lon="-2.50354">
        <ele>8.8000001907349</ele>
        <time>2020-08-16T09:10:46.000Z</time>
      </trkpt>
      <trkpt lat="47.31313" lon="-2.50309">
        <ele>8.8000001907349</ele>
        <time>2020-08-16T09:10:54.000Z</time>
      </trkpt>
      <trkpt lat="47.3135" lon="-2.50253">
        <ele>8.8000001907349</ele>
        <time>2020-08-16T09:11:02.000Z</time>
      </trkpt>
      <trkpt lat="47.31392" lon="-2.50192">
        <ele>8.8000001907349</ele>
        <time>2020-08-16T09:11:11.000Z</time>
      </trkpt>
      <trkpt lat="47.31433" lon="-2.50131">
        <ele>8.8000001907349</ele>
        <time>2020-08-16T09:11:20.000Z</time>
      </trkpt>
      <trkpt lat="47.31463" lon="-2.50085">
        <ele>8.8000001907349</ele>
        <time>2020-08-16T09:11:27.000Z</time>
      </trkpt>
      <trkpt lat="47.31502" lon="-2.50027">
        <ele>8.8000001907349</ele>
        <time>2020-08-16T09:11:36.000Z</time>
      </trkpt>
      <trkpt lat="47.31538" lon="-2.49975">
        <ele>8.8000001907349</ele>
        <time>2020-08-16T09:11:44.000Z</time>
      </trkpt>
      <trkpt lat="47.31579" lon="-2.49912">
        <ele>8.8000001907349</ele>
        <time>2020-08-16T09:11:53.000Z</time>
      </trkpt>
      <trkpt lat="47.31611" lon="-2.49865">
        <ele>8.8000001907349</ele>
        <time>2020-08-16T09:12:00.000Z</time>
      </trkpt>
      <trkpt lat="47.31646" lon="-2.49812">
        <ele>8.8000001907349</ele>
        <time>2020-08-16T09:12:08.000Z</time>
      </trkpt>
      <trkpt lat="47.31681" lon="-2.49756">
        <ele>8.8000001907349</ele>
        <time>2020-08-16T09:12:16.000Z</time>
      </trkpt>
      <trkpt lat="47.31699" lon="-2.49728">
        <ele>8.8000001907349</ele>
        <time>2020-08-16T09:12:20.000Z</time>
      </trkpt>
      <trkpt lat="47.31709" lon="-2.49715">
        <ele>8.8000001907349</ele>
        <time>2020-08-16T09:12:22.000Z</time>
      </trkpt>
      <trkpt lat="47.31723" lon="-2.49695">
        <ele>8.8000001907349</ele>
        <time>2020-08-16T09:12:25.000Z</time>
      </trkpt>
      <trkpt lat="47.31737" lon="-2.49674">
        <ele>8.8000001907349</ele>
        <time>2020-08-16T09:12:28.000Z</time>
      </trkpt>
      <trkpt lat="47.31772" lon="-2.49621">
        <ele>8.8000001907349</ele>
        <time>2020-08-16T09:12:36.000Z</time>
      </trkpt>
      <trkpt lat="47.31806" lon="-2.49565">
        <ele>8.8000001907349</ele>
        <time>2020-08-16T09:12:44.000Z</time>
      </trkpt>
      <trkpt lat="47.31838" lon="-2.49516">
        <ele>8.8000001907349</ele>
        <time>2020-08-16T09:12:51.000Z</time>
      </trkpt>
      <trkpt lat="47.31866" lon="-2.49475">
        <ele>8.8000001907349</ele>
        <time>2020-08-16T09:12:57.000Z</time>
      </trkpt>
      <trkpt lat="47.31899" lon="-2.49427">
        <ele>8.8000001907349</ele>
        <time>2020-08-16T09:13:04.000Z</time>
      </trkpt>
      <trkpt lat="47.31935" lon="-2.49369">
        <ele>8.8000001907349</ele>
        <time>2020-08-16T09:13:12.000Z</time>
      </trkpt>
      <trkpt lat="47.31964" lon="-2.49325">
        <ele>8.8000001907349</ele>
        <time>2020-08-16T09:13:18.000Z</time>
      </trkpt>
      <trkpt lat="47.31988" lon="-2.49289">
        <ele>8.8000001907349</ele>
        <time>2020-08-16T09:13:23.000Z</time>
      </trkpt>
      <trkpt lat="47.32025" lon="-2.49229">
        <ele>8.8000001907349</ele>
        <time>2020-08-16T09:13:31.000Z</time>
      </trkpt>
      <trkpt lat="47.32029" lon="-2.49221">
        <ele>8.8000001907349</ele>
        <time>2020-08-16T09:13:32.000Z</time>
      </trkpt>
      <trkpt lat="47.3206" lon="-2.49171">
        <ele>8.8000001907349</ele>
        <time>2020-08-16T09:13:39.000Z</time>
      </trkpt>
      <trkpt lat="47.32093" lon="-2.49127">
        <ele>8.8000001907349</ele>
        <time>2020-08-16T09:13:46.000Z</time>
      </trkpt>
      <trkpt lat="47.32122" lon="-2.49088">
        <ele>8.3999996185303</ele>
        <time>2020-08-16T09:13:52.000Z</time>
      </trkpt>
      <trkpt lat="47.32126" lon="-2.4908">
        <ele>8</ele>
        <time>2020-08-16T09:13:53.000Z</time>
      </trkpt>
      <trkpt lat="47.32129" lon="-2.49071">
        <ele>7.5999999046326</ele>
        <time>2020-08-16T09:13:54.000Z</time>
      </trkpt>
      <trkpt lat="47.32132" lon="-2.49063">
        <ele>7.1999998092651</ele>
        <time>2020-08-16T09:13:55.000Z</time>
      </trkpt>
      <trkpt lat="47.32134" lon="-2.49053">
        <ele>6.8000001907349</ele>
        <time>2020-08-16T09:13:56.000Z</time>
      </trkpt>
      <trkpt lat="47.32136" lon="-2.49044">
        <ele>6.8000001907349</ele>
        <time>2020-08-16T09:13:57.000Z</time>
      </trkpt>
      <trkpt lat="47.3214" lon="-2.49003">
        <ele>6.8000001907349</ele>
        <time>2020-08-16T09:14:01.000Z</time>
      </trkpt>
      <trkpt lat="47.32137" lon="-2.48953">
        <ele>6.8000001907349</ele>
        <time>2020-08-16T09:14:06.000Z</time>
      </trkpt>
      <trkpt lat="47.32138" lon="-2.48935">
        <ele>6.8000001907349</ele>
        <time>2020-08-16T09:14:08.000Z</time>
      </trkpt>
      <trkpt lat="47.32142" lon="-2.48917">
        <ele>6.8000001907349</ele>
        <time>2020-08-16T09:14:10.000Z</time>
      </trkpt>
      <trkpt lat="47.32149" lon="-2.48901">
        <ele>6.8000001907349</ele>
        <time>2020-08-16T09:14:12.000Z</time>
      </trkpt>
      <trkpt lat="47.32164" lon="-2.48871">
        <ele>6.8000001907349</ele>
        <time>2020-08-16T09:14:16.000Z</time>
      </trkpt>
      <trkpt lat="47.32197" lon="-2.48812">
        <ele>6.8000001907349</ele>
        <time>2020-08-16T09:14:24.000Z</time>
      </trkpt>
      <trkpt lat="47.3221" lon="-2.48792">
        <ele>6.8000001907349</ele>
        <time>2020-08-16T09:14:27.000Z</time>
      </trkpt>
      <trkpt lat="47.32217" lon="-2.48777">
        <ele>6.8000001907349</ele>
        <time>2020-08-16T09:14:29.000Z</time>
      </trkpt>
      <trkpt lat="47.32233" lon="-2.48732">
        <ele>6.8000001907349</ele>
        <time>2020-08-16T09:14:34.000Z</time>
      </trkpt>
      <trkpt lat="47.32235" lon="-2.48723">
        <ele>6.8000001907349</ele>
        <time>2020-08-16T09:14:35.000Z</time>
      </trkpt>
      <trkpt lat="47.32247" lon="-2.48678">
        <ele>6.8000001907349</ele>
        <time>2020-08-16T09:14:40.000Z</time>
      </trkpt>
      <trkpt lat="47.32252" lon="-2.48671">
        <ele>6.8000001907349</ele>
        <time>2020-08-16T09:14:41.000Z</time>
      </trkpt>
      <trkpt lat="47.3228" lon="-2.48641">
        <ele>6.8000001907349</ele>
        <time>2020-08-16T09:14:46.000Z</time>
      </trkpt>
      <trkpt lat="47.32286" lon="-2.48636">
        <ele>6.8000001907349</ele>
        <time>2020-08-16T09:14:47.000Z</time>
      </trkpt>
      <trkpt lat="47.32323" lon="-2.4861">
        <ele>6.8000001907349</ele>
        <time>2020-08-16T09:14:53.000Z</time>
      </trkpt>
      <trkpt lat="47.32374" lon="-2.48576">
        <ele>6.8000001907349</ele>
        <time>2020-08-16T09:15:01.000Z</time>
      </trkpt>
      <trkpt lat="47.32399" lon="-2.48567">
        <ele>6.8000001907349</ele>
        <time>2020-08-16T09:15:05.000Z</time>
      </trkpt>
      <trkpt lat="47.32406" lon="-2.48567">
        <ele>6.8000001907349</ele>
        <time>2020-08-16T09:15:06.000Z</time>
      </trkpt>
      <trkpt lat="47.32447" lon="-2.48575">
        <ele>6.8000001907349</ele>
        <time>2020-08-16T09:15:12.000Z</time>
      </trkpt>
      <trkpt lat="47.32473" lon="-2.48587">
        <ele>6.8000001907349</ele>
        <time>2020-08-16T09:15:16.000Z</time>
      </trkpt>
      <trkpt lat="47.32486" lon="-2.48597">
        <ele>6.8000001907349</ele>
        <time>2020-08-16T09:15:18.000Z</time>
      </trkpt>
      <trkpt lat="47.32524" lon="-2.48634">
        <ele>6.8000001907349</ele>
        <time>2020-08-16T09:15:24.000Z</time>
      </trkpt>
      <trkpt lat="47.32555" lon="-2.48662">
        <ele>6.8000001907349</ele>
        <time>2020-08-16T09:15:29.000Z</time>
      </trkpt>
      <trkpt lat="47.32569" lon="-2.48669">
        <ele>6.8000001907349</ele>
        <time>2020-08-16T09:15:31.000Z</time>
      </trkpt>
      <trkpt lat="47.32599" lon="-2.48673">
        <ele>6.8000001907349</ele>
        <time>2020-08-16T09:15:35.000Z</time>
      </trkpt>
      <trkpt lat="47.32614" lon="-2.4867">
        <ele>6.8000001907349</ele>
        <time>2020-08-16T09:15:37.000Z</time>
      </trkpt>
      <trkpt lat="47.32637" lon="-2.48662">
        <ele>6.8000001907349</ele>
        <time>2020-08-16T09:15:40.000Z</time>
      </trkpt>
      <trkpt lat="47.32689" lon="-2.48637">
        <ele>6.8000001907349</ele>
        <time>2020-08-16T09:15:47.000Z</time>
      </trkpt>
      <trkpt lat="47.32696" lon="-2.48633">
        <ele>6.8000001907349</ele>
        <time>2020-08-16T09:15:48.000Z</time>
      </trkpt>
      <trkpt lat="47.32751" lon="-2.48602">
        <ele>6.8000001907349</ele>
        <time>2020-08-16T09:15:56.000Z</time>
      </trkpt>
      <trkpt lat="47.32757" lon="-2.48599">
        <ele>6.8000001907349</ele>
        <time>2020-08-16T09:15:57.000Z</time>
      </trkpt>
      <trkpt lat="47.32799" lon="-2.48589">
        <ele>6.8000001907349</ele>
        <time>2020-08-16T09:16:03.000Z</time>
      </trkpt>
      <trkpt lat="47.32859" lon="-2.4859">
        <ele>6.8000001907349</ele>
        <time>2020-08-16T09:16:11.000Z</time>
      </trkpt>
      <trkpt lat="47.3289" lon="-2.48586">
        <ele>6.8000001907349</ele>
        <time>2020-08-16T09:16:15.000Z</time>
      </trkpt>
      <trkpt lat="47.32897" lon="-2.48582">
        <ele>6.8000001907349</ele>
        <time>2020-08-16T09:16:16.000Z</time>
      </trkpt>
      <trkpt lat="47.32917" lon="-2.48561">
        <ele>6.8000001907349</ele>
        <time>2020-08-16T09:16:19.000Z</time>
      </trkpt>
      <trkpt lat="47.32923" lon="-2.48554">
        <ele>6.8000001907349</ele>
        <time>2020-08-16T09:16:20.000Z</time>
      </trkpt>
      <trkpt lat="47.32962" lon="-2.48511">
        <ele>6.8000001907349</ele>
        <time>2020-08-16T09:16:26.000Z</time>
      </trkpt>
      <trkpt lat="47.33011" lon="-2.48474">
        <ele>6.8000001907349</ele>
        <time>2020-08-16T09:16:33.000Z</time>
      </trkpt>
      <trkpt lat="47.33063" lon="-2.48441">
        <ele>6.8000001907349</ele>
        <time>2020-08-16T09:16:40.000Z</time>
      </trkpt>
      <trkpt lat="47.33102" lon="-2.48416">
        <ele>6.8000001907349</ele>
        <time>2020-08-16T09:16:46.000Z</time>
      </trkpt>
      <trkpt lat="47.33131" lon="-2.48388">
        <ele>6.8000001907349</ele>
        <time>2020-08-16T09:16:51.000Z</time>
      </trkpt>
      <trkpt lat="47.3314" lon="-2.48367">
        <ele>6.8000001907349</ele>
        <time>2020-08-16T09:16:54.000Z</time>
      </trkpt>
      <trkpt lat="47.33146" lon="-2.48344">
        <ele>6.8000001907349</ele>
        <time>2020-08-16T09:16:59.000Z</time>
      </trkpt>
      <trkpt lat="47.33147" lon="-2.48329">
        <ele>6.8000001907349</ele>
        <time>2020-08-16T09:17:02.000Z</time>
      </trkpt>
      <trkpt lat="47.33147" lon="-2.48314">
        <ele>6.8000001907349</ele>
        <time>2020-08-16T09:17:04.000Z</time>
      </trkpt>
      <trkpt lat="47.33147" lon="-2.48299">
        <ele>6.8000001907349</ele>
        <time>2020-08-16T09:17:06.000Z</time>
      </trkpt>
      <trkpt lat="47.33144" lon="-2.48264">
        <ele>6.8000001907349</ele>
        <time>2020-08-16T09:17:10.000Z</time>
      </trkpt>
      <trkpt lat="47.33141" lon="-2.48187">
        <ele>6.8000001907349</ele>
        <time>2020-08-16T09:17:18.000Z</time>
      </trkpt>
      <trkpt lat="47.33144" lon="-2.48107">
        <ele>6.8000001907349</ele>
        <time>2020-08-16T09:17:26.000Z</time>
      </trkpt>
      <trkpt lat="47.33144" lon="-2.48097">
        <ele>6.8000001907349</ele>
        <time>2020-08-16T09:17:27.000Z</time>
      </trkpt>
      <trkpt lat="47.33147" lon="-2.48014">
        <ele>6.8000001907349</ele>
        <time>2020-08-16T09:17:35.000Z</time>
      </trkpt>
      <trkpt lat="47.33149" lon="-2.47939">
        <ele>6.8000001907349</ele>
        <time>2020-08-16T09:17:42.000Z</time>
      </trkpt>
      <trkpt lat="47.33146" lon="-2.47918">
        <ele>6.8000001907349</ele>
        <time>2020-08-16T09:17:44.000Z</time>
      </trkpt>
      <trkpt lat="47.33138" lon="-2.47888">
        <ele>6.8000001907349</ele>
        <time>2020-08-16T09:17:47.000Z</time>
      </trkpt>
      <trkpt lat="47.3312" lon="-2.47842">
        <ele>6.8000001907349</ele>
        <time>2020-08-16T09:17:52.000Z</time>
      </trkpt>
      <trkpt lat="47.33115" lon="-2.47834">
        <ele>6.8000001907349</ele>
        <time>2020-08-16T09:17:53.000Z</time>
      </trkpt>
      <trkpt lat="47.33089" lon="-2.47814">
        <ele>6.8000001907349</ele>
        <time>2020-08-16T09:17:57.000Z</time>
      </trkpt>
      <trkpt lat="47.33082" lon="-2.47811">
        <ele>6.8000001907349</ele>
        <time>2020-08-16T09:17:58.000Z</time>
      </trkpt>
      <trkpt lat="47.3304" lon="-2.47797">
        <ele>6.8000001907349</ele>
        <time>2020-08-16T09:18:04.000Z</time>
      </trkpt>
      <trkpt lat="47.33026" lon="-2.47793">
        <ele>7.1999998092651</ele>
        <time>2020-08-16T09:18:06.000Z</time>
      </trkpt>
      <trkpt lat="47.3302" lon="-2.4779">
        <ele>7.5999999046326</ele>
        <time>2020-08-16T09:18:07.000Z</time>
      </trkpt>
      <trkpt lat="47.33013" lon="-2.47786">
        <ele>8</ele>
        <time>2020-08-16T09:18:08.000Z</time>
      </trkpt>
      <trkpt lat="47.33007" lon="-2.47782">
        <ele>8.3999996185303</ele>
        <time>2020-08-16T09:18:09.000Z</time>
      </trkpt>
      <trkpt lat="47.33001" lon="-2.47778">
        <ele>8.8000001907349</ele>
        <time>2020-08-16T09:18:10.000Z</time>
      </trkpt>
      <trkpt lat="47.32989" lon="-2.47769">
        <ele>8.8000001907349</ele>
        <time>2020-08-16T09:18:12.000Z</time>
      </trkpt>
      <trkpt lat="47.32968" lon="-2.47748">
        <ele>8.8000001907349</ele>
        <time>2020-08-16T09:18:16.000Z</time>
      </trkpt>
      <trkpt lat="47.32944" lon="-2.47713">
        <ele>8.8000001907349</ele>
        <time>2020-08-16T09:18:21.000Z</time>
      </trkpt>
      <trkpt lat="47.3294" lon="-2.47705">
        <ele>8.8000001907349</ele>
        <time>2020-08-16T09:18:22.000Z</time>
      </trkpt>
      <trkpt lat="47.32931" lon="-2.47665">
        <ele>8.8000001907349</ele>
        <time>2020-08-16T09:18:26.000Z</time>
      </trkpt>
      <trkpt lat="47.32919" lon="-2.47598">
        <ele>8.8000001907349</ele>
        <time>2020-08-16T09:18:33.000Z</time>
      </trkpt>
      <trkpt lat="47.32919" lon="-2.47549">
        <ele>8.8000001907349</ele>
        <time>2020-08-16T09:18:38.000Z</time>
      </trkpt>
      <trkpt lat="47.3292" lon="-2.47529">
        <ele>8.8000001907349</ele>
        <time>2020-08-16T09:18:40.000Z</time>
      </trkpt>
      <trkpt lat="47.32917" lon="-2.47499">
        <ele>8.8000001907349</ele>
        <time>2020-08-16T09:18:43.000Z</time>
      </trkpt>
      <trkpt lat="47.32902" lon="-2.47424">
        <ele>8.8000001907349</ele>
        <time>2020-08-16T09:18:51.000Z</time>
      </trkpt>
      <trkpt lat="47.32893" lon="-2.47365">
        <ele>8.8000001907349</ele>
        <time>2020-08-16T09:18:57.000Z</time>
      </trkpt>
      <trkpt lat="47.32883" lon="-2.47292">
        <ele>8.8000001907349</ele>
        <time>2020-08-16T09:19:05.000Z</time>
      </trkpt>
      <trkpt lat="47.32873" lon="-2.47235">
        <ele>8.8000001907349</ele>
        <time>2020-08-16T09:19:11.000Z</time>
      </trkpt>
      <trkpt lat="47.32859" lon="-2.47155">
        <ele>8.8000001907349</ele>
        <time>2020-08-16T09:19:19.000Z</time>
      </trkpt>
      <trkpt lat="47.32858" lon="-2.47145">
        <ele>8.8000001907349</ele>
        <time>2020-08-16T09:19:20.000Z</time>
      </trkpt>
      <trkpt lat="47.32842" lon="-2.47064">
        <ele>8.8000001907349</ele>
        <time>2020-08-16T09:19:28.000Z</time>
      </trkpt>
      <trkpt lat="47.32824" lon="-2.47009">
        <ele>8.8000001907349</ele>
        <time>2020-08-16T09:19:34.000Z</time>
      </trkpt>
      <trkpt lat="47.32794" lon="-2.46938">
        <ele>8.8000001907349</ele>
        <time>2020-08-16T09:19:42.000Z</time>
      </trkpt>
      <trkpt lat="47.32783" lon="-2.46898">
        <ele>8.8000001907349</ele>
        <time>2020-08-16T09:19:46.000Z</time>
      </trkpt>
      <trkpt lat="47.32779" lon="-2.46878">
        <ele>8.8000001907349</ele>
        <time>2020-08-16T09:19:48.000Z</time>
      </trkpt>
      <trkpt lat="47.32769" lon="-2.46837">
        <ele>8.8000001907349</ele>
        <time>2020-08-16T09:19:52.000Z</time>
      </trkpt>
      <trkpt lat="47.32762" lon="-2.46818">
        <ele>8.8000001907349</ele>
        <time>2020-08-16T09:19:54.000Z</time>
      </trkpt>
      <trkpt lat="47.32758" lon="-2.4681">
        <ele>8.8000001907349</ele>
        <time>2020-08-16T09:19:55.000Z</time>
      </trkpt>
      <trkpt lat="47.32728" lon="-2.46751">
        <ele>8.8000001907349</ele>
        <time>2020-08-16T09:20:02.000Z</time>
      </trkpt>
      <trkpt lat="47.32718" lon="-2.46735">
        <ele>8.8000001907349</ele>
        <time>2020-08-16T09:20:04.000Z</time>
      </trkpt>
      <trkpt lat="47.32702" lon="-2.46715">
        <ele>8.8000001907349</ele>
        <time>2020-08-16T09:20:07.000Z</time>
      </trkpt>
      <trkpt lat="47.32667" lon="-2.46685">
        <ele>8.8000001907349</ele>
        <time>2020-08-16T09:20:13.000Z</time>
      </trkpt>
      <trkpt lat="47.32619" lon="-2.46643">
        <ele>8.8000001907349</ele>
        <time>2020-08-16T09:20:21.000Z</time>
      </trkpt>
      <trkpt lat="47.32595" lon="-2.46607">
        <ele>8.8000001907349</ele>
        <time>2020-08-16T09:20:26.000Z</time>
      </trkpt>
      <trkpt lat="47.32561" lon="-2.46556">
        <ele>8.8000001907349</ele>
        <time>2020-08-16T09:20:33.000Z</time>
      </trkpt>
      <trkpt lat="47.3254" lon="-2.4653">
        <ele>8.8000001907349</ele>
        <time>2020-08-16T09:20:37.000Z</time>
      </trkpt>
      <trkpt lat="47.32532" lon="-2.46514">
        <ele>8.8000001907349</ele>
        <time>2020-08-16T09:20:39.000Z</time>
      </trkpt>
      <trkpt lat="47.32504" lon="-2.46447">
        <ele>8.8000001907349</ele>
        <time>2020-08-16T09:20:47.000Z</time>
      </trkpt>
      <trkpt lat="47.32481" lon="-2.4641">
        <ele>8.8000001907349</ele>
        <time>2020-08-16T09:20:52.000Z</time>
      </trkpt>
      <trkpt lat="47.32454" lon="-2.4637">
        <ele>8.8000001907349</ele>
        <time>2020-08-16T09:20:58.000Z</time>
      </trkpt>
      <trkpt lat="47.3245" lon="-2.46362">
        <ele>8.8000001907349</ele>
        <time>2020-08-16T09:20:59.000Z</time>
      </trkpt>
      <trkpt lat="47.32437" lon="-2.46329">
        <ele>8.8000001907349</ele>
        <time>2020-08-16T09:21:03.000Z</time>
      </trkpt>
      <trkpt lat="47.32414" lon="-2.4627">
        <ele>8.8000001907349</ele>
        <time>2020-08-16T09:21:10.000Z</time>
      </trkpt>
      <trkpt lat="47.32385" lon="-2.46218">
        <ele>8.8000001907349</ele>
        <time>2020-08-16T09:21:17.000Z</time>
      </trkpt>
      <trkpt lat="47.3235" lon="-2.46158">
        <ele>8.8000001907349</ele>
        <time>2020-08-16T09:21:25.000Z</time>
      </trkpt>
      <trkpt lat="47.32321" lon="-2.46116">
        <ele>8.8000001907349</ele>
        <time>2020-08-16T09:21:31.000Z</time>
      </trkpt>
      <trkpt lat="47.32296" lon="-2.46072">
        <ele>8.8000001907349</ele>
        <time>2020-08-16T09:21:37.000Z</time>
      </trkpt>
      <trkpt lat="47.32282" lon="-2.46043">
        <ele>8.8000001907349</ele>
        <time>2020-08-16T09:21:41.000Z</time>
      </trkpt>
      <trkpt lat="47.32272" lon="-2.46019">
        <ele>8.8000001907349</ele>
        <time>2020-08-16T09:21:44.000Z</time>
      </trkpt>
      <trkpt lat="47.32258" lon="-2.45989">
        <ele>8.8000001907349</ele>
        <time>2020-08-16T09:21:48.000Z</time>
      </trkpt>
      <trkpt lat="47.32253" lon="-2.45983">
        <ele>8.8000001907349</ele>
        <time>2020-08-16T09:21:49.000Z</time>
      </trkpt>
      <trkpt lat="47.32229" lon="-2.45955">
        <ele>8.8000001907349</ele>
        <time>2020-08-16T09:21:54.000Z</time>
      </trkpt>
      <trkpt lat="47.32225" lon="-2.45948">
        <ele>8.8000001907349</ele>
        <time>2020-08-16T09:21:55.000Z</time>
      </trkpt>
      <trkpt lat="47.32205" lon="-2.45901">
        <ele>8.8000001907349</ele>
        <time>2020-08-16T09:22:01.000Z</time>
      </trkpt>
      <trkpt lat="47.3218" lon="-2.45844">
        <ele>8.8000001907349</ele>
        <time>2020-08-16T09:22:08.000Z</time>
      </trkpt>
      <trkpt lat="47.32158" lon="-2.458">
        <ele>8.8000001907349</ele>
        <time>2020-08-16T09:22:14.000Z</time>
      </trkpt>
      <trkpt lat="47.32131" lon="-2.45761">
        <ele>8.8000001907349</ele>
        <time>2020-08-16T09:22:20.000Z</time>
      </trkpt>
      <trkpt lat="47.32101" lon="-2.45744">
        <ele>8.8000001907349</ele>
        <time>2020-08-16T09:22:25.000Z</time>
      </trkpt>
      <trkpt lat="47.32069" lon="-2.45729">
        <ele>8.8000001907349</ele>
        <time>2020-08-16T09:22:31.000Z</time>
      </trkpt>
      <trkpt lat="47.32035" lon="-2.45706">
        <ele>8.8000001907349</ele>
        <time>2020-08-16T09:22:39.000Z</time>
      </trkpt>
      <trkpt lat="47.31994" lon="-2.45671">
        <ele>8.8000001907349</ele>
        <time>2020-08-16T09:22:48.000Z</time>
      </trkpt>
      <trkpt lat="47.31971" lon="-2.45636">
        <ele>8.8000001907349</ele>
        <time>2020-08-16T09:22:53.000Z</time>
      </trkpt>
      <trkpt lat="47.31947" lon="-2.45582">
        <ele>8.8000001907349</ele>
        <time>2020-08-16T09:22:59.000Z</time>
      </trkpt>
      <trkpt lat="47.31927" lon="-2.45537">
        <ele>8.8000001907349</ele>
        <time>2020-08-16T09:23:04.000Z</time>
      </trkpt>
      <trkpt lat="47.31923" lon="-2.45529">
        <ele>8.8000001907349</ele>
        <time>2020-08-16T09:23:05.000Z</time>
      </trkpt>
      <trkpt lat="47.31892" lon="-2.45488">
        <ele>8.8000001907349</ele>
        <time>2020-08-16T09:23:11.000Z</time>
      </trkpt>
      <trkpt lat="47.31854" lon="-2.45433">
        <ele>8.8000001907349</ele>
        <time>2020-08-16T09:23:19.000Z</time>
      </trkpt>
      <trkpt lat="47.31817" lon="-2.45375">
        <ele>8.8000001907349</ele>
        <time>2020-08-16T09:23:27.000Z</time>
      </trkpt>
      <trkpt lat="47.31785" lon="-2.45342">
        <ele>8.8000001907349</ele>
        <time>2020-08-16T09:23:33.000Z</time>
      </trkpt>
      <trkpt lat="47.31767" lon="-2.45333">
        <ele>8.8000001907349</ele>
        <time>2020-08-16T09:23:36.000Z</time>
      </trkpt>
      <trkpt lat="47.31756" lon="-2.45335">
        <ele>8.8000001907349</ele>
        <time>2020-08-16T09:23:38.000Z</time>
      </trkpt>
      <trkpt lat="47.31742" lon="-2.45343">
        <ele>8.8000001907349</ele>
        <time>2020-08-16T09:23:41.000Z</time>
      </trkpt>
      <trkpt lat="47.31738" lon="-2.45346">
        <ele>8.8000001907349</ele>
        <time>2020-08-16T09:23:42.000Z</time>
      </trkpt>
      <trkpt lat="47.31723" lon="-2.45353">
        <ele>8.8000001907349</ele>
        <time>2020-08-16T09:23:47.000Z</time>
      </trkpt>
      <trkpt lat="47.31711" lon="-2.45355">
        <ele>8.8000001907349</ele>
        <time>2020-08-16T09:23:53.000Z</time>
      </trkpt>
      <trkpt lat="47.31708" lon="-2.45355">
        <ele>8.3999996185303</ele>
        <time>2020-08-16T09:23:54.000Z</time>
      </trkpt>
      <trkpt lat="47.31706" lon="-2.45355">
        <ele>7.5999999046326</ele>
        <time>2020-08-16T09:23:55.000Z</time>
      </trkpt>
      <trkpt lat="47.31703" lon="-2.45354">
        <ele>7.1999998092651</ele>
        <time>2020-08-16T09:23:56.000Z</time>
      </trkpt>
      <trkpt lat="47.31701" lon="-2.45353">
        <ele>6.8000001907349</ele>
        <time>2020-08-16T09:23:57.000Z</time>
      </trkpt>
      <trkpt lat="47.317" lon="-2.45352">
        <ele>6.8000001907349</ele>
        <time>2020-08-16T09:23:58.000Z</time>
      </trkpt>
      <trkpt lat="47.317" lon="-2.45352">
        <ele>6.8000001907349</ele>
        <time>2020-08-16T09:23:59.000Z</time>
      </trkpt>
      <trkpt lat="47.31699" lon="-2.4535">
        <ele>6.8000001907349</ele>
        <time>2020-08-16T09:24:04.000Z</time>
      </trkpt>
      <trkpt lat="47.31698" lon="-2.45349">
        <ele>6.8000001907349</ele>
        <time>2020-08-16T09:24:05.000Z</time>
      </trkpt>
      <trkpt lat="47.31688" lon="-2.45337">
        <ele>6.8000001907349</ele>
        <time>2020-08-16T09:24:10.000Z</time>
      </trkpt>
      <trkpt lat="47.31671" lon="-2.45314">
        <ele>6.8000001907349</ele>
        <time>2020-08-16T09:24:15.000Z</time>
      </trkpt>
      <trkpt lat="47.31662" lon="-2.45305">
        <ele>6.8000001907349</ele>
        <time>2020-08-16T09:24:17.000Z</time>
      </trkpt>
      <trkpt lat="47.31652" lon="-2.453">
        <ele>6.8000001907349</ele>
        <time>2020-08-16T09:24:19.000Z</time>
      </trkpt>
      <trkpt lat="47.31636" lon="-2.45297">
        <ele>6.8000001907349</ele>
        <time>2020-08-16T09:24:22.000Z</time>
      </trkpt>
      <trkpt lat="47.31621" lon="-2.45296">
        <ele>6.8000001907349</ele>
        <time>2020-08-16T09:24:25.000Z</time>
      </trkpt>
      <trkpt lat="47.31579" lon="-2.45289">
        <ele>6.8000001907349</ele>
        <time>2020-08-16T09:24:33.000Z</time>
      </trkpt>
      <trkpt lat="47.31546" lon="-2.45273">
        <ele>6.8000001907349</ele>
        <time>2020-08-16T09:24:39.000Z</time>
      </trkpt>
      <trkpt lat="47.31527" lon="-2.45266">
        <ele>6.8000001907349</ele>
        <time>2020-08-16T09:24:42.000Z</time>
      </trkpt>
      <trkpt lat="47.31515" lon="-2.45267">
        <ele>6.8000001907349</ele>
        <time>2020-08-16T09:24:44.000Z</time>
      </trkpt>
      <trkpt lat="47.31502" lon="-2.4527">
        <ele>6.8000001907349</ele>
        <time>2020-08-16T09:24:46.000Z</time>
      </trkpt>
      <trkpt lat="47.31477" lon="-2.45274">
        <ele>6.8000001907349</ele>
        <time>2020-08-16T09:24:50.000Z</time>
      </trkpt>
      <trkpt lat="47.31428" lon="-2.45272">
        <ele>6.8000001907349</ele>
        <time>2020-08-16T09:24:58.000Z</time>
      </trkpt>
      <trkpt lat="47.31416" lon="-2.45269">
        <ele>6.8000001907349</ele>
        <time>2020-08-16T09:25:00.000Z</time>
      </trkpt>
      <trkpt lat="47.31396" lon="-2.4527">
        <ele>6.8000001907349</ele>
        <time>2020-08-16T09:25:03.000Z</time>
      </trkpt>
      <trkpt lat="47.31352" lon="-2.45273">
        <ele>6.8000001907349</ele>
        <time>2020-08-16T09:25:10.000Z</time>
      </trkpt>
      <trkpt lat="47.31302" lon="-2.45285">
        <ele>6.8000001907349</ele>
        <time>2020-08-16T09:25:18.000Z</time>
      </trkpt>
      <trkpt lat="47.31261" lon="-2.45308">
        <ele>6.8000001907349</ele>
        <time>2020-08-16T09:25:25.000Z</time>
      </trkpt>
      <trkpt lat="47.31239" lon="-2.45327">
        <ele>6.8000001907349</ele>
        <time>2020-08-16T09:25:29.000Z</time>
      </trkpt>
      <trkpt lat="47.31235" lon="-2.45334">
        <ele>6.8000001907349</ele>
        <time>2020-08-16T09:25:30.000Z</time>
      </trkpt>
      <trkpt lat="47.31224" lon="-2.45366">
        <ele>6.8000001907349</ele>
        <time>2020-08-16T09:25:34.000Z</time>
      </trkpt>
      <trkpt lat="47.31221" lon="-2.45374">
        <ele>6.8000001907349</ele>
        <time>2020-08-16T09:25:35.000Z</time>
      </trkpt>
      <trkpt lat="47.31203" lon="-2.45432">
        <ele>6.8000001907349</ele>
        <time>2020-08-16T09:25:42.000Z</time>
      </trkpt>
      <trkpt lat="47.31179" lon="-2.45486">
        <ele>6.8000001907349</ele>
        <time>2020-08-16T09:25:49.000Z</time>
      </trkpt>
      <trkpt lat="47.31175" lon="-2.45492">
        <ele>6.8000001907349</ele>
        <time>2020-08-16T09:25:50.000Z</time>
      </trkpt>
      <trkpt lat="47.31165" lon="-2.45501">
        <ele>7.1999998092651</ele>
        <time>2020-08-16T09:25:52.000Z</time>
      </trkpt>
      <trkpt lat="47.31159" lon="-2.45504">
        <ele>7.5999999046326</ele>
        <time>2020-08-16T09:25:53.000Z</time>
      </trkpt>
      <trkpt lat="47.31153" lon="-2.45507">
        <ele>8</ele>
        <time>2020-08-16T09:25:54.000Z</time>
      </trkpt>
      <trkpt lat="47.31147" lon="-2.4551">
        <ele>8.3999996185303</ele>
        <time>2020-08-16T09:25:55.000Z</time>
      </trkpt>
      <trkpt lat="47.31141" lon="-2.45514">
        <ele>8.8000001907349</ele>
        <time>2020-08-16T09:25:56.000Z</time>
      </trkpt>
      <trkpt lat="47.3113" lon="-2.45522">
        <ele>8.8000001907349</ele>
        <time>2020-08-16T09:25:58.000Z</time>
      </trkpt>
      <trkpt lat="47.311" lon="-2.45537">
        <ele>8.8000001907349</ele>
        <time>2020-08-16T09:26:03.000Z</time>
      </trkpt>
      <trkpt lat="47.31093" lon="-2.45538">
        <ele>8.8000001907349</ele>
        <time>2020-08-16T09:26:04.000Z</time>
      </trkpt>
      <trkpt lat="47.31068" lon="-2.45549">
        <ele>8.8000001907349</ele>
        <time>2020-08-16T09:26:08.000Z</time>
      </trkpt>
      <trkpt lat="47.31062" lon="-2.45553">
        <ele>8.8000001907349</ele>
        <time>2020-08-16T09:26:09.000Z</time>
      </trkpt>
      <trkpt lat="47.31038" lon="-2.45565">
        <ele>8.8000001907349</ele>
        <time>2020-08-16T09:26:13.000Z</time>
      </trkpt>
      <trkpt lat="47.31031" lon="-2.45566">
        <ele>8.8000001907349</ele>
        <time>2020-08-16T09:26:14.000Z</time>
      </trkpt>
      <trkpt lat="47.30988" lon="-2.45566">
        <ele>8.8000001907349</ele>
        <time>2020-08-16T09:26:21.000Z</time>
      </trkpt>
      <trkpt lat="47.30945" lon="-2.45568">
        <ele>8.8000001907349</ele>
        <time>2020-08-16T09:26:28.000Z</time>
      </trkpt>
      <trkpt lat="47.3091" lon="-2.45585">
        <ele>8.8000001907349</ele>
        <time>2020-08-16T09:26:34.000Z</time>
      </trkpt>
      <trkpt lat="47.30868" lon="-2.4561">
        <ele>8.8000001907349</ele>
        <time>2020-08-16T09:26:41.000Z</time>
      </trkpt>
      <trkpt lat="47.30815" lon="-2.45648">
        <ele>8.8000001907349</ele>
        <time>2020-08-16T09:26:50.000Z</time>
      </trkpt>
      <trkpt lat="47.30804" lon="-2.45655">
        <ele>8.8000001907349</ele>
        <time>2020-08-16T09:26:52.000Z</time>
      </trkpt>
      <trkpt lat="47.30774" lon="-2.45663">
        <ele>8.8000001907349</ele>
        <time>2020-08-16T09:26:57.000Z</time>
      </trkpt>
      <trkpt lat="47.30768" lon="-2.45662">
        <ele>8.8000001907349</ele>
        <time>2020-08-16T09:26:58.000Z</time>
      </trkpt>
      <trkpt lat="47.30746" lon="-2.45649">
        <ele>8.8000001907349</ele>
        <time>2020-08-16T09:27:02.000Z</time>
      </trkpt>
      <trkpt lat="47.3071" lon="-2.45617">
        <ele>8.8000001907349</ele>
        <time>2020-08-16T09:27:09.000Z</time>
      </trkpt>
      <trkpt lat="47.30677" lon="-2.45582">
        <ele>8.8000001907349</ele>
        <time>2020-08-16T09:27:16.000Z</time>
      </trkpt>
      <trkpt lat="47.3065" lon="-2.45563">
        <ele>8.8000001907349</ele>
        <time>2020-08-16T09:27:21.000Z</time>
      </trkpt>
      <trkpt lat="47.30626" lon="-2.45561">
        <ele>8.8000001907349</ele>
        <time>2020-08-16T09:27:25.000Z</time>
      </trkpt>
      <trkpt lat="47.30615" lon="-2.45565">
        <ele>8.8000001907349</ele>
        <time>2020-08-16T09:27:27.000Z</time>
      </trkpt>
      <trkpt lat="47.30609" lon="-2.45568">
        <ele>8.8000001907349</ele>
        <time>2020-08-16T09:27:28.000Z</time>
      </trkpt>
      <trkpt lat="47.30598" lon="-2.45576">
        <ele>8.8000001907349</ele>
        <time>2020-08-16T09:27:30.000Z</time>
      </trkpt>
      <trkpt lat="47.30589" lon="-2.45584">
        <ele>8.8000001907349</ele>
        <time>2020-08-16T09:27:32.000Z</time>
      </trkpt>
      <trkpt lat="47.30578" lon="-2.45591">
        <ele>8.8000001907349</ele>
        <time>2020-08-16T09:27:34.000Z</time>
      </trkpt>
      <trkpt lat="47.30566" lon="-2.45596">
        <ele>8.8000001907349</ele>
        <time>2020-08-16T09:27:36.000Z</time>
      </trkpt>
      <trkpt lat="47.30542" lon="-2.4559">
        <ele>8.8000001907349</ele>
        <time>2020-08-16T09:27:40.000Z</time>
      </trkpt>
      <trkpt lat="47.30536" lon="-2.45586">
        <ele>8.8000001907349</ele>
        <time>2020-08-16T09:27:41.000Z</time>
      </trkpt>
      <trkpt lat="47.30509" lon="-2.45568">
        <ele>8.8000001907349</ele>
        <time>2020-08-16T09:27:46.000Z</time>
      </trkpt>
      <trkpt lat="47.30466" lon="-2.45551">
        <ele>8.8000001907349</ele>
        <time>2020-08-16T09:27:54.000Z</time>
      </trkpt>
      <trkpt lat="47.30443" lon="-2.4556">
        <ele>8.8000001907349</ele>
        <time>2020-08-16T09:27:58.000Z</time>
      </trkpt>
      <trkpt lat="47.30438" lon="-2.45564">
        <ele>8.8000001907349</ele>
        <time>2020-08-16T09:27:59.000Z</time>
      </trkpt>
      <trkpt lat="47.30412" lon="-2.45583">
        <ele>8.8000001907349</ele>
        <time>2020-08-16T09:28:05.000Z</time>
      </trkpt>
      <trkpt lat="47.30386" lon="-2.45597">
        <ele>8.8000001907349</ele>
        <time>2020-08-16T09:28:12.000Z</time>
      </trkpt>
      <trkpt lat="47.30378" lon="-2.45596">
        <ele>8.8000001907349</ele>
        <time>2020-08-16T09:28:14.000Z</time>
      </trkpt>
      <trkpt lat="47.30376" lon="-2.45591">
        <ele>8.8000001907349</ele>
        <time>2020-08-16T09:28:15.000Z</time>
      </trkpt>
      <trkpt lat="47.30374" lon="-2.45571">
        <ele>8.8000001907349</ele>
        <time>2020-08-16T09:28:18.000Z</time>
      </trkpt>
      <trkpt lat="47.30375" lon="-2.45552">
        <ele>8.8000001907349</ele>
        <time>2020-08-16T09:28:21.000Z</time>
      </trkpt>
      <trkpt lat="47.30376" lon="-2.45545">
        <ele>8.8000001907349</ele>
        <time>2020-08-16T09:28:22.000Z</time>
      </trkpt>
      <trkpt lat="47.30378" lon="-2.45531">
        <ele>8.8000001907349</ele>
        <time>2020-08-16T09:28:24.000Z</time>
      </trkpt>
      <trkpt lat="47.30383" lon="-2.45472">
        <ele>8.8000001907349</ele>
        <time>2020-08-16T09:28:32.000Z</time>
      </trkpt>
      <trkpt lat="47.30383" lon="-2.45465">
        <ele>8.8000001907349</ele>
        <time>2020-08-16T09:28:33.000Z</time>
      </trkpt>
      <trkpt lat="47.30383" lon="-2.45458">
        <ele>8.3999996185303</ele>
        <time>2020-08-16T09:28:34.000Z</time>
      </trkpt>
      <trkpt lat="47.30382" lon="-2.45451">
        <ele>8</ele>
        <time>2020-08-16T09:28:35.000Z</time>
      </trkpt>
      <trkpt lat="47.30381" lon="-2.45444">
        <ele>7.5999999046326</ele>
        <time>2020-08-16T09:28:36.000Z</time>
      </trkpt>
      <trkpt lat="47.3038" lon="-2.45436">
        <ele>7.1999998092651</ele>
        <time>2020-08-16T09:28:37.000Z</time>
      </trkpt>
      <trkpt lat="47.30378" lon="-2.45429">
        <ele>6.8000001907349</ele>
        <time>2020-08-16T09:28:38.000Z</time>
      </trkpt>
      <trkpt lat="47.30369" lon="-2.454">
        <ele>6.8000001907349</ele>
        <time>2020-08-16T09:28:42.000Z</time>
      </trkpt>
      <trkpt lat="47.30348" lon="-2.45359">
        <ele>6.8000001907349</ele>
        <time>2020-08-16T09:28:48.000Z</time>
      </trkpt>
      <trkpt lat="47.30317" lon="-2.45308">
        <ele>6.8000001907349</ele>
        <time>2020-08-16T09:28:56.000Z</time>
      </trkpt>
      <trkpt lat="47.30285" lon="-2.45266">
        <ele>6.8000001907349</ele>
        <time>2020-08-16T09:29:03.000Z</time>
      </trkpt>
      <trkpt lat="47.30264" lon="-2.45221">
        <ele>6.8000001907349</ele>
        <time>2020-08-16T09:29:09.000Z</time>
      </trkpt>
      <trkpt lat="47.30235" lon="-2.45168">
        <ele>6.8000001907349</ele>
        <time>2020-08-16T09:29:16.000Z</time>
      </trkpt>
      <trkpt lat="47.30209" lon="-2.45113">
        <ele>6.8000001907349</ele>
        <time>2020-08-16T09:29:23.000Z</time>
      </trkpt>
      <trkpt lat="47.30194" lon="-2.45061">
        <ele>6.8000001907349</ele>
        <time>2020-08-16T09:29:29.000Z</time>
      </trkpt>
      <trkpt lat="47.30175" lon="-2.45013">
        <ele>6.8000001907349</ele>
        <time>2020-08-16T09:29:35.000Z</time>
      </trkpt>
      <trkpt lat="47.30162" lon="-2.44953">
        <ele>6.8000001907349</ele>
        <time>2020-08-16T09:29:42.000Z</time>
      </trkpt>
      <trkpt lat="47.30145" lon="-2.44876">
        <ele>6.8000001907349</ele>
        <time>2020-08-16T09:29:51.000Z</time>
      </trkpt>
      <trkpt lat="47.30133" lon="-2.44814">
        <ele>6.8000001907349</ele>
        <time>2020-08-16T09:29:58.000Z</time>
      </trkpt>
      <trkpt lat="47.30121" lon="-2.44753">
        <ele>6.8000001907349</ele>
        <time>2020-08-16T09:30:05.000Z</time>
      </trkpt>
      <trkpt lat="47.3011" lon="-2.44701">
        <ele>6.8000001907349</ele>
        <time>2020-08-16T09:30:11.000Z</time>
      </trkpt>
      <trkpt lat="47.30105" lon="-2.44685">
        <ele>6.8000001907349</ele>
        <time>2020-08-16T09:30:13.000Z</time>
      </trkpt>
      <trkpt lat="47.30094" lon="-2.44661">
        <ele>6.8000001907349</ele>
        <time>2020-08-16T09:30:16.000Z</time>
      </trkpt>
      <trkpt lat="47.30091" lon="-2.44654">
        <ele>6.8000001907349</ele>
        <time>2020-08-16T09:30:17.000Z</time>
      </trkpt>
      <trkpt lat="47.30065" lon="-2.446">
        <ele>6.8000001907349</ele>
        <time>2020-08-16T09:30:24.000Z</time>
      </trkpt>
      <trkpt lat="47.30043" lon="-2.4454">
        <ele>6.8000001907349</ele>
        <time>2020-08-16T09:30:31.000Z</time>
      </trkpt>
      <trkpt lat="47.30021" lon="-2.44474">
        <ele>6.8000001907349</ele>
        <time>2020-08-16T09:30:39.000Z</time>
      </trkpt>
      <trkpt lat="47.29999" lon="-2.44426">
        <ele>6.8000001907349</ele>
        <time>2020-08-16T09:30:45.000Z</time>
      </trkpt>
      <trkpt lat="47.29972" lon="-2.44378">
        <ele>6.8000001907349</ele>
        <time>2020-08-16T09:30:52.000Z</time>
      </trkpt>
      <trkpt lat="47.29943" lon="-2.44327">
        <ele>6.8000001907349</ele>
        <time>2020-08-16T09:30:59.000Z</time>
      </trkpt>
      <trkpt lat="47.29918" lon="-2.44285">
        <ele>6.8000001907349</ele>
        <time>2020-08-16T09:31:05.000Z</time>
      </trkpt>
      <trkpt lat="47.29895" lon="-2.44243">
        <ele>6.8000001907349</ele>
        <time>2020-08-16T09:31:11.000Z</time>
      </trkpt>
      <trkpt lat="47.29879" lon="-2.4419">
        <ele>6.8000001907349</ele>
        <time>2020-08-16T09:31:17.000Z</time>
      </trkpt>
      <trkpt lat="47.29859" lon="-2.44131">
        <ele>6.8000001907349</ele>
        <time>2020-08-16T09:31:24.000Z</time>
      </trkpt>
      <trkpt lat="47.2984" lon="-2.44074">
        <ele>6.8000001907349</ele>
        <time>2020-08-16T09:31:31.000Z</time>
      </trkpt>
      <trkpt lat="47.29817" lon="-2.44007">
        <ele>6.8000001907349</ele>
        <time>2020-08-16T09:31:39.000Z</time>
      </trkpt>
      <trkpt lat="47.29797" lon="-2.4395">
        <ele>6.8000001907349</ele>
        <time>2020-08-16T09:31:46.000Z</time>
      </trkpt>
      <trkpt lat="47.29768" lon="-2.43887">
        <ele>6.8000001907349</ele>
        <time>2020-08-16T09:31:54.000Z</time>
      </trkpt>
      <trkpt lat="47.29747" lon="-2.43865">
        <ele>6.8000001907349</ele>
        <time>2020-08-16T09:31:58.000Z</time>
      </trkpt>
      <trkpt lat="47.29742" lon="-2.4386">
        <ele>6.8000001907349</ele>
        <time>2020-08-16T09:31:59.000Z</time>
      </trkpt>
      <trkpt lat="47.29725" lon="-2.43834">
        <ele>6.8000001907349</ele>
        <time>2020-08-16T09:32:03.000Z</time>
      </trkpt>
      <trkpt lat="47.29721" lon="-2.43826">
        <ele>6.8000001907349</ele>
        <time>2020-08-16T09:32:04.000Z</time>
      </trkpt>
      <trkpt lat="47.29713" lon="-2.43802">
        <ele>6.8000001907349</ele>
        <time>2020-08-16T09:32:07.000Z</time>
      </trkpt>
      <trkpt lat="47.29705" lon="-2.43779">
        <ele>6.8000001907349</ele>
        <time>2020-08-16T09:32:10.000Z</time>
      </trkpt>
      <trkpt lat="47.29687" lon="-2.43723">
        <ele>6.8000001907349</ele>
        <time>2020-08-16T09:32:17.000Z</time>
      </trkpt>
      <trkpt lat="47.2967" lon="-2.43668">
        <ele>6.8000001907349</ele>
        <time>2020-08-16T09:32:24.000Z</time>
      </trkpt>
      <trkpt lat="47.2965" lon="-2.43604">
        <ele>6.8000001907349</ele>
        <time>2020-08-16T09:32:33.000Z</time>
      </trkpt>
      <trkpt lat="47.29638" lon="-2.43569">
        <ele>6.8000001907349</ele>
        <time>2020-08-16T09:32:39.000Z</time>
      </trkpt>
      <trkpt lat="47.2963" lon="-2.43563">
        <ele>6.8000001907349</ele>
        <time>2020-08-16T09:32:42.000Z</time>
      </trkpt>
      <trkpt lat="47.29626" lon="-2.43562">
        <ele>6.8000001907349</ele>
        <time>2020-08-16T09:32:43.000Z</time>
      </trkpt>
      <trkpt lat="47.29615" lon="-2.43556">
        <ele>6.8000001907349</ele>
        <time>2020-08-16T09:32:46.000Z</time>
      </trkpt>
      <trkpt lat="47.29605" lon="-2.43557">
        <ele>6.8000001907349</ele>
        <time>2020-08-16T09:32:48.000Z</time>
      </trkpt>
      <trkpt lat="47.29593" lon="-2.4356">
        <ele>6.8000001907349</ele>
        <time>2020-08-16T09:32:50.000Z</time>
      </trkpt>
      <trkpt lat="47.29575" lon="-2.43563">
        <ele>6.8000001907349</ele>
        <time>2020-08-16T09:32:53.000Z</time>
      </trkpt>
      <trkpt lat="47.29536" lon="-2.43567">
        <ele>6.8000001907349</ele>
        <time>2020-08-16T09:33:00.000Z</time>
      </trkpt>
      <trkpt lat="47.29496" lon="-2.43574">
        <ele>7.1999998092651</ele>
        <time>2020-08-16T09:33:07.000Z</time>
      </trkpt>
      <trkpt lat="47.29491" lon="-2.43575">
        <ele>7.5999999046326</ele>
        <time>2020-08-16T09:33:08.000Z</time>
      </trkpt>
      <trkpt lat="47.29485" lon="-2.43576">
        <ele>8</ele>
        <time>2020-08-16T09:33:09.000Z</time>
      </trkpt>
      <trkpt lat="47.29479" lon="-2.43577">
        <ele>8.6000003814697</ele>
        <time>2020-08-16T09:33:10.000Z</time>
      </trkpt>
      <trkpt lat="47.29473" lon="-2.43579">
        <ele>9</ele>
        <time>2020-08-16T09:33:11.000Z</time>
      </trkpt>
      <trkpt lat="47.29444" lon="-2.43589">
        <ele>9</ele>
        <time>2020-08-16T09:33:16.000Z</time>
      </trkpt>
      <trkpt lat="47.29398" lon="-2.43614">
        <ele>9</ele>
        <time>2020-08-16T09:33:24.000Z</time>
      </trkpt>
      <trkpt lat="47.29353" lon="-2.43649">
        <ele>9</ele>
        <time>2020-08-16T09:33:32.000Z</time>
      </trkpt>
      <trkpt lat="47.29307" lon="-2.43689">
        <ele>9</ele>
        <time>2020-08-16T09:33:41.000Z</time>
      </trkpt>
      <trkpt lat="47.29271" lon="-2.4372">
        <ele>9</ele>
        <time>2020-08-16T09:33:48.000Z</time>
      </trkpt>
      <trkpt lat="47.29225" lon="-2.43759">
        <ele>9</ele>
        <time>2020-08-16T09:33:57.000Z</time>
      </trkpt>
      <trkpt lat="47.2918" lon="-2.43799">
        <ele>9</ele>
        <time>2020-08-16T09:34:06.000Z</time>
      </trkpt>
      <trkpt lat="47.2914" lon="-2.43835">
        <ele>9</ele>
        <time>2020-08-16T09:34:14.000Z</time>
      </trkpt>
      <trkpt lat="47.29107" lon="-2.43856">
        <ele>9</ele>
        <time>2020-08-16T09:34:20.000Z</time>
      </trkpt>
      <trkpt lat="47.29082" lon="-2.43872">
        <ele>9</ele>
        <time>2020-08-16T09:34:25.000Z</time>
      </trkpt>
      <trkpt lat="47.29073" lon="-2.43882">
        <ele>9</ele>
        <time>2020-08-16T09:34:27.000Z</time>
      </trkpt>
      <trkpt lat="47.29063" lon="-2.43889">
        <ele>9</ele>
        <time>2020-08-16T09:34:29.000Z</time>
      </trkpt>
      <trkpt lat="47.29053" lon="-2.43881">
        <ele>9</ele>
        <time>2020-08-16T09:34:31.000Z</time>
      </trkpt>
      <trkpt lat="47.29041" lon="-2.43859">
        <ele>9</ele>
        <time>2020-08-16T09:34:34.000Z</time>
      </trkpt>
      <trkpt lat="47.29037" lon="-2.43853">
        <ele>9</ele>
        <time>2020-08-16T09:34:35.000Z</time>
      </trkpt>
      <trkpt lat="47.29016" lon="-2.43831">
        <ele>9</ele>
        <time>2020-08-16T09:34:39.000Z</time>
      </trkpt>
      <trkpt lat="47.2901" lon="-2.43827">
        <ele>9</ele>
        <time>2020-08-16T09:34:40.000Z</time>
      </trkpt>
      <trkpt lat="47.28985" lon="-2.43813">
        <ele>9</ele>
        <time>2020-08-16T09:34:44.000Z</time>
      </trkpt>
      <trkpt lat="47.28948" lon="-2.43801">
        <ele>9</ele>
        <time>2020-08-16T09:34:50.000Z</time>
      </trkpt>
      <trkpt lat="47.28911" lon="-2.43807">
        <ele>9</ele>
        <time>2020-08-16T09:34:56.000Z</time>
      </trkpt>
      <trkpt lat="47.28876" lon="-2.43822">
        <ele>9</ele>
        <time>2020-08-16T09:35:02.000Z</time>
      </trkpt>
      <trkpt lat="47.2884" lon="-2.43833">
        <ele>9</ele>
        <time>2020-08-16T09:35:08.000Z</time>
      </trkpt>
      <trkpt lat="47.2881" lon="-2.43827">
        <ele>9</ele>
        <time>2020-08-16T09:35:13.000Z</time>
      </trkpt>
      <trkpt lat="47.28793" lon="-2.43814">
        <ele>9</ele>
        <time>2020-08-16T09:35:16.000Z</time>
      </trkpt>
      <trkpt lat="47.28781" lon="-2.43805">
        <ele>9</ele>
        <time>2020-08-16T09:35:18.000Z</time>
      </trkpt>
      <trkpt lat="47.28731" lon="-2.43766">
        <ele>9</ele>
        <time>2020-08-16T09:35:27.000Z</time>
      </trkpt>
      <trkpt lat="47.2872" lon="-2.43758">
        <ele>9</ele>
        <time>2020-08-16T09:35:29.000Z</time>
      </trkpt>
      <trkpt lat="47.28699" lon="-2.43743">
        <ele>9</ele>
        <time>2020-08-16T09:35:33.000Z</time>
      </trkpt>
      <trkpt lat="47.28657" lon="-2.43709">
        <ele>9</ele>
        <time>2020-08-16T09:35:41.000Z</time>
      </trkpt>
      <trkpt lat="47.28625" lon="-2.43685">
        <ele>9</ele>
        <time>2020-08-16T09:35:47.000Z</time>
      </trkpt>
      <trkpt lat="47.28589" lon="-2.43656">
        <ele>9</ele>
        <time>2020-08-16T09:35:54.000Z</time>
      </trkpt>
      <trkpt lat="47.28545" lon="-2.43622">
        <ele>9</ele>
        <time>2020-08-16T09:36:02.000Z</time>
      </trkpt>
      <trkpt lat="47.28508" lon="-2.43593">
        <ele>9</ele>
        <time>2020-08-16T09:36:09.000Z</time>
      </trkpt>
      <trkpt lat="47.28472" lon="-2.43565">
        <ele>9</ele>
        <time>2020-08-16T09:36:16.000Z</time>
      </trkpt>
      <trkpt lat="47.28436" lon="-2.43536">
        <ele>9</ele>
        <time>2020-08-16T09:36:23.000Z</time>
      </trkpt>
      <trkpt lat="47.28401" lon="-2.43509">
        <ele>9</ele>
        <time>2020-08-16T09:36:30.000Z</time>
      </trkpt>
      <trkpt lat="47.28367" lon="-2.43481">
        <ele>9</ele>
        <time>2020-08-16T09:36:37.000Z</time>
      </trkpt>
      <trkpt lat="47.28333" lon="-2.43454">
        <ele>9</ele>
        <time>2020-08-16T09:36:44.000Z</time>
      </trkpt>
      <trkpt lat="47.28297" lon="-2.43423">
        <ele>9</ele>
        <time>2020-08-16T09:36:52.000Z</time>
      </trkpt>
      <trkpt lat="47.28292" lon="-2.43418">
        <ele>9</ele>
        <time>2020-08-16T09:36:53.000Z</time>
      </trkpt>
      <trkpt lat="47.28275" lon="-2.43403">
        <ele>9</ele>
        <time>2020-08-16T09:36:57.000Z</time>
      </trkpt>
      <trkpt lat="47.28258" lon="-2.43386">
        <ele>9</ele>
        <time>2020-08-16T09:37:01.000Z</time>
      </trkpt>
      <trkpt lat="47.28249" lon="-2.4337">
        <ele>9</ele>
        <time>2020-08-16T09:37:04.000Z</time>
      </trkpt>
      <trkpt lat="47.28246" lon="-2.43364">
        <ele>9</ele>
        <time>2020-08-16T09:37:05.000Z</time>
      </trkpt>
      <trkpt lat="47.28241" lon="-2.43345">
        <ele>9</ele>
        <time>2020-08-16T09:37:08.000Z</time>
      </trkpt>
      <trkpt lat="47.28242" lon="-2.43337">
        <ele>9</ele>
        <time>2020-08-16T09:37:09.000Z</time>
      </trkpt>
      <trkpt lat="47.28246" lon="-2.43317">
        <ele>9</ele>
        <time>2020-08-16T09:37:12.000Z</time>
      </trkpt>
      <trkpt lat="47.28248" lon="-2.43303">
        <ele>8.6000003814697</ele>
        <time>2020-08-16T09:37:14.000Z</time>
      </trkpt>
      <trkpt lat="47.28247" lon="-2.43296">
        <ele>8.1999998092651</ele>
        <time>2020-08-16T09:37:15.000Z</time>
      </trkpt>
      <trkpt lat="47.28246" lon="-2.43288">
        <ele>7.5999999046326</ele>
        <time>2020-08-16T09:37:16.000Z</time>
      </trkpt>
      <trkpt lat="47.28243" lon="-2.43282">
        <ele>7.1999998092651</ele>
        <time>2020-08-16T09:37:17.000Z</time>
      </trkpt>
      <trkpt lat="47.28239" lon="-2.43276">
        <ele>6.8000001907349</ele>
        <time>2020-08-16T09:37:18.000Z</time>
      </trkpt>
      <trkpt lat="47.28236" lon="-2.43271">
        <ele>6.8000001907349</ele>
        <time>2020-08-16T09:37:19.000Z</time>
      </trkpt>
      <trkpt lat="47.28226" lon="-2.43251">
        <ele>6.8000001907349</ele>
        <time>2020-08-16T09:37:23.000Z</time>
      </trkpt>
      <trkpt lat="47.28231" lon="-2.43226">
        <ele>6.8000001907349</ele>
        <time>2020-08-16T09:37:26.000Z</time>
      </trkpt>
      <trkpt lat="47.28241" lon="-2.43171">
        <ele>6.8000001907349</ele>
        <time>2020-08-16T09:37:32.000Z</time>
      </trkpt>
      <trkpt lat="47.28257" lon="-2.431">
        <ele>6.8000001907349</ele>
        <time>2020-08-16T09:37:40.000Z</time>
      </trkpt>
      <trkpt lat="47.28255" lon="-2.43064">
        <ele>6.8000001907349</ele>
        <time>2020-08-16T09:37:44.000Z</time>
      </trkpt>
      <trkpt lat="47.28256" lon="-2.43047">
        <ele>6.8000001907349</ele>
        <time>2020-08-16T09:37:46.000Z</time>
      </trkpt>
      <trkpt lat="47.2826" lon="-2.43011">
        <ele>6.8000001907349</ele>
        <time>2020-08-16T09:37:50.000Z</time>
      </trkpt>
      <trkpt lat="47.2826" lon="-2.42959">
        <ele>6.8000001907349</ele>
        <time>2020-08-16T09:37:56.000Z</time>
      </trkpt>
      <trkpt lat="47.28256" lon="-2.42912">
        <ele>6.8000001907349</ele>
        <time>2020-08-16T09:38:02.000Z</time>
      </trkpt>
      <trkpt lat="47.28257" lon="-2.42898">
        <ele>6.8000001907349</ele>
        <time>2020-08-16T09:38:04.000Z</time>
      </trkpt>
      <trkpt lat="47.2826" lon="-2.42893">
        <ele>6.8000001907349</ele>
        <time>2020-08-16T09:38:05.000Z</time>
      </trkpt>
      <trkpt lat="47.28259" lon="-2.42867">
        <ele>6.8000001907349</ele>
        <time>2020-08-16T09:38:09.000Z</time>
      </trkpt>
      <trkpt lat="47.28251" lon="-2.42857">
        <ele>6.8000001907349</ele>
        <time>2020-08-16T09:38:11.000Z</time>
      </trkpt>
      <trkpt lat="47.28249" lon="-2.42849">
        <ele>6.8000001907349</ele>
        <time>2020-08-16T09:38:12.000Z</time>
      </trkpt>
      <trkpt lat="47.28246" lon="-2.42843">
        <ele>6.8000001907349</ele>
        <time>2020-08-16T09:38:13.000Z</time>
      </trkpt>
      <trkpt lat="47.2823" lon="-2.42797">
        <ele>6.8000001907349</ele>
        <time>2020-08-16T09:38:19.000Z</time>
      </trkpt>
      <trkpt lat="47.28218" lon="-2.42768">
        <ele>6.8000001907349</ele>
        <time>2020-08-16T09:38:23.000Z</time>
      </trkpt>
      <trkpt lat="47.28211" lon="-2.42753">
        <ele>6.8000001907349</ele>
        <time>2020-08-16T09:38:25.000Z</time>
      </trkpt>
      <trkpt lat="47.28193" lon="-2.42713">
        <ele>6.8000001907349</ele>
        <time>2020-08-16T09:38:31.000Z</time>
      </trkpt>
      <trkpt lat="47.2819" lon="-2.42706">
        <ele>6.8000001907349</ele>
        <time>2020-08-16T09:38:32.000Z</time>
      </trkpt>
      <trkpt lat="47.28179" lon="-2.42692">
        <ele>6.8000001907349</ele>
        <time>2020-08-16T09:38:35.000Z</time>
      </trkpt>
      <trkpt lat="47.28176" lon="-2.42687">
        <ele>6.8000001907349</ele>
        <time>2020-08-16T09:38:36.000Z</time>
      </trkpt>
      <trkpt lat="47.28162" lon="-2.42664">
        <ele>6.8000001907349</ele>
        <time>2020-08-16T09:38:40.000Z</time>
      </trkpt>
      <trkpt lat="47.28155" lon="-2.42654">
        <ele>7.1999998092651</ele>
        <time>2020-08-16T09:38:42.000Z</time>
      </trkpt>
      <trkpt lat="47.28152" lon="-2.42649">
        <ele>7.8000001907349</ele>
        <time>2020-08-16T09:38:43.000Z</time>
      </trkpt>
      <trkpt lat="47.28149" lon="-2.42644">
        <ele>8.6000003814697</ele>
        <time>2020-08-16T09:38:44.000Z</time>
      </trkpt>
      <trkpt lat="47.28146" lon="-2.42639">
        <ele>9</ele>
        <time>2020-08-16T09:38:45.000Z</time>
      </trkpt>
      <trkpt lat="47.28136" lon="-2.4262">
        <ele>9</ele>
        <time>2020-08-16T09:38:48.000Z</time>
      </trkpt>
      <trkpt lat="47.28104" lon="-2.42565">
        <ele>9</ele>
        <time>2020-08-16T09:38:57.000Z</time>
      </trkpt>
      <trkpt lat="47.28101" lon="-2.42559">
        <ele>9</ele>
        <time>2020-08-16T09:38:58.000Z</time>
      </trkpt>
      <trkpt lat="47.281" lon="-2.4255">
        <ele>9</ele>
        <time>2020-08-16T09:39:00.000Z</time>
      </trkpt>
      <trkpt lat="47.28102" lon="-2.42547">
        <ele>9</ele>
        <time>2020-08-16T09:39:01.000Z</time>
      </trkpt>
      <trkpt lat="47.28111" lon="-2.42542">
        <ele>9</ele>
        <time>2020-08-16T09:39:04.000Z</time>
      </trkpt>
      <trkpt lat="47.28116" lon="-2.4254">
        <ele>9</ele>
        <time>2020-08-16T09:39:05.000Z</time>
      </trkpt>
      <trkpt lat="47.28145" lon="-2.42529">
        <ele>9</ele>
        <time>2020-08-16T09:39:10.000Z</time>
      </trkpt>
      <trkpt lat="47.28156" lon="-2.42525">
        <ele>9</ele>
        <time>2020-08-16T09:39:12.000Z</time>
      </trkpt>
      <trkpt lat="47.28167" lon="-2.42525">
        <ele>9</ele>
        <time>2020-08-16T09:39:14.000Z</time>
      </trkpt>
      <trkpt lat="47.28172" lon="-2.42526">
        <ele>9</ele>
        <time>2020-08-16T09:39:15.000Z</time>
      </trkpt>
      <trkpt lat="47.28182" lon="-2.42528">
        <ele>9</ele>
        <time>2020-08-16T09:39:17.000Z</time>
      </trkpt>
      <trkpt lat="47.28193" lon="-2.42526">
        <ele>9</ele>
        <time>2020-08-16T09:39:19.000Z</time>
      </trkpt>
      <trkpt lat="47.28205" lon="-2.42514">
        <ele>9</ele>
        <time>2020-08-16T09:39:22.000Z</time>
      </trkpt>
      <trkpt lat="47.28208" lon="-2.4251">
        <ele>9</ele>
        <time>2020-08-16T09:39:23.000Z</time>
      </trkpt>
      <trkpt lat="47.28229" lon="-2.42476">
        <ele>9</ele>
        <time>2020-08-16T09:39:29.000Z</time>
      </trkpt>
      <trkpt lat="47.28233" lon="-2.42469">
        <ele>8.6000003814697</ele>
        <time>2020-08-16T09:39:30.000Z</time>
      </trkpt>
      <trkpt lat="47.28236" lon="-2.42463">
        <ele>8.1999998092651</ele>
        <time>2020-08-16T09:39:31.000Z</time>
      </trkpt>
      <trkpt lat="47.2824" lon="-2.42456">
        <ele>7.8000001907349</ele>
        <time>2020-08-16T09:39:32.000Z</time>
      </trkpt>
      <trkpt lat="47.28243" lon="-2.42449">
        <ele>7</ele>
        <time>2020-08-16T09:39:33.000Z</time>
      </trkpt>
      <trkpt lat="47.28246" lon="-2.42441">
        <ele>7</ele>
        <time>2020-08-16T09:39:34.000Z</time>
      </trkpt>
      <trkpt lat="47.28254" lon="-2.42418">
        <ele>7</ele>
        <time>2020-08-16T09:39:37.000Z</time>
      </trkpt>
      <trkpt lat="47.28266" lon="-2.42356">
        <ele>7</ele>
        <time>2020-08-16T09:39:45.000Z</time>
      </trkpt>
      <trkpt lat="47.28268" lon="-2.42342">
        <ele>7</ele>
        <time>2020-08-16T09:39:49.000Z</time>
      </trkpt>
      <trkpt lat="47.28267" lon="-2.42325">
        <ele>7</ele>
        <time>2020-08-16T09:39:55.000Z</time>
      </trkpt>
      <trkpt lat="47.28268" lon="-2.42306">
        <ele>7</ele>
        <time>2020-08-16T09:39:58.000Z</time>
      </trkpt>
      <trkpt lat="47.2827" lon="-2.42282">
        <ele>7</ele>
        <time>2020-08-16T09:40:01.000Z</time>
      </trkpt>
      <trkpt lat="47.28271" lon="-2.42273">
        <ele>7</ele>
        <time>2020-08-16T09:40:02.000Z</time>
      </trkpt>
      <trkpt lat="47.28282" lon="-2.42221">
        <ele>7</ele>
        <time>2020-08-16T09:40:08.000Z</time>
      </trkpt>
      <trkpt lat="47.28293" lon="-2.42148">
        <ele>7</ele>
        <time>2020-08-16T09:40:16.000Z</time>
      </trkpt>
      <trkpt lat="47.283" lon="-2.42092">
        <ele>7</ele>
        <time>2020-08-16T09:40:23.000Z</time>
      </trkpt>
      <trkpt lat="47.2831" lon="-2.42025">
        <ele>7</ele>
        <time>2020-08-16T09:40:32.000Z</time>
      </trkpt>
      <trkpt lat="47.28318" lon="-2.41976">
        <ele>7</ele>
        <time>2020-08-16T09:40:38.000Z</time>
      </trkpt>
      <trkpt lat="47.28324" lon="-2.41953">
        <ele>7</ele>
        <time>2020-08-16T09:40:41.000Z</time>
      </trkpt>
      <trkpt lat="47.28331" lon="-2.41929">
        <ele>7</ele>
        <time>2020-08-16T09:40:44.000Z</time>
      </trkpt>
      <trkpt lat="47.28344" lon="-2.41872">
        <ele>7</ele>
        <time>2020-08-16T09:40:51.000Z</time>
      </trkpt>
      <trkpt lat="47.2836" lon="-2.41807">
        <ele>7</ele>
        <time>2020-08-16T09:40:59.000Z</time>
      </trkpt>
      <trkpt lat="47.28377" lon="-2.41741">
        <ele>7</ele>
        <time>2020-08-16T09:41:07.000Z</time>
      </trkpt>
      <trkpt lat="47.28394" lon="-2.41672">
        <ele>7</ele>
        <time>2020-08-16T09:41:15.000Z</time>
      </trkpt>
      <trkpt lat="47.28402" lon="-2.4161">
        <ele>7</ele>
        <time>2020-08-16T09:41:22.000Z</time>
      </trkpt>
      <trkpt lat="47.28407" lon="-2.41559">
        <ele>7</ele>
        <time>2020-08-16T09:41:28.000Z</time>
      </trkpt>
      <trkpt lat="47.28414" lon="-2.41498">
        <ele>7</ele>
        <time>2020-08-16T09:41:35.000Z</time>
      </trkpt>
      <trkpt lat="47.28421" lon="-2.41436">
        <ele>7</ele>
        <time>2020-08-16T09:41:42.000Z</time>
      </trkpt>
      <trkpt lat="47.28433" lon="-2.41385">
        <ele>7</ele>
        <time>2020-08-16T09:41:48.000Z</time>
      </trkpt>
      <trkpt lat="47.2844" lon="-2.41361">
        <ele>7</ele>
        <time>2020-08-16T09:41:51.000Z</time>
      </trkpt>
      <trkpt lat="47.28444" lon="-2.41338">
        <ele>7</ele>
        <time>2020-08-16T09:41:54.000Z</time>
      </trkpt>
      <trkpt lat="47.28446" lon="-2.41331">
        <ele>7</ele>
        <time>2020-08-16T09:41:55.000Z</time>
      </trkpt>
      <trkpt lat="47.28451" lon="-2.41307">
        <ele>7</ele>
        <time>2020-08-16T09:41:59.000Z</time>
      </trkpt>
      <trkpt lat="47.28455" lon="-2.41282">
        <ele>7</ele>
        <time>2020-08-16T09:42:03.000Z</time>
      </trkpt>
      <trkpt lat="47.28454" lon="-2.41276">
        <ele>7</ele>
        <time>2020-08-16T09:42:04.000Z</time>
      </trkpt>
      <trkpt lat="47.28445" lon="-2.41263">
        <ele>7</ele>
        <time>2020-08-16T09:42:07.000Z</time>
      </trkpt>
      <trkpt lat="47.2843" lon="-2.41254">
        <ele>7</ele>
        <time>2020-08-16T09:42:10.000Z</time>
      </trkpt>
      <trkpt lat="47.28425" lon="-2.41252">
        <ele>7</ele>
        <time>2020-08-16T09:42:11.000Z</time>
      </trkpt>
      <trkpt lat="47.28411" lon="-2.41244">
        <ele>7</ele>
        <time>2020-08-16T09:42:14.000Z</time>
      </trkpt>
      <trkpt lat="47.28402" lon="-2.41238">
        <ele>7</ele>
        <time>2020-08-16T09:42:16.000Z</time>
      </trkpt>
      <trkpt lat="47.28398" lon="-2.41236">
        <ele>7</ele>
        <time>2020-08-16T09:42:17.000Z</time>
      </trkpt>
      <trkpt lat="47.2837" lon="-2.41227">
        <ele>7</ele>
        <time>2020-08-16T09:42:23.000Z</time>
      </trkpt>
      <trkpt lat="47.28362" lon="-2.41221">
        <ele>7</ele>
        <time>2020-08-16T09:42:26.000Z</time>
      </trkpt>
      <trkpt lat="47.28361" lon="-2.41204">
        <ele>7</ele>
        <time>2020-08-16T09:42:30.000Z</time>
      </trkpt>
      <trkpt lat="47.28362" lon="-2.41198">
        <ele>7</ele>
        <time>2020-08-16T09:42:31.000Z</time>
      </trkpt>
      <trkpt lat="47.28366" lon="-2.41174">
        <ele>7</ele>
        <time>2020-08-16T09:42:34.000Z</time>
      </trkpt>
      <trkpt lat="47.2838" lon="-2.41111">
        <ele>7</ele>
        <time>2020-08-16T09:42:41.000Z</time>
      </trkpt>
      <trkpt lat="47.28381" lon="-2.41104">
        <ele>7</ele>
        <time>2020-08-16T09:42:42.000Z</time>
      </trkpt>
      <trkpt lat="47.2838" lon="-2.41092">
        <ele>7</ele>
        <time>2020-08-16T09:42:44.000Z</time>
      </trkpt>
      <trkpt lat="47.28369" lon="-2.4108">
        <ele>7</ele>
        <time>2020-08-16T09:42:47.000Z</time>
      </trkpt>
      <trkpt lat="47.28353" lon="-2.41074">
        <ele>7</ele>
        <time>2020-08-16T09:42:50.000Z</time>
      </trkpt>
      <trkpt lat="47.28342" lon="-2.4107">
        <ele>7</ele>
        <time>2020-08-16T09:42:52.000Z</time>
      </trkpt>
      <trkpt lat="47.28316" lon="-2.41054">
        <ele>7</ele>
        <time>2020-08-16T09:42:57.000Z</time>
      </trkpt>
      <trkpt lat="47.28312" lon="-2.4105">
        <ele>7</ele>
        <time>2020-08-16T09:42:58.000Z</time>
      </trkpt>
      <trkpt lat="47.28298" lon="-2.41041">
        <ele>7</ele>
        <time>2020-08-16T09:43:01.000Z</time>
      </trkpt>
      <trkpt lat="47.28289" lon="-2.41037">
        <ele>7</ele>
        <time>2020-08-16T09:43:03.000Z</time>
      </trkpt>
      <trkpt lat="47.28263" lon="-2.41025">
        <ele>7</ele>
        <time>2020-08-16T09:43:09.000Z</time>
      </trkpt>
      <trkpt lat="47.28257" lon="-2.4102">
        <ele>7</ele>
        <time>2020-08-16T09:43:11.000Z</time>
      </trkpt>
      <trkpt lat="47.28255" lon="-2.41015">
        <ele>7</ele>
        <time>2020-08-16T09:43:12.000Z</time>
      </trkpt>
      <trkpt lat="47.28255" lon="-2.40999">
        <ele>7</ele>
        <time>2020-08-16T09:43:15.000Z</time>
      </trkpt>
      <trkpt lat="47.28246" lon="-2.40991">
        <ele>7</ele>
        <time>2020-08-16T09:43:18.000Z</time>
      </trkpt>
      <trkpt lat="47.28243" lon="-2.40988">
        <ele>7</ele>
        <time>2020-08-16T09:43:19.000Z</time>
      </trkpt>
      <trkpt lat="47.28242" lon="-2.40976">
        <ele>7</ele>
        <time>2020-08-16T09:43:21.000Z</time>
      </trkpt>
      <trkpt lat="47.28242" lon="-2.40961">
        <ele>7</ele>
        <time>2020-08-16T09:43:23.000Z</time>
      </trkpt>
      <trkpt lat="47.28243" lon="-2.40954">
        <ele>7</ele>
        <time>2020-08-16T09:43:24.000Z</time>
      </trkpt>
      <trkpt lat="47.28247" lon="-2.40939">
        <ele>7</ele>
        <time>2020-08-16T09:43:26.000Z</time>
      </trkpt>
      <trkpt lat="47.28256" lon="-2.40912">
        <ele>7</ele>
        <time>2020-08-16T09:43:30.000Z</time>
      </trkpt>
      <trkpt lat="47.28262" lon="-2.409">
        <ele>7</ele>
        <time>2020-08-16T09:43:32.000Z</time>
      </trkpt>
      <trkpt lat="47.28261" lon="-2.4088">
        <ele>7</ele>
        <time>2020-08-16T09:43:35.000Z</time>
      </trkpt>
      <trkpt lat="47.28249" lon="-2.40866">
        <ele>7</ele>
        <time>2020-08-16T09:43:38.000Z</time>
      </trkpt>
      <trkpt lat="47.28244" lon="-2.40863">
        <ele>7</ele>
        <time>2020-08-16T09:43:39.000Z</time>
      </trkpt>
      <trkpt lat="47.28223" lon="-2.40846">
        <ele>7</ele>
        <time>2020-08-16T09:43:43.000Z</time>
      </trkpt>
      <trkpt lat="47.28192" lon="-2.40823">
        <ele>7</ele>
        <time>2020-08-16T09:43:49.000Z</time>
      </trkpt>
      <trkpt lat="47.28154" lon="-2.40792">
        <ele>7</ele>
        <time>2020-08-16T09:43:57.000Z</time>
      </trkpt>
      <trkpt lat="47.28134" lon="-2.40776">
        <ele>7</ele>
        <time>2020-08-16T09:44:03.000Z</time>
      </trkpt>
      <trkpt lat="47.28135" lon="-2.4076">
        <ele>7</ele>
        <time>2020-08-16T09:44:06.000Z</time>
      </trkpt>
      <trkpt lat="47.28136" lon="-2.40755">
        <ele>7</ele>
        <time>2020-08-16T09:44:07.000Z</time>
      </trkpt>
      <trkpt lat="47.28137" lon="-2.40737">
        <ele>7</ele>
        <time>2020-08-16T09:44:11.000Z</time>
      </trkpt>
      <trkpt lat="47.28129" lon="-2.4073">
        <ele>7</ele>
        <time>2020-08-16T09:44:16.000Z</time>
      </trkpt>
      <trkpt lat="47.28126" lon="-2.40729">
        <ele>7</ele>
        <time>2020-08-16T09:44:17.000Z</time>
      </trkpt>
      <trkpt lat="47.28114" lon="-2.40722">
        <ele>7</ele>
        <time>2020-08-16T09:44:20.000Z</time>
      </trkpt>
      <trkpt lat="47.28093" lon="-2.40709">
        <ele>7</ele>
        <time>2020-08-16T09:44:26.000Z</time>
      </trkpt>
      <trkpt lat="47.2809" lon="-2.40707">
        <ele>7.4000000953674</ele>
        <time>2020-08-16T09:44:27.000Z</time>
      </trkpt>
      <trkpt lat="47.28087" lon="-2.40705">
        <ele>7.8000001907349</ele>
        <time>2020-08-16T09:44:28.000Z</time>
      </trkpt>
      <trkpt lat="47.28085" lon="-2.40704">
        <ele>8.1999998092651</ele>
        <time>2020-08-16T09:44:29.000Z</time>
      </trkpt>
      <trkpt lat="47.28083" lon="-2.40703">
        <ele>9</ele>
        <time>2020-08-16T09:44:30.000Z</time>
      </trkpt>
      <trkpt lat="47.28081" lon="-2.40702">
        <ele>9</ele>
        <time>2020-08-16T09:44:31.000Z</time>
      </trkpt>
      <trkpt lat="47.2808" lon="-2.40702">
        <ele>9</ele>
        <time>2020-08-16T09:44:33.000Z</time>
      </trkpt>
      <trkpt lat="47.28076" lon="-2.40701">
        <ele>9</ele>
        <time>2020-08-16T09:44:38.000Z</time>
      </trkpt>
      <trkpt lat="47.28074" lon="-2.407">
        <ele>9</ele>
        <time>2020-08-16T09:44:39.000Z</time>
      </trkpt>
      <trkpt lat="47.28069" lon="-2.40698">
        <ele>9</ele>
        <time>2020-08-16T09:44:41.000Z</time>
      </trkpt>
      <trkpt lat="47.28062" lon="-2.40696">
        <ele>9</ele>
        <time>2020-08-16T09:44:43.000Z</time>
      </trkpt>
      <trkpt lat="47.28059" lon="-2.40683">
        <ele>9</ele>
        <time>2020-08-16T09:44:46.000Z</time>
      </trkpt>
      <trkpt lat="47.28058" lon="-2.40659">
        <ele>9</ele>
        <time>2020-08-16T09:44:50.000Z</time>
      </trkpt>
      <trkpt lat="47.28054" lon="-2.40637">
        <ele>9</ele>
        <time>2020-08-16T09:44:53.000Z</time>
      </trkpt>
      <trkpt lat="47.2805" lon="-2.40622">
        <ele>9</ele>
        <time>2020-08-16T09:44:55.000Z</time>
      </trkpt>
      <trkpt lat="47.28052" lon="-2.40589">
        <ele>9</ele>
        <time>2020-08-16T09:44:59.000Z</time>
      </trkpt>
      <trkpt lat="47.28055" lon="-2.40572">
        <ele>9</ele>
        <time>2020-08-16T09:45:01.000Z</time>
      </trkpt>
      <trkpt lat="47.28064" lon="-2.4053">
        <ele>9</ele>
        <time>2020-08-16T09:45:06.000Z</time>
      </trkpt>
      <trkpt lat="47.28073" lon="-2.40488">
        <ele>9</ele>
        <time>2020-08-16T09:45:11.000Z</time>
      </trkpt>
      <trkpt lat="47.28079" lon="-2.40474">
        <ele>9</ele>
        <time>2020-08-16T09:45:13.000Z</time>
      </trkpt>
      <trkpt lat="47.28087" lon="-2.40462">
        <ele>9</ele>
        <time>2020-08-16T09:45:15.000Z</time>
      </trkpt>
      <trkpt lat="47.28099" lon="-2.40443">
        <ele>9</ele>
        <time>2020-08-16T09:45:18.000Z</time>
      </trkpt>
      <trkpt lat="47.28105" lon="-2.40429">
        <ele>9</ele>
        <time>2020-08-16T09:45:20.000Z</time>
      </trkpt>
      <trkpt lat="47.28112" lon="-2.40404">
        <ele>9</ele>
        <time>2020-08-16T09:45:23.000Z</time>
      </trkpt>
      <trkpt lat="47.28119" lon="-2.40346">
        <ele>9</ele>
        <time>2020-08-16T09:45:29.000Z</time>
      </trkpt>
      <trkpt lat="47.28127" lon="-2.40267">
        <ele>9</ele>
        <time>2020-08-16T09:45:37.000Z</time>
      </trkpt>
      <trkpt lat="47.28129" lon="-2.40257">
        <ele>9</ele>
        <time>2020-08-16T09:45:38.000Z</time>
      </trkpt>
      <trkpt lat="47.28139" lon="-2.40172">
        <ele>9</ele>
        <time>2020-08-16T09:45:47.000Z</time>
      </trkpt>
      <trkpt lat="47.2814" lon="-2.40163">
        <ele>9</ele>
        <time>2020-08-16T09:45:48.000Z</time>
      </trkpt>
      <trkpt lat="47.28146" lon="-2.4008">
        <ele>9</ele>
        <time>2020-08-16T09:45:57.000Z</time>
      </trkpt>
      <trkpt lat="47.28147" lon="-2.40071">
        <ele>9</ele>
        <time>2020-08-16T09:45:58.000Z</time>
      </trkpt>
      <trkpt lat="47.28151" lon="-2.40017">
        <ele>9</ele>
        <time>2020-08-16T09:46:05.000Z</time>
      </trkpt>
      <trkpt lat="47.28153" lon="-2.39991">
        <ele>9</ele>
        <time>2020-08-16T09:46:08.000Z</time>
      </trkpt>
      <trkpt lat="47.28155" lon="-2.39973">
        <ele>9</ele>
        <time>2020-08-16T09:46:10.000Z</time>
      </trkpt>
      <trkpt lat="47.2816" lon="-2.39905">
        <ele>9</ele>
        <time>2020-08-16T09:46:17.000Z</time>
      </trkpt>
      <trkpt lat="47.28166" lon="-2.39833">
        <ele>9</ele>
        <time>2020-08-16T09:46:24.000Z</time>
      </trkpt>
      <trkpt lat="47.28169" lon="-2.39762">
        <ele>9</ele>
        <time>2020-08-16T09:46:31.000Z</time>
      </trkpt>
      <trkpt lat="47.28173" lon="-2.39682">
        <ele>9</ele>
        <time>2020-08-16T09:46:39.000Z</time>
      </trkpt>
      <trkpt lat="47.28176" lon="-2.39623">
        <ele>9</ele>
        <time>2020-08-16T09:46:45.000Z</time>
      </trkpt>
      <trkpt lat="47.28176" lon="-2.39594">
        <ele>9.3999996185303</ele>
        <time>2020-08-16T09:46:48.000Z</time>
      </trkpt>
      <trkpt lat="47.28176" lon="-2.39584">
        <ele>9.8000001907349</ele>
        <time>2020-08-16T09:46:49.000Z</time>
      </trkpt>
      <trkpt lat="47.28177" lon="-2.39575">
        <ele>10.199999809265</ele>
        <time>2020-08-16T09:46:50.000Z</time>
      </trkpt>
      <trkpt lat="47.28177" lon="-2.39565">
        <ele>10.60000038147</ele>
        <time>2020-08-16T09:46:51.000Z</time>
      </trkpt>
      <trkpt lat="47.28177" lon="-2.39555">
        <ele>11</ele>
        <time>2020-08-16T09:46:52.000Z</time>
      </trkpt>
      <trkpt lat="47.28178" lon="-2.39536">
        <ele>11</ele>
        <time>2020-08-16T09:46:54.000Z</time>
      </trkpt>
      <trkpt lat="47.2818" lon="-2.39463">
        <ele>11</ele>
        <time>2020-08-16T09:47:02.000Z</time>
      </trkpt>
      <trkpt lat="47.28179" lon="-2.3938">
        <ele>11</ele>
        <time>2020-08-16T09:47:11.000Z</time>
      </trkpt>
      <trkpt lat="47.28179" lon="-2.39371">
        <ele>11</ele>
        <time>2020-08-16T09:47:12.000Z</time>
      </trkpt>
      <trkpt lat="47.28178" lon="-2.39294">
        <ele>11</ele>
        <time>2020-08-16T09:47:21.000Z</time>
      </trkpt>
      <trkpt lat="47.28177" lon="-2.39262">
        <ele>11</ele>
        <time>2020-08-16T09:47:26.000Z</time>
      </trkpt>
      <trkpt lat="47.28176" lon="-2.39249">
        <ele>11</ele>
        <time>2020-08-16T09:47:30.000Z</time>
      </trkpt>
      <trkpt lat="47.28176" lon="-2.39246">
        <ele>11</ele>
        <time>2020-08-16T09:48:01.000Z</time>
      </trkpt>
      <trkpt lat="47.28175" lon="-2.39239">
        <ele>11</ele>
        <time>2020-08-16T09:48:03.000Z</time>
      </trkpt>
      <trkpt lat="47.28173" lon="-2.39214">
        <ele>11</ele>
        <time>2020-08-16T09:48:07.000Z</time>
      </trkpt>
      <trkpt lat="47.28171" lon="-2.39153">
        <ele>11</ele>
        <time>2020-08-16T09:48:14.000Z</time>
      </trkpt>
      <trkpt lat="47.28166" lon="-2.39084">
        <ele>11</ele>
        <time>2020-08-16T09:48:21.000Z</time>
      </trkpt>
      <trkpt lat="47.2816" lon="-2.39015">
        <ele>11</ele>
        <time>2020-08-16T09:48:28.000Z</time>
      </trkpt>
      <trkpt lat="47.28147" lon="-2.38937">
        <ele>11</ele>
        <time>2020-08-16T09:48:36.000Z</time>
      </trkpt>
      <trkpt lat="47.28135" lon="-2.38879">
        <ele>11</ele>
        <time>2020-08-16T09:48:42.000Z</time>
      </trkpt>
      <trkpt lat="47.28126" lon="-2.38797">
        <ele>11</ele>
        <time>2020-08-16T09:48:50.000Z</time>
      </trkpt>
      <trkpt lat="47.28126" lon="-2.38787">
        <ele>11</ele>
        <time>2020-08-16T09:48:51.000Z</time>
      </trkpt>
      <trkpt lat="47.28119" lon="-2.38699">
        <ele>11</ele>
        <time>2020-08-16T09:49:00.000Z</time>
      </trkpt>
      <trkpt lat="47.28113" lon="-2.38633">
        <ele>11</ele>
        <time>2020-08-16T09:49:07.000Z</time>
      </trkpt>
      <trkpt lat="47.28105" lon="-2.38555">
        <ele>11</ele>
        <time>2020-08-16T09:49:15.000Z</time>
      </trkpt>
      <trkpt lat="47.28093" lon="-2.38475">
        <ele>11</ele>
        <time>2020-08-16T09:49:23.000Z</time>
      </trkpt>
      <trkpt lat="47.28079" lon="-2.38398">
        <ele>11</ele>
        <time>2020-08-16T09:49:31.000Z</time>
      </trkpt>
      <trkpt lat="47.28076" lon="-2.38387">
        <ele>11</ele>
        <time>2020-08-16T09:49:32.000Z</time>
      </trkpt>
      <trkpt lat="47.28064" lon="-2.38318">
        <ele>11</ele>
        <time>2020-08-16T09:49:39.000Z</time>
      </trkpt>
      <trkpt lat="47.28049" lon="-2.3824">
        <ele>11</ele>
        <time>2020-08-16T09:49:47.000Z</time>
      </trkpt>
      <trkpt lat="47.28037" lon="-2.38183">
        <ele>11</ele>
        <time>2020-08-16T09:49:53.000Z</time>
      </trkpt>
      <trkpt lat="47.28022" lon="-2.38109">
        <ele>11</ele>
        <time>2020-08-16T09:50:01.000Z</time>
      </trkpt>
      <trkpt lat="47.28011" lon="-2.38044">
        <ele>11</ele>
        <time>2020-08-16T09:50:08.000Z</time>
      </trkpt>
      <trkpt lat="47.27999" lon="-2.37979">
        <ele>11</ele>
        <time>2020-08-16T09:50:15.000Z</time>
      </trkpt>
      <trkpt lat="47.27984" lon="-2.37904">
        <ele>11</ele>
        <time>2020-08-16T09:50:23.000Z</time>
      </trkpt>
      <trkpt lat="47.27973" lon="-2.37839">
        <ele>11</ele>
        <time>2020-08-16T09:50:30.000Z</time>
      </trkpt>
      <trkpt lat="47.27972" lon="-2.3783">
        <ele>11</ele>
        <time>2020-08-16T09:50:31.000Z</time>
      </trkpt>
      <trkpt lat="47.27965" lon="-2.37804">
        <ele>11</ele>
        <time>2020-08-16T09:50:34.000Z</time>
      </trkpt>
      <trkpt lat="47.27964" lon="-2.37795">
        <ele>11</ele>
        <time>2020-08-16T09:50:35.000Z</time>
      </trkpt>
      <trkpt lat="47.27961" lon="-2.37776">
        <ele>11</ele>
        <time>2020-08-16T09:50:37.000Z</time>
      </trkpt>
      <trkpt lat="47.27954" lon="-2.3775">
        <ele>11</ele>
        <time>2020-08-16T09:50:40.000Z</time>
      </trkpt>
      <trkpt lat="47.27935" lon="-2.37675">
        <ele>11</ele>
        <time>2020-08-16T09:50:48.000Z</time>
      </trkpt>
      <trkpt lat="47.27927" lon="-2.37638">
        <ele>11.39999961853</ele>
        <time>2020-08-16T09:50:52.000Z</time>
      </trkpt>
      <trkpt lat="47.27925" lon="-2.37629">
        <ele>11.800000190735</ele>
        <time>2020-08-16T09:50:53.000Z</time>
      </trkpt>
      <trkpt lat="47.27923" lon="-2.37619">
        <ele>12.39999961853</ele>
        <time>2020-08-16T09:50:54.000Z</time>
      </trkpt>
      <trkpt lat="47.27922" lon="-2.37611">
        <ele>12.800000190735</ele>
        <time>2020-08-16T09:50:55.000Z</time>
      </trkpt>
      <trkpt lat="47.27919" lon="-2.37601">
        <ele>13.199999809265</ele>
        <time>2020-08-16T09:50:56.000Z</time>
      </trkpt>
      <trkpt lat="47.27918" lon="-2.37592">
        <ele>13.199999809265</ele>
        <time>2020-08-16T09:50:57.000Z</time>
      </trkpt>
      <trkpt lat="47.279" lon="-2.37517">
        <ele>13.199999809265</ele>
        <time>2020-08-16T09:51:05.000Z</time>
      </trkpt>
      <trkpt lat="47.27885" lon="-2.37463">
        <ele>13.199999809265</ele>
        <time>2020-08-16T09:51:11.000Z</time>
      </trkpt>
      <trkpt lat="47.27869" lon="-2.37388">
        <ele>13.199999809265</ele>
        <time>2020-08-16T09:51:19.000Z</time>
      </trkpt>
      <trkpt lat="47.27853" lon="-2.37334">
        <ele>13.199999809265</ele>
        <time>2020-08-16T09:51:25.000Z</time>
      </trkpt>
      <trkpt lat="47.27832" lon="-2.37254">
        <ele>13.199999809265</ele>
        <time>2020-08-16T09:51:34.000Z</time>
      </trkpt>
      <trkpt lat="47.27822" lon="-2.37211">
        <ele>13.199999809265</ele>
        <time>2020-08-16T09:51:39.000Z</time>
      </trkpt>
      <trkpt lat="47.27817" lon="-2.37194">
        <ele>13.199999809265</ele>
        <time>2020-08-16T09:51:41.000Z</time>
      </trkpt>
      <trkpt lat="47.27814" lon="-2.37177">
        <ele>13.199999809265</ele>
        <time>2020-08-16T09:51:43.000Z</time>
      </trkpt>
      <trkpt lat="47.27812" lon="-2.37169">
        <ele>13.199999809265</ele>
        <time>2020-08-16T09:51:44.000Z</time>
      </trkpt>
      <trkpt lat="47.27809" lon="-2.3716">
        <ele>13.199999809265</ele>
        <time>2020-08-16T09:51:45.000Z</time>
      </trkpt>
      <trkpt lat="47.27792" lon="-2.371">
        <ele>13.199999809265</ele>
        <time>2020-08-16T09:51:52.000Z</time>
      </trkpt>
      <trkpt lat="47.27773" lon="-2.37029">
        <ele>13.199999809265</ele>
        <time>2020-08-16T09:52:00.000Z</time>
      </trkpt>
      <trkpt lat="47.27751" lon="-2.36949">
        <ele>13.199999809265</ele>
        <time>2020-08-16T09:52:09.000Z</time>
      </trkpt>
      <trkpt lat="47.27742" lon="-2.36923">
        <ele>13.199999809265</ele>
        <time>2020-08-16T09:52:12.000Z</time>
      </trkpt>
      <trkpt lat="47.27737" lon="-2.36906">
        <ele>13.199999809265</ele>
        <time>2020-08-16T09:52:14.000Z</time>
      </trkpt>
      <trkpt lat="47.27734" lon="-2.36898">
        <ele>13.199999809265</ele>
        <time>2020-08-16T09:52:15.000Z</time>
      </trkpt>
      <trkpt lat="47.27714" lon="-2.36827">
        <ele>13.199999809265</ele>
        <time>2020-08-16T09:52:23.000Z</time>
      </trkpt>
      <trkpt lat="47.27708" lon="-2.36807">
        <ele>13.199999809265</ele>
        <time>2020-08-16T09:52:27.000Z</time>
      </trkpt>
      <trkpt lat="47.27705" lon="-2.36796">
        <ele>13.199999809265</ele>
        <time>2020-08-16T09:52:31.000Z</time>
      </trkpt>
      <trkpt lat="47.27694" lon="-2.36764">
        <ele>13.199999809265</ele>
        <time>2020-08-16T09:52:37.000Z</time>
      </trkpt>
      <trkpt lat="47.27675" lon="-2.36707">
        <ele>13.199999809265</ele>
        <time>2020-08-16T09:52:45.000Z</time>
      </trkpt>
      <trkpt lat="47.27658" lon="-2.36657">
        <ele>13.199999809265</ele>
        <time>2020-08-16T09:52:53.000Z</time>
      </trkpt>
      <trkpt lat="47.27653" lon="-2.36643">
        <ele>13.199999809265</ele>
        <time>2020-08-16T09:52:57.000Z</time>
      </trkpt>
      <trkpt lat="47.27648" lon="-2.36628">
        <ele>13.199999809265</ele>
        <time>2020-08-16T09:53:03.000Z</time>
      </trkpt>
      <trkpt lat="47.27644" lon="-2.36616">
        <ele>13.199999809265</ele>
        <time>2020-08-16T09:53:05.000Z</time>
      </trkpt>
      <trkpt lat="47.27639" lon="-2.36603">
        <ele>13.199999809265</ele>
        <time>2020-08-16T09:53:07.000Z</time>
      </trkpt>
      <trkpt lat="47.27625" lon="-2.36564">
        <ele>13.199999809265</ele>
        <time>2020-08-16T09:53:12.000Z</time>
      </trkpt>
      <trkpt lat="47.27608" lon="-2.36516">
        <ele>13.199999809265</ele>
        <time>2020-08-16T09:53:18.000Z</time>
      </trkpt>
      <trkpt lat="47.27595" lon="-2.3648">
        <ele>13.199999809265</ele>
        <time>2020-08-16T09:53:23.000Z</time>
      </trkpt>
      <trkpt lat="47.27592" lon="-2.36473">
        <ele>13.199999809265</ele>
        <time>2020-08-16T09:53:24.000Z</time>
      </trkpt>
      <trkpt lat="47.2758" lon="-2.36439">
        <ele>13.199999809265</ele>
        <time>2020-08-16T09:53:28.000Z</time>
      </trkpt>
      <trkpt lat="47.27556" lon="-2.36379">
        <ele>13.199999809265</ele>
        <time>2020-08-16T09:53:35.000Z</time>
      </trkpt>
      <trkpt lat="47.27533" lon="-2.36315">
        <ele>13.199999809265</ele>
        <time>2020-08-16T09:53:42.000Z</time>
      </trkpt>
      <trkpt lat="47.27509" lon="-2.3625">
        <ele>13.199999809265</ele>
        <time>2020-08-16T09:53:49.000Z</time>
      </trkpt>
      <trkpt lat="47.27482" lon="-2.36181">
        <ele>13.199999809265</ele>
        <time>2020-08-16T09:53:57.000Z</time>
      </trkpt>
      <trkpt lat="47.27467" lon="-2.3614">
        <ele>13.199999809265</ele>
        <time>2020-08-16T09:54:02.000Z</time>
      </trkpt>
      <trkpt lat="47.27463" lon="-2.36124">
        <ele>13.199999809265</ele>
        <time>2020-08-16T09:54:04.000Z</time>
      </trkpt>
      <trkpt lat="47.27458" lon="-2.36109">
        <ele>13.199999809265</ele>
        <time>2020-08-16T09:54:06.000Z</time>
      </trkpt>
      <trkpt lat="47.27448" lon="-2.3609">
        <ele>13.199999809265</ele>
        <time>2020-08-16T09:54:09.000Z</time>
      </trkpt>
      <trkpt lat="47.27445" lon="-2.36083">
        <ele>13.199999809265</ele>
        <time>2020-08-16T09:54:10.000Z</time>
      </trkpt>
      <trkpt lat="47.27439" lon="-2.36064">
        <ele>13.199999809265</ele>
        <time>2020-08-16T09:54:13.000Z</time>
      </trkpt>
      <trkpt lat="47.2743" lon="-2.36043">
        <ele>13.199999809265</ele>
        <time>2020-08-16T09:54:17.000Z</time>
      </trkpt>
      <trkpt lat="47.27425" lon="-2.36034">
        <ele>13.199999809265</ele>
        <time>2020-08-16T09:54:19.000Z</time>
      </trkpt>
      <trkpt lat="47.27412" lon="-2.36002">
        <ele>13.199999809265</ele>
        <time>2020-08-16T09:54:26.000Z</time>
      </trkpt>
      <trkpt lat="47.27399" lon="-2.35971">
        <ele>13.199999809265</ele>
        <time>2020-08-16T09:54:33.000Z</time>
      </trkpt>
      <trkpt lat="47.27396" lon="-2.3596">
        <ele>13.199999809265</ele>
        <time>2020-08-16T09:54:35.000Z</time>
      </trkpt>
      <trkpt lat="47.27392" lon="-2.35949">
        <ele>13.199999809265</ele>
        <time>2020-08-16T09:54:37.000Z</time>
      </trkpt>
      <trkpt lat="47.2739" lon="-2.35943">
        <ele>13.199999809265</ele>
        <time>2020-08-16T09:54:38.000Z</time>
      </trkpt>
      <trkpt lat="47.27372" lon="-2.35898">
        <ele>13.199999809265</ele>
        <time>2020-08-16T09:54:45.000Z</time>
      </trkpt>
      <trkpt lat="47.27369" lon="-2.3589">
        <ele>12.800000190735</ele>
        <time>2020-08-16T09:54:46.000Z</time>
      </trkpt>
      <trkpt lat="47.27366" lon="-2.35882">
        <ele>12</ele>
        <time>2020-08-16T09:54:47.000Z</time>
      </trkpt>
      <trkpt lat="47.27363" lon="-2.35874">
        <ele>11.60000038147</ele>
        <time>2020-08-16T09:54:48.000Z</time>
      </trkpt>
      <trkpt lat="47.2736" lon="-2.35866">
        <ele>11.199999809265</ele>
        <time>2020-08-16T09:54:49.000Z</time>
      </trkpt>
      <trkpt lat="47.27356" lon="-2.35858">
        <ele>11.199999809265</ele>
        <time>2020-08-16T09:54:50.000Z</time>
      </trkpt>
      <trkpt lat="47.27329" lon="-2.35792">
        <ele>11.199999809265</ele>
        <time>2020-08-16T09:54:58.000Z</time>
      </trkpt>
      <trkpt lat="47.27327" lon="-2.35783">
        <ele>11.199999809265</ele>
        <time>2020-08-16T09:54:59.000Z</time>
      </trkpt>
      <trkpt lat="47.27318" lon="-2.35758">
        <ele>11.199999809265</ele>
        <time>2020-08-16T09:55:02.000Z</time>
      </trkpt>
      <trkpt lat="47.2731" lon="-2.35744">
        <ele>11.199999809265</ele>
        <time>2020-08-16T09:55:04.000Z</time>
      </trkpt>
      <trkpt lat="47.27306" lon="-2.35736">
        <ele>11.199999809265</ele>
        <time>2020-08-16T09:55:05.000Z</time>
      </trkpt>
      <trkpt lat="47.27297" lon="-2.35711">
        <ele>11.199999809265</ele>
        <time>2020-08-16T09:55:08.000Z</time>
      </trkpt>
      <trkpt lat="47.27294" lon="-2.35703">
        <ele>11.199999809265</ele>
        <time>2020-08-16T09:55:09.000Z</time>
      </trkpt>
      <trkpt lat="47.27279" lon="-2.35672">
        <ele>11.199999809265</ele>
        <time>2020-08-16T09:55:13.000Z</time>
      </trkpt>
      <trkpt lat="47.27275" lon="-2.35663">
        <ele>11.199999809265</ele>
        <time>2020-08-16T09:55:14.000Z</time>
      </trkpt>
      <trkpt lat="47.2726" lon="-2.3563">
        <ele>11.199999809265</ele>
        <time>2020-08-16T09:55:18.000Z</time>
      </trkpt>
      <trkpt lat="47.27227" lon="-2.35556">
        <ele>11.199999809265</ele>
        <time>2020-08-16T09:55:27.000Z</time>
      </trkpt>
      <trkpt lat="47.27224" lon="-2.35548">
        <ele>11.60000038147</ele>
        <time>2020-08-16T09:55:28.000Z</time>
      </trkpt>
      <trkpt lat="47.2722" lon="-2.3554">
        <ele>12</ele>
        <time>2020-08-16T09:55:29.000Z</time>
      </trkpt>
      <trkpt lat="47.27216" lon="-2.35532">
        <ele>12.39999961853</ele>
        <time>2020-08-16T09:55:30.000Z</time>
      </trkpt>
      <trkpt lat="47.27213" lon="-2.35524">
        <ele>12.800000190735</ele>
        <time>2020-08-16T09:55:31.000Z</time>
      </trkpt>
      <trkpt lat="47.27209" lon="-2.35516">
        <ele>13.199999809265</ele>
        <time>2020-08-16T09:55:32.000Z</time>
      </trkpt>
      <trkpt lat="47.27197" lon="-2.35493">
        <ele>13.199999809265</ele>
        <time>2020-08-16T09:55:35.000Z</time>
      </trkpt>
      <trkpt lat="47.27162" lon="-2.35423">
        <ele>13.199999809265</ele>
        <time>2020-08-16T09:55:44.000Z</time>
      </trkpt>
      <trkpt lat="47.27125" lon="-2.35357">
        <ele>13.199999809265</ele>
        <time>2020-08-16T09:55:53.000Z</time>
      </trkpt>
      <trkpt lat="47.27121" lon="-2.3535">
        <ele>13.199999809265</ele>
        <time>2020-08-16T09:55:54.000Z</time>
      </trkpt>
      <trkpt lat="47.27081" lon="-2.35287">
        <ele>13.199999809265</ele>
        <time>2020-08-16T09:56:03.000Z</time>
      </trkpt>
      <trkpt lat="47.27077" lon="-2.3528">
        <ele>13.199999809265</ele>
        <time>2020-08-16T09:56:04.000Z</time>
      </trkpt>
      <trkpt lat="47.27036" lon="-2.35216">
        <ele>13.199999809265</ele>
        <time>2020-08-16T09:56:13.000Z</time>
      </trkpt>
      <trkpt lat="47.27001" lon="-2.3516">
        <ele>13.199999809265</ele>
        <time>2020-08-16T09:56:21.000Z</time>
      </trkpt>
      <trkpt lat="47.26961" lon="-2.35097">
        <ele>13.199999809265</ele>
        <time>2020-08-16T09:56:30.000Z</time>
      </trkpt>
      <trkpt lat="47.26922" lon="-2.35035">
        <ele>13.199999809265</ele>
        <time>2020-08-16T09:56:39.000Z</time>
      </trkpt>
      <trkpt lat="47.26917" lon="-2.35029">
        <ele>13.199999809265</ele>
        <time>2020-08-16T09:56:40.000Z</time>
      </trkpt>
      <trkpt lat="47.26881" lon="-2.34975">
        <ele>13.199999809265</ele>
        <time>2020-08-16T09:56:48.000Z</time>
      </trkpt>
      <trkpt lat="47.2685" lon="-2.34928">
        <ele>13.199999809265</ele>
        <time>2020-08-16T09:56:55.000Z</time>
      </trkpt>
      <trkpt lat="47.26808" lon="-2.34867">
        <ele>13.199999809265</ele>
        <time>2020-08-16T09:57:05.000Z</time>
      </trkpt>
      <trkpt lat="47.26803" lon="-2.3486">
        <ele>13.199999809265</ele>
        <time>2020-08-16T09:57:06.000Z</time>
      </trkpt>
      <trkpt lat="47.2677" lon="-2.34816">
        <ele>13.199999809265</ele>
        <time>2020-08-16T09:57:13.000Z</time>
      </trkpt>
      <trkpt lat="47.2676" lon="-2.34804">
        <ele>13.199999809265</ele>
        <time>2020-08-16T09:57:15.000Z</time>
      </trkpt>
      <trkpt lat="47.26746" lon="-2.34784">
        <ele>13.199999809265</ele>
        <time>2020-08-16T09:57:18.000Z</time>
      </trkpt>
      <trkpt lat="47.26709" lon="-2.3474">
        <ele>13.199999809265</ele>
        <time>2020-08-16T09:57:25.000Z</time>
      </trkpt>
      <trkpt lat="47.26668" lon="-2.34689">
        <ele>13.199999809265</ele>
        <time>2020-08-16T09:57:33.000Z</time>
      </trkpt>
      <trkpt lat="47.26658" lon="-2.34676">
        <ele>13.199999809265</ele>
        <time>2020-08-16T09:57:35.000Z</time>
      </trkpt>
      <trkpt lat="47.26612" lon="-2.3462">
        <ele>13.199999809265</ele>
        <time>2020-08-16T09:57:44.000Z</time>
      </trkpt>
      <trkpt lat="47.26608" lon="-2.34613">
        <ele>13.199999809265</ele>
        <time>2020-08-16T09:57:45.000Z</time>
      </trkpt>
      <trkpt lat="47.26593" lon="-2.34593">
        <ele>13.199999809265</ele>
        <time>2020-08-16T09:57:48.000Z</time>
      </trkpt>
      <trkpt lat="47.26577" lon="-2.34577">
        <ele>13.199999809265</ele>
        <time>2020-08-16T09:57:51.000Z</time>
      </trkpt>
      <trkpt lat="47.26543" lon="-2.34543">
        <ele>13.199999809265</ele>
        <time>2020-08-16T09:57:58.000Z</time>
      </trkpt>
      <trkpt lat="47.26526" lon="-2.34527">
        <ele>13.199999809265</ele>
        <time>2020-08-16T09:58:02.000Z</time>
      </trkpt>
      <trkpt lat="47.26518" lon="-2.3452">
        <ele>13.199999809265</ele>
        <time>2020-08-16T09:58:04.000Z</time>
      </trkpt>
      <trkpt lat="47.2651" lon="-2.34515">
        <ele>13.199999809265</ele>
        <time>2020-08-16T09:58:06.000Z</time>
      </trkpt>
      <trkpt lat="47.26499" lon="-2.34506">
        <ele>13.199999809265</ele>
        <time>2020-08-16T09:58:09.000Z</time>
      </trkpt>
      <trkpt lat="47.26495" lon="-2.34504">
        <ele>12.800000190735</ele>
        <time>2020-08-16T09:58:10.000Z</time>
      </trkpt>
      <trkpt lat="47.26491" lon="-2.34501">
        <ele>12.39999961853</ele>
        <time>2020-08-16T09:58:11.000Z</time>
      </trkpt>
      <trkpt lat="47.26488" lon="-2.34498">
        <ele>12</ele>
        <time>2020-08-16T09:58:12.000Z</time>
      </trkpt>
      <trkpt lat="47.26485" lon="-2.34496">
        <ele>11.60000038147</ele>
        <time>2020-08-16T09:58:13.000Z</time>
      </trkpt>
      <trkpt lat="47.26481" lon="-2.34494">
        <ele>11.199999809265</ele>
        <time>2020-08-16T09:58:14.000Z</time>
      </trkpt>
      <trkpt lat="47.26475" lon="-2.34489">
        <ele>11.199999809265</ele>
        <time>2020-08-16T09:58:16.000Z</time>
      </trkpt>
      <trkpt lat="47.26454" lon="-2.34474">
        <ele>11.199999809265</ele>
        <time>2020-08-16T09:58:23.000Z</time>
      </trkpt>
      <trkpt lat="47.26439" lon="-2.34469">
        <ele>11.199999809265</ele>
        <time>2020-08-16T09:58:29.000Z</time>
      </trkpt>
      <trkpt lat="47.26439" lon="-2.34469">
        <ele>11.199999809265</ele>
        <time>2020-08-16T09:58:31.000Z</time>
      </trkpt>
      <trkpt lat="47.26439" lon="-2.34469">
        <ele>11.199999809265</ele>
        <time>2020-08-16T09:58:36.000Z</time>
      </trkpt>
      <trkpt lat="47.26437" lon="-2.34467">
        <ele>11.199999809265</ele>
        <time>2020-08-16T09:58:37.000Z</time>
      </trkpt>
      <trkpt lat="47.26426" lon="-2.3446">
        <ele>11.199999809265</ele>
        <time>2020-08-16T09:58:42.000Z</time>
      </trkpt>
      <trkpt lat="47.2641" lon="-2.34446">
        <ele>11.199999809265</ele>
        <time>2020-08-16T09:58:50.000Z</time>
      </trkpt>
      <trkpt lat="47.26398" lon="-2.34436">
        <ele>11.199999809265</ele>
        <time>2020-08-16T09:58:54.000Z</time>
      </trkpt>
      <trkpt lat="47.26373" lon="-2.34413">
        <ele>11.199999809265</ele>
        <time>2020-08-16T09:59:00.000Z</time>
      </trkpt>
      <trkpt lat="47.26339" lon="-2.34383">
        <ele>11.199999809265</ele>
        <time>2020-08-16T09:59:07.000Z</time>
      </trkpt>
      <trkpt lat="47.26333" lon="-2.34381">
        <ele>11.199999809265</ele>
        <time>2020-08-16T09:59:08.000Z</time>
      </trkpt>
      <trkpt lat="47.26323" lon="-2.34375">
        <ele>11.199999809265</ele>
        <time>2020-08-16T09:59:10.000Z</time>
      </trkpt>
      <trkpt lat="47.26315" lon="-2.34362">
        <ele>11.199999809265</ele>
        <time>2020-08-16T09:59:12.000Z</time>
      </trkpt>
      <trkpt lat="47.26295" lon="-2.3434">
        <ele>11.199999809265</ele>
        <time>2020-08-16T09:59:16.000Z</time>
      </trkpt>
      <trkpt lat="47.26278" lon="-2.34323">
        <ele>11.199999809265</ele>
        <time>2020-08-16T09:59:19.000Z</time>
      </trkpt>
      <trkpt lat="47.26267" lon="-2.34312">
        <ele>11.199999809265</ele>
        <time>2020-08-16T09:59:21.000Z</time>
      </trkpt>
      <trkpt lat="47.26231" lon="-2.34273">
        <ele>11.199999809265</ele>
        <time>2020-08-16T09:59:28.000Z</time>
      </trkpt>
      <trkpt lat="47.26201" lon="-2.34242">
        <ele>11.199999809265</ele>
        <time>2020-08-16T09:59:34.000Z</time>
      </trkpt>
      <trkpt lat="47.26165" lon="-2.34206">
        <ele>11.199999809265</ele>
        <time>2020-08-16T09:59:41.000Z</time>
      </trkpt>
      <trkpt lat="47.26144" lon="-2.34187">
        <ele>11.199999809265</ele>
        <time>2020-08-16T09:59:45.000Z</time>
      </trkpt>
      <trkpt lat="47.26133" lon="-2.34181">
        <ele>11.199999809265</ele>
        <time>2020-08-16T09:59:47.000Z</time>
      </trkpt>
      <trkpt lat="47.26118" lon="-2.34166">
        <ele>11.199999809265</ele>
        <time>2020-08-16T09:59:50.000Z</time>
      </trkpt>
      <trkpt lat="47.26113" lon="-2.34162">
        <ele>11.199999809265</ele>
        <time>2020-08-16T09:59:51.000Z</time>
      </trkpt>
      <trkpt lat="47.26085" lon="-2.34148">
        <ele>11.199999809265</ele>
        <time>2020-08-16T09:59:56.000Z</time>
      </trkpt>
      <trkpt lat="47.26046" lon="-2.34128">
        <ele>11.199999809265</ele>
        <time>2020-08-16T10:00:03.000Z</time>
      </trkpt>
      <trkpt lat="47.26028" lon="-2.34119">
        <ele>11.199999809265</ele>
        <time>2020-08-16T10:00:07.000Z</time>
      </trkpt>
      <trkpt lat="47.25995" lon="-2.34103">
        <ele>11.199999809265</ele>
        <time>2020-08-16T10:00:13.000Z</time>
      </trkpt>
      <trkpt lat="47.25959" lon="-2.34087">
        <ele>11.199999809265</ele>
        <time>2020-08-16T10:00:20.000Z</time>
      </trkpt>
      <trkpt lat="47.25928" lon="-2.34075">
        <ele>11.199999809265</ele>
        <time>2020-08-16T10:00:26.000Z</time>
      </trkpt>
      <trkpt lat="47.25922" lon="-2.34075">
        <ele>11.199999809265</ele>
        <time>2020-08-16T10:00:27.000Z</time>
      </trkpt>
      <trkpt lat="47.25907" lon="-2.3409">
        <ele>11.199999809265</ele>
        <time>2020-08-16T10:00:30.000Z</time>
      </trkpt>
      <trkpt lat="47.25898" lon="-2.34104">
        <ele>11.199999809265</ele>
        <time>2020-08-16T10:00:32.000Z</time>
      </trkpt>
      <trkpt lat="47.25885" lon="-2.34135">
        <ele>11.199999809265</ele>
        <time>2020-08-16T10:00:36.000Z</time>
      </trkpt>
      <trkpt lat="47.25876" lon="-2.34161">
        <ele>11.199999809265</ele>
        <time>2020-08-16T10:00:40.000Z</time>
      </trkpt>
      <trkpt lat="47.25875" lon="-2.34164">
        <ele>10.800000190735</ele>
        <time>2020-08-16T10:00:41.000Z</time>
      </trkpt>
      <trkpt lat="47.25874" lon="-2.34167">
        <ele>10.39999961853</ele>
        <time>2020-08-16T10:00:42.000Z</time>
      </trkpt>
      <trkpt lat="47.25873" lon="-2.34169">
        <ele>10</ele>
        <time>2020-08-16T10:00:43.000Z</time>
      </trkpt>
      <trkpt lat="47.25871" lon="-2.3417">
        <ele>9.3999996185303</ele>
        <time>2020-08-16T10:00:44.000Z</time>
      </trkpt>
      <trkpt lat="47.2587" lon="-2.34169">
        <ele>9</ele>
        <time>2020-08-16T10:00:45.000Z</time>
      </trkpt>
      <trkpt lat="47.25862" lon="-2.34164">
        <ele>9</ele>
        <time>2020-08-16T10:00:48.000Z</time>
      </trkpt>
      <trkpt lat="47.25855" lon="-2.34161">
        <ele>9</ele>
        <time>2020-08-16T10:00:50.000Z</time>
      </trkpt>
      <trkpt lat="47.25842" lon="-2.34156">
        <ele>9</ele>
        <time>2020-08-16T10:00:54.000Z</time>
      </trkpt>
      <trkpt lat="47.25839" lon="-2.34158">
        <ele>9</ele>
        <time>2020-08-16T10:00:55.000Z</time>
      </trkpt>
      <trkpt lat="47.25835" lon="-2.34166">
        <ele>9</ele>
        <time>2020-08-16T10:00:57.000Z</time>
      </trkpt>
      <trkpt lat="47.25826" lon="-2.34179">
        <ele>9.6000003814697</ele>
        <time>2020-08-16T10:01:00.000Z</time>
      </trkpt>
      <trkpt lat="47.25821" lon="-2.3418">
        <ele>10</ele>
        <time>2020-08-16T10:01:01.000Z</time>
      </trkpt>
      <trkpt lat="47.25816" lon="-2.34179">
        <ele>10.39999961853</ele>
        <time>2020-08-16T10:01:02.000Z</time>
      </trkpt>
      <trkpt lat="47.25812" lon="-2.34179">
        <ele>10.800000190735</ele>
        <time>2020-08-16T10:01:03.000Z</time>
      </trkpt>
      <trkpt lat="47.25808" lon="-2.34179">
        <ele>11.199999809265</ele>
        <time>2020-08-16T10:01:04.000Z</time>
      </trkpt>
      <trkpt lat="47.25801" lon="-2.34178">
        <ele>11.199999809265</ele>
        <time>2020-08-16T10:01:07.000Z</time>
      </trkpt>
      <trkpt lat="47.258" lon="-2.34178">
        <ele>11.199999809265</ele>
        <time>2020-08-16T10:01:08.000Z</time>
      </trkpt>
      <trkpt lat="47.25786" lon="-2.34177">
        <ele>11.199999809265</ele>
        <time>2020-08-16T10:01:12.000Z</time>
      </trkpt>
      <trkpt lat="47.25781" lon="-2.34178">
        <ele>11.199999809265</ele>
        <time>2020-08-16T10:01:13.000Z</time>
      </trkpt>
      <trkpt lat="47.2576" lon="-2.34182">
        <ele>11.199999809265</ele>
        <time>2020-08-16T10:01:17.000Z</time>
      </trkpt>
      <trkpt lat="47.2573" lon="-2.34185">
        <ele>11.199999809265</ele>
        <time>2020-08-16T10:01:22.000Z</time>
      </trkpt>
      <trkpt lat="47.25693" lon="-2.34191">
        <ele>11.199999809265</ele>
        <time>2020-08-16T10:01:29.000Z</time>
      </trkpt>
      <trkpt lat="47.25673" lon="-2.34189">
        <ele>11.199999809265</ele>
        <time>2020-08-16T10:01:33.000Z</time>
      </trkpt>
      <trkpt lat="47.25669" lon="-2.34185">
        <ele>11.199999809265</ele>
        <time>2020-08-16T10:01:34.000Z</time>
      </trkpt>
      <trkpt lat="47.25659" lon="-2.34168">
        <ele>11.199999809265</ele>
        <time>2020-08-16T10:01:37.000Z</time>
      </trkpt>
      <trkpt lat="47.25656" lon="-2.34162">
        <ele>11.199999809265</ele>
        <time>2020-08-16T10:01:38.000Z</time>
      </trkpt>
      <trkpt lat="47.25642" lon="-2.34126">
        <ele>11.199999809265</ele>
        <time>2020-08-16T10:01:43.000Z</time>
      </trkpt>
      <trkpt lat="47.25641" lon="-2.34119">
        <ele>11.199999809265</ele>
        <time>2020-08-16T10:01:44.000Z</time>
      </trkpt>
      <trkpt lat="47.25638" lon="-2.34095">
        <ele>11.199999809265</ele>
        <time>2020-08-16T10:01:47.000Z</time>
      </trkpt>
      <trkpt lat="47.2564" lon="-2.3407">
        <ele>11.199999809265</ele>
        <time>2020-08-16T10:01:50.000Z</time>
      </trkpt>
      <trkpt lat="47.25641" lon="-2.34061">
        <ele>11.199999809265</ele>
        <time>2020-08-16T10:01:51.000Z</time>
      </trkpt>
      <trkpt lat="47.25651" lon="-2.34001">
        <ele>11.199999809265</ele>
        <time>2020-08-16T10:01:58.000Z</time>
      </trkpt>
      <trkpt lat="47.25657" lon="-2.3396">
        <ele>11.199999809265</ele>
        <time>2020-08-16T10:02:03.000Z</time>
      </trkpt>
      <trkpt lat="47.25658" lon="-2.33945">
        <ele>11.199999809265</ele>
        <time>2020-08-16T10:02:05.000Z</time>
      </trkpt>
      <trkpt lat="47.25656" lon="-2.33928">
        <ele>11.199999809265</ele>
        <time>2020-08-16T10:02:07.000Z</time>
      </trkpt>
      <trkpt lat="47.25652" lon="-2.33903">
        <ele>11.199999809265</ele>
        <time>2020-08-16T10:02:10.000Z</time>
      </trkpt>
      <trkpt lat="47.25649" lon="-2.33887">
        <ele>11.199999809265</ele>
        <time>2020-08-16T10:02:12.000Z</time>
      </trkpt>
      <trkpt lat="47.25644" lon="-2.33861">
        <ele>11.199999809265</ele>
        <time>2020-08-16T10:02:15.000Z</time>
      </trkpt>
      <trkpt lat="47.25633" lon="-2.33802">
        <ele>11.199999809265</ele>
        <time>2020-08-16T10:02:22.000Z</time>
      </trkpt>
      <trkpt lat="47.25626" lon="-2.33777">
        <ele>11.199999809265</ele>
        <time>2020-08-16T10:02:27.000Z</time>
      </trkpt>
      <trkpt lat="47.2562" lon="-2.33768">
        <ele>11.199999809265</ele>
        <time>2020-08-16T10:02:33.000Z</time>
      </trkpt>
      <trkpt lat="47.25605" lon="-2.33761">
        <ele>11.199999809265</ele>
        <time>2020-08-16T10:02:38.000Z</time>
      </trkpt>
      <trkpt lat="47.25591" lon="-2.3376">
        <ele>11.60000038147</ele>
        <time>2020-08-16T10:02:41.000Z</time>
      </trkpt>
      <trkpt lat="47.25585" lon="-2.3376">
        <ele>12</ele>
        <time>2020-08-16T10:02:42.000Z</time>
      </trkpt>
      <trkpt lat="47.25579" lon="-2.3376">
        <ele>12.39999961853</ele>
        <time>2020-08-16T10:02:43.000Z</time>
      </trkpt>
      <trkpt lat="47.25573" lon="-2.3376">
        <ele>12.800000190735</ele>
        <time>2020-08-16T10:02:44.000Z</time>
      </trkpt>
      <trkpt lat="47.25567" lon="-2.33759">
        <ele>13.199999809265</ele>
        <time>2020-08-16T10:02:45.000Z</time>
      </trkpt>
      <trkpt lat="47.25545" lon="-2.33759">
        <ele>13.199999809265</ele>
        <time>2020-08-16T10:02:49.000Z</time>
      </trkpt>
      <trkpt lat="47.25514" lon="-2.3376">
        <ele>13.199999809265</ele>
        <time>2020-08-16T10:02:54.000Z</time>
      </trkpt>
      <trkpt lat="47.25473" lon="-2.33752">
        <ele>13.199999809265</ele>
        <time>2020-08-16T10:03:00.000Z</time>
      </trkpt>
      <trkpt lat="47.25467" lon="-2.33749">
        <ele>13.199999809265</ele>
        <time>2020-08-16T10:03:01.000Z</time>
      </trkpt>
      <trkpt lat="47.25457" lon="-2.3374">
        <ele>13.199999809265</ele>
        <time>2020-08-16T10:03:03.000Z</time>
      </trkpt>
      <trkpt lat="47.25451" lon="-2.33726">
        <ele>13.199999809265</ele>
        <time>2020-08-16T10:03:05.000Z</time>
      </trkpt>
      <trkpt lat="47.25449" lon="-2.33702">
        <ele>13.199999809265</ele>
        <time>2020-08-16T10:03:08.000Z</time>
      </trkpt>
      <trkpt lat="47.25445" lon="-2.33663">
        <ele>13.199999809265</ele>
        <time>2020-08-16T10:03:13.000Z</time>
      </trkpt>
      <trkpt lat="47.2544" lon="-2.33635">
        <ele>13.199999809265</ele>
        <time>2020-08-16T10:03:17.000Z</time>
      </trkpt>
      <trkpt lat="47.25439" lon="-2.33628">
        <ele>13.199999809265</ele>
        <time>2020-08-16T10:03:18.000Z</time>
      </trkpt>
      <trkpt lat="47.25436" lon="-2.33589">
        <ele>13.199999809265</ele>
        <time>2020-08-16T10:03:24.000Z</time>
      </trkpt>
      <trkpt lat="47.25438" lon="-2.33585">
        <ele>13.199999809265</ele>
        <time>2020-08-16T10:03:25.000Z</time>
      </trkpt>
      <trkpt lat="47.25444" lon="-2.33582">
        <ele>13.199999809265</ele>
        <time>2020-08-16T10:03:27.000Z</time>
      </trkpt>
      <trkpt lat="47.25454" lon="-2.33576">
        <ele>13.199999809265</ele>
        <time>2020-08-16T10:03:30.000Z</time>
      </trkpt>
      <trkpt lat="47.25455" lon="-2.33571">
        <ele>13.199999809265</ele>
        <time>2020-08-16T10:03:31.000Z</time>
      </trkpt>
      <trkpt lat="47.25452" lon="-2.33554">
        <ele>13.199999809265</ele>
        <time>2020-08-16T10:03:34.000Z</time>
      </trkpt>
      <trkpt lat="47.25451" lon="-2.33547">
        <ele>13.199999809265</ele>
        <time>2020-08-16T10:03:35.000Z</time>
      </trkpt>
      <trkpt lat="47.25447" lon="-2.33521">
        <ele>13.199999809265</ele>
        <time>2020-08-16T10:03:39.000Z</time>
      </trkpt>
      <trkpt lat="47.2544" lon="-2.33487">
        <ele>13.199999809265</ele>
        <time>2020-08-16T10:03:44.000Z</time>
      </trkpt>
      <trkpt lat="47.25433" lon="-2.33459">
        <ele>13.199999809265</ele>
        <time>2020-08-16T10:03:48.000Z</time>
      </trkpt>
      <trkpt lat="47.25432" lon="-2.33443">
        <ele>13.199999809265</ele>
        <time>2020-08-16T10:03:50.000Z</time>
      </trkpt>
      <trkpt lat="47.25431" lon="-2.33394">
        <ele>13.199999809265</ele>
        <time>2020-08-16T10:03:56.000Z</time>
      </trkpt>
      <trkpt lat="47.25433" lon="-2.33336">
        <ele>13.199999809265</ele>
        <time>2020-08-16T10:04:03.000Z</time>
      </trkpt>
      <trkpt lat="47.25446" lon="-2.33299">
        <ele>13.199999809265</ele>
        <time>2020-08-16T10:04:08.000Z</time>
      </trkpt>
      <trkpt lat="47.25448" lon="-2.33291">
        <ele>13.199999809265</ele>
        <time>2020-08-16T10:04:09.000Z</time>
      </trkpt>
      <trkpt lat="47.25445" lon="-2.33275">
        <ele>13.199999809265</ele>
        <time>2020-08-16T10:04:11.000Z</time>
      </trkpt>
      <trkpt lat="47.2544" lon="-2.33261">
        <ele>13.199999809265</ele>
        <time>2020-08-16T10:04:13.000Z</time>
      </trkpt>
      <trkpt lat="47.25434" lon="-2.33247">
        <ele>13.199999809265</ele>
        <time>2020-08-16T10:04:15.000Z</time>
      </trkpt>
      <trkpt lat="47.25417" lon="-2.33207">
        <ele>13.199999809265</ele>
        <time>2020-08-16T10:04:21.000Z</time>
      </trkpt>
      <trkpt lat="47.25398" lon="-2.33161">
        <ele>13.199999809265</ele>
        <time>2020-08-16T10:04:28.000Z</time>
      </trkpt>
      <trkpt lat="47.25396" lon="-2.33156">
        <ele>13.199999809265</ele>
        <time>2020-08-16T10:04:29.000Z</time>
      </trkpt>
      <trkpt lat="47.25387" lon="-2.33144">
        <ele>13.199999809265</ele>
        <time>2020-08-16T10:04:32.000Z</time>
      </trkpt>
      <trkpt lat="47.25384" lon="-2.3314">
        <ele>13.199999809265</ele>
        <time>2020-08-16T10:04:33.000Z</time>
      </trkpt>
      <trkpt lat="47.25377" lon="-2.33121">
        <ele>13.199999809265</ele>
        <time>2020-08-16T10:04:37.000Z</time>
      </trkpt>
      <trkpt lat="47.25367" lon="-2.33095">
        <ele>13.199999809265</ele>
        <time>2020-08-16T10:04:44.000Z</time>
      </trkpt>
      <trkpt lat="47.25363" lon="-2.33092">
        <ele>13.199999809265</ele>
        <time>2020-08-16T10:04:48.000Z</time>
      </trkpt>
      <trkpt lat="47.25362" lon="-2.33092">
        <ele>13.199999809265</ele>
        <time>2020-08-16T10:04:49.000Z</time>
      </trkpt>
      <trkpt lat="47.25361" lon="-2.33085">
        <ele>11.199999809265</ele>
        <time>2020-08-16T10:17:19.000Z</time>
      </trkpt>
      <trkpt lat="47.2536" lon="-2.33079">
        <ele>11.199999809265</ele>
        <time>2020-08-16T10:17:21.000Z</time>
      </trkpt>
      <trkpt lat="47.25353" lon="-2.33065">
        <ele>11.199999809265</ele>
        <time>2020-08-16T10:17:25.000Z</time>
      </trkpt>
      <trkpt lat="47.25336" lon="-2.33017">
        <ele>11.199999809265</ele>
        <time>2020-08-16T10:17:34.000Z</time>
      </trkpt>
      <trkpt lat="47.25321" lon="-2.32976">
        <ele>11.199999809265</ele>
        <time>2020-08-16T10:17:41.000Z</time>
      </trkpt>
      <trkpt lat="47.25307" lon="-2.32937">
        <ele>11.199999809265</ele>
        <time>2020-08-16T10:17:48.000Z</time>
      </trkpt>
      <trkpt lat="47.25306" lon="-2.3293">
        <ele>11.199999809265</ele>
        <time>2020-08-16T10:17:49.000Z</time>
      </trkpt>
      <trkpt lat="47.25309" lon="-2.32919">
        <ele>11.199999809265</ele>
        <time>2020-08-16T10:17:51.000Z</time>
      </trkpt>
      <trkpt lat="47.25315" lon="-2.3291">
        <ele>11.199999809265</ele>
        <time>2020-08-16T10:17:53.000Z</time>
      </trkpt>
      <trkpt lat="47.25319" lon="-2.32906">
        <ele>11.199999809265</ele>
        <time>2020-08-16T10:17:54.000Z</time>
      </trkpt>
      <trkpt lat="47.25322" lon="-2.32902">
        <ele>11.199999809265</ele>
        <time>2020-08-16T10:17:55.000Z</time>
      </trkpt>
      <trkpt lat="47.25339" lon="-2.32889">
        <ele>11.199999809265</ele>
        <time>2020-08-16T10:17:59.000Z</time>
      </trkpt>
      <trkpt lat="47.25343" lon="-2.32885">
        <ele>11.199999809265</ele>
        <time>2020-08-16T10:18:00.000Z</time>
      </trkpt>
      <trkpt lat="47.25374" lon="-2.32855">
        <ele>11.199999809265</ele>
        <time>2020-08-16T10:18:08.000Z</time>
      </trkpt>
      <trkpt lat="47.25404" lon="-2.32819">
        <ele>11.199999809265</ele>
        <time>2020-08-16T10:18:16.000Z</time>
      </trkpt>
      <trkpt lat="47.25424" lon="-2.32787">
        <ele>11.199999809265</ele>
        <time>2020-08-16T10:18:23.000Z</time>
      </trkpt>
      <trkpt lat="47.25426" lon="-2.32782">
        <ele>11.60000038147</ele>
        <time>2020-08-16T10:18:24.000Z</time>
      </trkpt>
      <trkpt lat="47.25427" lon="-2.32776">
        <ele>12</ele>
        <time>2020-08-16T10:18:25.000Z</time>
      </trkpt>
      <trkpt lat="47.25429" lon="-2.32771">
        <ele>12.39999961853</ele>
        <time>2020-08-16T10:18:26.000Z</time>
      </trkpt>
      <trkpt lat="47.25432" lon="-2.32767">
        <ele>12.800000190735</ele>
        <time>2020-08-16T10:18:27.000Z</time>
      </trkpt>
      <trkpt lat="47.25435" lon="-2.32763">
        <ele>13.199999809265</ele>
        <time>2020-08-16T10:18:28.000Z</time>
      </trkpt>
      <trkpt lat="47.25453" lon="-2.32739">
        <ele>13.199999809265</ele>
        <time>2020-08-16T10:18:33.000Z</time>
      </trkpt>
      <trkpt lat="47.25466" lon="-2.32721">
        <ele>13.199999809265</ele>
        <time>2020-08-16T10:18:37.000Z</time>
      </trkpt>
      <trkpt lat="47.25473" lon="-2.32711">
        <ele>13.199999809265</ele>
        <time>2020-08-16T10:18:39.000Z</time>
      </trkpt>
      <trkpt lat="47.2548" lon="-2.32702">
        <ele>13.199999809265</ele>
        <time>2020-08-16T10:18:41.000Z</time>
      </trkpt>
      <trkpt lat="47.25487" lon="-2.32683">
        <ele>13.199999809265</ele>
        <time>2020-08-16T10:18:44.000Z</time>
      </trkpt>
      <trkpt lat="47.25488" lon="-2.32656">
        <ele>13.199999809265</ele>
        <time>2020-08-16T10:18:48.000Z</time>
      </trkpt>
      <trkpt lat="47.25487" lon="-2.3265">
        <ele>13.199999809265</ele>
        <time>2020-08-16T10:18:49.000Z</time>
      </trkpt>
      <trkpt lat="47.2548" lon="-2.3261">
        <ele>13.60000038147</ele>
        <time>2020-08-16T10:18:55.000Z</time>
      </trkpt>
      <trkpt lat="47.25479" lon="-2.32603">
        <ele>14</ele>
        <time>2020-08-16T10:18:56.000Z</time>
      </trkpt>
      <trkpt lat="47.25478" lon="-2.32596">
        <ele>14.39999961853</ele>
        <time>2020-08-16T10:18:57.000Z</time>
      </trkpt>
      <trkpt lat="47.25478" lon="-2.3259">
        <ele>14.800000190735</ele>
        <time>2020-08-16T10:18:58.000Z</time>
      </trkpt>
      <trkpt lat="47.25477" lon="-2.32583">
        <ele>15.199999809265</ele>
        <time>2020-08-16T10:18:59.000Z</time>
      </trkpt>
      <trkpt lat="47.25478" lon="-2.32571">
        <ele>15.199999809265</ele>
        <time>2020-08-16T10:19:01.000Z</time>
      </trkpt>
      <trkpt lat="47.2549" lon="-2.32552">
        <ele>15.199999809265</ele>
        <time>2020-08-16T10:19:05.000Z</time>
      </trkpt>
      <trkpt lat="47.25521" lon="-2.32522">
        <ele>15.199999809265</ele>
        <time>2020-08-16T10:19:12.000Z</time>
      </trkpt>
      <trkpt lat="47.25554" lon="-2.32492">
        <ele>15.199999809265</ele>
        <time>2020-08-16T10:19:18.000Z</time>
      </trkpt>
      <trkpt lat="47.25566" lon="-2.3248">
        <ele>14.800000190735</ele>
        <time>2020-08-16T10:19:20.000Z</time>
      </trkpt>
      <trkpt lat="47.25572" lon="-2.32474">
        <ele>14.39999961853</ele>
        <time>2020-08-16T10:19:21.000Z</time>
      </trkpt>
      <trkpt lat="47.25579" lon="-2.32468">
        <ele>14</ele>
        <time>2020-08-16T10:19:22.000Z</time>
      </trkpt>
      <trkpt lat="47.25585" lon="-2.32462">
        <ele>13.60000038147</ele>
        <time>2020-08-16T10:19:23.000Z</time>
      </trkpt>
      <trkpt lat="47.25591" lon="-2.32455">
        <ele>13.199999809265</ele>
        <time>2020-08-16T10:19:24.000Z</time>
      </trkpt>
      <trkpt lat="47.25598" lon="-2.32448">
        <ele>13.199999809265</ele>
        <time>2020-08-16T10:19:25.000Z</time>
      </trkpt>
      <trkpt lat="47.25631" lon="-2.32412">
        <ele>12.39999961853</ele>
        <time>2020-08-16T10:19:30.000Z</time>
      </trkpt>
      <trkpt lat="47.25638" lon="-2.32407">
        <ele>12</ele>
        <time>2020-08-16T10:19:31.000Z</time>
      </trkpt>
      <trkpt lat="47.25644" lon="-2.32404">
        <ele>11.39999961853</ele>
        <time>2020-08-16T10:19:32.000Z</time>
      </trkpt>
      <trkpt lat="47.2565" lon="-2.32402">
        <ele>11</ele>
        <time>2020-08-16T10:19:33.000Z</time>
      </trkpt>
      <trkpt lat="47.25662" lon="-2.32403">
        <ele>10.60000038147</ele>
        <time>2020-08-16T10:19:35.000Z</time>
      </trkpt>
      <trkpt lat="47.25668" lon="-2.32408">
        <ele>10.199999809265</ele>
        <time>2020-08-16T10:19:36.000Z</time>
      </trkpt>
      <trkpt lat="47.25673" lon="-2.32413">
        <ele>9.8000001907349</ele>
        <time>2020-08-16T10:19:37.000Z</time>
      </trkpt>
      <trkpt lat="47.25678" lon="-2.32416">
        <ele>9.3999996185303</ele>
        <time>2020-08-16T10:19:38.000Z</time>
      </trkpt>
      <trkpt lat="47.25684" lon="-2.32418">
        <ele>9</ele>
        <time>2020-08-16T10:19:39.000Z</time>
      </trkpt>
      <trkpt lat="47.25703" lon="-2.3242">
        <ele>9</ele>
        <time>2020-08-16T10:19:42.000Z</time>
      </trkpt>
      <trkpt lat="47.25747" lon="-2.32421">
        <ele>9</ele>
        <time>2020-08-16T10:19:49.000Z</time>
      </trkpt>
      <trkpt lat="47.25752" lon="-2.3242">
        <ele>9</ele>
        <time>2020-08-16T10:19:50.000Z</time>
      </trkpt>
      <trkpt lat="47.25764" lon="-2.32415">
        <ele>9</ele>
        <time>2020-08-16T10:19:53.000Z</time>
      </trkpt>
      <trkpt lat="47.25775" lon="-2.32412">
        <ele>9</ele>
        <time>2020-08-16T10:19:56.000Z</time>
      </trkpt>
      <trkpt lat="47.25779" lon="-2.32415">
        <ele>9</ele>
        <time>2020-08-16T10:19:57.000Z</time>
      </trkpt>
      <trkpt lat="47.25789" lon="-2.3243">
        <ele>9</ele>
        <time>2020-08-16T10:20:00.000Z</time>
      </trkpt>
      <trkpt lat="47.25793" lon="-2.32437">
        <ele>9</ele>
        <time>2020-08-16T10:20:01.000Z</time>
      </trkpt>
      <trkpt lat="47.25796" lon="-2.32443">
        <ele>9</ele>
        <time>2020-08-16T10:20:02.000Z</time>
      </trkpt>
      <trkpt lat="47.25812" lon="-2.32456">
        <ele>9</ele>
        <time>2020-08-16T10:20:05.000Z</time>
      </trkpt>
      <trkpt lat="47.25849" lon="-2.32472">
        <ele>9</ele>
        <time>2020-08-16T10:20:11.000Z</time>
      </trkpt>
      <trkpt lat="47.25862" lon="-2.32472">
        <ele>9</ele>
        <time>2020-08-16T10:20:13.000Z</time>
      </trkpt>
      <trkpt lat="47.25879" lon="-2.32469">
        <ele>9</ele>
        <time>2020-08-16T10:20:16.000Z</time>
      </trkpt>
      <trkpt lat="47.2589" lon="-2.32466">
        <ele>9</ele>
        <time>2020-08-16T10:20:18.000Z</time>
      </trkpt>
      <trkpt lat="47.25901" lon="-2.32458">
        <ele>9</ele>
        <time>2020-08-16T10:20:20.000Z</time>
      </trkpt>
      <trkpt lat="47.2591" lon="-2.32447">
        <ele>9</ele>
        <time>2020-08-16T10:20:22.000Z</time>
      </trkpt>
      <trkpt lat="47.25928" lon="-2.32423">
        <ele>9</ele>
        <time>2020-08-16T10:20:26.000Z</time>
      </trkpt>
      <trkpt lat="47.25952" lon="-2.32393">
        <ele>9</ele>
        <time>2020-08-16T10:20:32.000Z</time>
      </trkpt>
      <trkpt lat="47.25985" lon="-2.32349">
        <ele>9</ele>
        <time>2020-08-16T10:20:40.000Z</time>
      </trkpt>
      <trkpt lat="47.26015" lon="-2.32309">
        <ele>9</ele>
        <time>2020-08-16T10:20:47.000Z</time>
      </trkpt>
      <trkpt lat="47.26047" lon="-2.32272">
        <ele>9</ele>
        <time>2020-08-16T10:20:54.000Z</time>
      </trkpt>
      <trkpt lat="47.26065" lon="-2.32252">
        <ele>9</ele>
        <time>2020-08-16T10:20:58.000Z</time>
      </trkpt>
      <trkpt lat="47.26074" lon="-2.32242">
        <ele>9</ele>
        <time>2020-08-16T10:21:00.000Z</time>
      </trkpt>
      <trkpt lat="47.26082" lon="-2.32232">
        <ele>9</ele>
        <time>2020-08-16T10:21:02.000Z</time>
      </trkpt>
      <trkpt lat="47.26097" lon="-2.32208">
        <ele>9</ele>
        <time>2020-08-16T10:21:06.000Z</time>
      </trkpt>
      <trkpt lat="47.26101" lon="-2.32202">
        <ele>9</ele>
        <time>2020-08-16T10:21:07.000Z</time>
      </trkpt>
      <trkpt lat="47.26116" lon="-2.32168">
        <ele>9</ele>
        <time>2020-08-16T10:21:12.000Z</time>
      </trkpt>
      <trkpt lat="47.26131" lon="-2.32124">
        <ele>9</ele>
        <time>2020-08-16T10:21:18.000Z</time>
      </trkpt>
      <trkpt lat="47.26149" lon="-2.32061">
        <ele>9</ele>
        <time>2020-08-16T10:21:26.000Z</time>
      </trkpt>
      <trkpt lat="47.2616" lon="-2.32027">
        <ele>9</ele>
        <time>2020-08-16T10:21:31.000Z</time>
      </trkpt>
      <trkpt lat="47.26164" lon="-2.32022">
        <ele>9</ele>
        <time>2020-08-16T10:21:32.000Z</time>
      </trkpt>
      <trkpt lat="47.26176" lon="-2.32021">
        <ele>9</ele>
        <time>2020-08-16T10:21:35.000Z</time>
      </trkpt>
      <trkpt lat="47.26184" lon="-2.32023">
        <ele>8.3999996185303</ele>
        <time>2020-08-16T10:21:37.000Z</time>
      </trkpt>
      <trkpt lat="47.26187" lon="-2.32024">
        <ele>8</ele>
        <time>2020-08-16T10:21:38.000Z</time>
      </trkpt>
      <trkpt lat="47.26189" lon="-2.32025">
        <ele>7.5999999046326</ele>
        <time>2020-08-16T10:21:39.000Z</time>
      </trkpt>
      <trkpt lat="47.26192" lon="-2.32026">
        <ele>7.1999998092651</ele>
        <time>2020-08-16T10:21:40.000Z</time>
      </trkpt>
      <trkpt lat="47.26194" lon="-2.32026">
        <ele>6.8000001907349</ele>
        <time>2020-08-16T10:21:41.000Z</time>
      </trkpt>
      <trkpt lat="47.26197" lon="-2.3202">
        <ele>6.8000001907349</ele>
        <time>2020-08-16T10:21:43.000Z</time>
      </trkpt>
      <trkpt lat="47.26199" lon="-2.32012">
        <ele>6.8000001907349</ele>
        <time>2020-08-16T10:21:45.000Z</time>
      </trkpt>
      <trkpt lat="47.26203" lon="-2.32004">
        <ele>6.8000001907349</ele>
        <time>2020-08-16T10:21:48.000Z</time>
      </trkpt>
      <trkpt lat="47.26214" lon="-2.31991">
        <ele>6.8000001907349</ele>
        <time>2020-08-16T10:21:53.000Z</time>
      </trkpt>
      <trkpt lat="47.26227" lon="-2.31977">
        <ele>6.8000001907349</ele>
        <time>2020-08-16T10:21:58.000Z</time>
      </trkpt>
      <trkpt lat="47.26237" lon="-2.3196">
        <ele>6.8000001907349</ele>
        <time>2020-08-16T10:22:02.000Z</time>
      </trkpt>
      <trkpt lat="47.26244" lon="-2.31943">
        <ele>6.8000001907349</ele>
        <time>2020-08-16T10:22:06.000Z</time>
      </trkpt>
      <trkpt lat="47.26254" lon="-2.31928">
        <ele>6.8000001907349</ele>
        <time>2020-08-16T10:22:10.000Z</time>
      </trkpt>
      <trkpt lat="47.26268" lon="-2.3191">
        <ele>6.8000001907349</ele>
        <time>2020-08-16T10:22:14.000Z</time>
      </trkpt>
      <trkpt lat="47.26272" lon="-2.31907">
        <ele>6.8000001907349</ele>
        <time>2020-08-16T10:22:15.000Z</time>
      </trkpt>
      <trkpt lat="47.26288" lon="-2.31888">
        <ele>6.8000001907349</ele>
        <time>2020-08-16T10:22:20.000Z</time>
      </trkpt>
      <trkpt lat="47.26294" lon="-2.31855">
        <ele>6.8000001907349</ele>
        <time>2020-08-16T10:22:25.000Z</time>
      </trkpt>
      <trkpt lat="47.26297" lon="-2.31819">
        <ele>6.8000001907349</ele>
        <time>2020-08-16T10:22:31.000Z</time>
      </trkpt>
      <trkpt lat="47.26302" lon="-2.31786">
        <ele>6.8000001907349</ele>
        <time>2020-08-16T10:22:36.000Z</time>
      </trkpt>
      <trkpt lat="47.26303" lon="-2.31772">
        <ele>6.8000001907349</ele>
        <time>2020-08-16T10:22:38.000Z</time>
      </trkpt>
      <trkpt lat="47.26301" lon="-2.31745">
        <ele>6.8000001907349</ele>
        <time>2020-08-16T10:22:42.000Z</time>
      </trkpt>
      <trkpt lat="47.263" lon="-2.31738">
        <ele>7.1999998092651</ele>
        <time>2020-08-16T10:22:43.000Z</time>
      </trkpt>
      <trkpt lat="47.263" lon="-2.31731">
        <ele>7.5999999046326</ele>
        <time>2020-08-16T10:22:44.000Z</time>
      </trkpt>
      <trkpt lat="47.26301" lon="-2.31724">
        <ele>8</ele>
        <time>2020-08-16T10:22:45.000Z</time>
      </trkpt>
      <trkpt lat="47.26303" lon="-2.3172">
        <ele>8.3999996185303</ele>
        <time>2020-08-16T10:22:46.000Z</time>
      </trkpt>
      <trkpt lat="47.26307" lon="-2.31718">
        <ele>8.8000001907349</ele>
        <time>2020-08-16T10:22:47.000Z</time>
      </trkpt>
      <trkpt lat="47.26311" lon="-2.31716">
        <ele>8.8000001907349</ele>
        <time>2020-08-16T10:22:48.000Z</time>
      </trkpt>
      <trkpt lat="47.26318" lon="-2.31712">
        <ele>8.8000001907349</ele>
        <time>2020-08-16T10:22:50.000Z</time>
      </trkpt>
      <trkpt lat="47.2633" lon="-2.31702">
        <ele>8.8000001907349</ele>
        <time>2020-08-16T10:22:53.000Z</time>
      </trkpt>
      <trkpt lat="47.26332" lon="-2.31697">
        <ele>8.8000001907349</ele>
        <time>2020-08-16T10:22:54.000Z</time>
      </trkpt>
      <trkpt lat="47.26339" lon="-2.31688">
        <ele>8.8000001907349</ele>
        <time>2020-08-16T10:22:57.000Z</time>
      </trkpt>
      <trkpt lat="47.26343" lon="-2.31687">
        <ele>8.8000001907349</ele>
        <time>2020-08-16T10:22:58.000Z</time>
      </trkpt>
      <trkpt lat="47.26346" lon="-2.31685">
        <ele>9.1999998092651</ele>
        <time>2020-08-16T10:22:59.000Z</time>
      </trkpt>
      <trkpt lat="47.26349" lon="-2.31683">
        <ele>9.6000003814697</ele>
        <time>2020-08-16T10:23:00.000Z</time>
      </trkpt>
      <trkpt lat="47.26352" lon="-2.31682">
        <ele>10</ele>
        <time>2020-08-16T10:23:01.000Z</time>
      </trkpt>
      <trkpt lat="47.26355" lon="-2.3168">
        <ele>10.39999961853</ele>
        <time>2020-08-16T10:23:02.000Z</time>
      </trkpt>
      <trkpt lat="47.26359" lon="-2.31679">
        <ele>10.800000190735</ele>
        <time>2020-08-16T10:23:03.000Z</time>
      </trkpt>
      <trkpt lat="47.26379" lon="-2.31669">
        <ele>10.800000190735</ele>
        <time>2020-08-16T10:23:09.000Z</time>
      </trkpt>
      <trkpt lat="47.26395" lon="-2.31658">
        <ele>10.800000190735</ele>
        <time>2020-08-16T10:23:15.000Z</time>
      </trkpt>
      <trkpt lat="47.26408" lon="-2.31649">
        <ele>10.800000190735</ele>
        <time>2020-08-16T10:23:20.000Z</time>
      </trkpt>
      <trkpt lat="47.26409" lon="-2.31646">
        <ele>10.800000190735</ele>
        <time>2020-08-16T10:23:21.000Z</time>
      </trkpt>
      <trkpt lat="47.2641" lon="-2.31628">
        <ele>10.800000190735</ele>
        <time>2020-08-16T10:23:25.000Z</time>
      </trkpt>
      <trkpt lat="47.2641" lon="-2.31619">
        <ele>10.800000190735</ele>
        <time>2020-08-16T10:23:27.000Z</time>
      </trkpt>
      <trkpt lat="47.2641" lon="-2.31614">
        <ele>11.199999809265</ele>
        <time>2020-08-16T10:23:28.000Z</time>
      </trkpt>
      <trkpt lat="47.2641" lon="-2.31609">
        <ele>11.60000038147</ele>
        <time>2020-08-16T10:23:29.000Z</time>
      </trkpt>
      <trkpt lat="47.26409" lon="-2.31604">
        <ele>12</ele>
        <time>2020-08-16T10:23:30.000Z</time>
      </trkpt>
      <trkpt lat="47.26409" lon="-2.316">
        <ele>12.39999961853</ele>
        <time>2020-08-16T10:23:31.000Z</time>
      </trkpt>
      <trkpt lat="47.26409" lon="-2.31595">
        <ele>12.800000190735</ele>
        <time>2020-08-16T10:23:32.000Z</time>
      </trkpt>
      <trkpt lat="47.26408" lon="-2.31583">
        <ele>12.800000190735</ele>
        <time>2020-08-16T10:23:35.000Z</time>
      </trkpt>
      <trkpt lat="47.26405" lon="-2.31565">
        <ele>12.800000190735</ele>
        <time>2020-08-16T10:23:40.000Z</time>
      </trkpt>
      <trkpt lat="47.26409" lon="-2.31553">
        <ele>12.800000190735</ele>
        <time>2020-08-16T10:23:45.000Z</time>
      </trkpt>
      <trkpt lat="47.26417" lon="-2.31552">
        <ele>12.800000190735</ele>
        <time>2020-08-16T10:23:49.000Z</time>
      </trkpt>
      <trkpt lat="47.26417" lon="-2.31552">
        <ele>12.800000190735</ele>
        <time>2020-08-16T10:23:50.000Z</time>
      </trkpt>
      <trkpt lat="47.26417" lon="-2.31553">
        <ele>12.800000190735</ele>
        <time>2020-08-16T10:23:51.000Z</time>
      </trkpt>
    </trkseg>
  </trk>
</gpx>